<?xml version="1.0" encoding="UTF-8" standalone="no" ?>
<gpx xmlns="http://www.topografix.com/GPX/1/1" xmlns:xsi="http://www.w3.org/2001/XMLSchema-instance" xsi:schemaLocation="http://www.topografix.com/GPX/1/1 http://www.topografix.com/GPX/1/1/gpx.xsd" version="1.1" creator="VisuGPX - https://www.visugpx.com">
  <metadata>
    <name>Ottrott - StO - Descente de Barr</name>
    <desc><![CDATA[Ottrott - Elsberg - StO - Jadelot - Descente de Barr - Landsberg - Moenkalb]]></desc>
  </metadata>
  <wpt lat="48.50063" lon="7.47465">
    <ele>187</ele>
    <name><![CDATA[Start]]></name>
    <desc><![CDATA[2017-02-18 07:27:52]]></desc>
  </wpt>
  <wpt lat="48.50061" lon="7.47464">
    <ele>187</ele>
    <name><![CDATA[Lap 1]]></name>
    <desc><![CDATA[36.53km, 177:02, 12.4kph]]></desc>
  </wpt>
  <trk>
    <name><![CDATA[18_02_2017 08_27_52_history]]></name>
    <desc><![CDATA[177:02 - 36.5km]]></desc>
    <trkseg>
      <trkpt lat="48.50063" lon="7.47465">
        <ele>187</ele>
        <time>2017-02-18T07:27:52Z</time>
      </trkpt>
      <trkpt lat="48.50063" lon="7.47465">
        <ele>187</ele>
        <time>2017-02-18T07:27:53Z</time>
      </trkpt>
      <trkpt lat="48.50063" lon="7.47463">
        <ele>187</ele>
        <time>2017-02-18T07:27:57Z</time>
      </trkpt>
      <trkpt lat="48.5006" lon="7.47451">
        <ele>187</ele>
        <time>2017-02-18T07:28:00Z</time>
      </trkpt>
      <trkpt lat="48.50039" lon="7.47378">
        <ele>189</ele>
        <time>2017-02-18T07:28:17Z</time>
      </trkpt>
      <trkpt lat="48.50025" lon="7.47334">
        <ele>190</ele>
        <time>2017-02-18T07:28:27Z</time>
      </trkpt>
      <trkpt lat="48.5001" lon="7.47297">
        <ele>191</ele>
        <time>2017-02-18T07:28:36Z</time>
      </trkpt>
      <trkpt lat="48.50003" lon="7.47281">
        <ele>191</ele>
        <time>2017-02-18T07:28:40Z</time>
      </trkpt>
      <trkpt lat="48.49994" lon="7.47258">
        <ele>191</ele>
        <time>2017-02-18T07:28:46Z</time>
      </trkpt>
      <trkpt lat="48.49976" lon="7.47219">
        <ele>193</ele>
        <time>2017-02-18T07:28:55Z</time>
      </trkpt>
      <trkpt lat="48.49954" lon="7.4717">
        <ele>194</ele>
        <time>2017-02-18T07:29:06Z</time>
      </trkpt>
      <trkpt lat="48.49936" lon="7.47133">
        <ele>195</ele>
        <time>2017-02-18T07:29:15Z</time>
      </trkpt>
      <trkpt lat="48.49932" lon="7.47125">
        <ele>195</ele>
        <time>2017-02-18T07:29:17Z</time>
      </trkpt>
      <trkpt lat="48.4993" lon="7.47121">
        <ele>195</ele>
        <time>2017-02-18T07:29:18Z</time>
      </trkpt>
      <trkpt lat="48.4991" lon="7.47078">
        <ele>195</ele>
        <time>2017-02-18T07:29:28Z</time>
      </trkpt>
      <trkpt lat="48.49886" lon="7.47033">
        <ele>196</ele>
        <time>2017-02-18T07:29:40Z</time>
      </trkpt>
      <trkpt lat="48.49884" lon="7.47028">
        <ele>196</ele>
        <time>2017-02-18T07:29:41Z</time>
      </trkpt>
      <trkpt lat="48.49882" lon="7.47019">
        <ele>196</ele>
        <time>2017-02-18T07:29:43Z</time>
      </trkpt>
      <trkpt lat="48.49865" lon="7.46997">
        <ele>197</ele>
        <time>2017-02-18T07:29:49Z</time>
      </trkpt>
      <trkpt lat="48.49854" lon="7.46976">
        <ele>198</ele>
        <time>2017-02-18T07:29:55Z</time>
      </trkpt>
      <trkpt lat="48.49852" lon="7.46966">
        <ele>198</ele>
        <time>2017-02-18T07:30:01Z</time>
      </trkpt>
      <trkpt lat="48.49852" lon="7.46966">
        <ele>198</ele>
        <time>2017-02-18T07:30:03Z</time>
      </trkpt>
      <trkpt lat="48.49852" lon="7.46961">
        <ele>198</ele>
        <time>2017-02-18T07:32:00Z</time>
      </trkpt>
      <trkpt lat="48.49844" lon="7.46927">
        <ele>198</ele>
        <time>2017-02-18T07:32:09Z</time>
      </trkpt>
      <trkpt lat="48.49838" lon="7.46899">
        <ele>198</ele>
        <time>2017-02-18T07:32:17Z</time>
      </trkpt>
      <trkpt lat="48.49836" lon="7.46898">
        <ele>198</ele>
        <time>2017-02-18T07:32:18Z</time>
      </trkpt>
      <trkpt lat="48.49831" lon="7.46898">
        <ele>198</ele>
        <time>2017-02-18T07:32:20Z</time>
      </trkpt>
      <trkpt lat="48.49828" lon="7.46897">
        <ele>198</ele>
        <time>2017-02-18T07:32:21Z</time>
      </trkpt>
      <trkpt lat="48.49826" lon="7.46894">
        <ele>198</ele>
        <time>2017-02-18T07:32:22Z</time>
      </trkpt>
      <trkpt lat="48.49821" lon="7.46881">
        <ele>198</ele>
        <time>2017-02-18T07:32:25Z</time>
      </trkpt>
      <trkpt lat="48.49811" lon="7.46847">
        <ele>198</ele>
        <time>2017-02-18T07:32:32Z</time>
      </trkpt>
      <trkpt lat="48.49806" lon="7.46831">
        <ele>198</ele>
        <time>2017-02-18T07:32:35Z</time>
      </trkpt>
      <trkpt lat="48.49789" lon="7.46772">
        <ele>199</ele>
        <time>2017-02-18T07:32:46Z</time>
      </trkpt>
      <trkpt lat="48.49779" lon="7.46733">
        <ele>200</ele>
        <time>2017-02-18T07:32:54Z</time>
      </trkpt>
      <trkpt lat="48.49762" lon="7.46681">
        <ele>200</ele>
        <time>2017-02-18T07:33:05Z</time>
      </trkpt>
      <trkpt lat="48.49748" lon="7.46638">
        <ele>199</ele>
        <time>2017-02-18T07:33:13Z</time>
      </trkpt>
      <trkpt lat="48.49737" lon="7.46616">
        <ele>199</ele>
        <time>2017-02-18T07:33:18Z</time>
      </trkpt>
      <trkpt lat="48.49711" lon="7.46575">
        <ele>199</ele>
        <time>2017-02-18T07:33:27Z</time>
      </trkpt>
      <trkpt lat="48.49684" lon="7.46536">
        <ele>199</ele>
        <time>2017-02-18T07:33:35Z</time>
      </trkpt>
      <trkpt lat="48.49665" lon="7.46492">
        <ele>199</ele>
        <time>2017-02-18T07:33:43Z</time>
      </trkpt>
      <trkpt lat="48.4964" lon="7.4644">
        <ele>199</ele>
        <time>2017-02-18T07:33:52Z</time>
      </trkpt>
      <trkpt lat="48.49637" lon="7.46414">
        <ele>200</ele>
        <time>2017-02-18T07:33:56Z</time>
      </trkpt>
      <trkpt lat="48.49637" lon="7.46407">
        <ele>200</ele>
        <time>2017-02-18T07:33:57Z</time>
      </trkpt>
      <trkpt lat="48.49632" lon="7.46356">
        <ele>200</ele>
        <time>2017-02-18T07:34:06Z</time>
      </trkpt>
      <trkpt lat="48.49631" lon="7.46345">
        <ele>200</ele>
        <time>2017-02-18T07:34:08Z</time>
      </trkpt>
      <trkpt lat="48.4963" lon="7.46334">
        <ele>200</ele>
        <time>2017-02-18T07:34:10Z</time>
      </trkpt>
      <trkpt lat="48.4963" lon="7.46329">
        <ele>201</ele>
        <time>2017-02-18T07:34:11Z</time>
      </trkpt>
      <trkpt lat="48.49626" lon="7.46305">
        <ele>201</ele>
        <time>2017-02-18T07:34:15Z</time>
      </trkpt>
      <trkpt lat="48.4962" lon="7.46271">
        <ele>201</ele>
        <time>2017-02-18T07:34:21Z</time>
      </trkpt>
      <trkpt lat="48.49618" lon="7.46253">
        <ele>201</ele>
        <time>2017-02-18T07:34:24Z</time>
      </trkpt>
      <trkpt lat="48.49616" lon="7.46248">
        <ele>203</ele>
        <time>2017-02-18T07:34:25Z</time>
      </trkpt>
      <trkpt lat="48.49614" lon="7.46243">
        <ele>203</ele>
        <time>2017-02-18T07:34:26Z</time>
      </trkpt>
      <trkpt lat="48.49609" lon="7.46234">
        <ele>203</ele>
        <time>2017-02-18T07:34:28Z</time>
      </trkpt>
      <trkpt lat="48.4959" lon="7.46219">
        <ele>203</ele>
        <time>2017-02-18T07:34:33Z</time>
      </trkpt>
      <trkpt lat="48.49573" lon="7.46219">
        <ele>202</ele>
        <time>2017-02-18T07:34:37Z</time>
      </trkpt>
      <trkpt lat="48.49564" lon="7.46222">
        <ele>202</ele>
        <time>2017-02-18T07:34:39Z</time>
      </trkpt>
      <trkpt lat="48.49554" lon="7.46228">
        <ele>201</ele>
        <time>2017-02-18T07:34:41Z</time>
      </trkpt>
      <trkpt lat="48.49518" lon="7.46242">
        <ele>199</ele>
        <time>2017-02-18T07:34:47Z</time>
      </trkpt>
      <trkpt lat="48.49505" lon="7.46246">
        <ele>198</ele>
        <time>2017-02-18T07:34:50Z</time>
      </trkpt>
      <trkpt lat="48.49501" lon="7.46245">
        <ele>198</ele>
        <time>2017-02-18T07:34:51Z</time>
      </trkpt>
      <trkpt lat="48.495" lon="7.46243">
        <ele>197</ele>
        <time>2017-02-18T07:34:52Z</time>
      </trkpt>
      <trkpt lat="48.49497" lon="7.46239">
        <ele>197</ele>
        <time>2017-02-18T07:34:53Z</time>
      </trkpt>
      <trkpt lat="48.49496" lon="7.46234">
        <ele>197</ele>
        <time>2017-02-18T07:34:54Z</time>
      </trkpt>
      <trkpt lat="48.49492" lon="7.46207">
        <ele>198</ele>
        <time>2017-02-18T07:34:59Z</time>
      </trkpt>
      <trkpt lat="48.49485" lon="7.46174">
        <ele>199</ele>
        <time>2017-02-18T07:35:05Z</time>
      </trkpt>
      <trkpt lat="48.49473" lon="7.46131">
        <ele>199</ele>
        <time>2017-02-18T07:35:13Z</time>
      </trkpt>
      <trkpt lat="48.49467" lon="7.46105">
        <ele>199</ele>
        <time>2017-02-18T07:35:18Z</time>
      </trkpt>
      <trkpt lat="48.49465" lon="7.46094">
        <ele>199</ele>
        <time>2017-02-18T07:35:20Z</time>
      </trkpt>
      <trkpt lat="48.49463" lon="7.46088">
        <ele>199</ele>
        <time>2017-02-18T07:35:21Z</time>
      </trkpt>
      <trkpt lat="48.49461" lon="7.46083">
        <ele>200</ele>
        <time>2017-02-18T07:35:22Z</time>
      </trkpt>
      <trkpt lat="48.49458" lon="7.4608">
        <ele>199</ele>
        <time>2017-02-18T07:35:23Z</time>
      </trkpt>
      <trkpt lat="48.49436" lon="7.4607">
        <ele>199</ele>
        <time>2017-02-18T07:35:29Z</time>
      </trkpt>
      <trkpt lat="48.49413" lon="7.46072">
        <ele>197</ele>
        <time>2017-02-18T07:35:34Z</time>
      </trkpt>
      <trkpt lat="48.49373" lon="7.46073">
        <ele>195</ele>
        <time>2017-02-18T07:35:42Z</time>
      </trkpt>
      <trkpt lat="48.49368" lon="7.46073">
        <ele>195</ele>
        <time>2017-02-18T07:35:43Z</time>
      </trkpt>
      <trkpt lat="48.49301" lon="7.46075">
        <ele>194</ele>
        <time>2017-02-18T07:35:57Z</time>
      </trkpt>
      <trkpt lat="48.49271" lon="7.46074">
        <ele>195</ele>
        <time>2017-02-18T07:36:04Z</time>
      </trkpt>
      <trkpt lat="48.49237" lon="7.4607">
        <ele>196</ele>
        <time>2017-02-18T07:36:12Z</time>
      </trkpt>
      <trkpt lat="48.49212" lon="7.46057">
        <ele>197</ele>
        <time>2017-02-18T07:36:19Z</time>
      </trkpt>
      <trkpt lat="48.49209" lon="7.46053">
        <ele>197</ele>
        <time>2017-02-18T07:36:20Z</time>
      </trkpt>
      <trkpt lat="48.49205" lon="7.46044">
        <ele>197</ele>
        <time>2017-02-18T07:36:22Z</time>
      </trkpt>
      <trkpt lat="48.49199" lon="7.46038">
        <ele>197</ele>
        <time>2017-02-18T07:36:24Z</time>
      </trkpt>
      <trkpt lat="48.49179" lon="7.46026">
        <ele>198</ele>
        <time>2017-02-18T07:36:30Z</time>
      </trkpt>
      <trkpt lat="48.49167" lon="7.46014">
        <ele>199</ele>
        <time>2017-02-18T07:36:34Z</time>
      </trkpt>
      <trkpt lat="48.49146" lon="7.45988">
        <ele>201</ele>
        <time>2017-02-18T07:36:42Z</time>
      </trkpt>
      <trkpt lat="48.49136" lon="7.45973">
        <ele>202</ele>
        <time>2017-02-18T07:36:46Z</time>
      </trkpt>
      <trkpt lat="48.49121" lon="7.45946">
        <ele>202</ele>
        <time>2017-02-18T07:36:53Z</time>
      </trkpt>
      <trkpt lat="48.49119" lon="7.45942">
        <ele>202</ele>
        <time>2017-02-18T07:36:54Z</time>
      </trkpt>
      <trkpt lat="48.49117" lon="7.45937">
        <ele>202</ele>
        <time>2017-02-18T07:36:55Z</time>
      </trkpt>
      <trkpt lat="48.49089" lon="7.45874">
        <ele>204</ele>
        <time>2017-02-18T07:37:10Z</time>
      </trkpt>
      <trkpt lat="48.49083" lon="7.45863">
        <ele>206</ele>
        <time>2017-02-18T07:37:13Z</time>
      </trkpt>
      <trkpt lat="48.49071" lon="7.45837">
        <ele>206</ele>
        <time>2017-02-18T07:37:20Z</time>
      </trkpt>
      <trkpt lat="48.49065" lon="7.45828">
        <ele>207</ele>
        <time>2017-02-18T07:37:23Z</time>
      </trkpt>
      <trkpt lat="48.49049" lon="7.45805">
        <ele>207</ele>
        <time>2017-02-18T07:37:30Z</time>
      </trkpt>
      <trkpt lat="48.49034" lon="7.45793">
        <ele>208</ele>
        <time>2017-02-18T07:37:36Z</time>
      </trkpt>
      <trkpt lat="48.4903" lon="7.45792">
        <ele>208</ele>
        <time>2017-02-18T07:37:38Z</time>
      </trkpt>
      <trkpt lat="48.49025" lon="7.4579">
        <ele>208</ele>
        <time>2017-02-18T07:37:40Z</time>
      </trkpt>
      <trkpt lat="48.49022" lon="7.4579">
        <ele>208</ele>
        <time>2017-02-18T07:37:41Z</time>
      </trkpt>
      <trkpt lat="48.48996" lon="7.4578">
        <ele>209</ele>
        <time>2017-02-18T07:37:50Z</time>
      </trkpt>
      <trkpt lat="48.48966" lon="7.4576">
        <ele>209</ele>
        <time>2017-02-18T07:38:00Z</time>
      </trkpt>
      <trkpt lat="48.48936" lon="7.45741">
        <ele>211</ele>
        <time>2017-02-18T07:38:10Z</time>
      </trkpt>
      <trkpt lat="48.48882" lon="7.4571">
        <ele>213</ele>
        <time>2017-02-18T07:38:27Z</time>
      </trkpt>
      <trkpt lat="48.48872" lon="7.45703">
        <ele>213</ele>
        <time>2017-02-18T07:38:30Z</time>
      </trkpt>
      <trkpt lat="48.48842" lon="7.45686">
        <ele>213</ele>
        <time>2017-02-18T07:38:39Z</time>
      </trkpt>
      <trkpt lat="48.48821" lon="7.45671">
        <ele>214</ele>
        <time>2017-02-18T07:38:46Z</time>
      </trkpt>
      <trkpt lat="48.48805" lon="7.45661">
        <ele>215</ele>
        <time>2017-02-18T07:38:51Z</time>
      </trkpt>
      <trkpt lat="48.4877" lon="7.45642">
        <ele>216</ele>
        <time>2017-02-18T07:39:02Z</time>
      </trkpt>
      <trkpt lat="48.48707" lon="7.45611">
        <ele>218</ele>
        <time>2017-02-18T07:39:21Z</time>
      </trkpt>
      <trkpt lat="48.48675" lon="7.45594">
        <ele>219</ele>
        <time>2017-02-18T07:39:31Z</time>
      </trkpt>
      <trkpt lat="48.48656" lon="7.45583">
        <ele>220</ele>
        <time>2017-02-18T07:39:37Z</time>
      </trkpt>
      <trkpt lat="48.48616" lon="7.45557">
        <ele>221</ele>
        <time>2017-02-18T07:39:50Z</time>
      </trkpt>
      <trkpt lat="48.48516" lon="7.4549">
        <ele>224</ele>
        <time>2017-02-18T07:40:19Z</time>
      </trkpt>
      <trkpt lat="48.48475" lon="7.45465">
        <ele>226</ele>
        <time>2017-02-18T07:40:31Z</time>
      </trkpt>
      <trkpt lat="48.48438" lon="7.4544">
        <ele>227</ele>
        <time>2017-02-18T07:40:42Z</time>
      </trkpt>
      <trkpt lat="48.48425" lon="7.45432">
        <ele>228</ele>
        <time>2017-02-18T07:40:46Z</time>
      </trkpt>
      <trkpt lat="48.48385" lon="7.45404">
        <ele>229</ele>
        <time>2017-02-18T07:40:59Z</time>
      </trkpt>
      <trkpt lat="48.48379" lon="7.45398">
        <ele>229</ele>
        <time>2017-02-18T07:41:01Z</time>
      </trkpt>
      <trkpt lat="48.4836" lon="7.45375">
        <ele>229</ele>
        <time>2017-02-18T07:41:08Z</time>
      </trkpt>
      <trkpt lat="48.48351" lon="7.45358">
        <ele>229</ele>
        <time>2017-02-18T07:41:12Z</time>
      </trkpt>
      <trkpt lat="48.48344" lon="7.4534">
        <ele>229</ele>
        <time>2017-02-18T07:41:16Z</time>
      </trkpt>
      <trkpt lat="48.48316" lon="7.4524">
        <ele>232</ele>
        <time>2017-02-18T07:41:36Z</time>
      </trkpt>
      <trkpt lat="48.48301" lon="7.452">
        <ele>232</ele>
        <time>2017-02-18T07:41:45Z</time>
      </trkpt>
      <trkpt lat="48.48281" lon="7.45172">
        <ele>232</ele>
        <time>2017-02-18T07:41:53Z</time>
      </trkpt>
      <trkpt lat="48.4826" lon="7.4516">
        <ele>233</ele>
        <time>2017-02-18T07:41:59Z</time>
      </trkpt>
      <trkpt lat="48.48223" lon="7.45149">
        <ele>233</ele>
        <time>2017-02-18T07:42:07Z</time>
      </trkpt>
      <trkpt lat="48.48192" lon="7.45139">
        <ele>232</ele>
        <time>2017-02-18T07:42:13Z</time>
      </trkpt>
      <trkpt lat="48.48176" lon="7.45132">
        <ele>232</ele>
        <time>2017-02-18T07:42:16Z</time>
      </trkpt>
      <trkpt lat="48.48136" lon="7.45106">
        <ele>230</ele>
        <time>2017-02-18T07:42:24Z</time>
      </trkpt>
      <trkpt lat="48.48107" lon="7.45086">
        <ele>229</ele>
        <time>2017-02-18T07:42:30Z</time>
      </trkpt>
      <trkpt lat="48.48098" lon="7.45079">
        <ele>232</ele>
        <time>2017-02-18T07:42:32Z</time>
      </trkpt>
      <trkpt lat="48.48083" lon="7.45066">
        <ele>229</ele>
        <time>2017-02-18T07:42:35Z</time>
      </trkpt>
      <trkpt lat="48.48044" lon="7.45023">
        <ele>228</ele>
        <time>2017-02-18T07:42:44Z</time>
      </trkpt>
      <trkpt lat="48.48024" lon="7.44997">
        <ele>231</ele>
        <time>2017-02-18T07:42:49Z</time>
      </trkpt>
      <trkpt lat="48.48009" lon="7.44975">
        <ele>231</ele>
        <time>2017-02-18T07:42:53Z</time>
      </trkpt>
      <trkpt lat="48.47927" lon="7.44871">
        <ele>230</ele>
        <time>2017-02-18T07:43:13Z</time>
      </trkpt>
      <trkpt lat="48.47899" lon="7.44834">
        <ele>227</ele>
        <time>2017-02-18T07:43:20Z</time>
      </trkpt>
      <trkpt lat="48.4786" lon="7.44789">
        <ele>229</ele>
        <time>2017-02-18T07:43:29Z</time>
      </trkpt>
      <trkpt lat="48.4781" lon="7.44736">
        <ele>226</ele>
        <time>2017-02-18T07:43:40Z</time>
      </trkpt>
      <trkpt lat="48.47806" lon="7.44731">
        <ele>226</ele>
        <time>2017-02-18T07:43:41Z</time>
      </trkpt>
      <trkpt lat="48.47777" lon="7.44702">
        <ele>226</ele>
        <time>2017-02-18T07:43:47Z</time>
      </trkpt>
      <trkpt lat="48.47746" lon="7.44666">
        <ele>225</ele>
        <time>2017-02-18T07:43:54Z</time>
      </trkpt>
      <trkpt lat="48.477" lon="7.44612">
        <ele>225</ele>
        <time>2017-02-18T07:44:05Z</time>
      </trkpt>
      <trkpt lat="48.47677" lon="7.44569">
        <ele>225</ele>
        <time>2017-02-18T07:44:12Z</time>
      </trkpt>
      <trkpt lat="48.47674" lon="7.44562">
        <ele>226</ele>
        <time>2017-02-18T07:44:13Z</time>
      </trkpt>
      <trkpt lat="48.47669" lon="7.44538">
        <ele>227</ele>
        <time>2017-02-18T07:44:16Z</time>
      </trkpt>
      <trkpt lat="48.47667" lon="7.44531">
        <ele>227</ele>
        <time>2017-02-18T07:44:17Z</time>
      </trkpt>
      <trkpt lat="48.47667" lon="7.44522">
        <ele>226</ele>
        <time>2017-02-18T07:44:18Z</time>
      </trkpt>
      <trkpt lat="48.47667" lon="7.44489">
        <ele>223</ele>
        <time>2017-02-18T07:44:22Z</time>
      </trkpt>
      <trkpt lat="48.47674" lon="7.44457">
        <ele>229</ele>
        <time>2017-02-18T07:44:26Z</time>
      </trkpt>
      <trkpt lat="48.4768" lon="7.44438">
        <ele>229</ele>
        <time>2017-02-18T07:44:29Z</time>
      </trkpt>
      <trkpt lat="48.47685" lon="7.44425">
        <ele>229</ele>
        <time>2017-02-18T07:44:31Z</time>
      </trkpt>
      <trkpt lat="48.47693" lon="7.44399">
        <ele>229</ele>
        <time>2017-02-18T07:44:35Z</time>
      </trkpt>
      <trkpt lat="48.47725" lon="7.44304">
        <ele>229</ele>
        <time>2017-02-18T07:44:51Z</time>
      </trkpt>
      <trkpt lat="48.47727" lon="7.44292">
        <ele>228</ele>
        <time>2017-02-18T07:44:53Z</time>
      </trkpt>
      <trkpt lat="48.47729" lon="7.4428">
        <ele>228</ele>
        <time>2017-02-18T07:44:55Z</time>
      </trkpt>
      <trkpt lat="48.47732" lon="7.44271">
        <ele>228</ele>
        <time>2017-02-18T07:44:57Z</time>
      </trkpt>
      <trkpt lat="48.47733" lon="7.44264">
        <ele>228</ele>
        <time>2017-02-18T07:44:59Z</time>
      </trkpt>
      <trkpt lat="48.47729" lon="7.44261">
        <ele>228</ele>
        <time>2017-02-18T07:45:01Z</time>
      </trkpt>
      <trkpt lat="48.47725" lon="7.4426">
        <ele>228</ele>
        <time>2017-02-18T07:45:02Z</time>
      </trkpt>
      <trkpt lat="48.47702" lon="7.44259">
        <ele>228</ele>
        <time>2017-02-18T07:45:07Z</time>
      </trkpt>
      <trkpt lat="48.47663" lon="7.4425">
        <ele>228</ele>
        <time>2017-02-18T07:45:18Z</time>
      </trkpt>
      <trkpt lat="48.47647" lon="7.44245">
        <ele>229</ele>
        <time>2017-02-18T07:45:23Z</time>
      </trkpt>
      <trkpt lat="48.47632" lon="7.4423">
        <ele>230</ele>
        <time>2017-02-18T07:45:28Z</time>
      </trkpt>
      <trkpt lat="48.47629" lon="7.44226">
        <ele>230</ele>
        <time>2017-02-18T07:45:29Z</time>
      </trkpt>
      <trkpt lat="48.47627" lon="7.44217">
        <ele>230</ele>
        <time>2017-02-18T07:45:31Z</time>
      </trkpt>
      <trkpt lat="48.47624" lon="7.44208">
        <ele>230</ele>
        <time>2017-02-18T07:45:33Z</time>
      </trkpt>
      <trkpt lat="48.47616" lon="7.44181">
        <ele>231</ele>
        <time>2017-02-18T07:45:39Z</time>
      </trkpt>
      <trkpt lat="48.47615" lon="7.44167">
        <ele>231</ele>
        <time>2017-02-18T07:45:42Z</time>
      </trkpt>
      <trkpt lat="48.47613" lon="7.44163">
        <ele>233</ele>
        <time>2017-02-18T07:45:43Z</time>
      </trkpt>
      <trkpt lat="48.47611" lon="7.44159">
        <ele>233</ele>
        <time>2017-02-18T07:45:44Z</time>
      </trkpt>
      <trkpt lat="48.47607" lon="7.44152">
        <ele>233</ele>
        <time>2017-02-18T07:45:46Z</time>
      </trkpt>
      <trkpt lat="48.47605" lon="7.44146">
        <ele>233</ele>
        <time>2017-02-18T07:45:48Z</time>
      </trkpt>
      <trkpt lat="48.47603" lon="7.44139">
        <ele>233</ele>
        <time>2017-02-18T07:45:50Z</time>
      </trkpt>
      <trkpt lat="48.47601" lon="7.44128">
        <ele>233</ele>
        <time>2017-02-18T07:45:53Z</time>
      </trkpt>
      <trkpt lat="48.47598" lon="7.44117">
        <ele>234</ele>
        <time>2017-02-18T07:45:57Z</time>
      </trkpt>
      <trkpt lat="48.47597" lon="7.44114">
        <ele>234</ele>
        <time>2017-02-18T07:45:58Z</time>
      </trkpt>
      <trkpt lat="48.47597" lon="7.44111">
        <ele>234</ele>
        <time>2017-02-18T07:45:59Z</time>
      </trkpt>
      <trkpt lat="48.47597" lon="7.44107">
        <ele>234</ele>
        <time>2017-02-18T07:46:00Z</time>
      </trkpt>
      <trkpt lat="48.47595" lon="7.44072">
        <ele>236</ele>
        <time>2017-02-18T07:46:09Z</time>
      </trkpt>
      <trkpt lat="48.47595" lon="7.44055">
        <ele>236</ele>
        <time>2017-02-18T07:46:13Z</time>
      </trkpt>
      <trkpt lat="48.47595" lon="7.44044">
        <ele>236</ele>
        <time>2017-02-18T07:46:16Z</time>
      </trkpt>
      <trkpt lat="48.47596" lon="7.44033">
        <ele>237</ele>
        <time>2017-02-18T07:46:19Z</time>
      </trkpt>
      <trkpt lat="48.47597" lon="7.44022">
        <ele>237</ele>
        <time>2017-02-18T07:46:22Z</time>
      </trkpt>
      <trkpt lat="48.47592" lon="7.44008">
        <ele>238</ele>
        <time>2017-02-18T07:46:28Z</time>
      </trkpt>
      <trkpt lat="48.47583" lon="7.44002">
        <ele>239</ele>
        <time>2017-02-18T07:46:32Z</time>
      </trkpt>
      <trkpt lat="48.47572" lon="7.44001">
        <ele>239</ele>
        <time>2017-02-18T07:46:35Z</time>
      </trkpt>
      <trkpt lat="48.47548" lon="7.43995">
        <ele>241</ele>
        <time>2017-02-18T07:46:43Z</time>
      </trkpt>
      <trkpt lat="48.47529" lon="7.43992">
        <ele>242</ele>
        <time>2017-02-18T07:46:50Z</time>
      </trkpt>
      <trkpt lat="48.47526" lon="7.4399">
        <ele>242</ele>
        <time>2017-02-18T07:46:52Z</time>
      </trkpt>
      <trkpt lat="48.47506" lon="7.43988">
        <ele>242</ele>
        <time>2017-02-18T07:47:00Z</time>
      </trkpt>
      <trkpt lat="48.47478" lon="7.4399">
        <ele>244</ele>
        <time>2017-02-18T07:47:09Z</time>
      </trkpt>
      <trkpt lat="48.47459" lon="7.43996">
        <ele>244</ele>
        <time>2017-02-18T07:47:15Z</time>
      </trkpt>
      <trkpt lat="48.47413" lon="7.44009">
        <ele>245</ele>
        <time>2017-02-18T07:47:29Z</time>
      </trkpt>
      <trkpt lat="48.47392" lon="7.44006">
        <ele>244</ele>
        <time>2017-02-18T07:47:35Z</time>
      </trkpt>
      <trkpt lat="48.47368" lon="7.43998">
        <ele>245</ele>
        <time>2017-02-18T07:47:42Z</time>
      </trkpt>
      <trkpt lat="48.47316" lon="7.43969">
        <ele>246</ele>
        <time>2017-02-18T07:48:01Z</time>
      </trkpt>
      <trkpt lat="48.4731" lon="7.43959">
        <ele>246</ele>
        <time>2017-02-18T07:48:07Z</time>
      </trkpt>
      <trkpt lat="48.47308" lon="7.43957">
        <ele>246</ele>
        <time>2017-02-18T07:48:08Z</time>
      </trkpt>
      <trkpt lat="48.47301" lon="7.43955">
        <ele>246</ele>
        <time>2017-02-18T07:48:10Z</time>
      </trkpt>
      <trkpt lat="48.47269" lon="7.43948">
        <ele>246</ele>
        <time>2017-02-18T07:48:19Z</time>
      </trkpt>
      <trkpt lat="48.47252" lon="7.43949">
        <ele>246</ele>
        <time>2017-02-18T07:48:23Z</time>
      </trkpt>
      <trkpt lat="48.4722" lon="7.43959">
        <ele>247</ele>
        <time>2017-02-18T07:48:32Z</time>
      </trkpt>
      <trkpt lat="48.47217" lon="7.43961">
        <ele>247</ele>
        <time>2017-02-18T07:48:33Z</time>
      </trkpt>
      <trkpt lat="48.47214" lon="7.43963">
        <ele>247</ele>
        <time>2017-02-18T07:48:34Z</time>
      </trkpt>
      <trkpt lat="48.47176" lon="7.43981">
        <ele>248</ele>
        <time>2017-02-18T07:48:45Z</time>
      </trkpt>
      <trkpt lat="48.47145" lon="7.43992">
        <ele>249</ele>
        <time>2017-02-18T07:48:54Z</time>
      </trkpt>
      <trkpt lat="48.47131" lon="7.43996">
        <ele>249</ele>
        <time>2017-02-18T07:48:58Z</time>
      </trkpt>
      <trkpt lat="48.47109" lon="7.43999">
        <ele>249</ele>
        <time>2017-02-18T07:49:05Z</time>
      </trkpt>
      <trkpt lat="48.47081" lon="7.43991">
        <ele>250</ele>
        <time>2017-02-18T07:49:13Z</time>
      </trkpt>
      <trkpt lat="48.47059" lon="7.4398">
        <ele>250</ele>
        <time>2017-02-18T07:49:20Z</time>
      </trkpt>
      <trkpt lat="48.47037" lon="7.43961">
        <ele>251</ele>
        <time>2017-02-18T07:49:28Z</time>
      </trkpt>
      <trkpt lat="48.47004" lon="7.43926">
        <ele>251</ele>
        <time>2017-02-18T07:49:40Z</time>
      </trkpt>
      <trkpt lat="48.46992" lon="7.4391">
        <ele>251</ele>
        <time>2017-02-18T07:49:45Z</time>
      </trkpt>
      <trkpt lat="48.46978" lon="7.4389">
        <ele>251</ele>
        <time>2017-02-18T07:49:51Z</time>
      </trkpt>
      <trkpt lat="48.46955" lon="7.43842">
        <ele>252</ele>
        <time>2017-02-18T07:50:03Z</time>
      </trkpt>
      <trkpt lat="48.46949" lon="7.4383">
        <ele>254</ele>
        <time>2017-02-18T07:50:06Z</time>
      </trkpt>
      <trkpt lat="48.46936" lon="7.43788">
        <ele>255</ele>
        <time>2017-02-18T07:50:16Z</time>
      </trkpt>
      <trkpt lat="48.46931" lon="7.43775">
        <ele>255</ele>
        <time>2017-02-18T07:50:19Z</time>
      </trkpt>
      <trkpt lat="48.46924" lon="7.4376">
        <ele>257</ele>
        <time>2017-02-18T07:50:23Z</time>
      </trkpt>
      <trkpt lat="48.46907" lon="7.4373">
        <ele>256</ele>
        <time>2017-02-18T07:50:31Z</time>
      </trkpt>
      <trkpt lat="48.46884" lon="7.43681">
        <ele>256</ele>
        <time>2017-02-18T07:50:42Z</time>
      </trkpt>
      <trkpt lat="48.46871" lon="7.43625">
        <ele>257</ele>
        <time>2017-02-18T07:50:52Z</time>
      </trkpt>
      <trkpt lat="48.46861" lon="7.43592">
        <ele>256</ele>
        <time>2017-02-18T07:50:57Z</time>
      </trkpt>
      <trkpt lat="48.46854" lon="7.43573">
        <ele>256</ele>
        <time>2017-02-18T07:51:00Z</time>
      </trkpt>
      <trkpt lat="48.46833" lon="7.43529">
        <ele>252</ele>
        <time>2017-02-18T07:51:07Z</time>
      </trkpt>
      <trkpt lat="48.46806" lon="7.43485">
        <ele>253</ele>
        <time>2017-02-18T07:51:15Z</time>
      </trkpt>
      <trkpt lat="48.46773" lon="7.43437">
        <ele>253</ele>
        <time>2017-02-18T07:51:25Z</time>
      </trkpt>
      <trkpt lat="48.46726" lon="7.43383">
        <ele>254</ele>
        <time>2017-02-18T07:51:38Z</time>
      </trkpt>
      <trkpt lat="48.46688" lon="7.4333">
        <ele>255</ele>
        <time>2017-02-18T07:51:49Z</time>
      </trkpt>
      <trkpt lat="48.46659" lon="7.43282">
        <ele>252</ele>
        <time>2017-02-18T07:51:58Z</time>
      </trkpt>
      <trkpt lat="48.4665" lon="7.43265">
        <ele>252</ele>
        <time>2017-02-18T07:52:01Z</time>
      </trkpt>
      <trkpt lat="48.46619" lon="7.43215">
        <ele>254</ele>
        <time>2017-02-18T07:52:10Z</time>
      </trkpt>
      <trkpt lat="48.46586" lon="7.43175">
        <ele>252</ele>
        <time>2017-02-18T07:52:18Z</time>
      </trkpt>
      <trkpt lat="48.46554" lon="7.4314">
        <ele>251</ele>
        <time>2017-02-18T07:52:25Z</time>
      </trkpt>
      <trkpt lat="48.46521" lon="7.43106">
        <ele>251</ele>
        <time>2017-02-18T07:52:32Z</time>
      </trkpt>
      <trkpt lat="48.46512" lon="7.43094">
        <ele>250</ele>
        <time>2017-02-18T07:52:34Z</time>
      </trkpt>
      <trkpt lat="48.46502" lon="7.43082">
        <ele>250</ele>
        <time>2017-02-18T07:52:36Z</time>
      </trkpt>
      <trkpt lat="48.46493" lon="7.43071">
        <ele>248</ele>
        <time>2017-02-18T07:52:38Z</time>
      </trkpt>
      <trkpt lat="48.46482" lon="7.43061">
        <ele>248</ele>
        <time>2017-02-18T07:52:40Z</time>
      </trkpt>
      <trkpt lat="48.46464" lon="7.43049">
        <ele>247</ele>
        <time>2017-02-18T07:52:43Z</time>
      </trkpt>
      <trkpt lat="48.46457" lon="7.43047">
        <ele>247</ele>
        <time>2017-02-18T07:52:44Z</time>
      </trkpt>
      <trkpt lat="48.4645" lon="7.43047">
        <ele>247</ele>
        <time>2017-02-18T07:52:45Z</time>
      </trkpt>
      <trkpt lat="48.46435" lon="7.43047">
        <ele>246</ele>
        <time>2017-02-18T07:52:47Z</time>
      </trkpt>
      <trkpt lat="48.46406" lon="7.43055">
        <ele>243</ele>
        <time>2017-02-18T07:52:51Z</time>
      </trkpt>
      <trkpt lat="48.46373" lon="7.43062">
        <ele>243</ele>
        <time>2017-02-18T07:52:56Z</time>
      </trkpt>
      <trkpt lat="48.46361" lon="7.43063">
        <ele>243</ele>
        <time>2017-02-18T07:52:58Z</time>
      </trkpt>
      <trkpt lat="48.46348" lon="7.43063">
        <ele>242</ele>
        <time>2017-02-18T07:53:00Z</time>
      </trkpt>
      <trkpt lat="48.46332" lon="7.43062">
        <ele>243</ele>
        <time>2017-02-18T07:53:03Z</time>
      </trkpt>
      <trkpt lat="48.46323" lon="7.43058">
        <ele>243</ele>
        <time>2017-02-18T07:53:05Z</time>
      </trkpt>
      <trkpt lat="48.46316" lon="7.43051">
        <ele>243</ele>
        <time>2017-02-18T07:53:07Z</time>
      </trkpt>
      <trkpt lat="48.46311" lon="7.43042">
        <ele>244</ele>
        <time>2017-02-18T07:53:10Z</time>
      </trkpt>
      <trkpt lat="48.46309" lon="7.43041">
        <ele>244</ele>
        <time>2017-02-18T07:53:13Z</time>
      </trkpt>
      <trkpt lat="48.46309" lon="7.43049">
        <ele>244</ele>
        <time>2017-02-18T07:58:20Z</time>
      </trkpt>
      <trkpt lat="48.46309" lon="7.43052">
        <ele>243</ele>
        <time>2017-02-18T07:58:21Z</time>
      </trkpt>
      <trkpt lat="48.46302" lon="7.43053">
        <ele>244</ele>
        <time>2017-02-18T07:58:25Z</time>
      </trkpt>
      <trkpt lat="48.46274" lon="7.43056">
        <ele>244</ele>
        <time>2017-02-18T07:58:34Z</time>
      </trkpt>
      <trkpt lat="48.46244" lon="7.43055">
        <ele>246</ele>
        <time>2017-02-18T07:58:43Z</time>
      </trkpt>
      <trkpt lat="48.46222" lon="7.43055">
        <ele>246</ele>
        <time>2017-02-18T07:58:51Z</time>
      </trkpt>
      <trkpt lat="48.462" lon="7.4305">
        <ele>247</ele>
        <time>2017-02-18T07:58:59Z</time>
      </trkpt>
      <trkpt lat="48.46192" lon="7.43048">
        <ele>247</ele>
        <time>2017-02-18T07:59:02Z</time>
      </trkpt>
      <trkpt lat="48.46157" lon="7.43034">
        <ele>250</ele>
        <time>2017-02-18T07:59:15Z</time>
      </trkpt>
      <trkpt lat="48.46142" lon="7.43026">
        <ele>250</ele>
        <time>2017-02-18T07:59:21Z</time>
      </trkpt>
      <trkpt lat="48.4613" lon="7.43019">
        <ele>251</ele>
        <time>2017-02-18T07:59:27Z</time>
      </trkpt>
      <trkpt lat="48.46126" lon="7.43015">
        <ele>251</ele>
        <time>2017-02-18T07:59:29Z</time>
      </trkpt>
      <trkpt lat="48.46104" lon="7.43004">
        <ele>252</ele>
        <time>2017-02-18T07:59:41Z</time>
      </trkpt>
      <trkpt lat="48.46101" lon="7.42999">
        <ele>256</ele>
        <time>2017-02-18T07:59:44Z</time>
      </trkpt>
      <trkpt lat="48.46078" lon="7.42975">
        <ele>258</ele>
        <time>2017-02-18T07:59:55Z</time>
      </trkpt>
      <trkpt lat="48.4607" lon="7.42966">
        <ele>259</ele>
        <time>2017-02-18T07:59:59Z</time>
      </trkpt>
      <trkpt lat="48.46058" lon="7.42958">
        <ele>259</ele>
        <time>2017-02-18T08:00:05Z</time>
      </trkpt>
      <trkpt lat="48.46048" lon="7.42953">
        <ele>259</ele>
        <time>2017-02-18T08:00:10Z</time>
      </trkpt>
      <trkpt lat="48.46045" lon="7.4295">
        <ele>260</ele>
        <time>2017-02-18T08:00:12Z</time>
      </trkpt>
      <trkpt lat="48.46025" lon="7.42932">
        <ele>261</ele>
        <time>2017-02-18T08:00:24Z</time>
      </trkpt>
      <trkpt lat="48.46021" lon="7.42929">
        <ele>261</ele>
        <time>2017-02-18T08:00:26Z</time>
      </trkpt>
      <trkpt lat="48.46019" lon="7.42927">
        <ele>261</ele>
        <time>2017-02-18T08:00:27Z</time>
      </trkpt>
      <trkpt lat="48.4601" lon="7.42919">
        <ele>262</ele>
        <time>2017-02-18T08:00:31Z</time>
      </trkpt>
      <trkpt lat="48.46" lon="7.42908">
        <ele>264</ele>
        <time>2017-02-18T08:00:37Z</time>
      </trkpt>
      <trkpt lat="48.45994" lon="7.42903">
        <ele>264</ele>
        <time>2017-02-18T08:00:40Z</time>
      </trkpt>
      <trkpt lat="48.45981" lon="7.42886">
        <ele>265</ele>
        <time>2017-02-18T08:00:50Z</time>
      </trkpt>
      <trkpt lat="48.45975" lon="7.42884">
        <ele>265</ele>
        <time>2017-02-18T08:00:53Z</time>
      </trkpt>
      <trkpt lat="48.45971" lon="7.42879">
        <ele>265</ele>
        <time>2017-02-18T08:00:55Z</time>
      </trkpt>
      <trkpt lat="48.45967" lon="7.42874">
        <ele>265</ele>
        <time>2017-02-18T08:00:57Z</time>
      </trkpt>
      <trkpt lat="48.45952" lon="7.42858">
        <ele>266</ele>
        <time>2017-02-18T08:01:06Z</time>
      </trkpt>
      <trkpt lat="48.45916" lon="7.42824">
        <ele>268</ele>
        <time>2017-02-18T08:01:26Z</time>
      </trkpt>
      <trkpt lat="48.45902" lon="7.42809">
        <ele>269</ele>
        <time>2017-02-18T08:01:33Z</time>
      </trkpt>
      <trkpt lat="48.45885" lon="7.42789">
        <ele>270</ele>
        <time>2017-02-18T08:01:42Z</time>
      </trkpt>
      <trkpt lat="48.45876" lon="7.42762">
        <ele>271</ele>
        <time>2017-02-18T08:01:52Z</time>
      </trkpt>
      <trkpt lat="48.45875" lon="7.4275">
        <ele>275</ele>
        <time>2017-02-18T08:01:56Z</time>
      </trkpt>
      <trkpt lat="48.45867" lon="7.42722">
        <ele>276</ele>
        <time>2017-02-18T08:02:05Z</time>
      </trkpt>
      <trkpt lat="48.45866" lon="7.42716">
        <ele>276</ele>
        <time>2017-02-18T08:02:07Z</time>
      </trkpt>
      <trkpt lat="48.45863" lon="7.42709">
        <ele>276</ele>
        <time>2017-02-18T08:02:09Z</time>
      </trkpt>
      <trkpt lat="48.45855" lon="7.4267">
        <ele>277</ele>
        <time>2017-02-18T08:02:21Z</time>
      </trkpt>
      <trkpt lat="48.45851" lon="7.42647">
        <ele>282</ele>
        <time>2017-02-18T08:02:28Z</time>
      </trkpt>
      <trkpt lat="48.4585" lon="7.42637">
        <ele>282</ele>
        <time>2017-02-18T08:02:31Z</time>
      </trkpt>
      <trkpt lat="48.45852" lon="7.42636">
        <ele>283</ele>
        <time>2017-02-18T08:02:32Z</time>
      </trkpt>
      <trkpt lat="48.4585" lon="7.42633">
        <ele>283</ele>
        <time>2017-02-18T08:02:33Z</time>
      </trkpt>
      <trkpt lat="48.45843" lon="7.426">
        <ele>284</ele>
        <time>2017-02-18T08:02:44Z</time>
      </trkpt>
      <trkpt lat="48.45842" lon="7.42591">
        <ele>284</ele>
        <time>2017-02-18T08:02:47Z</time>
      </trkpt>
      <trkpt lat="48.45839" lon="7.42573">
        <ele>287</ele>
        <time>2017-02-18T08:02:53Z</time>
      </trkpt>
      <trkpt lat="48.45835" lon="7.42559">
        <ele>289</ele>
        <time>2017-02-18T08:02:58Z</time>
      </trkpt>
      <trkpt lat="48.45835" lon="7.42555">
        <ele>289</ele>
        <time>2017-02-18T08:02:59Z</time>
      </trkpt>
      <trkpt lat="48.45834" lon="7.42551">
        <ele>289</ele>
        <time>2017-02-18T08:03:01Z</time>
      </trkpt>
      <trkpt lat="48.45823" lon="7.42533">
        <ele>285</ele>
        <time>2017-02-18T08:03:09Z</time>
      </trkpt>
      <trkpt lat="48.45821" lon="7.42532">
        <ele>285</ele>
        <time>2017-02-18T08:03:10Z</time>
      </trkpt>
      <trkpt lat="48.45818" lon="7.42526">
        <ele>286</ele>
        <time>2017-02-18T08:03:12Z</time>
      </trkpt>
      <trkpt lat="48.45814" lon="7.42519">
        <ele>286</ele>
        <time>2017-02-18T08:03:15Z</time>
      </trkpt>
      <trkpt lat="48.45802" lon="7.42505">
        <ele>286</ele>
        <time>2017-02-18T08:03:22Z</time>
      </trkpt>
      <trkpt lat="48.45798" lon="7.42496">
        <ele>290</ele>
        <time>2017-02-18T08:03:26Z</time>
      </trkpt>
      <trkpt lat="48.45786" lon="7.42484">
        <ele>290</ele>
        <time>2017-02-18T08:03:32Z</time>
      </trkpt>
      <trkpt lat="48.45774" lon="7.42478">
        <ele>290</ele>
        <time>2017-02-18T08:03:37Z</time>
      </trkpt>
      <trkpt lat="48.45769" lon="7.42477">
        <ele>290</ele>
        <time>2017-02-18T08:03:39Z</time>
      </trkpt>
      <trkpt lat="48.45723" lon="7.42476">
        <ele>289</ele>
        <time>2017-02-18T08:03:54Z</time>
      </trkpt>
      <trkpt lat="48.45703" lon="7.42472">
        <ele>289</ele>
        <time>2017-02-18T08:04:02Z</time>
      </trkpt>
      <trkpt lat="48.45689" lon="7.42445">
        <ele>291</ele>
        <time>2017-02-18T08:04:11Z</time>
      </trkpt>
      <trkpt lat="48.45687" lon="7.42439">
        <ele>291</ele>
        <time>2017-02-18T08:04:13Z</time>
      </trkpt>
      <trkpt lat="48.45678" lon="7.4242">
        <ele>292</ele>
        <time>2017-02-18T08:04:20Z</time>
      </trkpt>
      <trkpt lat="48.45674" lon="7.42411">
        <ele>295</ele>
        <time>2017-02-18T08:04:24Z</time>
      </trkpt>
      <trkpt lat="48.45669" lon="7.42388">
        <ele>296</ele>
        <time>2017-02-18T08:04:32Z</time>
      </trkpt>
      <trkpt lat="48.45667" lon="7.4238">
        <ele>296</ele>
        <time>2017-02-18T08:04:35Z</time>
      </trkpt>
      <trkpt lat="48.45669" lon="7.42349">
        <ele>297</ele>
        <time>2017-02-18T08:04:46Z</time>
      </trkpt>
      <trkpt lat="48.45669" lon="7.42346">
        <ele>297</ele>
        <time>2017-02-18T08:04:47Z</time>
      </trkpt>
      <trkpt lat="48.45669" lon="7.42343">
        <ele>297</ele>
        <time>2017-02-18T08:04:48Z</time>
      </trkpt>
      <trkpt lat="48.45673" lon="7.42318">
        <ele>300</ele>
        <time>2017-02-18T08:04:57Z</time>
      </trkpt>
      <trkpt lat="48.45676" lon="7.42306">
        <ele>300</ele>
        <time>2017-02-18T08:05:02Z</time>
      </trkpt>
      <trkpt lat="48.45683" lon="7.42297">
        <ele>301</ele>
        <time>2017-02-18T08:05:05Z</time>
      </trkpt>
      <trkpt lat="48.45691" lon="7.42278">
        <ele>301</ele>
        <time>2017-02-18T08:05:13Z</time>
      </trkpt>
      <trkpt lat="48.45692" lon="7.42276">
        <ele>301</ele>
        <time>2017-02-18T08:05:14Z</time>
      </trkpt>
      <trkpt lat="48.45718" lon="7.42225">
        <ele>305</ele>
        <time>2017-02-18T08:05:32Z</time>
      </trkpt>
      <trkpt lat="48.45721" lon="7.42225">
        <ele>305</ele>
        <time>2017-02-18T08:05:34Z</time>
      </trkpt>
      <trkpt lat="48.45727" lon="7.42214">
        <ele>305</ele>
        <time>2017-02-18T08:05:38Z</time>
      </trkpt>
      <trkpt lat="48.45731" lon="7.42209">
        <ele>305</ele>
        <time>2017-02-18T08:05:41Z</time>
      </trkpt>
      <trkpt lat="48.45739" lon="7.42194">
        <ele>306</ele>
        <time>2017-02-18T08:05:48Z</time>
      </trkpt>
      <trkpt lat="48.45744" lon="7.4219">
        <ele>306</ele>
        <time>2017-02-18T08:05:51Z</time>
      </trkpt>
      <trkpt lat="48.45751" lon="7.42179">
        <ele>308</ele>
        <time>2017-02-18T08:05:59Z</time>
      </trkpt>
      <trkpt lat="48.45753" lon="7.42174">
        <ele>308</ele>
        <time>2017-02-18T08:06:01Z</time>
      </trkpt>
      <trkpt lat="48.45761" lon="7.4217">
        <ele>308</ele>
        <time>2017-02-18T08:06:06Z</time>
      </trkpt>
      <trkpt lat="48.45764" lon="7.42167">
        <ele>308</ele>
        <time>2017-02-18T08:06:08Z</time>
      </trkpt>
      <trkpt lat="48.45766" lon="7.42164">
        <ele>310</ele>
        <time>2017-02-18T08:06:09Z</time>
      </trkpt>
      <trkpt lat="48.45768" lon="7.42163">
        <ele>310</ele>
        <time>2017-02-18T08:06:10Z</time>
      </trkpt>
      <trkpt lat="48.45776" lon="7.42151">
        <ele>311</ele>
        <time>2017-02-18T08:06:16Z</time>
      </trkpt>
      <trkpt lat="48.45778" lon="7.42149">
        <ele>312</ele>
        <time>2017-02-18T08:06:18Z</time>
      </trkpt>
      <trkpt lat="48.45782" lon="7.42147">
        <ele>312</ele>
        <time>2017-02-18T08:06:20Z</time>
      </trkpt>
      <trkpt lat="48.45794" lon="7.42139">
        <ele>313</ele>
        <time>2017-02-18T08:06:27Z</time>
      </trkpt>
      <trkpt lat="48.45797" lon="7.42132">
        <ele>313</ele>
        <time>2017-02-18T08:06:31Z</time>
      </trkpt>
      <trkpt lat="48.45799" lon="7.4213">
        <ele>313</ele>
        <time>2017-02-18T08:06:32Z</time>
      </trkpt>
      <trkpt lat="48.458" lon="7.42126">
        <ele>314</ele>
        <time>2017-02-18T08:06:33Z</time>
      </trkpt>
      <trkpt lat="48.45802" lon="7.42124">
        <ele>314</ele>
        <time>2017-02-18T08:06:34Z</time>
      </trkpt>
      <trkpt lat="48.4581" lon="7.42118">
        <ele>314</ele>
        <time>2017-02-18T08:06:39Z</time>
      </trkpt>
      <trkpt lat="48.45819" lon="7.42112">
        <ele>315</ele>
        <time>2017-02-18T08:06:46Z</time>
      </trkpt>
      <trkpt lat="48.45827" lon="7.42106">
        <ele>316</ele>
        <time>2017-02-18T08:06:51Z</time>
      </trkpt>
      <trkpt lat="48.4583" lon="7.42105">
        <ele>316</ele>
        <time>2017-02-18T08:06:53Z</time>
      </trkpt>
      <trkpt lat="48.45845" lon="7.42101">
        <ele>321</ele>
        <time>2017-02-18T08:07:03Z</time>
      </trkpt>
      <trkpt lat="48.45849" lon="7.42101">
        <ele>321</ele>
        <time>2017-02-18T08:07:09Z</time>
      </trkpt>
      <trkpt lat="48.45859" lon="7.42089">
        <ele>321</ele>
        <time>2017-02-18T08:07:19Z</time>
      </trkpt>
      <trkpt lat="48.45862" lon="7.42086">
        <ele>321</ele>
        <time>2017-02-18T08:07:21Z</time>
      </trkpt>
      <trkpt lat="48.4587" lon="7.42073">
        <ele>324</ele>
        <time>2017-02-18T08:07:25Z</time>
      </trkpt>
      <trkpt lat="48.45876" lon="7.42068">
        <ele>324</ele>
        <time>2017-02-18T08:07:28Z</time>
      </trkpt>
      <trkpt lat="48.45878" lon="7.42066">
        <ele>325</ele>
        <time>2017-02-18T08:07:29Z</time>
      </trkpt>
      <trkpt lat="48.45887" lon="7.42058">
        <ele>325</ele>
        <time>2017-02-18T08:07:34Z</time>
      </trkpt>
      <trkpt lat="48.45908" lon="7.42035">
        <ele>326</ele>
        <time>2017-02-18T08:07:46Z</time>
      </trkpt>
      <trkpt lat="48.45927" lon="7.42022">
        <ele>330</ele>
        <time>2017-02-18T08:08:01Z</time>
      </trkpt>
      <trkpt lat="48.45936" lon="7.42019">
        <ele>330</ele>
        <time>2017-02-18T08:08:09Z</time>
      </trkpt>
      <trkpt lat="48.45938" lon="7.42017">
        <ele>330</ele>
        <time>2017-02-18T08:08:10Z</time>
      </trkpt>
      <trkpt lat="48.4595" lon="7.42011">
        <ele>331</ele>
        <time>2017-02-18T08:08:14Z</time>
      </trkpt>
      <trkpt lat="48.45965" lon="7.42004">
        <ele>332</ele>
        <time>2017-02-18T08:08:23Z</time>
      </trkpt>
      <trkpt lat="48.45972" lon="7.42002">
        <ele>332</ele>
        <time>2017-02-18T08:08:26Z</time>
      </trkpt>
      <trkpt lat="48.45989" lon="7.41993">
        <ele>334</ele>
        <time>2017-02-18T08:08:37Z</time>
      </trkpt>
      <trkpt lat="48.46" lon="7.41986">
        <ele>335</ele>
        <time>2017-02-18T08:08:45Z</time>
      </trkpt>
      <trkpt lat="48.46014" lon="7.41981">
        <ele>335</ele>
        <time>2017-02-18T08:08:53Z</time>
      </trkpt>
      <trkpt lat="48.46024" lon="7.4198">
        <ele>335</ele>
        <time>2017-02-18T08:08:57Z</time>
      </trkpt>
      <trkpt lat="48.4603" lon="7.41978">
        <ele>335</ele>
        <time>2017-02-18T08:09:00Z</time>
      </trkpt>
      <trkpt lat="48.46032" lon="7.41976">
        <ele>335</ele>
        <time>2017-02-18T08:09:01Z</time>
      </trkpt>
      <trkpt lat="48.46039" lon="7.41967">
        <ele>334</ele>
        <time>2017-02-18T08:09:06Z</time>
      </trkpt>
      <trkpt lat="48.46043" lon="7.41955">
        <ele>334</ele>
        <time>2017-02-18T08:09:13Z</time>
      </trkpt>
      <trkpt lat="48.46042" lon="7.41929">
        <ele>335</ele>
        <time>2017-02-18T08:09:21Z</time>
      </trkpt>
      <trkpt lat="48.46046" lon="7.41914">
        <ele>336</ele>
        <time>2017-02-18T08:09:26Z</time>
      </trkpt>
      <trkpt lat="48.46047" lon="7.41906">
        <ele>336</ele>
        <time>2017-02-18T08:09:28Z</time>
      </trkpt>
      <trkpt lat="48.46045" lon="7.41896">
        <ele>336</ele>
        <time>2017-02-18T08:09:30Z</time>
      </trkpt>
      <trkpt lat="48.4604" lon="7.4188">
        <ele>336</ele>
        <time>2017-02-18T08:09:35Z</time>
      </trkpt>
      <trkpt lat="48.46032" lon="7.41859">
        <ele>337</ele>
        <time>2017-02-18T08:09:43Z</time>
      </trkpt>
      <trkpt lat="48.46027" lon="7.41839">
        <ele>338</ele>
        <time>2017-02-18T08:09:50Z</time>
      </trkpt>
      <trkpt lat="48.46017" lon="7.41812">
        <ele>340</ele>
        <time>2017-02-18T08:09:57Z</time>
      </trkpt>
      <trkpt lat="48.46009" lon="7.41785">
        <ele>340</ele>
        <time>2017-02-18T08:10:05Z</time>
      </trkpt>
      <trkpt lat="48.46008" lon="7.4177">
        <ele>341</ele>
        <time>2017-02-18T08:10:12Z</time>
      </trkpt>
      <trkpt lat="48.46009" lon="7.4175">
        <ele>343</ele>
        <time>2017-02-18T08:10:19Z</time>
      </trkpt>
      <trkpt lat="48.46009" lon="7.41739">
        <ele>343</ele>
        <time>2017-02-18T08:10:22Z</time>
      </trkpt>
      <trkpt lat="48.46008" lon="7.41736">
        <ele>343</ele>
        <time>2017-02-18T08:10:23Z</time>
      </trkpt>
      <trkpt lat="48.46008" lon="7.41727">
        <ele>343</ele>
        <time>2017-02-18T08:10:26Z</time>
      </trkpt>
      <trkpt lat="48.46012" lon="7.41689">
        <ele>344</ele>
        <time>2017-02-18T08:10:36Z</time>
      </trkpt>
      <trkpt lat="48.46012" lon="7.41685">
        <ele>345</ele>
        <time>2017-02-18T08:10:37Z</time>
      </trkpt>
      <trkpt lat="48.46011" lon="7.41678">
        <ele>345</ele>
        <time>2017-02-18T08:10:39Z</time>
      </trkpt>
      <trkpt lat="48.46011" lon="7.41668">
        <ele>346</ele>
        <time>2017-02-18T08:10:43Z</time>
      </trkpt>
      <trkpt lat="48.46015" lon="7.41646">
        <ele>347</ele>
        <time>2017-02-18T08:10:50Z</time>
      </trkpt>
      <trkpt lat="48.46021" lon="7.41628">
        <ele>347</ele>
        <time>2017-02-18T08:10:57Z</time>
      </trkpt>
      <trkpt lat="48.46024" lon="7.41612">
        <ele>348</ele>
        <time>2017-02-18T08:11:02Z</time>
      </trkpt>
      <trkpt lat="48.46023" lon="7.41603">
        <ele>348</ele>
        <time>2017-02-18T08:11:04Z</time>
      </trkpt>
      <trkpt lat="48.46023" lon="7.41594">
        <ele>349</ele>
        <time>2017-02-18T08:11:07Z</time>
      </trkpt>
      <trkpt lat="48.46025" lon="7.41572">
        <ele>352</ele>
        <time>2017-02-18T08:11:13Z</time>
      </trkpt>
      <trkpt lat="48.46028" lon="7.41547">
        <ele>352</ele>
        <time>2017-02-18T08:11:20Z</time>
      </trkpt>
      <trkpt lat="48.4603" lon="7.41539">
        <ele>352</ele>
        <time>2017-02-18T08:11:23Z</time>
      </trkpt>
      <trkpt lat="48.4603" lon="7.41532">
        <ele>352</ele>
        <time>2017-02-18T08:11:26Z</time>
      </trkpt>
      <trkpt lat="48.46031" lon="7.41529">
        <ele>352</ele>
        <time>2017-02-18T08:11:27Z</time>
      </trkpt>
      <trkpt lat="48.46037" lon="7.41511">
        <ele>352</ele>
        <time>2017-02-18T08:11:36Z</time>
      </trkpt>
      <trkpt lat="48.4604" lon="7.41506">
        <ele>352</ele>
        <time>2017-02-18T08:11:41Z</time>
      </trkpt>
      <trkpt lat="48.46051" lon="7.41504">
        <ele>351</ele>
        <time>2017-02-18T08:11:46Z</time>
      </trkpt>
      <trkpt lat="48.46056" lon="7.41499">
        <ele>357</ele>
        <time>2017-02-18T08:11:48Z</time>
      </trkpt>
      <trkpt lat="48.4606" lon="7.41496">
        <ele>356</ele>
        <time>2017-02-18T08:11:50Z</time>
      </trkpt>
      <trkpt lat="48.46076" lon="7.4149">
        <ele>354</ele>
        <time>2017-02-18T08:11:57Z</time>
      </trkpt>
      <trkpt lat="48.4609" lon="7.41487">
        <ele>351</ele>
        <time>2017-02-18T08:12:03Z</time>
      </trkpt>
      <trkpt lat="48.46105" lon="7.41482">
        <ele>353</ele>
        <time>2017-02-18T08:12:08Z</time>
      </trkpt>
      <trkpt lat="48.4611" lon="7.41479">
        <ele>353</ele>
        <time>2017-02-18T08:12:11Z</time>
      </trkpt>
      <trkpt lat="48.46138" lon="7.41462">
        <ele>355</ele>
        <time>2017-02-18T08:12:24Z</time>
      </trkpt>
      <trkpt lat="48.46178" lon="7.41426">
        <ele>357</ele>
        <time>2017-02-18T08:12:41Z</time>
      </trkpt>
      <trkpt lat="48.46179" lon="7.41425">
        <ele>356</ele>
        <time>2017-02-18T08:12:42Z</time>
      </trkpt>
      <trkpt lat="48.46197" lon="7.41405">
        <ele>365</ele>
        <time>2017-02-18T08:12:52Z</time>
      </trkpt>
      <trkpt lat="48.4621" lon="7.4139">
        <ele>365</ele>
        <time>2017-02-18T08:12:59Z</time>
      </trkpt>
      <trkpt lat="48.46215" lon="7.41379">
        <ele>366</ele>
        <time>2017-02-18T08:13:04Z</time>
      </trkpt>
      <trkpt lat="48.46228" lon="7.41362">
        <ele>367</ele>
        <time>2017-02-18T08:13:11Z</time>
      </trkpt>
      <trkpt lat="48.46229" lon="7.41359">
        <ele>367</ele>
        <time>2017-02-18T08:13:12Z</time>
      </trkpt>
      <trkpt lat="48.46233" lon="7.41352">
        <ele>367</ele>
        <time>2017-02-18T08:13:15Z</time>
      </trkpt>
      <trkpt lat="48.46242" lon="7.41341">
        <ele>367</ele>
        <time>2017-02-18T08:13:21Z</time>
      </trkpt>
      <trkpt lat="48.46251" lon="7.41326">
        <ele>367</ele>
        <time>2017-02-18T08:13:29Z</time>
      </trkpt>
      <trkpt lat="48.46261" lon="7.41307">
        <ele>368</ele>
        <time>2017-02-18T08:13:39Z</time>
      </trkpt>
      <trkpt lat="48.46274" lon="7.41287">
        <ele>369</ele>
        <time>2017-02-18T08:13:46Z</time>
      </trkpt>
      <trkpt lat="48.46279" lon="7.41281">
        <ele>369</ele>
        <time>2017-02-18T08:13:48Z</time>
      </trkpt>
      <trkpt lat="48.46281" lon="7.41276">
        <ele>369</ele>
        <time>2017-02-18T08:13:49Z</time>
      </trkpt>
      <trkpt lat="48.46283" lon="7.41275">
        <ele>369</ele>
        <time>2017-02-18T08:13:50Z</time>
      </trkpt>
      <trkpt lat="48.46284" lon="7.41273">
        <ele>369</ele>
        <time>2017-02-18T08:13:51Z</time>
      </trkpt>
      <trkpt lat="48.46286" lon="7.41271">
        <ele>369</ele>
        <time>2017-02-18T08:13:52Z</time>
      </trkpt>
      <trkpt lat="48.46298" lon="7.41253">
        <ele>368</ele>
        <time>2017-02-18T08:14:00Z</time>
      </trkpt>
      <trkpt lat="48.46327" lon="7.4122">
        <ele>376</ele>
        <time>2017-02-18T08:14:10Z</time>
      </trkpt>
      <trkpt lat="48.46336" lon="7.41208">
        <ele>367</ele>
        <time>2017-02-18T08:14:13Z</time>
      </trkpt>
      <trkpt lat="48.4634" lon="7.41205">
        <ele>367</ele>
        <time>2017-02-18T08:14:14Z</time>
      </trkpt>
      <trkpt lat="48.46348" lon="7.41188">
        <ele>370</ele>
        <time>2017-02-18T08:14:18Z</time>
      </trkpt>
      <trkpt lat="48.46374" lon="7.41161">
        <ele>377</ele>
        <time>2017-02-18T08:14:25Z</time>
      </trkpt>
      <trkpt lat="48.46391" lon="7.41128">
        <ele>377</ele>
        <time>2017-02-18T08:14:32Z</time>
      </trkpt>
      <trkpt lat="48.46404" lon="7.41107">
        <ele>378</ele>
        <time>2017-02-18T08:14:38Z</time>
      </trkpt>
      <trkpt lat="48.46413" lon="7.41096">
        <ele>378</ele>
        <time>2017-02-18T08:14:41Z</time>
      </trkpt>
      <trkpt lat="48.46416" lon="7.41092">
        <ele>378</ele>
        <time>2017-02-18T08:14:42Z</time>
      </trkpt>
      <trkpt lat="48.46423" lon="7.41073">
        <ele>377</ele>
        <time>2017-02-18T08:14:46Z</time>
      </trkpt>
      <trkpt lat="48.46431" lon="7.41056">
        <ele>378</ele>
        <time>2017-02-18T08:14:50Z</time>
      </trkpt>
      <trkpt lat="48.46446" lon="7.4104">
        <ele>378</ele>
        <time>2017-02-18T08:14:55Z</time>
      </trkpt>
      <trkpt lat="48.46462" lon="7.41023">
        <ele>378</ele>
        <time>2017-02-18T08:15:01Z</time>
      </trkpt>
      <trkpt lat="48.46463" lon="7.4102">
        <ele>378</ele>
        <time>2017-02-18T08:15:02Z</time>
      </trkpt>
      <trkpt lat="48.46468" lon="7.41015">
        <ele>378</ele>
        <time>2017-02-18T08:15:04Z</time>
      </trkpt>
      <trkpt lat="48.46471" lon="7.41001">
        <ele>379</ele>
        <time>2017-02-18T08:15:08Z</time>
      </trkpt>
      <trkpt lat="48.46473" lon="7.41001">
        <ele>379</ele>
        <time>2017-02-18T08:15:09Z</time>
      </trkpt>
      <trkpt lat="48.46476" lon="7.40995">
        <ele>389</ele>
        <time>2017-02-18T08:15:12Z</time>
      </trkpt>
      <trkpt lat="48.4648" lon="7.40991">
        <ele>388</ele>
        <time>2017-02-18T08:15:14Z</time>
      </trkpt>
      <trkpt lat="48.46484" lon="7.40985">
        <ele>388</ele>
        <time>2017-02-18T08:15:16Z</time>
      </trkpt>
      <trkpt lat="48.46505" lon="7.40956">
        <ele>378</ele>
        <time>2017-02-18T08:15:24Z</time>
      </trkpt>
      <trkpt lat="48.46512" lon="7.40944">
        <ele>380</ele>
        <time>2017-02-18T08:15:27Z</time>
      </trkpt>
      <trkpt lat="48.46534" lon="7.40922">
        <ele>378</ele>
        <time>2017-02-18T08:15:33Z</time>
      </trkpt>
      <trkpt lat="48.46538" lon="7.40916">
        <ele>381</ele>
        <time>2017-02-18T08:15:34Z</time>
      </trkpt>
      <trkpt lat="48.4654" lon="7.4091">
        <ele>381</ele>
        <time>2017-02-18T08:15:35Z</time>
      </trkpt>
      <trkpt lat="48.4654" lon="7.40902">
        <ele>381</ele>
        <time>2017-02-18T08:15:36Z</time>
      </trkpt>
      <trkpt lat="48.46543" lon="7.40883">
        <ele>380</ele>
        <time>2017-02-18T08:15:42Z</time>
      </trkpt>
      <trkpt lat="48.46543" lon="7.4088">
        <ele>380</ele>
        <time>2017-02-18T08:15:43Z</time>
      </trkpt>
      <trkpt lat="48.46541" lon="7.40871">
        <ele>381</ele>
        <time>2017-02-18T08:15:46Z</time>
      </trkpt>
      <trkpt lat="48.46535" lon="7.40852">
        <ele>382</ele>
        <time>2017-02-18T08:15:52Z</time>
      </trkpt>
      <trkpt lat="48.46518" lon="7.40828">
        <ele>385</ele>
        <time>2017-02-18T08:15:58Z</time>
      </trkpt>
      <trkpt lat="48.46514" lon="7.40823">
        <ele>386</ele>
        <time>2017-02-18T08:16:01Z</time>
      </trkpt>
      <trkpt lat="48.4651" lon="7.40814">
        <ele>385</ele>
        <time>2017-02-18T08:16:04Z</time>
      </trkpt>
      <trkpt lat="48.46505" lon="7.40806">
        <ele>384</ele>
        <time>2017-02-18T08:16:09Z</time>
      </trkpt>
      <trkpt lat="48.46502" lon="7.40803">
        <ele>384</ele>
        <time>2017-02-18T08:16:11Z</time>
      </trkpt>
      <trkpt lat="48.46501" lon="7.408">
        <ele>383</ele>
        <time>2017-02-18T08:16:13Z</time>
      </trkpt>
      <trkpt lat="48.46495" lon="7.40793">
        <ele>399</ele>
        <time>2017-02-18T08:16:18Z</time>
      </trkpt>
      <trkpt lat="48.46491" lon="7.4079">
        <ele>400</ele>
        <time>2017-02-18T08:16:20Z</time>
      </trkpt>
      <trkpt lat="48.46478" lon="7.40776">
        <ele>400</ele>
        <time>2017-02-18T08:16:29Z</time>
      </trkpt>
      <trkpt lat="48.46466" lon="7.40765">
        <ele>401</ele>
        <time>2017-02-18T08:16:37Z</time>
      </trkpt>
      <trkpt lat="48.46451" lon="7.40754">
        <ele>405</ele>
        <time>2017-02-18T08:16:48Z</time>
      </trkpt>
      <trkpt lat="48.46444" lon="7.4075">
        <ele>406</ele>
        <time>2017-02-18T08:16:53Z</time>
      </trkpt>
      <trkpt lat="48.46433" lon="7.40741">
        <ele>403</ele>
        <time>2017-02-18T08:16:59Z</time>
      </trkpt>
      <trkpt lat="48.4643" lon="7.40739">
        <ele>404</ele>
        <time>2017-02-18T08:17:02Z</time>
      </trkpt>
      <trkpt lat="48.46418" lon="7.40725">
        <ele>402</ele>
        <time>2017-02-18T08:17:11Z</time>
      </trkpt>
      <trkpt lat="48.46415" lon="7.40722">
        <ele>416</ele>
        <time>2017-02-18T08:17:13Z</time>
      </trkpt>
      <trkpt lat="48.46403" lon="7.40709">
        <ele>416</ele>
        <time>2017-02-18T08:17:21Z</time>
      </trkpt>
      <trkpt lat="48.46401" lon="7.40705">
        <ele>416</ele>
        <time>2017-02-18T08:17:23Z</time>
      </trkpt>
      <trkpt lat="48.46398" lon="7.40701">
        <ele>416</ele>
        <time>2017-02-18T08:17:25Z</time>
      </trkpt>
      <trkpt lat="48.46393" lon="7.40697">
        <ele>416</ele>
        <time>2017-02-18T08:17:29Z</time>
      </trkpt>
      <trkpt lat="48.46388" lon="7.4069">
        <ele>416</ele>
        <time>2017-02-18T08:17:34Z</time>
      </trkpt>
      <trkpt lat="48.46383" lon="7.4068">
        <ele>417</ele>
        <time>2017-02-18T08:17:40Z</time>
      </trkpt>
      <trkpt lat="48.46382" lon="7.40678">
        <ele>417</ele>
        <time>2017-02-18T08:17:41Z</time>
      </trkpt>
      <trkpt lat="48.46376" lon="7.40669">
        <ele>418</ele>
        <time>2017-02-18T08:17:47Z</time>
      </trkpt>
      <trkpt lat="48.46366" lon="7.40659">
        <ele>413</ele>
        <time>2017-02-18T08:17:53Z</time>
      </trkpt>
      <trkpt lat="48.46363" lon="7.4066">
        <ele>414</ele>
        <time>2017-02-18T08:17:56Z</time>
      </trkpt>
      <trkpt lat="48.46359" lon="7.40662">
        <ele>416</ele>
        <time>2017-02-18T08:17:59Z</time>
      </trkpt>
      <trkpt lat="48.46359" lon="7.40664">
        <ele>416</ele>
        <time>2017-02-18T08:18:00Z</time>
      </trkpt>
      <trkpt lat="48.46359" lon="7.40666">
        <ele>416</ele>
        <time>2017-02-18T08:18:01Z</time>
      </trkpt>
      <trkpt lat="48.46359" lon="7.40672">
        <ele>422</ele>
        <time>2017-02-18T08:18:03Z</time>
      </trkpt>
      <trkpt lat="48.46365" lon="7.40687">
        <ele>421</ele>
        <time>2017-02-18T08:18:09Z</time>
      </trkpt>
      <trkpt lat="48.46377" lon="7.40702">
        <ele>420</ele>
        <time>2017-02-18T08:18:17Z</time>
      </trkpt>
      <trkpt lat="48.4638" lon="7.40705">
        <ele>419</ele>
        <time>2017-02-18T08:18:19Z</time>
      </trkpt>
      <trkpt lat="48.46386" lon="7.40713">
        <ele>419</ele>
        <time>2017-02-18T08:18:24Z</time>
      </trkpt>
      <trkpt lat="48.46391" lon="7.40723">
        <ele>419</ele>
        <time>2017-02-18T08:18:28Z</time>
      </trkpt>
      <trkpt lat="48.46394" lon="7.40733">
        <ele>419</ele>
        <time>2017-02-18T08:18:33Z</time>
      </trkpt>
      <trkpt lat="48.464" lon="7.40749">
        <ele>417</ele>
        <time>2017-02-18T08:18:41Z</time>
      </trkpt>
      <trkpt lat="48.46402" lon="7.40754">
        <ele>421</ele>
        <time>2017-02-18T08:18:43Z</time>
      </trkpt>
      <trkpt lat="48.46407" lon="7.40767">
        <ele>422</ele>
        <time>2017-02-18T08:18:49Z</time>
      </trkpt>
      <trkpt lat="48.46414" lon="7.40782">
        <ele>423</ele>
        <time>2017-02-18T08:18:56Z</time>
      </trkpt>
      <trkpt lat="48.46416" lon="7.4079">
        <ele>424</ele>
        <time>2017-02-18T08:18:59Z</time>
      </trkpt>
      <trkpt lat="48.46423" lon="7.40808">
        <ele>410</ele>
        <time>2017-02-18T08:19:08Z</time>
      </trkpt>
      <trkpt lat="48.46428" lon="7.40832">
        <ele>414</ele>
        <time>2017-02-18T08:19:19Z</time>
      </trkpt>
      <trkpt lat="48.46431" lon="7.40836">
        <ele>413</ele>
        <time>2017-02-18T08:19:21Z</time>
      </trkpt>
      <trkpt lat="48.46431" lon="7.40838">
        <ele>413</ele>
        <time>2017-02-18T08:19:22Z</time>
      </trkpt>
      <trkpt lat="48.46431" lon="7.40854">
        <ele>410</ele>
        <time>2017-02-18T08:19:30Z</time>
      </trkpt>
      <trkpt lat="48.46433" lon="7.40865">
        <ele>408</ele>
        <time>2017-02-18T08:19:35Z</time>
      </trkpt>
      <trkpt lat="48.46432" lon="7.40871">
        <ele>408</ele>
        <time>2017-02-18T08:19:38Z</time>
      </trkpt>
      <trkpt lat="48.46429" lon="7.40881">
        <ele>408</ele>
        <time>2017-02-18T08:19:45Z</time>
      </trkpt>
      <trkpt lat="48.46422" lon="7.40891">
        <ele>408</ele>
        <time>2017-02-18T08:19:54Z</time>
      </trkpt>
      <trkpt lat="48.4642" lon="7.40895">
        <ele>408</ele>
        <time>2017-02-18T08:19:58Z</time>
      </trkpt>
      <trkpt lat="48.4642" lon="7.40896">
        <ele>408</ele>
        <time>2017-02-18T08:19:59Z</time>
      </trkpt>
      <trkpt lat="48.46419" lon="7.40895">
        <ele>408</ele>
        <time>2017-02-18T08:20:00Z</time>
      </trkpt>
      <trkpt lat="48.46419" lon="7.40896">
        <ele>408</ele>
        <time>2017-02-18T08:20:01Z</time>
      </trkpt>
      <trkpt lat="48.46418" lon="7.40896">
        <ele>408</ele>
        <time>2017-02-18T08:20:02Z</time>
      </trkpt>
      <trkpt lat="48.46417" lon="7.40895">
        <ele>408</ele>
        <time>2017-02-18T08:20:08Z</time>
      </trkpt>
      <trkpt lat="48.46421" lon="7.40892">
        <ele>408</ele>
        <time>2017-02-18T08:20:09Z</time>
      </trkpt>
      <trkpt lat="48.46425" lon="7.40887">
        <ele>408</ele>
        <time>2017-02-18T08:20:12Z</time>
      </trkpt>
      <trkpt lat="48.4643" lon="7.40854">
        <ele>410</ele>
        <time>2017-02-18T08:20:25Z</time>
      </trkpt>
      <trkpt lat="48.46431" lon="7.40851">
        <ele>410</ele>
        <time>2017-02-18T08:20:26Z</time>
      </trkpt>
      <trkpt lat="48.46432" lon="7.40847">
        <ele>411</ele>
        <time>2017-02-18T08:20:28Z</time>
      </trkpt>
      <trkpt lat="48.46429" lon="7.40833">
        <ele>414</ele>
        <time>2017-02-18T08:20:33Z</time>
      </trkpt>
      <trkpt lat="48.46422" lon="7.40803">
        <ele>410</ele>
        <time>2017-02-18T08:20:41Z</time>
      </trkpt>
      <trkpt lat="48.46418" lon="7.40797">
        <ele>409</ele>
        <time>2017-02-18T08:20:44Z</time>
      </trkpt>
      <trkpt lat="48.46417" lon="7.40795">
        <ele>424</ele>
        <time>2017-02-18T08:20:45Z</time>
      </trkpt>
      <trkpt lat="48.46411" lon="7.40782">
        <ele>424</ele>
        <time>2017-02-18T08:20:51Z</time>
      </trkpt>
      <trkpt lat="48.46408" lon="7.40774">
        <ele>423</ele>
        <time>2017-02-18T08:20:55Z</time>
      </trkpt>
      <trkpt lat="48.46399" lon="7.40754">
        <ele>422</ele>
        <time>2017-02-18T08:21:05Z</time>
      </trkpt>
      <trkpt lat="48.46395" lon="7.40752">
        <ele>423</ele>
        <time>2017-02-18T08:21:08Z</time>
      </trkpt>
      <trkpt lat="48.46393" lon="7.40752">
        <ele>423</ele>
        <time>2017-02-18T08:21:10Z</time>
      </trkpt>
      <trkpt lat="48.4639" lon="7.40754">
        <ele>424</ele>
        <time>2017-02-18T08:21:11Z</time>
      </trkpt>
      <trkpt lat="48.4639" lon="7.40756">
        <ele>424</ele>
        <time>2017-02-18T08:21:12Z</time>
      </trkpt>
      <trkpt lat="48.46393" lon="7.40772">
        <ele>425</ele>
        <time>2017-02-18T08:21:19Z</time>
      </trkpt>
      <trkpt lat="48.46395" lon="7.40779">
        <ele>425</ele>
        <time>2017-02-18T08:21:22Z</time>
      </trkpt>
      <trkpt lat="48.46394" lon="7.40794">
        <ele>426</ele>
        <time>2017-02-18T08:21:29Z</time>
      </trkpt>
      <trkpt lat="48.46393" lon="7.40801">
        <ele>426</ele>
        <time>2017-02-18T08:21:32Z</time>
      </trkpt>
      <trkpt lat="48.46393" lon="7.40803">
        <ele>426</ele>
        <time>2017-02-18T08:21:33Z</time>
      </trkpt>
      <trkpt lat="48.46392" lon="7.40811">
        <ele>426</ele>
        <time>2017-02-18T08:21:38Z</time>
      </trkpt>
      <trkpt lat="48.4639" lon="7.40814">
        <ele>426</ele>
        <time>2017-02-18T08:21:40Z</time>
      </trkpt>
      <trkpt lat="48.46387" lon="7.40826">
        <ele>427</ele>
        <time>2017-02-18T08:21:46Z</time>
      </trkpt>
      <trkpt lat="48.46386" lon="7.40828">
        <ele>427</ele>
        <time>2017-02-18T08:21:47Z</time>
      </trkpt>
      <trkpt lat="48.46384" lon="7.40835">
        <ele>426</ele>
        <time>2017-02-18T08:21:50Z</time>
      </trkpt>
      <trkpt lat="48.46378" lon="7.40845">
        <ele>427</ele>
        <time>2017-02-18T08:21:55Z</time>
      </trkpt>
      <trkpt lat="48.46375" lon="7.4085">
        <ele>428</ele>
        <time>2017-02-18T08:21:58Z</time>
      </trkpt>
      <trkpt lat="48.46373" lon="7.40853">
        <ele>428</ele>
        <time>2017-02-18T08:22:00Z</time>
      </trkpt>
      <trkpt lat="48.4637" lon="7.40857">
        <ele>428</ele>
        <time>2017-02-18T08:22:02Z</time>
      </trkpt>
      <trkpt lat="48.46361" lon="7.40868">
        <ele>429</ele>
        <time>2017-02-18T08:22:09Z</time>
      </trkpt>
      <trkpt lat="48.46359" lon="7.40871">
        <ele>429</ele>
        <time>2017-02-18T08:22:11Z</time>
      </trkpt>
      <trkpt lat="48.46358" lon="7.40874">
        <ele>429</ele>
        <time>2017-02-18T08:22:12Z</time>
      </trkpt>
      <trkpt lat="48.46349" lon="7.40883">
        <ele>430</ele>
        <time>2017-02-18T08:22:18Z</time>
      </trkpt>
      <trkpt lat="48.46346" lon="7.40885">
        <ele>430</ele>
        <time>2017-02-18T08:22:20Z</time>
      </trkpt>
      <trkpt lat="48.46343" lon="7.40887">
        <ele>430</ele>
        <time>2017-02-18T08:22:22Z</time>
      </trkpt>
      <trkpt lat="48.4634" lon="7.40892">
        <ele>431</ele>
        <time>2017-02-18T08:22:25Z</time>
      </trkpt>
      <trkpt lat="48.46331" lon="7.40902">
        <ele>442</ele>
        <time>2017-02-18T08:22:32Z</time>
      </trkpt>
      <trkpt lat="48.46322" lon="7.40908">
        <ele>442</ele>
        <time>2017-02-18T08:22:37Z</time>
      </trkpt>
      <trkpt lat="48.46314" lon="7.40915">
        <ele>444</ele>
        <time>2017-02-18T08:22:42Z</time>
      </trkpt>
      <trkpt lat="48.46313" lon="7.40917">
        <ele>438</ele>
        <time>2017-02-18T08:22:43Z</time>
      </trkpt>
      <trkpt lat="48.4631" lon="7.4092">
        <ele>438</ele>
        <time>2017-02-18T08:22:45Z</time>
      </trkpt>
      <trkpt lat="48.46299" lon="7.40931">
        <ele>440</ele>
        <time>2017-02-18T08:22:54Z</time>
      </trkpt>
      <trkpt lat="48.46284" lon="7.40941">
        <ele>442</ele>
        <time>2017-02-18T08:23:04Z</time>
      </trkpt>
      <trkpt lat="48.46282" lon="7.40943">
        <ele>442</ele>
        <time>2017-02-18T08:23:06Z</time>
      </trkpt>
      <trkpt lat="48.46262" lon="7.40957">
        <ele>443</ele>
        <time>2017-02-18T08:23:18Z</time>
      </trkpt>
      <trkpt lat="48.46248" lon="7.4097">
        <ele>457</ele>
        <time>2017-02-18T08:23:28Z</time>
      </trkpt>
      <trkpt lat="48.46242" lon="7.40977">
        <ele>456</ele>
        <time>2017-02-18T08:23:33Z</time>
      </trkpt>
      <trkpt lat="48.46234" lon="7.40983">
        <ele>456</ele>
        <time>2017-02-18T08:23:38Z</time>
      </trkpt>
      <trkpt lat="48.46225" lon="7.40989">
        <ele>457</ele>
        <time>2017-02-18T08:23:45Z</time>
      </trkpt>
      <trkpt lat="48.46207" lon="7.41006">
        <ele>449</ele>
        <time>2017-02-18T08:23:59Z</time>
      </trkpt>
      <trkpt lat="48.46191" lon="7.41017">
        <ele>451</ele>
        <time>2017-02-18T08:24:11Z</time>
      </trkpt>
      <trkpt lat="48.46175" lon="7.41022">
        <ele>453</ele>
        <time>2017-02-18T08:24:21Z</time>
      </trkpt>
      <trkpt lat="48.4617" lon="7.41023">
        <ele>454</ele>
        <time>2017-02-18T08:24:24Z</time>
      </trkpt>
      <trkpt lat="48.46154" lon="7.41028">
        <ele>458</ele>
        <time>2017-02-18T08:24:33Z</time>
      </trkpt>
      <trkpt lat="48.46152" lon="7.4103">
        <ele>458</ele>
        <time>2017-02-18T08:24:34Z</time>
      </trkpt>
      <trkpt lat="48.46146" lon="7.41031">
        <ele>457</ele>
        <time>2017-02-18T08:24:37Z</time>
      </trkpt>
      <trkpt lat="48.46135" lon="7.41034">
        <ele>457</ele>
        <time>2017-02-18T08:24:43Z</time>
      </trkpt>
      <trkpt lat="48.46124" lon="7.41034">
        <ele>456</ele>
        <time>2017-02-18T08:24:48Z</time>
      </trkpt>
      <trkpt lat="48.46122" lon="7.41033">
        <ele>456</ele>
        <time>2017-02-18T08:24:49Z</time>
      </trkpt>
      <trkpt lat="48.4612" lon="7.41035">
        <ele>456</ele>
        <time>2017-02-18T08:24:51Z</time>
      </trkpt>
      <trkpt lat="48.4611" lon="7.41024">
        <ele>457</ele>
        <time>2017-02-18T08:24:59Z</time>
      </trkpt>
      <trkpt lat="48.46103" lon="7.41006">
        <ele>458</ele>
        <time>2017-02-18T08:25:08Z</time>
      </trkpt>
      <trkpt lat="48.46098" lon="7.40981">
        <ele>466</ele>
        <time>2017-02-18T08:25:18Z</time>
      </trkpt>
      <trkpt lat="48.46097" lon="7.40973">
        <ele>467</ele>
        <time>2017-02-18T08:25:21Z</time>
      </trkpt>
      <trkpt lat="48.46092" lon="7.4096">
        <ele>468</ele>
        <time>2017-02-18T08:25:27Z</time>
      </trkpt>
      <trkpt lat="48.46091" lon="7.40955">
        <ele>469</ele>
        <time>2017-02-18T08:25:29Z</time>
      </trkpt>
      <trkpt lat="48.46091" lon="7.40953">
        <ele>469</ele>
        <time>2017-02-18T08:25:30Z</time>
      </trkpt>
      <trkpt lat="48.46088" lon="7.40941">
        <ele>470</ele>
        <time>2017-02-18T08:25:36Z</time>
      </trkpt>
      <trkpt lat="48.46086" lon="7.40934">
        <ele>470</ele>
        <time>2017-02-18T08:25:40Z</time>
      </trkpt>
      <trkpt lat="48.46085" lon="7.40922">
        <ele>471</ele>
        <time>2017-02-18T08:25:46Z</time>
      </trkpt>
      <trkpt lat="48.46085" lon="7.40918">
        <ele>471</ele>
        <time>2017-02-18T08:25:48Z</time>
      </trkpt>
      <trkpt lat="48.46083" lon="7.4091">
        <ele>474</ele>
        <time>2017-02-18T08:25:51Z</time>
      </trkpt>
      <trkpt lat="48.46083" lon="7.40891">
        <ele>468</ele>
        <time>2017-02-18T08:25:57Z</time>
      </trkpt>
      <trkpt lat="48.46084" lon="7.40889">
        <ele>478</ele>
        <time>2017-02-18T08:25:58Z</time>
      </trkpt>
      <trkpt lat="48.46084" lon="7.40887">
        <ele>478</ele>
        <time>2017-02-18T08:25:59Z</time>
      </trkpt>
      <trkpt lat="48.46084" lon="7.40885">
        <ele>479</ele>
        <time>2017-02-18T08:26:00Z</time>
      </trkpt>
      <trkpt lat="48.4608" lon="7.40855">
        <ele>473</ele>
        <time>2017-02-18T08:26:10Z</time>
      </trkpt>
      <trkpt lat="48.4608" lon="7.40848">
        <ele>475</ele>
        <time>2017-02-18T08:26:13Z</time>
      </trkpt>
      <trkpt lat="48.46077" lon="7.40832">
        <ele>481</ele>
        <time>2017-02-18T08:26:20Z</time>
      </trkpt>
      <trkpt lat="48.46078" lon="7.40826">
        <ele>480</ele>
        <time>2017-02-18T08:26:23Z</time>
      </trkpt>
      <trkpt lat="48.46078" lon="7.40824">
        <ele>480</ele>
        <time>2017-02-18T08:26:24Z</time>
      </trkpt>
      <trkpt lat="48.46078" lon="7.4081">
        <ele>478</ele>
        <time>2017-02-18T08:26:29Z</time>
      </trkpt>
      <trkpt lat="48.46078" lon="7.40807">
        <ele>478</ele>
        <time>2017-02-18T08:26:30Z</time>
      </trkpt>
      <trkpt lat="48.46075" lon="7.408">
        <ele>477</ele>
        <time>2017-02-18T08:26:33Z</time>
      </trkpt>
      <trkpt lat="48.46075" lon="7.40787">
        <ele>478</ele>
        <time>2017-02-18T08:26:40Z</time>
      </trkpt>
      <trkpt lat="48.46074" lon="7.40779">
        <ele>478</ele>
        <time>2017-02-18T08:26:44Z</time>
      </trkpt>
      <trkpt lat="48.46074" lon="7.40776">
        <ele>479</ele>
        <time>2017-02-18T08:26:45Z</time>
      </trkpt>
      <trkpt lat="48.46073" lon="7.40771">
        <ele>479</ele>
        <time>2017-02-18T08:26:47Z</time>
      </trkpt>
      <trkpt lat="48.46073" lon="7.40769">
        <ele>480</ele>
        <time>2017-02-18T08:26:48Z</time>
      </trkpt>
      <trkpt lat="48.4607" lon="7.40755">
        <ele>482</ele>
        <time>2017-02-18T08:26:54Z</time>
      </trkpt>
      <trkpt lat="48.46071" lon="7.40753">
        <ele>482</ele>
        <time>2017-02-18T08:26:55Z</time>
      </trkpt>
      <trkpt lat="48.46069" lon="7.40734">
        <ele>483</ele>
        <time>2017-02-18T08:27:02Z</time>
      </trkpt>
      <trkpt lat="48.46068" lon="7.40726">
        <ele>483</ele>
        <time>2017-02-18T08:27:05Z</time>
      </trkpt>
      <trkpt lat="48.46066" lon="7.40723">
        <ele>482</ele>
        <time>2017-02-18T08:27:06Z</time>
      </trkpt>
      <trkpt lat="48.46065" lon="7.4072">
        <ele>482</ele>
        <time>2017-02-18T08:27:07Z</time>
      </trkpt>
      <trkpt lat="48.46066" lon="7.40716">
        <ele>482</ele>
        <time>2017-02-18T08:27:08Z</time>
      </trkpt>
      <trkpt lat="48.46064" lon="7.40701">
        <ele>483</ele>
        <time>2017-02-18T08:27:13Z</time>
      </trkpt>
      <trkpt lat="48.46061" lon="7.40683">
        <ele>483</ele>
        <time>2017-02-18T08:27:18Z</time>
      </trkpt>
      <trkpt lat="48.46059" lon="7.40672">
        <ele>484</ele>
        <time>2017-02-18T08:27:22Z</time>
      </trkpt>
      <trkpt lat="48.46058" lon="7.40663">
        <ele>489</ele>
        <time>2017-02-18T08:27:26Z</time>
      </trkpt>
      <trkpt lat="48.46058" lon="7.40648">
        <ele>490</ele>
        <time>2017-02-18T08:31:37Z</time>
      </trkpt>
      <trkpt lat="48.46059" lon="7.4064">
        <ele>490</ele>
        <time>2017-02-18T08:31:42Z</time>
      </trkpt>
      <trkpt lat="48.46058" lon="7.40634">
        <ele>490</ele>
        <time>2017-02-18T08:31:46Z</time>
      </trkpt>
      <trkpt lat="48.46054" lon="7.40595">
        <ele>493</ele>
        <time>2017-02-18T08:32:32Z</time>
      </trkpt>
      <trkpt lat="48.46053" lon="7.40589">
        <ele>493</ele>
        <time>2017-02-18T08:32:34Z</time>
      </trkpt>
      <trkpt lat="48.46052" lon="7.40586">
        <ele>493</ele>
        <time>2017-02-18T08:32:35Z</time>
      </trkpt>
      <trkpt lat="48.4605" lon="7.40578">
        <ele>500</ele>
        <time>2017-02-18T08:32:37Z</time>
      </trkpt>
      <trkpt lat="48.46047" lon="7.40571">
        <ele>501</ele>
        <time>2017-02-18T08:32:40Z</time>
      </trkpt>
      <trkpt lat="48.46044" lon="7.40553">
        <ele>502</ele>
        <time>2017-02-18T08:32:46Z</time>
      </trkpt>
      <trkpt lat="48.46042" lon="7.40546">
        <ele>502</ele>
        <time>2017-02-18T08:32:49Z</time>
      </trkpt>
      <trkpt lat="48.46039" lon="7.40536">
        <ele>503</ele>
        <time>2017-02-18T08:32:54Z</time>
      </trkpt>
      <trkpt lat="48.46037" lon="7.40518">
        <ele>505</ele>
        <time>2017-02-18T08:33:02Z</time>
      </trkpt>
      <trkpt lat="48.46039" lon="7.40514">
        <ele>505</ele>
        <time>2017-02-18T08:33:03Z</time>
      </trkpt>
      <trkpt lat="48.46039" lon="7.40508">
        <ele>505</ele>
        <time>2017-02-18T08:33:05Z</time>
      </trkpt>
      <trkpt lat="48.46036" lon="7.40481">
        <ele>509</ele>
        <time>2017-02-18T08:33:15Z</time>
      </trkpt>
      <trkpt lat="48.46038" lon="7.40442">
        <ele>508</ele>
        <time>2017-02-18T08:33:29Z</time>
      </trkpt>
      <trkpt lat="48.46035" lon="7.40431">
        <ele>509</ele>
        <time>2017-02-18T08:33:31Z</time>
      </trkpt>
      <trkpt lat="48.46034" lon="7.40425">
        <ele>509</ele>
        <time>2017-02-18T08:33:33Z</time>
      </trkpt>
      <trkpt lat="48.46035" lon="7.40397">
        <ele>507</ele>
        <time>2017-02-18T08:33:42Z</time>
      </trkpt>
      <trkpt lat="48.46031" lon="7.4038">
        <ele>507</ele>
        <time>2017-02-18T08:33:48Z</time>
      </trkpt>
      <trkpt lat="48.4603" lon="7.40372">
        <ele>507</ele>
        <time>2017-02-18T08:33:50Z</time>
      </trkpt>
      <trkpt lat="48.4603" lon="7.4037">
        <ele>507</ele>
        <time>2017-02-18T08:33:51Z</time>
      </trkpt>
      <trkpt lat="48.46026" lon="7.40336">
        <ele>509</ele>
        <time>2017-02-18T08:34:01Z</time>
      </trkpt>
      <trkpt lat="48.46024" lon="7.40325">
        <ele>505</ele>
        <time>2017-02-18T08:34:04Z</time>
      </trkpt>
      <trkpt lat="48.46026" lon="7.40319">
        <ele>503</ele>
        <time>2017-02-18T08:34:05Z</time>
      </trkpt>
      <trkpt lat="48.46016" lon="7.40302">
        <ele>503</ele>
        <time>2017-02-18T08:34:13Z</time>
      </trkpt>
      <trkpt lat="48.46014" lon="7.40297">
        <ele>502</ele>
        <time>2017-02-18T08:34:15Z</time>
      </trkpt>
      <trkpt lat="48.46014" lon="7.40294">
        <ele>502</ele>
        <time>2017-02-18T08:34:16Z</time>
      </trkpt>
      <trkpt lat="48.46011" lon="7.40284">
        <ele>502</ele>
        <time>2017-02-18T08:34:20Z</time>
      </trkpt>
      <trkpt lat="48.46002" lon="7.40259">
        <ele>505</ele>
        <time>2017-02-18T08:34:28Z</time>
      </trkpt>
      <trkpt lat="48.45994" lon="7.40226">
        <ele>513</ele>
        <time>2017-02-18T08:34:35Z</time>
      </trkpt>
      <trkpt lat="48.45971" lon="7.40186">
        <ele>512</ele>
        <time>2017-02-18T08:34:46Z</time>
      </trkpt>
      <trkpt lat="48.45963" lon="7.40169">
        <ele>513</ele>
        <time>2017-02-18T08:34:50Z</time>
      </trkpt>
      <trkpt lat="48.45948" lon="7.40142">
        <ele>506</ele>
        <time>2017-02-18T08:34:57Z</time>
      </trkpt>
      <trkpt lat="48.45943" lon="7.40127">
        <ele>506</ele>
        <time>2017-02-18T08:35:00Z</time>
      </trkpt>
      <trkpt lat="48.45938" lon="7.40112">
        <ele>506</ele>
        <time>2017-02-18T08:35:02Z</time>
      </trkpt>
      <trkpt lat="48.45935" lon="7.40104">
        <ele>507</ele>
        <time>2017-02-18T08:35:03Z</time>
      </trkpt>
      <trkpt lat="48.45931" lon="7.40096">
        <ele>509</ele>
        <time>2017-02-18T08:35:04Z</time>
      </trkpt>
      <trkpt lat="48.45926" lon="7.40081">
        <ele>510</ele>
        <time>2017-02-18T08:35:06Z</time>
      </trkpt>
      <trkpt lat="48.45923" lon="7.40069">
        <ele>508</ele>
        <time>2017-02-18T08:35:08Z</time>
      </trkpt>
      <trkpt lat="48.45917" lon="7.40052">
        <ele>506</ele>
        <time>2017-02-18T08:35:12Z</time>
      </trkpt>
      <trkpt lat="48.45917" lon="7.40047">
        <ele>530</ele>
        <time>2017-02-18T08:35:13Z</time>
      </trkpt>
      <trkpt lat="48.45917" lon="7.40034">
        <ele>507</ele>
        <time>2017-02-18T08:35:16Z</time>
      </trkpt>
      <trkpt lat="48.45918" lon="7.40016">
        <ele>512</ele>
        <time>2017-02-18T08:35:20Z</time>
      </trkpt>
      <trkpt lat="48.45924" lon="7.39992">
        <ele>518</ele>
        <time>2017-02-18T08:35:25Z</time>
      </trkpt>
      <trkpt lat="48.45938" lon="7.39963">
        <ele>515</ele>
        <time>2017-02-18T08:35:31Z</time>
      </trkpt>
      <trkpt lat="48.45958" lon="7.39932">
        <ele>514</ele>
        <time>2017-02-18T08:35:39Z</time>
      </trkpt>
      <trkpt lat="48.45966" lon="7.3992">
        <ele>512</ele>
        <time>2017-02-18T08:35:44Z</time>
      </trkpt>
      <trkpt lat="48.45967" lon="7.39918">
        <ele>512</ele>
        <time>2017-02-18T08:35:45Z</time>
      </trkpt>
      <trkpt lat="48.45978" lon="7.39904">
        <ele>519</ele>
        <time>2017-02-18T08:35:52Z</time>
      </trkpt>
      <trkpt lat="48.45981" lon="7.39901">
        <ele>519</ele>
        <time>2017-02-18T08:35:54Z</time>
      </trkpt>
      <trkpt lat="48.45993" lon="7.39892">
        <ele>519</ele>
        <time>2017-02-18T08:36:01Z</time>
      </trkpt>
      <trkpt lat="48.46001" lon="7.39887">
        <ele>509</ele>
        <time>2017-02-18T08:36:05Z</time>
      </trkpt>
      <trkpt lat="48.46013" lon="7.39885">
        <ele>509</ele>
        <time>2017-02-18T08:36:13Z</time>
      </trkpt>
      <trkpt lat="48.46016" lon="7.39885">
        <ele>509</ele>
        <time>2017-02-18T08:36:15Z</time>
      </trkpt>
      <trkpt lat="48.46038" lon="7.39879">
        <ele>510</ele>
        <time>2017-02-18T08:36:28Z</time>
      </trkpt>
      <trkpt lat="48.46045" lon="7.39877">
        <ele>510</ele>
        <time>2017-02-18T08:36:32Z</time>
      </trkpt>
      <trkpt lat="48.46049" lon="7.39875">
        <ele>510</ele>
        <time>2017-02-18T08:36:34Z</time>
      </trkpt>
      <trkpt lat="48.46052" lon="7.39873">
        <ele>510</ele>
        <time>2017-02-18T08:36:35Z</time>
      </trkpt>
      <trkpt lat="48.46054" lon="7.39872">
        <ele>510</ele>
        <time>2017-02-18T08:36:36Z</time>
      </trkpt>
      <trkpt lat="48.46071" lon="7.39852">
        <ele>513</ele>
        <time>2017-02-18T08:36:44Z</time>
      </trkpt>
      <trkpt lat="48.46072" lon="7.3985">
        <ele>514</ele>
        <time>2017-02-18T08:36:45Z</time>
      </trkpt>
      <trkpt lat="48.46072" lon="7.39845">
        <ele>515</ele>
        <time>2017-02-18T08:36:47Z</time>
      </trkpt>
      <trkpt lat="48.46072" lon="7.39842">
        <ele>515</ele>
        <time>2017-02-18T08:36:48Z</time>
      </trkpt>
      <trkpt lat="48.46069" lon="7.39834">
        <ele>515</ele>
        <time>2017-02-18T08:36:51Z</time>
      </trkpt>
      <trkpt lat="48.46066" lon="7.39829">
        <ele>518</ele>
        <time>2017-02-18T08:36:53Z</time>
      </trkpt>
      <trkpt lat="48.46061" lon="7.39826">
        <ele>517</ele>
        <time>2017-02-18T08:36:56Z</time>
      </trkpt>
      <trkpt lat="48.46049" lon="7.39816">
        <ele>517</ele>
        <time>2017-02-18T08:37:03Z</time>
      </trkpt>
      <trkpt lat="48.46044" lon="7.39813">
        <ele>517</ele>
        <time>2017-02-18T08:37:06Z</time>
      </trkpt>
      <trkpt lat="48.46041" lon="7.39812">
        <ele>517</ele>
        <time>2017-02-18T08:37:07Z</time>
      </trkpt>
      <trkpt lat="48.46036" lon="7.3981">
        <ele>517</ele>
        <time>2017-02-18T08:37:09Z</time>
      </trkpt>
      <trkpt lat="48.46034" lon="7.3981">
        <ele>517</ele>
        <time>2017-02-18T08:37:10Z</time>
      </trkpt>
      <trkpt lat="48.46033" lon="7.39811">
        <ele>517</ele>
        <time>2017-02-18T08:37:11Z</time>
      </trkpt>
      <trkpt lat="48.46018" lon="7.39812">
        <ele>518</ele>
        <time>2017-02-18T08:37:19Z</time>
      </trkpt>
      <trkpt lat="48.46013" lon="7.39813">
        <ele>518</ele>
        <time>2017-02-18T08:37:22Z</time>
      </trkpt>
      <trkpt lat="48.46004" lon="7.39818">
        <ele>519</ele>
        <time>2017-02-18T08:37:28Z</time>
      </trkpt>
      <trkpt lat="48.46" lon="7.39824">
        <ele>520</ele>
        <time>2017-02-18T08:37:31Z</time>
      </trkpt>
      <trkpt lat="48.45994" lon="7.3984">
        <ele>524</ele>
        <time>2017-02-18T08:37:39Z</time>
      </trkpt>
      <trkpt lat="48.4599" lon="7.39847">
        <ele>525</ele>
        <time>2017-02-18T08:37:43Z</time>
      </trkpt>
      <trkpt lat="48.45981" lon="7.39851">
        <ele>526</ele>
        <time>2017-02-18T08:37:47Z</time>
      </trkpt>
      <trkpt lat="48.45971" lon="7.39853">
        <ele>528</ele>
        <time>2017-02-18T08:37:52Z</time>
      </trkpt>
      <trkpt lat="48.45965" lon="7.39857">
        <ele>529</ele>
        <time>2017-02-18T08:37:55Z</time>
      </trkpt>
      <trkpt lat="48.45959" lon="7.39858">
        <ele>530</ele>
        <time>2017-02-18T08:37:58Z</time>
      </trkpt>
      <trkpt lat="48.45943" lon="7.39866">
        <ele>532</ele>
        <time>2017-02-18T08:38:07Z</time>
      </trkpt>
      <trkpt lat="48.45938" lon="7.39869">
        <ele>533</ele>
        <time>2017-02-18T08:38:10Z</time>
      </trkpt>
      <trkpt lat="48.45935" lon="7.39871">
        <ele>533</ele>
        <time>2017-02-18T08:38:12Z</time>
      </trkpt>
      <trkpt lat="48.45914" lon="7.39883">
        <ele>553</ele>
        <time>2017-02-18T08:38:23Z</time>
      </trkpt>
      <trkpt lat="48.45912" lon="7.39882">
        <ele>553</ele>
        <time>2017-02-18T08:38:24Z</time>
      </trkpt>
      <trkpt lat="48.45907" lon="7.39885">
        <ele>553</ele>
        <time>2017-02-18T08:38:27Z</time>
      </trkpt>
      <trkpt lat="48.45878" lon="7.39904">
        <ele>558</ele>
        <time>2017-02-18T08:38:45Z</time>
      </trkpt>
      <trkpt lat="48.45869" lon="7.39914">
        <ele>560</ele>
        <time>2017-02-18T08:38:51Z</time>
      </trkpt>
      <trkpt lat="48.45855" lon="7.39935">
        <ele>556</ele>
        <time>2017-02-18T08:39:02Z</time>
      </trkpt>
      <trkpt lat="48.45852" lon="7.39938">
        <ele>556</ele>
        <time>2017-02-18T08:39:04Z</time>
      </trkpt>
      <trkpt lat="48.45836" lon="7.39966">
        <ele>555</ele>
        <time>2017-02-18T08:39:16Z</time>
      </trkpt>
      <trkpt lat="48.45833" lon="7.39975">
        <ele>575</ele>
        <time>2017-02-18T08:39:19Z</time>
      </trkpt>
      <trkpt lat="48.45828" lon="7.3999">
        <ele>570</ele>
        <time>2017-02-18T08:39:24Z</time>
      </trkpt>
      <trkpt lat="48.45826" lon="7.39998">
        <ele>567</ele>
        <time>2017-02-18T08:39:27Z</time>
      </trkpt>
      <trkpt lat="48.45825" lon="7.4">
        <ele>565</ele>
        <time>2017-02-18T08:39:28Z</time>
      </trkpt>
      <trkpt lat="48.45822" lon="7.40015">
        <ele>569</ele>
        <time>2017-02-18T08:39:39Z</time>
      </trkpt>
      <trkpt lat="48.45821" lon="7.40022">
        <ele>570</ele>
        <time>2017-02-18T08:39:46Z</time>
      </trkpt>
      <trkpt lat="48.45819" lon="7.40027">
        <ele>571</ele>
        <time>2017-02-18T08:39:48Z</time>
      </trkpt>
      <trkpt lat="48.45817" lon="7.40033">
        <ele>572</ele>
        <time>2017-02-18T08:39:50Z</time>
      </trkpt>
      <trkpt lat="48.45815" lon="7.40042">
        <ele>572</ele>
        <time>2017-02-18T08:39:53Z</time>
      </trkpt>
      <trkpt lat="48.45816" lon="7.40059">
        <ele>569</ele>
        <time>2017-02-18T08:39:59Z</time>
      </trkpt>
      <trkpt lat="48.45816" lon="7.40067">
        <ele>568</ele>
        <time>2017-02-18T08:40:02Z</time>
      </trkpt>
      <trkpt lat="48.45816" lon="7.4007">
        <ele>567</ele>
        <time>2017-02-18T08:40:03Z</time>
      </trkpt>
      <trkpt lat="48.45817" lon="7.40077">
        <ele>565</ele>
        <time>2017-02-18T08:40:06Z</time>
      </trkpt>
      <trkpt lat="48.45816" lon="7.40082">
        <ele>565</ele>
        <time>2017-02-18T08:40:08Z</time>
      </trkpt>
      <trkpt lat="48.45817" lon="7.401">
        <ele>567</ele>
        <time>2017-02-18T08:40:15Z</time>
      </trkpt>
      <trkpt lat="48.45818" lon="7.40103">
        <ele>568</ele>
        <time>2017-02-18T08:40:16Z</time>
      </trkpt>
      <trkpt lat="48.45819" lon="7.40108">
        <ele>568</ele>
        <time>2017-02-18T08:40:18Z</time>
      </trkpt>
      <trkpt lat="48.4582" lon="7.40136">
        <ele>570</ele>
        <time>2017-02-18T08:40:27Z</time>
      </trkpt>
      <trkpt lat="48.45831" lon="7.40162">
        <ele>559</ele>
        <time>2017-02-18T08:40:35Z</time>
      </trkpt>
      <trkpt lat="48.45835" lon="7.40175">
        <ele>553</ele>
        <time>2017-02-18T08:40:40Z</time>
      </trkpt>
      <trkpt lat="48.4584" lon="7.40184">
        <ele>552</ele>
        <time>2017-02-18T08:40:43Z</time>
      </trkpt>
      <trkpt lat="48.45853" lon="7.40209">
        <ele>552</ele>
        <time>2017-02-18T08:40:53Z</time>
      </trkpt>
      <trkpt lat="48.45861" lon="7.40224">
        <ele>553</ele>
        <time>2017-02-18T08:41:00Z</time>
      </trkpt>
      <trkpt lat="48.45866" lon="7.4023">
        <ele>553</ele>
        <time>2017-02-18T08:41:03Z</time>
      </trkpt>
      <trkpt lat="48.4587" lon="7.40237">
        <ele>553</ele>
        <time>2017-02-18T08:41:06Z</time>
      </trkpt>
      <trkpt lat="48.45871" lon="7.40241">
        <ele>553</ele>
        <time>2017-02-18T08:41:07Z</time>
      </trkpt>
      <trkpt lat="48.45872" lon="7.40243">
        <ele>552</ele>
        <time>2017-02-18T08:41:08Z</time>
      </trkpt>
      <trkpt lat="48.45879" lon="7.40253">
        <ele>560</ele>
        <time>2017-02-18T08:41:13Z</time>
      </trkpt>
      <trkpt lat="48.45881" lon="7.4026">
        <ele>560</ele>
        <time>2017-02-18T08:41:16Z</time>
      </trkpt>
      <trkpt lat="48.45891" lon="7.40284">
        <ele>560</ele>
        <time>2017-02-18T08:41:26Z</time>
      </trkpt>
      <trkpt lat="48.45897" lon="7.40302">
        <ele>560</ele>
        <time>2017-02-18T08:41:33Z</time>
      </trkpt>
      <trkpt lat="48.45902" lon="7.40322">
        <ele>559</ele>
        <time>2017-02-18T08:41:41Z</time>
      </trkpt>
      <trkpt lat="48.45902" lon="7.40324">
        <ele>559</ele>
        <time>2017-02-18T08:41:42Z</time>
      </trkpt>
      <trkpt lat="48.45903" lon="7.40331">
        <ele>559</ele>
        <time>2017-02-18T08:41:45Z</time>
      </trkpt>
      <trkpt lat="48.45904" lon="7.40334">
        <ele>560</ele>
        <time>2017-02-18T08:41:46Z</time>
      </trkpt>
      <trkpt lat="48.45904" lon="7.40337">
        <ele>560</ele>
        <time>2017-02-18T08:41:47Z</time>
      </trkpt>
      <trkpt lat="48.45904" lon="7.40353">
        <ele>562</ele>
        <time>2017-02-18T08:41:54Z</time>
      </trkpt>
      <trkpt lat="48.45901" lon="7.40366">
        <ele>563</ele>
        <time>2017-02-18T08:41:58Z</time>
      </trkpt>
      <trkpt lat="48.45897" lon="7.40371">
        <ele>564</ele>
        <time>2017-02-18T08:42:00Z</time>
      </trkpt>
      <trkpt lat="48.45888" lon="7.40391">
        <ele>565</ele>
        <time>2017-02-18T08:42:09Z</time>
      </trkpt>
      <trkpt lat="48.4588" lon="7.40404">
        <ele>565</ele>
        <time>2017-02-18T08:42:15Z</time>
      </trkpt>
      <trkpt lat="48.45879" lon="7.40405">
        <ele>566</ele>
        <time>2017-02-18T08:42:16Z</time>
      </trkpt>
      <trkpt lat="48.45873" lon="7.40409">
        <ele>567</ele>
        <time>2017-02-18T08:42:18Z</time>
      </trkpt>
      <trkpt lat="48.45859" lon="7.40423">
        <ele>564</ele>
        <time>2017-02-18T08:42:26Z</time>
      </trkpt>
      <trkpt lat="48.45849" lon="7.40438">
        <ele>564</ele>
        <time>2017-02-18T08:42:32Z</time>
      </trkpt>
      <trkpt lat="48.45835" lon="7.40456">
        <ele>561</ele>
        <time>2017-02-18T08:42:38Z</time>
      </trkpt>
      <trkpt lat="48.45829" lon="7.40463">
        <ele>573</ele>
        <time>2017-02-18T08:42:41Z</time>
      </trkpt>
      <trkpt lat="48.45817" lon="7.40473">
        <ele>573</ele>
        <time>2017-02-18T08:42:46Z</time>
      </trkpt>
      <trkpt lat="48.45806" lon="7.40487">
        <ele>573</ele>
        <time>2017-02-18T08:42:53Z</time>
      </trkpt>
      <trkpt lat="48.45806" lon="7.4049">
        <ele>572</ele>
        <time>2017-02-18T08:42:56Z</time>
      </trkpt>
      <trkpt lat="48.45801" lon="7.40498">
        <ele>573</ele>
        <time>2017-02-18T08:43:03Z</time>
      </trkpt>
      <trkpt lat="48.45816" lon="7.40364">
        <ele>588</ele>
        <time>2017-02-18T08:46:12Z</time>
      </trkpt>
      <trkpt lat="48.45818" lon="7.40357">
        <ele>587</ele>
        <time>2017-02-18T08:46:14Z</time>
      </trkpt>
      <trkpt lat="48.45819" lon="7.40355">
        <ele>587</ele>
        <time>2017-02-18T08:46:15Z</time>
      </trkpt>
      <trkpt lat="48.45819" lon="7.40351">
        <ele>587</ele>
        <time>2017-02-18T08:46:17Z</time>
      </trkpt>
      <trkpt lat="48.45817" lon="7.40343">
        <ele>586</ele>
        <time>2017-02-18T08:46:20Z</time>
      </trkpt>
      <trkpt lat="48.45816" lon="7.40338">
        <ele>586</ele>
        <time>2017-02-18T08:46:23Z</time>
      </trkpt>
      <trkpt lat="48.45813" lon="7.40332">
        <ele>587</ele>
        <time>2017-02-18T08:46:26Z</time>
      </trkpt>
      <trkpt lat="48.45811" lon="7.40329">
        <ele>587</ele>
        <time>2017-02-18T08:46:28Z</time>
      </trkpt>
      <trkpt lat="48.4581" lon="7.40328">
        <ele>588</ele>
        <time>2017-02-18T08:46:29Z</time>
      </trkpt>
      <trkpt lat="48.45803" lon="7.40326">
        <ele>589</ele>
        <time>2017-02-18T08:46:36Z</time>
      </trkpt>
      <trkpt lat="48.45801" lon="7.40327">
        <ele>590</ele>
        <time>2017-02-18T08:46:38Z</time>
      </trkpt>
      <trkpt lat="48.458" lon="7.40327">
        <ele>590</ele>
        <time>2017-02-18T08:46:39Z</time>
      </trkpt>
      <trkpt lat="48.45798" lon="7.40326">
        <ele>591</ele>
        <time>2017-02-18T08:46:40Z</time>
      </trkpt>
      <trkpt lat="48.45796" lon="7.40326">
        <ele>591</ele>
        <time>2017-02-18T08:46:42Z</time>
      </trkpt>
      <trkpt lat="48.45794" lon="7.40325">
        <ele>591</ele>
        <time>2017-02-18T08:46:43Z</time>
      </trkpt>
      <trkpt lat="48.4578" lon="7.40324">
        <ele>595</ele>
        <time>2017-02-18T08:46:54Z</time>
      </trkpt>
      <trkpt lat="48.45777" lon="7.40319">
        <ele>595</ele>
        <time>2017-02-18T08:46:58Z</time>
      </trkpt>
      <trkpt lat="48.45776" lon="7.40314">
        <ele>595</ele>
        <time>2017-02-18T08:47:03Z</time>
      </trkpt>
      <trkpt lat="48.45771" lon="7.4031">
        <ele>596</ele>
        <time>2017-02-18T08:47:10Z</time>
      </trkpt>
      <trkpt lat="48.45768" lon="7.40296">
        <ele>595</ele>
        <time>2017-02-18T08:47:19Z</time>
      </trkpt>
      <trkpt lat="48.45767" lon="7.40294">
        <ele>595</ele>
        <time>2017-02-18T08:47:20Z</time>
      </trkpt>
      <trkpt lat="48.45765" lon="7.40293">
        <ele>596</ele>
        <time>2017-02-18T08:47:23Z</time>
      </trkpt>
      <trkpt lat="48.4576" lon="7.40313">
        <ele>598</ele>
        <time>2017-02-18T08:47:37Z</time>
      </trkpt>
      <trkpt lat="48.4576" lon="7.40314">
        <ele>598</ele>
        <time>2017-02-18T08:47:38Z</time>
      </trkpt>
      <trkpt lat="48.45755" lon="7.40332">
        <ele>603</ele>
        <time>2017-02-18T08:47:50Z</time>
      </trkpt>
      <trkpt lat="48.45749" lon="7.40344">
        <ele>610</ele>
        <time>2017-02-18T08:47:53Z</time>
      </trkpt>
      <trkpt lat="48.45748" lon="7.40349">
        <ele>611</ele>
        <time>2017-02-18T08:47:56Z</time>
      </trkpt>
      <trkpt lat="48.45748" lon="7.40352">
        <ele>612</ele>
        <time>2017-02-18T08:47:57Z</time>
      </trkpt>
      <trkpt lat="48.45747" lon="7.40354">
        <ele>612</ele>
        <time>2017-02-18T08:47:58Z</time>
      </trkpt>
      <trkpt lat="48.45741" lon="7.40365">
        <ele>613</ele>
        <time>2017-02-18T08:48:04Z</time>
      </trkpt>
      <trkpt lat="48.4574" lon="7.40371">
        <ele>613</ele>
        <time>2017-02-18T08:48:07Z</time>
      </trkpt>
      <trkpt lat="48.45737" lon="7.40381">
        <ele>613</ele>
        <time>2017-02-18T08:48:11Z</time>
      </trkpt>
      <trkpt lat="48.45735" lon="7.40381">
        <ele>613</ele>
        <time>2017-02-18T08:48:12Z</time>
      </trkpt>
      <trkpt lat="48.45735" lon="7.40381">
        <ele>613</ele>
        <time>2017-02-18T08:48:13Z</time>
      </trkpt>
      <trkpt lat="48.45736" lon="7.4038">
        <ele>613</ele>
        <time>2017-02-18T08:48:14Z</time>
      </trkpt>
      <trkpt lat="48.45737" lon="7.40361">
        <ele>614</ele>
        <time>2017-02-18T08:48:25Z</time>
      </trkpt>
      <trkpt lat="48.45736" lon="7.40358">
        <ele>614</ele>
        <time>2017-02-18T08:48:27Z</time>
      </trkpt>
      <trkpt lat="48.45727" lon="7.40345">
        <ele>615</ele>
        <time>2017-02-18T08:48:35Z</time>
      </trkpt>
      <trkpt lat="48.45724" lon="7.40336">
        <ele>615</ele>
        <time>2017-02-18T08:48:39Z</time>
      </trkpt>
      <trkpt lat="48.45722" lon="7.4033">
        <ele>618</ele>
        <time>2017-02-18T08:48:42Z</time>
      </trkpt>
      <trkpt lat="48.45719" lon="7.40322">
        <ele>619</ele>
        <time>2017-02-18T08:48:48Z</time>
      </trkpt>
      <trkpt lat="48.45718" lon="7.40316">
        <ele>620</ele>
        <time>2017-02-18T08:48:51Z</time>
      </trkpt>
      <trkpt lat="48.45712" lon="7.40299">
        <ele>622</ele>
        <time>2017-02-18T08:48:57Z</time>
      </trkpt>
      <trkpt lat="48.4571" lon="7.40279">
        <ele>622</ele>
        <time>2017-02-18T08:49:07Z</time>
      </trkpt>
      <trkpt lat="48.4571" lon="7.40274">
        <ele>622</ele>
        <time>2017-02-18T08:49:09Z</time>
      </trkpt>
      <trkpt lat="48.45706" lon="7.40261">
        <ele>623</ele>
        <time>2017-02-18T08:49:16Z</time>
      </trkpt>
      <trkpt lat="48.45705" lon="7.40255">
        <ele>624</ele>
        <time>2017-02-18T08:49:19Z</time>
      </trkpt>
      <trkpt lat="48.45703" lon="7.40249">
        <ele>625</ele>
        <time>2017-02-18T08:49:22Z</time>
      </trkpt>
      <trkpt lat="48.45704" lon="7.40247">
        <ele>625</ele>
        <time>2017-02-18T08:49:23Z</time>
      </trkpt>
      <trkpt lat="48.45701" lon="7.40229">
        <ele>625</ele>
        <time>2017-02-18T08:49:30Z</time>
      </trkpt>
      <trkpt lat="48.45699" lon="7.40226">
        <ele>626</ele>
        <time>2017-02-18T08:49:32Z</time>
      </trkpt>
      <trkpt lat="48.45695" lon="7.40211">
        <ele>626</ele>
        <time>2017-02-18T08:49:39Z</time>
      </trkpt>
      <trkpt lat="48.45694" lon="7.4021">
        <ele>627</ele>
        <time>2017-02-18T08:49:40Z</time>
      </trkpt>
      <trkpt lat="48.45693" lon="7.40206">
        <ele>627</ele>
        <time>2017-02-18T08:49:42Z</time>
      </trkpt>
      <trkpt lat="48.45689" lon="7.40193">
        <ele>628</ele>
        <time>2017-02-18T08:49:48Z</time>
      </trkpt>
      <trkpt lat="48.45688" lon="7.40189">
        <ele>629</ele>
        <time>2017-02-18T08:49:50Z</time>
      </trkpt>
      <trkpt lat="48.45688" lon="7.40188">
        <ele>629</ele>
        <time>2017-02-18T08:49:51Z</time>
      </trkpt>
      <trkpt lat="48.45687" lon="7.40184">
        <ele>630</ele>
        <time>2017-02-18T08:49:53Z</time>
      </trkpt>
      <trkpt lat="48.45686" lon="7.40171">
        <ele>632</ele>
        <time>2017-02-18T08:49:59Z</time>
      </trkpt>
      <trkpt lat="48.45686" lon="7.40168">
        <ele>632</ele>
        <time>2017-02-18T08:50:01Z</time>
      </trkpt>
      <trkpt lat="48.45684" lon="7.40153">
        <ele>630</ele>
        <time>2017-02-18T08:50:07Z</time>
      </trkpt>
      <trkpt lat="48.45683" lon="7.40148">
        <ele>629</ele>
        <time>2017-02-18T08:50:09Z</time>
      </trkpt>
      <trkpt lat="48.45681" lon="7.40145">
        <ele>629</ele>
        <time>2017-02-18T08:50:11Z</time>
      </trkpt>
      <trkpt lat="48.45679" lon="7.40135">
        <ele>628</ele>
        <time>2017-02-18T08:50:15Z</time>
      </trkpt>
      <trkpt lat="48.45677" lon="7.40132">
        <ele>628</ele>
        <time>2017-02-18T08:50:17Z</time>
      </trkpt>
      <trkpt lat="48.45676" lon="7.40122">
        <ele>627</ele>
        <time>2017-02-18T08:50:23Z</time>
      </trkpt>
      <trkpt lat="48.45678" lon="7.40114">
        <ele>627</ele>
        <time>2017-02-18T08:50:29Z</time>
      </trkpt>
      <trkpt lat="48.4565" lon="7.40145">
        <ele>647</ele>
        <time>2017-02-18T08:52:03Z</time>
      </trkpt>
      <trkpt lat="48.4565" lon="7.40148">
        <ele>647</ele>
        <time>2017-02-18T08:52:04Z</time>
      </trkpt>
      <trkpt lat="48.4565" lon="7.4015">
        <ele>647</ele>
        <time>2017-02-18T08:52:05Z</time>
      </trkpt>
      <trkpt lat="48.4565" lon="7.40151">
        <ele>647</ele>
        <time>2017-02-18T08:52:06Z</time>
      </trkpt>
      <trkpt lat="48.45649" lon="7.40156">
        <ele>647</ele>
        <time>2017-02-18T08:52:08Z</time>
      </trkpt>
      <trkpt lat="48.45648" lon="7.40167">
        <ele>648</ele>
        <time>2017-02-18T08:52:13Z</time>
      </trkpt>
      <trkpt lat="48.45649" lon="7.40171">
        <ele>648</ele>
        <time>2017-02-18T08:52:15Z</time>
      </trkpt>
      <trkpt lat="48.45649" lon="7.40178">
        <ele>648</ele>
        <time>2017-02-18T08:52:19Z</time>
      </trkpt>
      <trkpt lat="48.4565" lon="7.4018">
        <ele>648</ele>
        <time>2017-02-18T08:52:20Z</time>
      </trkpt>
      <trkpt lat="48.4565" lon="7.40193">
        <ele>649</ele>
        <time>2017-02-18T08:52:23Z</time>
      </trkpt>
      <trkpt lat="48.45649" lon="7.40206">
        <ele>649</ele>
        <time>2017-02-18T08:52:27Z</time>
      </trkpt>
      <trkpt lat="48.45648" lon="7.40208">
        <ele>649</ele>
        <time>2017-02-18T08:52:28Z</time>
      </trkpt>
      <trkpt lat="48.45648" lon="7.40211">
        <ele>649</ele>
        <time>2017-02-18T08:52:30Z</time>
      </trkpt>
      <trkpt lat="48.45647" lon="7.40223">
        <ele>649</ele>
        <time>2017-02-18T08:52:36Z</time>
      </trkpt>
      <trkpt lat="48.45642" lon="7.4024">
        <ele>649</ele>
        <time>2017-02-18T08:52:44Z</time>
      </trkpt>
      <trkpt lat="48.45643" lon="7.40245">
        <ele>648</ele>
        <time>2017-02-18T08:52:47Z</time>
      </trkpt>
      <trkpt lat="48.45642" lon="7.40272">
        <ele>650</ele>
        <time>2017-02-18T08:52:58Z</time>
      </trkpt>
      <trkpt lat="48.45643" lon="7.40282">
        <ele>650</ele>
        <time>2017-02-18T08:53:01Z</time>
      </trkpt>
      <trkpt lat="48.45642" lon="7.40288">
        <ele>650</ele>
        <time>2017-02-18T08:53:03Z</time>
      </trkpt>
      <trkpt lat="48.45643" lon="7.4029">
        <ele>650</ele>
        <time>2017-02-18T08:53:05Z</time>
      </trkpt>
      <trkpt lat="48.45638" lon="7.40305">
        <ele>650</ele>
        <time>2017-02-18T08:53:13Z</time>
      </trkpt>
      <trkpt lat="48.45636" lon="7.40308">
        <ele>651</ele>
        <time>2017-02-18T08:53:15Z</time>
      </trkpt>
      <trkpt lat="48.45635" lon="7.4031">
        <ele>651</ele>
        <time>2017-02-18T08:53:17Z</time>
      </trkpt>
      <trkpt lat="48.4562" lon="7.40322">
        <ele>654</ele>
        <time>2017-02-18T08:53:28Z</time>
      </trkpt>
      <trkpt lat="48.45614" lon="7.40337">
        <ele>655</ele>
        <time>2017-02-18T08:53:37Z</time>
      </trkpt>
      <trkpt lat="48.45612" lon="7.40339">
        <ele>656</ele>
        <time>2017-02-18T08:53:39Z</time>
      </trkpt>
      <trkpt lat="48.45608" lon="7.40353">
        <ele>656</ele>
        <time>2017-02-18T08:53:45Z</time>
      </trkpt>
      <trkpt lat="48.45605" lon="7.40369">
        <ele>656</ele>
        <time>2017-02-18T08:53:52Z</time>
      </trkpt>
      <trkpt lat="48.45603" lon="7.40374">
        <ele>656</ele>
        <time>2017-02-18T08:53:54Z</time>
      </trkpt>
      <trkpt lat="48.456" lon="7.40386">
        <ele>656</ele>
        <time>2017-02-18T08:54:01Z</time>
      </trkpt>
      <trkpt lat="48.45599" lon="7.4039">
        <ele>657</ele>
        <time>2017-02-18T08:54:03Z</time>
      </trkpt>
      <trkpt lat="48.45598" lon="7.40394">
        <ele>657</ele>
        <time>2017-02-18T08:54:05Z</time>
      </trkpt>
      <trkpt lat="48.45597" lon="7.40407">
        <ele>660</ele>
        <time>2017-02-18T08:54:11Z</time>
      </trkpt>
      <trkpt lat="48.45593" lon="7.40415">
        <ele>662</ele>
        <time>2017-02-18T08:54:15Z</time>
      </trkpt>
      <trkpt lat="48.45591" lon="7.40427">
        <ele>659</ele>
        <time>2017-02-18T08:54:21Z</time>
      </trkpt>
      <trkpt lat="48.45586" lon="7.40449">
        <ele>654</ele>
        <time>2017-02-18T08:54:29Z</time>
      </trkpt>
      <trkpt lat="48.45583" lon="7.40459">
        <ele>664</ele>
        <time>2017-02-18T08:54:33Z</time>
      </trkpt>
      <trkpt lat="48.45581" lon="7.4047">
        <ele>663</ele>
        <time>2017-02-18T08:54:37Z</time>
      </trkpt>
      <trkpt lat="48.45575" lon="7.40487">
        <ele>661</ele>
        <time>2017-02-18T08:54:45Z</time>
      </trkpt>
      <trkpt lat="48.45567" lon="7.40507">
        <ele>653</ele>
        <time>2017-02-18T08:54:54Z</time>
      </trkpt>
      <trkpt lat="48.45567" lon="7.40512">
        <ele>652</ele>
        <time>2017-02-18T08:54:57Z</time>
      </trkpt>
      <trkpt lat="48.45562" lon="7.40526">
        <ele>650</ele>
        <time>2017-02-18T08:55:02Z</time>
      </trkpt>
      <trkpt lat="48.45562" lon="7.40524">
        <ele>650</ele>
        <time>2017-02-18T08:55:04Z</time>
      </trkpt>
      <trkpt lat="48.45554" lon="7.40504">
        <ele>651</ele>
        <time>2017-02-18T08:55:17Z</time>
      </trkpt>
      <trkpt lat="48.45551" lon="7.40501">
        <ele>651</ele>
        <time>2017-02-18T08:55:19Z</time>
      </trkpt>
      <trkpt lat="48.45538" lon="7.40491">
        <ele>662</ele>
        <time>2017-02-18T08:55:27Z</time>
      </trkpt>
      <trkpt lat="48.45523" lon="7.40474">
        <ele>663</ele>
        <time>2017-02-18T08:55:36Z</time>
      </trkpt>
      <trkpt lat="48.45514" lon="7.40465">
        <ele>664</ele>
        <time>2017-02-18T08:55:42Z</time>
      </trkpt>
      <trkpt lat="48.45511" lon="7.40461">
        <ele>665</ele>
        <time>2017-02-18T08:55:45Z</time>
      </trkpt>
      <trkpt lat="48.45509" lon="7.40454">
        <ele>666</ele>
        <time>2017-02-18T08:55:49Z</time>
      </trkpt>
      <trkpt lat="48.45498" lon="7.40431">
        <ele>669</ele>
        <time>2017-02-18T08:56:00Z</time>
      </trkpt>
      <trkpt lat="48.45496" lon="7.40428">
        <ele>670</ele>
        <time>2017-02-18T08:56:01Z</time>
      </trkpt>
      <trkpt lat="48.45494" lon="7.40427">
        <ele>670</ele>
        <time>2017-02-18T08:56:02Z</time>
      </trkpt>
      <trkpt lat="48.45493" lon="7.40425">
        <ele>671</ele>
        <time>2017-02-18T08:56:03Z</time>
      </trkpt>
      <trkpt lat="48.45491" lon="7.40424">
        <ele>671</ele>
        <time>2017-02-18T08:56:04Z</time>
      </trkpt>
      <trkpt lat="48.45483" lon="7.40408">
        <ele>677</ele>
        <time>2017-02-18T08:56:14Z</time>
      </trkpt>
      <trkpt lat="48.45483" lon="7.40407">
        <ele>677</ele>
        <time>2017-02-18T08:56:15Z</time>
      </trkpt>
      <trkpt lat="48.45478" lon="7.40397">
        <ele>677</ele>
        <time>2017-02-18T08:56:24Z</time>
      </trkpt>
      <trkpt lat="48.4545" lon="7.40352">
        <ele>679</ele>
        <time>2017-02-18T08:57:17Z</time>
      </trkpt>
      <trkpt lat="48.45444" lon="7.40331">
        <ele>683</ele>
        <time>2017-02-18T08:57:23Z</time>
      </trkpt>
      <trkpt lat="48.4544" lon="7.40324">
        <ele>683</ele>
        <time>2017-02-18T08:57:26Z</time>
      </trkpt>
      <trkpt lat="48.45433" lon="7.40319">
        <ele>683</ele>
        <time>2017-02-18T08:57:30Z</time>
      </trkpt>
      <trkpt lat="48.45421" lon="7.40312">
        <ele>683</ele>
        <time>2017-02-18T08:57:40Z</time>
      </trkpt>
      <trkpt lat="48.45412" lon="7.40301">
        <ele>686</ele>
        <time>2017-02-18T08:57:48Z</time>
      </trkpt>
      <trkpt lat="48.45395" lon="7.40282">
        <ele>687</ele>
        <time>2017-02-18T08:58:03Z</time>
      </trkpt>
      <trkpt lat="48.45394" lon="7.40279">
        <ele>687</ele>
        <time>2017-02-18T08:58:05Z</time>
      </trkpt>
      <trkpt lat="48.45383" lon="7.40265">
        <ele>688</ele>
        <time>2017-02-18T08:58:14Z</time>
      </trkpt>
      <trkpt lat="48.45375" lon="7.40252">
        <ele>688</ele>
        <time>2017-02-18T08:58:23Z</time>
      </trkpt>
      <trkpt lat="48.45352" lon="7.40243">
        <ele>690</ele>
        <time>2017-02-18T09:04:30Z</time>
      </trkpt>
      <trkpt lat="48.45342" lon="7.40247">
        <ele>692</ele>
        <time>2017-02-18T09:04:33Z</time>
      </trkpt>
      <trkpt lat="48.45328" lon="7.40245">
        <ele>693</ele>
        <time>2017-02-18T09:04:39Z</time>
      </trkpt>
      <trkpt lat="48.45314" lon="7.40244">
        <ele>693</ele>
        <time>2017-02-18T09:04:46Z</time>
      </trkpt>
      <trkpt lat="48.45314" lon="7.40245">
        <ele>693</ele>
        <time>2017-02-18T09:04:47Z</time>
      </trkpt>
      <trkpt lat="48.45313" lon="7.40246">
        <ele>693</ele>
        <time>2017-02-18T09:04:48Z</time>
      </trkpt>
      <trkpt lat="48.4531" lon="7.40248">
        <ele>693</ele>
        <time>2017-02-18T09:04:50Z</time>
      </trkpt>
      <trkpt lat="48.45294" lon="7.40248">
        <ele>694</ele>
        <time>2017-02-18T09:04:59Z</time>
      </trkpt>
      <trkpt lat="48.45278" lon="7.40252">
        <ele>691</ele>
        <time>2017-02-18T09:05:07Z</time>
      </trkpt>
      <trkpt lat="48.45267" lon="7.40252">
        <ele>692</ele>
        <time>2017-02-18T09:05:13Z</time>
      </trkpt>
      <trkpt lat="48.45259" lon="7.40257">
        <ele>693</ele>
        <time>2017-02-18T09:05:18Z</time>
      </trkpt>
      <trkpt lat="48.45254" lon="7.40259">
        <ele>693</ele>
        <time>2017-02-18T09:05:20Z</time>
      </trkpt>
      <trkpt lat="48.45249" lon="7.4026">
        <ele>693</ele>
        <time>2017-02-18T09:05:22Z</time>
      </trkpt>
      <trkpt lat="48.45241" lon="7.40259">
        <ele>693</ele>
        <time>2017-02-18T09:05:25Z</time>
      </trkpt>
      <trkpt lat="48.45225" lon="7.40263">
        <ele>692</ele>
        <time>2017-02-18T09:05:31Z</time>
      </trkpt>
      <trkpt lat="48.452" lon="7.40268">
        <ele>692</ele>
        <time>2017-02-18T09:05:39Z</time>
      </trkpt>
      <trkpt lat="48.45181" lon="7.4027">
        <ele>692</ele>
        <time>2017-02-18T09:05:45Z</time>
      </trkpt>
      <trkpt lat="48.45137" lon="7.40278">
        <ele>697</ele>
        <time>2017-02-18T09:05:59Z</time>
      </trkpt>
      <trkpt lat="48.45127" lon="7.4028">
        <ele>697</ele>
        <time>2017-02-18T09:06:02Z</time>
      </trkpt>
      <trkpt lat="48.45122" lon="7.40283">
        <ele>697</ele>
        <time>2017-02-18T09:06:04Z</time>
      </trkpt>
      <trkpt lat="48.45118" lon="7.40284">
        <ele>698</ele>
        <time>2017-02-18T09:06:06Z</time>
      </trkpt>
      <trkpt lat="48.45106" lon="7.40281">
        <ele>698</ele>
        <time>2017-02-18T09:06:12Z</time>
      </trkpt>
      <trkpt lat="48.45098" lon="7.40283">
        <ele>699</ele>
        <time>2017-02-18T09:06:18Z</time>
      </trkpt>
      <trkpt lat="48.45098" lon="7.40283">
        <ele>699</ele>
        <time>2017-02-18T09:06:19Z</time>
      </trkpt>
      <trkpt lat="48.45076" lon="7.40285">
        <ele>704</ele>
        <time>2017-02-18T09:07:32Z</time>
      </trkpt>
      <trkpt lat="48.45068" lon="7.40287">
        <ele>704</ele>
        <time>2017-02-18T09:07:34Z</time>
      </trkpt>
      <trkpt lat="48.45051" lon="7.40294">
        <ele>705</ele>
        <time>2017-02-18T09:07:38Z</time>
      </trkpt>
      <trkpt lat="48.45044" lon="7.40293">
        <ele>705</ele>
        <time>2017-02-18T09:07:42Z</time>
      </trkpt>
      <trkpt lat="48.45037" lon="7.40293">
        <ele>705</ele>
        <time>2017-02-18T09:07:45Z</time>
      </trkpt>
      <trkpt lat="48.45032" lon="7.40293">
        <ele>706</ele>
        <time>2017-02-18T09:07:47Z</time>
      </trkpt>
      <trkpt lat="48.45017" lon="7.40301">
        <ele>706</ele>
        <time>2017-02-18T09:07:54Z</time>
      </trkpt>
      <trkpt lat="48.4501" lon="7.4031">
        <ele>707</ele>
        <time>2017-02-18T09:07:57Z</time>
      </trkpt>
      <trkpt lat="48.45001" lon="7.40318">
        <ele>707</ele>
        <time>2017-02-18T09:08:00Z</time>
      </trkpt>
      <trkpt lat="48.4499" lon="7.40334">
        <ele>709</ele>
        <time>2017-02-18T09:08:05Z</time>
      </trkpt>
      <trkpt lat="48.44979" lon="7.40345">
        <ele>710</ele>
        <time>2017-02-18T09:08:07Z</time>
      </trkpt>
      <trkpt lat="48.44973" lon="7.40351">
        <ele>710</ele>
        <time>2017-02-18T09:08:08Z</time>
      </trkpt>
      <trkpt lat="48.44948" lon="7.40378">
        <ele>711</ele>
        <time>2017-02-18T09:08:18Z</time>
      </trkpt>
      <trkpt lat="48.44945" lon="7.40382">
        <ele>712</ele>
        <time>2017-02-18T09:08:20Z</time>
      </trkpt>
      <trkpt lat="48.44943" lon="7.40388">
        <ele>712</ele>
        <time>2017-02-18T09:08:23Z</time>
      </trkpt>
      <trkpt lat="48.44944" lon="7.40409">
        <ele>712</ele>
        <time>2017-02-18T09:08:30Z</time>
      </trkpt>
      <trkpt lat="48.44945" lon="7.40412">
        <ele>712</ele>
        <time>2017-02-18T09:08:31Z</time>
      </trkpt>
      <trkpt lat="48.44947" lon="7.4042">
        <ele>705</ele>
        <time>2017-02-18T09:08:33Z</time>
      </trkpt>
      <trkpt lat="48.44948" lon="7.40443">
        <ele>702</ele>
        <time>2017-02-18T09:08:41Z</time>
      </trkpt>
      <trkpt lat="48.44949" lon="7.40448">
        <ele>701</ele>
        <time>2017-02-18T09:08:42Z</time>
      </trkpt>
      <trkpt lat="48.44948" lon="7.40451">
        <ele>701</ele>
        <time>2017-02-18T09:08:43Z</time>
      </trkpt>
      <trkpt lat="48.44948" lon="7.40456">
        <ele>701</ele>
        <time>2017-02-18T09:08:46Z</time>
      </trkpt>
      <trkpt lat="48.44944" lon="7.40479">
        <ele>700</ele>
        <time>2017-02-18T09:09:57Z</time>
      </trkpt>
      <trkpt lat="48.44942" lon="7.40483">
        <ele>700</ele>
        <time>2017-02-18T09:09:58Z</time>
      </trkpt>
      <trkpt lat="48.44936" lon="7.40499">
        <ele>701</ele>
        <time>2017-02-18T09:10:01Z</time>
      </trkpt>
      <trkpt lat="48.44934" lon="7.4051">
        <ele>692</ele>
        <time>2017-02-18T09:10:03Z</time>
      </trkpt>
      <trkpt lat="48.44934" lon="7.40522">
        <ele>689</ele>
        <time>2017-02-18T09:10:05Z</time>
      </trkpt>
      <trkpt lat="48.44933" lon="7.40533">
        <ele>687</ele>
        <time>2017-02-18T09:10:07Z</time>
      </trkpt>
      <trkpt lat="48.44933" lon="7.40544">
        <ele>685</ele>
        <time>2017-02-18T09:10:09Z</time>
      </trkpt>
      <trkpt lat="48.44933" lon="7.4055">
        <ele>684</ele>
        <time>2017-02-18T09:10:10Z</time>
      </trkpt>
      <trkpt lat="48.44931" lon="7.40557">
        <ele>684</ele>
        <time>2017-02-18T09:10:11Z</time>
      </trkpt>
      <trkpt lat="48.44928" lon="7.40567">
        <ele>684</ele>
        <time>2017-02-18T09:10:12Z</time>
      </trkpt>
      <trkpt lat="48.44925" lon="7.40572">
        <ele>685</ele>
        <time>2017-02-18T09:10:13Z</time>
      </trkpt>
      <trkpt lat="48.44923" lon="7.40575">
        <ele>686</ele>
        <time>2017-02-18T09:10:14Z</time>
      </trkpt>
      <trkpt lat="48.44915" lon="7.4058">
        <ele>689</ele>
        <time>2017-02-18T09:10:16Z</time>
      </trkpt>
      <trkpt lat="48.44911" lon="7.40581">
        <ele>689</ele>
        <time>2017-02-18T09:10:17Z</time>
      </trkpt>
      <trkpt lat="48.44907" lon="7.40581">
        <ele>690</ele>
        <time>2017-02-18T09:10:18Z</time>
      </trkpt>
      <trkpt lat="48.44903" lon="7.4058">
        <ele>690</ele>
        <time>2017-02-18T09:10:19Z</time>
      </trkpt>
      <trkpt lat="48.44895" lon="7.40579">
        <ele>691</ele>
        <time>2017-02-18T09:10:21Z</time>
      </trkpt>
      <trkpt lat="48.44881" lon="7.40575">
        <ele>691</ele>
        <time>2017-02-18T09:10:26Z</time>
      </trkpt>
      <trkpt lat="48.44872" lon="7.40563">
        <ele>692</ele>
        <time>2017-02-18T09:10:33Z</time>
      </trkpt>
      <trkpt lat="48.44866" lon="7.40558">
        <ele>692</ele>
        <time>2017-02-18T09:10:37Z</time>
      </trkpt>
      <trkpt lat="48.44862" lon="7.4055">
        <ele>693</ele>
        <time>2017-02-18T09:10:41Z</time>
      </trkpt>
      <trkpt lat="48.44855" lon="7.4054">
        <ele>695</ele>
        <time>2017-02-18T09:10:47Z</time>
      </trkpt>
      <trkpt lat="48.44854" lon="7.40535">
        <ele>695</ele>
        <time>2017-02-18T09:10:49Z</time>
      </trkpt>
      <trkpt lat="48.4485" lon="7.40531">
        <ele>696</ele>
        <time>2017-02-18T09:10:52Z</time>
      </trkpt>
      <trkpt lat="48.44846" lon="7.40526">
        <ele>697</ele>
        <time>2017-02-18T09:10:56Z</time>
      </trkpt>
      <trkpt lat="48.44834" lon="7.4052">
        <ele>699</ele>
        <time>2017-02-18T09:11:03Z</time>
      </trkpt>
      <trkpt lat="48.44833" lon="7.40518">
        <ele>689</ele>
        <time>2017-02-18T09:11:04Z</time>
      </trkpt>
      <trkpt lat="48.44832" lon="7.40516">
        <ele>691</ele>
        <time>2017-02-18T09:11:06Z</time>
      </trkpt>
      <trkpt lat="48.44823" lon="7.40503">
        <ele>694</ele>
        <time>2017-02-18T09:11:13Z</time>
      </trkpt>
      <trkpt lat="48.44811" lon="7.40482">
        <ele>697</ele>
        <time>2017-02-18T09:11:20Z</time>
      </trkpt>
      <trkpt lat="48.44785" lon="7.40448">
        <ele>694</ele>
        <time>2017-02-18T09:11:30Z</time>
      </trkpt>
      <trkpt lat="48.44782" lon="7.40441">
        <ele>694</ele>
        <time>2017-02-18T09:11:31Z</time>
      </trkpt>
      <trkpt lat="48.44778" lon="7.40435">
        <ele>693</ele>
        <time>2017-02-18T09:11:32Z</time>
      </trkpt>
      <trkpt lat="48.44774" lon="7.40427">
        <ele>692</ele>
        <time>2017-02-18T09:11:33Z</time>
      </trkpt>
      <trkpt lat="48.44772" lon="7.40421">
        <ele>692</ele>
        <time>2017-02-18T09:11:34Z</time>
      </trkpt>
      <trkpt lat="48.44771" lon="7.40413">
        <ele>699</ele>
        <time>2017-02-18T09:11:35Z</time>
      </trkpt>
      <trkpt lat="48.44768" lon="7.40405">
        <ele>699</ele>
        <time>2017-02-18T09:11:36Z</time>
      </trkpt>
      <trkpt lat="48.44757" lon="7.40387">
        <ele>701</ele>
        <time>2017-02-18T09:11:39Z</time>
      </trkpt>
      <trkpt lat="48.44755" lon="7.40381">
        <ele>702</ele>
        <time>2017-02-18T09:11:40Z</time>
      </trkpt>
      <trkpt lat="48.44752" lon="7.40377">
        <ele>702</ele>
        <time>2017-02-18T09:11:41Z</time>
      </trkpt>
      <trkpt lat="48.44747" lon="7.40373">
        <ele>680</ele>
        <time>2017-02-18T09:11:43Z</time>
      </trkpt>
      <trkpt lat="48.44745" lon="7.40371">
        <ele>680</ele>
        <time>2017-02-18T09:11:44Z</time>
      </trkpt>
      <trkpt lat="48.44738" lon="7.40365">
        <ele>681</ele>
        <time>2017-02-18T09:11:46Z</time>
      </trkpt>
      <trkpt lat="48.44731" lon="7.40354">
        <ele>682</ele>
        <time>2017-02-18T09:11:48Z</time>
      </trkpt>
      <trkpt lat="48.44728" lon="7.40351">
        <ele>682</ele>
        <time>2017-02-18T09:11:49Z</time>
      </trkpt>
      <trkpt lat="48.44722" lon="7.40342">
        <ele>681</ele>
        <time>2017-02-18T09:11:51Z</time>
      </trkpt>
      <trkpt lat="48.44719" lon="7.40335">
        <ele>680</ele>
        <time>2017-02-18T09:11:52Z</time>
      </trkpt>
      <trkpt lat="48.44705" lon="7.40307">
        <ele>687</ele>
        <time>2017-02-18T09:11:57Z</time>
      </trkpt>
      <trkpt lat="48.44681" lon="7.40269">
        <ele>687</ele>
        <time>2017-02-18T09:12:03Z</time>
      </trkpt>
      <trkpt lat="48.44659" lon="7.40241">
        <ele>680</ele>
        <time>2017-02-18T09:12:07Z</time>
      </trkpt>
      <trkpt lat="48.44651" lon="7.40228">
        <ele>677</ele>
        <time>2017-02-18T09:12:09Z</time>
      </trkpt>
      <trkpt lat="48.44648" lon="7.40214">
        <ele>676</ele>
        <time>2017-02-18T09:12:11Z</time>
      </trkpt>
      <trkpt lat="48.44641" lon="7.40201">
        <ele>676</ele>
        <time>2017-02-18T09:12:13Z</time>
      </trkpt>
      <trkpt lat="48.44619" lon="7.40167">
        <ele>673</ele>
        <time>2017-02-18T09:12:18Z</time>
      </trkpt>
      <trkpt lat="48.44612" lon="7.40158">
        <ele>678</ele>
        <time>2017-02-18T09:12:19Z</time>
      </trkpt>
      <trkpt lat="48.44605" lon="7.4015">
        <ele>677</ele>
        <time>2017-02-18T09:12:20Z</time>
      </trkpt>
      <trkpt lat="48.44601" lon="7.40139">
        <ele>677</ele>
        <time>2017-02-18T09:12:21Z</time>
      </trkpt>
      <trkpt lat="48.44595" lon="7.40133">
        <ele>677</ele>
        <time>2017-02-18T09:12:22Z</time>
      </trkpt>
      <trkpt lat="48.44588" lon="7.40122">
        <ele>678</ele>
        <time>2017-02-18T09:12:24Z</time>
      </trkpt>
      <trkpt lat="48.44584" lon="7.40115">
        <ele>678</ele>
        <time>2017-02-18T09:12:27Z</time>
      </trkpt>
      <trkpt lat="48.44576" lon="7.40108">
        <ele>660</ele>
        <time>2017-02-18T09:12:31Z</time>
      </trkpt>
      <trkpt lat="48.44572" lon="7.40101">
        <ele>661</ele>
        <time>2017-02-18T09:12:33Z</time>
      </trkpt>
      <trkpt lat="48.44567" lon="7.40095">
        <ele>662</ele>
        <time>2017-02-18T09:12:35Z</time>
      </trkpt>
      <trkpt lat="48.44563" lon="7.40082">
        <ele>668</ele>
        <time>2017-02-18T09:12:37Z</time>
      </trkpt>
      <trkpt lat="48.4456" lon="7.40075">
        <ele>667</ele>
        <time>2017-02-18T09:12:38Z</time>
      </trkpt>
      <trkpt lat="48.44553" lon="7.40058">
        <ele>665</ele>
        <time>2017-02-18T09:12:40Z</time>
      </trkpt>
      <trkpt lat="48.44543" lon="7.40038">
        <ele>663</ele>
        <time>2017-02-18T09:12:43Z</time>
      </trkpt>
      <trkpt lat="48.44522" lon="7.40006">
        <ele>661</ele>
        <time>2017-02-18T09:12:49Z</time>
      </trkpt>
      <trkpt lat="48.44513" lon="7.39988">
        <ele>665</ele>
        <time>2017-02-18T09:12:52Z</time>
      </trkpt>
      <trkpt lat="48.445" lon="7.39966">
        <ele>668</ele>
        <time>2017-02-18T09:12:55Z</time>
      </trkpt>
      <trkpt lat="48.44488" lon="7.39951">
        <ele>655</ele>
        <time>2017-02-18T09:12:58Z</time>
      </trkpt>
      <trkpt lat="48.44484" lon="7.39944">
        <ele>656</ele>
        <time>2017-02-18T09:12:59Z</time>
      </trkpt>
      <trkpt lat="48.44482" lon="7.39939">
        <ele>657</ele>
        <time>2017-02-18T09:13:00Z</time>
      </trkpt>
      <trkpt lat="48.44479" lon="7.39934">
        <ele>657</ele>
        <time>2017-02-18T09:13:02Z</time>
      </trkpt>
      <trkpt lat="48.44471" lon="7.39914">
        <ele>668</ele>
        <time>2017-02-18T09:13:07Z</time>
      </trkpt>
      <trkpt lat="48.44451" lon="7.39898">
        <ele>666</ele>
        <time>2017-02-18T09:13:13Z</time>
      </trkpt>
      <trkpt lat="48.44448" lon="7.39892">
        <ele>666</ele>
        <time>2017-02-18T09:13:14Z</time>
      </trkpt>
      <trkpt lat="48.44446" lon="7.39889">
        <ele>666</ele>
        <time>2017-02-18T09:13:15Z</time>
      </trkpt>
      <trkpt lat="48.44442" lon="7.39886">
        <ele>666</ele>
        <time>2017-02-18T09:13:17Z</time>
      </trkpt>
      <trkpt lat="48.44436" lon="7.39883">
        <ele>666</ele>
        <time>2017-02-18T09:13:19Z</time>
      </trkpt>
      <trkpt lat="48.44423" lon="7.39872">
        <ele>667</ele>
        <time>2017-02-18T09:13:24Z</time>
      </trkpt>
      <trkpt lat="48.44404" lon="7.39853">
        <ele>661</ele>
        <time>2017-02-18T09:13:29Z</time>
      </trkpt>
      <trkpt lat="48.44387" lon="7.39835">
        <ele>659</ele>
        <time>2017-02-18T09:13:34Z</time>
      </trkpt>
      <trkpt lat="48.4438" lon="7.3983">
        <ele>673</ele>
        <time>2017-02-18T09:13:35Z</time>
      </trkpt>
      <trkpt lat="48.44376" lon="7.39824">
        <ele>672</ele>
        <time>2017-02-18T09:13:36Z</time>
      </trkpt>
      <trkpt lat="48.44373" lon="7.3982">
        <ele>672</ele>
        <time>2017-02-18T09:13:37Z</time>
      </trkpt>
      <trkpt lat="48.44371" lon="7.39815">
        <ele>672</ele>
        <time>2017-02-18T09:13:39Z</time>
      </trkpt>
      <trkpt lat="48.44371" lon="7.39814">
        <ele>672</ele>
        <time>2017-02-18T09:13:40Z</time>
      </trkpt>
      <trkpt lat="48.44366" lon="7.39805">
        <ele>672</ele>
        <time>2017-02-18T09:14:45Z</time>
      </trkpt>
      <trkpt lat="48.4436" lon="7.39797">
        <ele>673</ele>
        <time>2017-02-18T09:14:47Z</time>
      </trkpt>
      <trkpt lat="48.44358" lon="7.39794">
        <ele>673</ele>
        <time>2017-02-18T09:14:48Z</time>
      </trkpt>
      <trkpt lat="48.44356" lon="7.3979">
        <ele>673</ele>
        <time>2017-02-18T09:14:49Z</time>
      </trkpt>
      <trkpt lat="48.44352" lon="7.39782">
        <ele>674</ele>
        <time>2017-02-18T09:14:51Z</time>
      </trkpt>
      <trkpt lat="48.44347" lon="7.39776">
        <ele>675</ele>
        <time>2017-02-18T09:14:52Z</time>
      </trkpt>
      <trkpt lat="48.44339" lon="7.39771">
        <ele>675</ele>
        <time>2017-02-18T09:14:54Z</time>
      </trkpt>
      <trkpt lat="48.44335" lon="7.39769">
        <ele>675</ele>
        <time>2017-02-18T09:14:55Z</time>
      </trkpt>
      <trkpt lat="48.44322" lon="7.3976">
        <ele>669</ele>
        <time>2017-02-18T09:15:00Z</time>
      </trkpt>
      <trkpt lat="48.44316" lon="7.39756">
        <ele>668</ele>
        <time>2017-02-18T09:15:03Z</time>
      </trkpt>
      <trkpt lat="48.44309" lon="7.3975">
        <ele>667</ele>
        <time>2017-02-18T09:15:08Z</time>
      </trkpt>
      <trkpt lat="48.44297" lon="7.39742">
        <ele>673</ele>
        <time>2017-02-18T09:15:17Z</time>
      </trkpt>
      <trkpt lat="48.44294" lon="7.3974">
        <ele>673</ele>
        <time>2017-02-18T09:15:19Z</time>
      </trkpt>
      <trkpt lat="48.44268" lon="7.39721">
        <ele>671</ele>
        <time>2017-02-18T09:15:27Z</time>
      </trkpt>
      <trkpt lat="48.44255" lon="7.39715">
        <ele>671</ele>
        <time>2017-02-18T09:15:31Z</time>
      </trkpt>
      <trkpt lat="48.44244" lon="7.3971">
        <ele>666</ele>
        <time>2017-02-18T09:15:35Z</time>
      </trkpt>
      <trkpt lat="48.44227" lon="7.39703">
        <ele>666</ele>
        <time>2017-02-18T09:15:41Z</time>
      </trkpt>
      <trkpt lat="48.44218" lon="7.39701">
        <ele>666</ele>
        <time>2017-02-18T09:15:43Z</time>
      </trkpt>
      <trkpt lat="48.44209" lon="7.39698">
        <ele>666</ele>
        <time>2017-02-18T09:15:45Z</time>
      </trkpt>
      <trkpt lat="48.44204" lon="7.39695">
        <ele>666</ele>
        <time>2017-02-18T09:15:46Z</time>
      </trkpt>
      <trkpt lat="48.44198" lon="7.39691">
        <ele>666</ele>
        <time>2017-02-18T09:15:48Z</time>
      </trkpt>
      <trkpt lat="48.4419" lon="7.39689">
        <ele>667</ele>
        <time>2017-02-18T09:15:50Z</time>
      </trkpt>
      <trkpt lat="48.44169" lon="7.39679">
        <ele>669</ele>
        <time>2017-02-18T09:15:55Z</time>
      </trkpt>
      <trkpt lat="48.44163" lon="7.39677">
        <ele>668</ele>
        <time>2017-02-18T09:15:57Z</time>
      </trkpt>
      <trkpt lat="48.44158" lon="7.39677">
        <ele>668</ele>
        <time>2017-02-18T09:16:00Z</time>
      </trkpt>
      <trkpt lat="48.4416" lon="7.39686">
        <ele>666</ele>
        <time>2017-02-18T09:16:09Z</time>
      </trkpt>
      <trkpt lat="48.44161" lon="7.39688">
        <ele>665</ele>
        <time>2017-02-18T09:16:10Z</time>
      </trkpt>
      <trkpt lat="48.44162" lon="7.39694">
        <ele>664</ele>
        <time>2017-02-18T09:16:12Z</time>
      </trkpt>
      <trkpt lat="48.44153" lon="7.39693">
        <ele>664</ele>
        <time>2017-02-18T09:16:17Z</time>
      </trkpt>
      <trkpt lat="48.44152" lon="7.39694">
        <ele>664</ele>
        <time>2017-02-18T09:16:19Z</time>
      </trkpt>
      <trkpt lat="48.44151" lon="7.39693">
        <ele>664</ele>
        <time>2017-02-18T09:16:20Z</time>
      </trkpt>
      <trkpt lat="48.44148" lon="7.39694">
        <ele>664</ele>
        <time>2017-02-18T09:16:24Z</time>
      </trkpt>
      <trkpt lat="48.44138" lon="7.39693">
        <ele>663</ele>
        <time>2017-02-18T09:16:40Z</time>
      </trkpt>
      <trkpt lat="48.44135" lon="7.39692">
        <ele>663</ele>
        <time>2017-02-18T09:16:41Z</time>
      </trkpt>
      <trkpt lat="48.44132" lon="7.39692">
        <ele>663</ele>
        <time>2017-02-18T09:16:42Z</time>
      </trkpt>
      <trkpt lat="48.44123" lon="7.39696">
        <ele>663</ele>
        <time>2017-02-18T09:16:45Z</time>
      </trkpt>
      <trkpt lat="48.44116" lon="7.397">
        <ele>662</ele>
        <time>2017-02-18T09:16:47Z</time>
      </trkpt>
      <trkpt lat="48.44113" lon="7.39702">
        <ele>662</ele>
        <time>2017-02-18T09:16:48Z</time>
      </trkpt>
      <trkpt lat="48.44109" lon="7.39702">
        <ele>662</ele>
        <time>2017-02-18T09:16:49Z</time>
      </trkpt>
      <trkpt lat="48.441" lon="7.39702">
        <ele>662</ele>
        <time>2017-02-18T09:16:52Z</time>
      </trkpt>
      <trkpt lat="48.44082" lon="7.39704">
        <ele>661</ele>
        <time>2017-02-18T09:16:58Z</time>
      </trkpt>
      <trkpt lat="48.44064" lon="7.39702">
        <ele>661</ele>
        <time>2017-02-18T09:17:05Z</time>
      </trkpt>
      <trkpt lat="48.4406" lon="7.397">
        <ele>662</ele>
        <time>2017-02-18T09:17:07Z</time>
      </trkpt>
      <trkpt lat="48.44056" lon="7.39698">
        <ele>662</ele>
        <time>2017-02-18T09:17:09Z</time>
      </trkpt>
      <trkpt lat="48.44054" lon="7.39696">
        <ele>662</ele>
        <time>2017-02-18T09:17:10Z</time>
      </trkpt>
      <trkpt lat="48.44053" lon="7.39692">
        <ele>662</ele>
        <time>2017-02-18T09:17:11Z</time>
      </trkpt>
      <trkpt lat="48.44045" lon="7.39686">
        <ele>663</ele>
        <time>2017-02-18T09:17:15Z</time>
      </trkpt>
      <trkpt lat="48.44044" lon="7.39685">
        <ele>663</ele>
        <time>2017-02-18T09:17:16Z</time>
      </trkpt>
      <trkpt lat="48.4404" lon="7.39683">
        <ele>663</ele>
        <time>2017-02-18T09:17:18Z</time>
      </trkpt>
      <trkpt lat="48.44037" lon="7.39681">
        <ele>663</ele>
        <time>2017-02-18T09:17:20Z</time>
      </trkpt>
      <trkpt lat="48.44034" lon="7.39677">
        <ele>664</ele>
        <time>2017-02-18T09:17:22Z</time>
      </trkpt>
      <trkpt lat="48.44033" lon="7.39675">
        <ele>664</ele>
        <time>2017-02-18T09:17:23Z</time>
      </trkpt>
      <trkpt lat="48.44031" lon="7.39671">
        <ele>664</ele>
        <time>2017-02-18T09:17:25Z</time>
      </trkpt>
      <trkpt lat="48.4403" lon="7.39669">
        <ele>664</ele>
        <time>2017-02-18T09:17:27Z</time>
      </trkpt>
      <trkpt lat="48.43999" lon="7.39616">
        <ele>673</ele>
        <time>2017-02-18T09:23:28Z</time>
      </trkpt>
      <trkpt lat="48.43984" lon="7.39592">
        <ele>673</ele>
        <time>2017-02-18T09:23:40Z</time>
      </trkpt>
      <trkpt lat="48.43973" lon="7.39576">
        <ele>673</ele>
        <time>2017-02-18T09:23:46Z</time>
      </trkpt>
      <trkpt lat="48.43957" lon="7.39563">
        <ele>673</ele>
        <time>2017-02-18T09:23:54Z</time>
      </trkpt>
      <trkpt lat="48.4395" lon="7.39562">
        <ele>674</ele>
        <time>2017-02-18T09:23:57Z</time>
      </trkpt>
      <trkpt lat="48.43947" lon="7.3956">
        <ele>674</ele>
        <time>2017-02-18T09:23:58Z</time>
      </trkpt>
      <trkpt lat="48.43943" lon="7.39557">
        <ele>674</ele>
        <time>2017-02-18T09:24:00Z</time>
      </trkpt>
      <trkpt lat="48.43939" lon="7.39554">
        <ele>674</ele>
        <time>2017-02-18T09:24:02Z</time>
      </trkpt>
      <trkpt lat="48.43937" lon="7.39554">
        <ele>674</ele>
        <time>2017-02-18T09:24:03Z</time>
      </trkpt>
      <trkpt lat="48.43935" lon="7.39553">
        <ele>674</ele>
        <time>2017-02-18T09:24:04Z</time>
      </trkpt>
      <trkpt lat="48.43928" lon="7.39548">
        <ele>674</ele>
        <time>2017-02-18T09:24:09Z</time>
      </trkpt>
      <trkpt lat="48.43921" lon="7.39544">
        <ele>674</ele>
        <time>2017-02-18T09:24:13Z</time>
      </trkpt>
      <trkpt lat="48.43917" lon="7.39542">
        <ele>674</ele>
        <time>2017-02-18T09:24:15Z</time>
      </trkpt>
      <trkpt lat="48.43913" lon="7.39541">
        <ele>678</ele>
        <time>2017-02-18T09:24:17Z</time>
      </trkpt>
      <trkpt lat="48.43907" lon="7.3954">
        <ele>678</ele>
        <time>2017-02-18T09:24:21Z</time>
      </trkpt>
      <trkpt lat="48.43897" lon="7.39541">
        <ele>679</ele>
        <time>2017-02-18T09:24:27Z</time>
      </trkpt>
      <trkpt lat="48.43887" lon="7.39544">
        <ele>679</ele>
        <time>2017-02-18T09:24:31Z</time>
      </trkpt>
      <trkpt lat="48.43877" lon="7.39549">
        <ele>680</ele>
        <time>2017-02-18T09:24:36Z</time>
      </trkpt>
      <trkpt lat="48.43873" lon="7.39552">
        <ele>680</ele>
        <time>2017-02-18T09:24:39Z</time>
      </trkpt>
      <trkpt lat="48.43867" lon="7.39555">
        <ele>680</ele>
        <time>2017-02-18T09:24:44Z</time>
      </trkpt>
      <trkpt lat="48.43864" lon="7.39556">
        <ele>681</ele>
        <time>2017-02-18T09:24:46Z</time>
      </trkpt>
      <trkpt lat="48.43856" lon="7.3956">
        <ele>681</ele>
        <time>2017-02-18T09:24:51Z</time>
      </trkpt>
      <trkpt lat="48.43854" lon="7.39562">
        <ele>682</ele>
        <time>2017-02-18T09:24:53Z</time>
      </trkpt>
      <trkpt lat="48.43853" lon="7.39564">
        <ele>682</ele>
        <time>2017-02-18T09:24:55Z</time>
      </trkpt>
      <trkpt lat="48.43847" lon="7.39574">
        <ele>683</ele>
        <time>2017-02-18T09:25:01Z</time>
      </trkpt>
      <trkpt lat="48.43846" lon="7.39578">
        <ele>684</ele>
        <time>2017-02-18T09:25:03Z</time>
      </trkpt>
      <trkpt lat="48.43845" lon="7.3958">
        <ele>684</ele>
        <time>2017-02-18T09:25:04Z</time>
      </trkpt>
      <trkpt lat="48.43842" lon="7.39583">
        <ele>685</ele>
        <time>2017-02-18T09:25:06Z</time>
      </trkpt>
      <trkpt lat="48.43841" lon="7.39583">
        <ele>685</ele>
        <time>2017-02-18T09:25:07Z</time>
      </trkpt>
      <trkpt lat="48.43837" lon="7.39587">
        <ele>686</ele>
        <time>2017-02-18T09:25:11Z</time>
      </trkpt>
      <trkpt lat="48.43835" lon="7.39592">
        <ele>686</ele>
        <time>2017-02-18T09:25:13Z</time>
      </trkpt>
      <trkpt lat="48.43834" lon="7.39599">
        <ele>685</ele>
        <time>2017-02-18T09:25:17Z</time>
      </trkpt>
      <trkpt lat="48.43829" lon="7.39612">
        <ele>689</ele>
        <time>2017-02-18T09:25:24Z</time>
      </trkpt>
      <trkpt lat="48.43826" lon="7.39621">
        <ele>690</ele>
        <time>2017-02-18T09:25:29Z</time>
      </trkpt>
      <trkpt lat="48.43824" lon="7.39627">
        <ele>690</ele>
        <time>2017-02-18T09:25:31Z</time>
      </trkpt>
      <trkpt lat="48.4381" lon="7.39647">
        <ele>691</ele>
        <time>2017-02-18T09:25:40Z</time>
      </trkpt>
      <trkpt lat="48.43802" lon="7.39654">
        <ele>691</ele>
        <time>2017-02-18T09:25:46Z</time>
      </trkpt>
      <trkpt lat="48.4379" lon="7.39672">
        <ele>694</ele>
        <time>2017-02-18T09:26:01Z</time>
      </trkpt>
      <trkpt lat="48.43784" lon="7.39677">
        <ele>694</ele>
        <time>2017-02-18T09:26:04Z</time>
      </trkpt>
      <trkpt lat="48.43775" lon="7.39682">
        <ele>695</ele>
        <time>2017-02-18T09:26:08Z</time>
      </trkpt>
      <trkpt lat="48.43763" lon="7.39686">
        <ele>695</ele>
        <time>2017-02-18T09:26:15Z</time>
      </trkpt>
      <trkpt lat="48.43751" lon="7.39692">
        <ele>695</ele>
        <time>2017-02-18T09:26:23Z</time>
      </trkpt>
      <trkpt lat="48.43741" lon="7.39695">
        <ele>700</ele>
        <time>2017-02-18T09:26:29Z</time>
      </trkpt>
      <trkpt lat="48.43736" lon="7.39698">
        <ele>700</ele>
        <time>2017-02-18T09:26:32Z</time>
      </trkpt>
      <trkpt lat="48.43726" lon="7.39703">
        <ele>700</ele>
        <time>2017-02-18T09:26:38Z</time>
      </trkpt>
      <trkpt lat="48.43725" lon="7.39705">
        <ele>700</ele>
        <time>2017-02-18T09:26:40Z</time>
      </trkpt>
      <trkpt lat="48.43683" lon="7.39737">
        <ele>703</ele>
        <time>2017-02-18T09:27:13Z</time>
      </trkpt>
      <trkpt lat="48.43667" lon="7.39741">
        <ele>704</ele>
        <time>2017-02-18T09:27:22Z</time>
      </trkpt>
      <trkpt lat="48.43656" lon="7.3974">
        <ele>704</ele>
        <time>2017-02-18T09:27:28Z</time>
      </trkpt>
      <trkpt lat="48.43644" lon="7.39737">
        <ele>704</ele>
        <time>2017-02-18T09:27:35Z</time>
      </trkpt>
      <trkpt lat="48.43626" lon="7.39722">
        <ele>704</ele>
        <time>2017-02-18T09:27:44Z</time>
      </trkpt>
      <trkpt lat="48.4361" lon="7.3971">
        <ele>703</ele>
        <time>2017-02-18T09:27:51Z</time>
      </trkpt>
      <trkpt lat="48.43599" lon="7.39698">
        <ele>703</ele>
        <time>2017-02-18T09:27:57Z</time>
      </trkpt>
      <trkpt lat="48.43584" lon="7.39684">
        <ele>703</ele>
        <time>2017-02-18T09:28:03Z</time>
      </trkpt>
      <trkpt lat="48.43571" lon="7.39678">
        <ele>702</ele>
        <time>2017-02-18T09:28:06Z</time>
      </trkpt>
      <trkpt lat="48.43565" lon="7.39674">
        <ele>702</ele>
        <time>2017-02-18T09:28:07Z</time>
      </trkpt>
      <trkpt lat="48.43559" lon="7.3967">
        <ele>702</ele>
        <time>2017-02-18T09:28:08Z</time>
      </trkpt>
      <trkpt lat="48.43549" lon="7.39668">
        <ele>702</ele>
        <time>2017-02-18T09:28:11Z</time>
      </trkpt>
      <trkpt lat="48.43546" lon="7.39669">
        <ele>702</ele>
        <time>2017-02-18T09:28:12Z</time>
      </trkpt>
      <trkpt lat="48.43542" lon="7.39672">
        <ele>701</ele>
        <time>2017-02-18T09:28:13Z</time>
      </trkpt>
      <trkpt lat="48.43539" lon="7.39675">
        <ele>701</ele>
        <time>2017-02-18T09:28:14Z</time>
      </trkpt>
      <trkpt lat="48.43536" lon="7.39678">
        <ele>701</ele>
        <time>2017-02-18T09:28:15Z</time>
      </trkpt>
      <trkpt lat="48.43534" lon="7.3968">
        <ele>701</ele>
        <time>2017-02-18T09:28:16Z</time>
      </trkpt>
      <trkpt lat="48.43504" lon="7.39701">
        <ele>701</ele>
        <time>2017-02-18T09:28:31Z</time>
      </trkpt>
      <trkpt lat="48.43502" lon="7.39703">
        <ele>702</ele>
        <time>2017-02-18T09:28:32Z</time>
      </trkpt>
      <trkpt lat="48.43501" lon="7.39706">
        <ele>702</ele>
        <time>2017-02-18T09:28:34Z</time>
      </trkpt>
      <trkpt lat="48.43496" lon="7.39712">
        <ele>699</ele>
        <time>2017-02-18T09:28:38Z</time>
      </trkpt>
      <trkpt lat="48.43496" lon="7.39712">
        <ele>699</ele>
        <time>2017-02-18T09:28:39Z</time>
      </trkpt>
      <trkpt lat="48.43483" lon="7.39723">
        <ele>700</ele>
        <time>2017-02-18T09:28:45Z</time>
      </trkpt>
      <trkpt lat="48.43482" lon="7.39725">
        <ele>700</ele>
        <time>2017-02-18T09:28:46Z</time>
      </trkpt>
      <trkpt lat="48.43479" lon="7.39725">
        <ele>700</ele>
        <time>2017-02-18T09:28:48Z</time>
      </trkpt>
      <trkpt lat="48.43467" lon="7.39738">
        <ele>700</ele>
        <time>2017-02-18T09:28:57Z</time>
      </trkpt>
      <trkpt lat="48.43433" lon="7.3978">
        <ele>708</ele>
        <time>2017-02-18T09:29:30Z</time>
      </trkpt>
      <trkpt lat="48.43432" lon="7.39782">
        <ele>708</ele>
        <time>2017-02-18T09:29:31Z</time>
      </trkpt>
      <trkpt lat="48.43426" lon="7.39794">
        <ele>709</ele>
        <time>2017-02-18T09:29:36Z</time>
      </trkpt>
      <trkpt lat="48.43421" lon="7.39807">
        <ele>711</ele>
        <time>2017-02-18T09:29:43Z</time>
      </trkpt>
      <trkpt lat="48.43408" lon="7.39823">
        <ele>712</ele>
        <time>2017-02-18T09:29:52Z</time>
      </trkpt>
      <trkpt lat="48.43389" lon="7.39854">
        <ele>718</ele>
        <time>2017-02-18T09:30:09Z</time>
      </trkpt>
      <trkpt lat="48.43389" lon="7.39856">
        <ele>719</ele>
        <time>2017-02-18T09:30:10Z</time>
      </trkpt>
      <trkpt lat="48.43382" lon="7.39867">
        <ele>719</ele>
        <time>2017-02-18T09:30:17Z</time>
      </trkpt>
      <trkpt lat="48.43375" lon="7.39881">
        <ele>720</ele>
        <time>2017-02-18T09:30:25Z</time>
      </trkpt>
      <trkpt lat="48.43373" lon="7.39886">
        <ele>720</ele>
        <time>2017-02-18T09:30:26Z</time>
      </trkpt>
      <trkpt lat="48.43371" lon="7.39888">
        <ele>720</ele>
        <time>2017-02-18T09:30:27Z</time>
      </trkpt>
      <trkpt lat="48.43369" lon="7.39889">
        <ele>720</ele>
        <time>2017-02-18T09:30:28Z</time>
      </trkpt>
      <trkpt lat="48.4336" lon="7.39898">
        <ele>721</ele>
        <time>2017-02-18T09:30:34Z</time>
      </trkpt>
      <trkpt lat="48.43358" lon="7.39903">
        <ele>721</ele>
        <time>2017-02-18T09:30:36Z</time>
      </trkpt>
      <trkpt lat="48.43358" lon="7.39911">
        <ele>721</ele>
        <time>2017-02-18T09:30:40Z</time>
      </trkpt>
      <trkpt lat="48.43359" lon="7.39918">
        <ele>726</ele>
        <time>2017-02-18T09:30:43Z</time>
      </trkpt>
      <trkpt lat="48.43359" lon="7.39922">
        <ele>726</ele>
        <time>2017-02-18T09:30:45Z</time>
      </trkpt>
      <trkpt lat="48.43361" lon="7.39928">
        <ele>727</ele>
        <time>2017-02-18T09:30:49Z</time>
      </trkpt>
      <trkpt lat="48.43361" lon="7.39934">
        <ele>727</ele>
        <time>2017-02-18T09:30:51Z</time>
      </trkpt>
      <trkpt lat="48.43362" lon="7.39941">
        <ele>727</ele>
        <time>2017-02-18T09:30:54Z</time>
      </trkpt>
      <trkpt lat="48.43363" lon="7.3995">
        <ele>727</ele>
        <time>2017-02-18T09:30:57Z</time>
      </trkpt>
      <trkpt lat="48.43361" lon="7.39952">
        <ele>727</ele>
        <time>2017-02-18T09:30:58Z</time>
      </trkpt>
      <trkpt lat="48.43359" lon="7.39958">
        <ele>728</ele>
        <time>2017-02-18T09:31:00Z</time>
      </trkpt>
      <trkpt lat="48.43348" lon="7.39969">
        <ele>728</ele>
        <time>2017-02-18T09:31:06Z</time>
      </trkpt>
      <trkpt lat="48.43331" lon="7.39979">
        <ele>729</ele>
        <time>2017-02-18T09:31:16Z</time>
      </trkpt>
      <trkpt lat="48.43327" lon="7.39981">
        <ele>729</ele>
        <time>2017-02-18T09:31:18Z</time>
      </trkpt>
      <trkpt lat="48.43317" lon="7.39988">
        <ele>729</ele>
        <time>2017-02-18T09:31:24Z</time>
      </trkpt>
      <trkpt lat="48.43312" lon="7.3999">
        <ele>729</ele>
        <time>2017-02-18T09:31:27Z</time>
      </trkpt>
      <trkpt lat="48.43309" lon="7.39989">
        <ele>729</ele>
        <time>2017-02-18T09:31:28Z</time>
      </trkpt>
      <trkpt lat="48.43302" lon="7.3999">
        <ele>730</ele>
        <time>2017-02-18T09:31:32Z</time>
      </trkpt>
      <trkpt lat="48.43288" lon="7.3999">
        <ele>730</ele>
        <time>2017-02-18T09:31:41Z</time>
      </trkpt>
      <trkpt lat="48.4328" lon="7.39994">
        <ele>731</ele>
        <time>2017-02-18T09:31:47Z</time>
      </trkpt>
      <trkpt lat="48.43274" lon="7.40001">
        <ele>737</ele>
        <time>2017-02-18T09:31:55Z</time>
      </trkpt>
      <trkpt lat="48.43277" lon="7.4">
        <ele>732</ele>
        <time>2017-02-18T09:31:57Z</time>
      </trkpt>
      <trkpt lat="48.4328" lon="7.39997">
        <ele>731</ele>
        <time>2017-02-18T09:31:59Z</time>
      </trkpt>
      <trkpt lat="48.4328" lon="7.39996">
        <ele>731</ele>
        <time>2017-02-18T09:32:00Z</time>
      </trkpt>
      <trkpt lat="48.43282" lon="7.39995">
        <ele>731</ele>
        <time>2017-02-18T09:32:02Z</time>
      </trkpt>
      <trkpt lat="48.4328" lon="7.3999">
        <ele>731</ele>
        <time>2017-02-18T09:32:05Z</time>
      </trkpt>
      <trkpt lat="48.43277" lon="7.39992">
        <ele>731</ele>
        <time>2017-02-18T09:32:07Z</time>
      </trkpt>
      <trkpt lat="48.43267" lon="7.39997">
        <ele>733</ele>
        <time>2017-02-18T09:32:17Z</time>
      </trkpt>
      <trkpt lat="48.43262" lon="7.40001">
        <ele>737</ele>
        <time>2017-02-18T09:32:23Z</time>
      </trkpt>
      <trkpt lat="48.43251" lon="7.4">
        <ele>737</ele>
        <time>2017-02-18T09:32:34Z</time>
      </trkpt>
      <trkpt lat="48.43242" lon="7.39994">
        <ele>736</ele>
        <time>2017-02-18T09:32:46Z</time>
      </trkpt>
      <trkpt lat="48.43239" lon="7.39995">
        <ele>735</ele>
        <time>2017-02-18T09:32:54Z</time>
      </trkpt>
      <trkpt lat="48.4325" lon="7.39987">
        <ele>735</ele>
        <time>2017-02-18T09:33:13Z</time>
      </trkpt>
      <trkpt lat="48.43245" lon="7.39985">
        <ele>735</ele>
        <time>2017-02-18T09:33:15Z</time>
      </trkpt>
      <trkpt lat="48.43241" lon="7.39992">
        <ele>735</ele>
        <time>2017-02-18T09:33:21Z</time>
      </trkpt>
      <trkpt lat="48.43242" lon="7.39998">
        <ele>736</ele>
        <time>2017-02-18T09:33:25Z</time>
      </trkpt>
      <trkpt lat="48.43249" lon="7.39997">
        <ele>737</ele>
        <time>2017-02-18T09:33:34Z</time>
      </trkpt>
      <trkpt lat="48.43252" lon="7.39998">
        <ele>736</ele>
        <time>2017-02-18T09:33:36Z</time>
      </trkpt>
      <trkpt lat="48.43252" lon="7.40002">
        <ele>737</ele>
        <time>2017-02-18T09:33:38Z</time>
      </trkpt>
      <trkpt lat="48.43244" lon="7.40002">
        <ele>739</ele>
        <time>2017-02-18T09:33:46Z</time>
      </trkpt>
      <trkpt lat="48.43248" lon="7.40002">
        <ele>738</ele>
        <time>2017-02-18T09:33:52Z</time>
      </trkpt>
      <trkpt lat="48.43248" lon="7.39993">
        <ele>736</ele>
        <time>2017-02-18T09:34:02Z</time>
      </trkpt>
      <trkpt lat="48.43247" lon="7.39996">
        <ele>736</ele>
        <time>2017-02-18T09:34:05Z</time>
      </trkpt>
      <trkpt lat="48.43231" lon="7.40021">
        <ele>743</ele>
        <time>2017-02-18T09:38:15Z</time>
      </trkpt>
      <trkpt lat="48.4323" lon="7.40029">
        <ele>743</ele>
        <time>2017-02-18T09:38:19Z</time>
      </trkpt>
      <trkpt lat="48.4323" lon="7.4003">
        <ele>744</ele>
        <time>2017-02-18T09:38:20Z</time>
      </trkpt>
      <trkpt lat="48.43233" lon="7.40035">
        <ele>744</ele>
        <time>2017-02-18T09:38:23Z</time>
      </trkpt>
      <trkpt lat="48.43236" lon="7.40041">
        <ele>744</ele>
        <time>2017-02-18T09:38:27Z</time>
      </trkpt>
      <trkpt lat="48.43241" lon="7.40045">
        <ele>744</ele>
        <time>2017-02-18T09:38:31Z</time>
      </trkpt>
      <trkpt lat="48.43248" lon="7.40049">
        <ele>745</ele>
        <time>2017-02-18T09:38:36Z</time>
      </trkpt>
      <trkpt lat="48.4325" lon="7.40049">
        <ele>745</ele>
        <time>2017-02-18T09:38:38Z</time>
      </trkpt>
      <trkpt lat="48.43282" lon="7.40072">
        <ele>741</ele>
        <time>2017-02-18T09:38:59Z</time>
      </trkpt>
      <trkpt lat="48.43286" lon="7.40076">
        <ele>740</ele>
        <time>2017-02-18T09:39:02Z</time>
      </trkpt>
      <trkpt lat="48.43306" lon="7.40085">
        <ele>747</ele>
        <time>2017-02-18T09:39:15Z</time>
      </trkpt>
      <trkpt lat="48.43312" lon="7.40088">
        <ele>747</ele>
        <time>2017-02-18T09:39:19Z</time>
      </trkpt>
      <trkpt lat="48.43314" lon="7.40089">
        <ele>746</ele>
        <time>2017-02-18T09:39:21Z</time>
      </trkpt>
      <trkpt lat="48.43326" lon="7.40097">
        <ele>746</ele>
        <time>2017-02-18T09:39:28Z</time>
      </trkpt>
      <trkpt lat="48.43344" lon="7.40105">
        <ele>745</ele>
        <time>2017-02-18T09:39:39Z</time>
      </trkpt>
      <trkpt lat="48.43352" lon="7.4011">
        <ele>746</ele>
        <time>2017-02-18T09:39:44Z</time>
      </trkpt>
      <trkpt lat="48.43375" lon="7.40126">
        <ele>747</ele>
        <time>2017-02-18T09:39:58Z</time>
      </trkpt>
      <trkpt lat="48.4338" lon="7.40131">
        <ele>747</ele>
        <time>2017-02-18T09:40:01Z</time>
      </trkpt>
      <trkpt lat="48.43393" lon="7.4014">
        <ele>748</ele>
        <time>2017-02-18T09:40:08Z</time>
      </trkpt>
      <trkpt lat="48.43396" lon="7.40142">
        <ele>748</ele>
        <time>2017-02-18T09:40:10Z</time>
      </trkpt>
      <trkpt lat="48.43406" lon="7.40148">
        <ele>749</ele>
        <time>2017-02-18T09:40:17Z</time>
      </trkpt>
      <trkpt lat="48.43413" lon="7.40154">
        <ele>750</ele>
        <time>2017-02-18T09:40:22Z</time>
      </trkpt>
      <trkpt lat="48.43417" lon="7.40161">
        <ele>750</ele>
        <time>2017-02-18T09:40:26Z</time>
      </trkpt>
      <trkpt lat="48.43433" lon="7.40182">
        <ele>753</ele>
        <time>2017-02-18T09:40:43Z</time>
      </trkpt>
      <trkpt lat="48.43452" lon="7.40199">
        <ele>753</ele>
        <time>2017-02-18T09:40:54Z</time>
      </trkpt>
      <trkpt lat="48.43454" lon="7.402">
        <ele>753</ele>
        <time>2017-02-18T09:40:55Z</time>
      </trkpt>
      <trkpt lat="48.43459" lon="7.40203">
        <ele>753</ele>
        <time>2017-02-18T09:40:57Z</time>
      </trkpt>
      <trkpt lat="48.43462" lon="7.40206">
        <ele>753</ele>
        <time>2017-02-18T09:40:59Z</time>
      </trkpt>
      <trkpt lat="48.43473" lon="7.40211">
        <ele>754</ele>
        <time>2017-02-18T09:41:05Z</time>
      </trkpt>
      <trkpt lat="48.4348" lon="7.40213">
        <ele>754</ele>
        <time>2017-02-18T09:41:10Z</time>
      </trkpt>
      <trkpt lat="48.43485" lon="7.40216">
        <ele>754</ele>
        <time>2017-02-18T09:41:13Z</time>
      </trkpt>
      <trkpt lat="48.43493" lon="7.40217">
        <ele>754</ele>
        <time>2017-02-18T09:41:18Z</time>
      </trkpt>
      <trkpt lat="48.43495" lon="7.4022">
        <ele>754</ele>
        <time>2017-02-18T09:41:19Z</time>
      </trkpt>
      <trkpt lat="48.43497" lon="7.40233">
        <ele>755</ele>
        <time>2017-02-18T09:41:24Z</time>
      </trkpt>
      <trkpt lat="48.43498" lon="7.40239">
        <ele>756</ele>
        <time>2017-02-18T09:41:26Z</time>
      </trkpt>
      <trkpt lat="48.43499" lon="7.40249">
        <ele>757</ele>
        <time>2017-02-18T09:41:30Z</time>
      </trkpt>
      <trkpt lat="48.43495" lon="7.4025">
        <ele>756</ele>
        <time>2017-02-18T09:41:34Z</time>
      </trkpt>
      <trkpt lat="48.43488" lon="7.4024">
        <ele>755</ele>
        <time>2017-02-18T09:41:41Z</time>
      </trkpt>
      <trkpt lat="48.43481" lon="7.40235">
        <ele>755</ele>
        <time>2017-02-18T09:41:47Z</time>
      </trkpt>
      <trkpt lat="48.43478" lon="7.40235">
        <ele>755</ele>
        <time>2017-02-18T09:41:48Z</time>
      </trkpt>
      <trkpt lat="48.43474" lon="7.40232">
        <ele>755</ele>
        <time>2017-02-18T09:41:50Z</time>
      </trkpt>
      <trkpt lat="48.43467" lon="7.40232">
        <ele>755</ele>
        <time>2017-02-18T09:41:54Z</time>
      </trkpt>
      <trkpt lat="48.4346" lon="7.40229">
        <ele>755</ele>
        <time>2017-02-18T09:41:59Z</time>
      </trkpt>
      <trkpt lat="48.43452" lon="7.40228">
        <ele>755</ele>
        <time>2017-02-18T09:42:05Z</time>
      </trkpt>
      <trkpt lat="48.43442" lon="7.40216">
        <ele>755</ele>
        <time>2017-02-18T09:42:11Z</time>
      </trkpt>
      <trkpt lat="48.43426" lon="7.40206">
        <ele>754</ele>
        <time>2017-02-18T09:42:16Z</time>
      </trkpt>
      <trkpt lat="48.43414" lon="7.40201">
        <ele>757</ele>
        <time>2017-02-18T09:42:21Z</time>
      </trkpt>
      <trkpt lat="48.43405" lon="7.40207">
        <ele>757</ele>
        <time>2017-02-18T09:42:26Z</time>
      </trkpt>
      <trkpt lat="48.43402" lon="7.40208">
        <ele>757</ele>
        <time>2017-02-18T09:42:28Z</time>
      </trkpt>
      <trkpt lat="48.43391" lon="7.40207">
        <ele>758</ele>
        <time>2017-02-18T09:42:34Z</time>
      </trkpt>
      <trkpt lat="48.43381" lon="7.40214">
        <ele>758</ele>
        <time>2017-02-18T09:42:41Z</time>
      </trkpt>
      <trkpt lat="48.43377" lon="7.40214">
        <ele>758</ele>
        <time>2017-02-18T09:42:44Z</time>
      </trkpt>
      <trkpt lat="48.43374" lon="7.40213">
        <ele>758</ele>
        <time>2017-02-18T09:42:48Z</time>
      </trkpt>
      <trkpt lat="48.43373" lon="7.40212">
        <ele>758</ele>
        <time>2017-02-18T09:42:49Z</time>
      </trkpt>
      <trkpt lat="48.43373" lon="7.40212">
        <ele>758</ele>
        <time>2017-02-18T09:42:50Z</time>
      </trkpt>
      <trkpt lat="48.4336" lon="7.40214">
        <ele>759</ele>
        <time>2017-02-18T09:42:58Z</time>
      </trkpt>
      <trkpt lat="48.43353" lon="7.40214">
        <ele>759</ele>
        <time>2017-02-18T09:43:00Z</time>
      </trkpt>
      <trkpt lat="48.43345" lon="7.40211">
        <ele>759</ele>
        <time>2017-02-18T09:43:05Z</time>
      </trkpt>
      <trkpt lat="48.43342" lon="7.4021">
        <ele>759</ele>
        <time>2017-02-18T09:43:11Z</time>
      </trkpt>
      <trkpt lat="48.43325" lon="7.40211">
        <ele>761</ele>
        <time>2017-02-18T09:47:17Z</time>
      </trkpt>
      <trkpt lat="48.43322" lon="7.40212">
        <ele>761</ele>
        <time>2017-02-18T09:47:18Z</time>
      </trkpt>
      <trkpt lat="48.43308" lon="7.40206">
        <ele>762</ele>
        <time>2017-02-18T09:47:24Z</time>
      </trkpt>
      <trkpt lat="48.43296" lon="7.40208">
        <ele>762</ele>
        <time>2017-02-18T09:47:30Z</time>
      </trkpt>
      <trkpt lat="48.43287" lon="7.40207">
        <ele>762</ele>
        <time>2017-02-18T09:47:37Z</time>
      </trkpt>
      <trkpt lat="48.43276" lon="7.40201">
        <ele>762</ele>
        <time>2017-02-18T09:47:44Z</time>
      </trkpt>
      <trkpt lat="48.43258" lon="7.40185">
        <ele>763</ele>
        <time>2017-02-18T09:47:50Z</time>
      </trkpt>
      <trkpt lat="48.43244" lon="7.40169">
        <ele>764</ele>
        <time>2017-02-18T09:47:53Z</time>
      </trkpt>
      <trkpt lat="48.4323" lon="7.40156">
        <ele>761</ele>
        <time>2017-02-18T09:47:56Z</time>
      </trkpt>
      <trkpt lat="48.43224" lon="7.40152">
        <ele>761</ele>
        <time>2017-02-18T09:47:57Z</time>
      </trkpt>
      <trkpt lat="48.43203" lon="7.40149">
        <ele>762</ele>
        <time>2017-02-18T09:48:01Z</time>
      </trkpt>
      <trkpt lat="48.43188" lon="7.40148">
        <ele>763</ele>
        <time>2017-02-18T09:48:04Z</time>
      </trkpt>
      <trkpt lat="48.43173" lon="7.40146">
        <ele>764</ele>
        <time>2017-02-18T09:48:07Z</time>
      </trkpt>
      <trkpt lat="48.43137" lon="7.40144">
        <ele>767</ele>
        <time>2017-02-18T09:48:14Z</time>
      </trkpt>
      <trkpt lat="48.43121" lon="7.40138">
        <ele>767</ele>
        <time>2017-02-18T09:48:17Z</time>
      </trkpt>
      <trkpt lat="48.43116" lon="7.40138">
        <ele>768</ele>
        <time>2017-02-18T09:48:18Z</time>
      </trkpt>
      <trkpt lat="48.4309" lon="7.40122">
        <ele>767</ele>
        <time>2017-02-18T09:48:23Z</time>
      </trkpt>
      <trkpt lat="48.43064" lon="7.40097">
        <ele>769</ele>
        <time>2017-02-18T09:48:29Z</time>
      </trkpt>
      <trkpt lat="48.4306" lon="7.40092">
        <ele>769</ele>
        <time>2017-02-18T09:48:30Z</time>
      </trkpt>
      <trkpt lat="48.43049" lon="7.40085">
        <ele>770</ele>
        <time>2017-02-18T09:48:33Z</time>
      </trkpt>
      <trkpt lat="48.43027" lon="7.40061">
        <ele>765</ele>
        <time>2017-02-18T09:48:39Z</time>
      </trkpt>
      <trkpt lat="48.43" lon="7.40034">
        <ele>765</ele>
        <time>2017-02-18T09:48:46Z</time>
      </trkpt>
      <trkpt lat="48.42982" lon="7.40018">
        <ele>769</ele>
        <time>2017-02-18T09:48:51Z</time>
      </trkpt>
      <trkpt lat="48.42972" lon="7.40013">
        <ele>769</ele>
        <time>2017-02-18T09:48:53Z</time>
      </trkpt>
      <trkpt lat="48.42945" lon="7.40003">
        <ele>769</ele>
        <time>2017-02-18T09:49:00Z</time>
      </trkpt>
      <trkpt lat="48.42924" lon="7.40009">
        <ele>768</ele>
        <time>2017-02-18T09:49:06Z</time>
      </trkpt>
      <trkpt lat="48.42907" lon="7.40009">
        <ele>766</ele>
        <time>2017-02-18T09:49:11Z</time>
      </trkpt>
      <trkpt lat="48.42889" lon="7.40016">
        <ele>766</ele>
        <time>2017-02-18T09:49:17Z</time>
      </trkpt>
      <trkpt lat="48.42876" lon="7.40022">
        <ele>766</ele>
        <time>2017-02-18T09:49:23Z</time>
      </trkpt>
      <trkpt lat="48.42869" lon="7.40024">
        <ele>766</ele>
        <time>2017-02-18T09:49:25Z</time>
      </trkpt>
      <trkpt lat="48.42857" lon="7.40032">
        <ele>765</ele>
        <time>2017-02-18T09:49:31Z</time>
      </trkpt>
      <trkpt lat="48.4285" lon="7.40039">
        <ele>766</ele>
        <time>2017-02-18T09:49:33Z</time>
      </trkpt>
      <trkpt lat="48.42846" lon="7.40043">
        <ele>766</ele>
        <time>2017-02-18T09:49:34Z</time>
      </trkpt>
      <trkpt lat="48.42843" lon="7.40049">
        <ele>766</ele>
        <time>2017-02-18T09:49:35Z</time>
      </trkpt>
      <trkpt lat="48.42835" lon="7.40071">
        <ele>768</ele>
        <time>2017-02-18T09:49:38Z</time>
      </trkpt>
      <trkpt lat="48.42831" lon="7.40076">
        <ele>765</ele>
        <time>2017-02-18T09:49:39Z</time>
      </trkpt>
      <trkpt lat="48.42827" lon="7.40081">
        <ele>766</ele>
        <time>2017-02-18T09:49:40Z</time>
      </trkpt>
      <trkpt lat="48.42821" lon="7.40085">
        <ele>768</ele>
        <time>2017-02-18T09:49:41Z</time>
      </trkpt>
      <trkpt lat="48.42813" lon="7.40089">
        <ele>768</ele>
        <time>2017-02-18T09:49:42Z</time>
      </trkpt>
      <trkpt lat="48.42806" lon="7.40093">
        <ele>767</ele>
        <time>2017-02-18T09:49:43Z</time>
      </trkpt>
      <trkpt lat="48.42796" lon="7.40099">
        <ele>766</ele>
        <time>2017-02-18T09:49:44Z</time>
      </trkpt>
      <trkpt lat="48.42786" lon="7.40102">
        <ele>765</ele>
        <time>2017-02-18T09:49:45Z</time>
      </trkpt>
      <trkpt lat="48.42776" lon="7.40107">
        <ele>764</ele>
        <time>2017-02-18T09:49:46Z</time>
      </trkpt>
      <trkpt lat="48.42754" lon="7.40112">
        <ele>763</ele>
        <time>2017-02-18T09:49:48Z</time>
      </trkpt>
      <trkpt lat="48.42736" lon="7.40111">
        <ele>760</ele>
        <time>2017-02-18T09:49:50Z</time>
      </trkpt>
      <trkpt lat="48.42725" lon="7.40109">
        <ele>760</ele>
        <time>2017-02-18T09:49:51Z</time>
      </trkpt>
      <trkpt lat="48.42714" lon="7.40107">
        <ele>761</ele>
        <time>2017-02-18T09:49:52Z</time>
      </trkpt>
      <trkpt lat="48.42702" lon="7.40107">
        <ele>761</ele>
        <time>2017-02-18T09:49:53Z</time>
      </trkpt>
      <trkpt lat="48.42693" lon="7.40104">
        <ele>761</ele>
        <time>2017-02-18T09:49:54Z</time>
      </trkpt>
      <trkpt lat="48.42684" lon="7.40099">
        <ele>760</ele>
        <time>2017-02-18T09:49:55Z</time>
      </trkpt>
      <trkpt lat="48.42676" lon="7.40092">
        <ele>759</ele>
        <time>2017-02-18T09:49:56Z</time>
      </trkpt>
      <trkpt lat="48.42669" lon="7.40082">
        <ele>756</ele>
        <time>2017-02-18T09:49:57Z</time>
      </trkpt>
      <trkpt lat="48.42663" lon="7.40072">
        <ele>756</ele>
        <time>2017-02-18T09:49:58Z</time>
      </trkpt>
      <trkpt lat="48.42649" lon="7.40055">
        <ele>756</ele>
        <time>2017-02-18T09:50:00Z</time>
      </trkpt>
      <trkpt lat="48.42639" lon="7.40037">
        <ele>754</ele>
        <time>2017-02-18T09:50:02Z</time>
      </trkpt>
      <trkpt lat="48.42633" lon="7.40028">
        <ele>754</ele>
        <time>2017-02-18T09:50:03Z</time>
      </trkpt>
      <trkpt lat="48.42628" lon="7.40018">
        <ele>754</ele>
        <time>2017-02-18T09:50:04Z</time>
      </trkpt>
      <trkpt lat="48.42617" lon="7.39999">
        <ele>744</ele>
        <time>2017-02-18T09:50:06Z</time>
      </trkpt>
      <trkpt lat="48.42604" lon="7.3998">
        <ele>744</ele>
        <time>2017-02-18T09:50:08Z</time>
      </trkpt>
      <trkpt lat="48.42597" lon="7.39973">
        <ele>744</ele>
        <time>2017-02-18T09:50:09Z</time>
      </trkpt>
      <trkpt lat="48.42583" lon="7.39961">
        <ele>743</ele>
        <time>2017-02-18T09:50:11Z</time>
      </trkpt>
      <trkpt lat="48.42568" lon="7.39949">
        <ele>741</ele>
        <time>2017-02-18T09:50:14Z</time>
      </trkpt>
      <trkpt lat="48.42565" lon="7.39949">
        <ele>741</ele>
        <time>2017-02-18T09:50:15Z</time>
      </trkpt>
      <trkpt lat="48.42553" lon="7.39943">
        <ele>741</ele>
        <time>2017-02-18T09:50:18Z</time>
      </trkpt>
      <trkpt lat="48.42541" lon="7.39942">
        <ele>740</ele>
        <time>2017-02-18T09:50:20Z</time>
      </trkpt>
      <trkpt lat="48.42528" lon="7.39946">
        <ele>740</ele>
        <time>2017-02-18T09:50:22Z</time>
      </trkpt>
      <trkpt lat="48.42522" lon="7.39949">
        <ele>740</ele>
        <time>2017-02-18T09:50:23Z</time>
      </trkpt>
      <trkpt lat="48.4251" lon="7.3996">
        <ele>741</ele>
        <time>2017-02-18T09:50:25Z</time>
      </trkpt>
      <trkpt lat="48.42498" lon="7.39973">
        <ele>737</ele>
        <time>2017-02-18T09:50:27Z</time>
      </trkpt>
      <trkpt lat="48.42493" lon="7.3998">
        <ele>738</ele>
        <time>2017-02-18T09:50:28Z</time>
      </trkpt>
      <trkpt lat="48.42484" lon="7.39999">
        <ele>739</ele>
        <time>2017-02-18T09:50:30Z</time>
      </trkpt>
      <trkpt lat="48.42473" lon="7.40021">
        <ele>744</ele>
        <time>2017-02-18T09:50:34Z</time>
      </trkpt>
      <trkpt lat="48.42469" lon="7.40036">
        <ele>744</ele>
        <time>2017-02-18T09:50:38Z</time>
      </trkpt>
      <trkpt lat="48.4246" lon="7.40047">
        <ele>744</ele>
        <time>2017-02-18T09:50:43Z</time>
      </trkpt>
      <trkpt lat="48.4245" lon="7.40066">
        <ele>744</ele>
        <time>2017-02-18T09:50:49Z</time>
      </trkpt>
      <trkpt lat="48.4244" lon="7.40084">
        <ele>748</ele>
        <time>2017-02-18T09:50:55Z</time>
      </trkpt>
      <trkpt lat="48.42428" lon="7.40118">
        <ele>750</ele>
        <time>2017-02-18T09:51:01Z</time>
      </trkpt>
      <trkpt lat="48.42416" lon="7.40138">
        <ele>743</ele>
        <time>2017-02-18T09:51:06Z</time>
      </trkpt>
      <trkpt lat="48.42382" lon="7.40175">
        <ele>748</ele>
        <time>2017-02-18T09:51:19Z</time>
      </trkpt>
      <trkpt lat="48.4235" lon="7.40215">
        <ele>748</ele>
        <time>2017-02-18T09:51:32Z</time>
      </trkpt>
      <trkpt lat="48.42345" lon="7.4022">
        <ele>748</ele>
        <time>2017-02-18T09:51:34Z</time>
      </trkpt>
      <trkpt lat="48.42339" lon="7.40223">
        <ele>747</ele>
        <time>2017-02-18T09:51:36Z</time>
      </trkpt>
      <trkpt lat="48.42337" lon="7.40224">
        <ele>747</ele>
        <time>2017-02-18T09:51:37Z</time>
      </trkpt>
      <trkpt lat="48.42316" lon="7.40232">
        <ele>734</ele>
        <time>2017-02-18T09:51:42Z</time>
      </trkpt>
      <trkpt lat="48.42312" lon="7.40235">
        <ele>733</ele>
        <time>2017-02-18T09:51:43Z</time>
      </trkpt>
      <trkpt lat="48.42309" lon="7.40239">
        <ele>733</ele>
        <time>2017-02-18T09:51:44Z</time>
      </trkpt>
      <trkpt lat="48.423" lon="7.4028">
        <ele>736</ele>
        <time>2017-02-18T09:51:50Z</time>
      </trkpt>
      <trkpt lat="48.42287" lon="7.40336">
        <ele>742</ele>
        <time>2017-02-18T09:52:00Z</time>
      </trkpt>
      <trkpt lat="48.42273" lon="7.40367">
        <ele>741</ele>
        <time>2017-02-18T09:52:05Z</time>
      </trkpt>
      <trkpt lat="48.42266" lon="7.40395">
        <ele>742</ele>
        <time>2017-02-18T09:52:10Z</time>
      </trkpt>
      <trkpt lat="48.42266" lon="7.40397">
        <ele>742</ele>
        <time>2017-02-18T09:52:11Z</time>
      </trkpt>
      <trkpt lat="48.42262" lon="7.40407">
        <ele>741</ele>
        <time>2017-02-18T09:52:12Z</time>
      </trkpt>
      <trkpt lat="48.4226" lon="7.40413">
        <ele>740</ele>
        <time>2017-02-18T09:52:13Z</time>
      </trkpt>
      <trkpt lat="48.4226" lon="7.40427">
        <ele>745</ele>
        <time>2017-02-18T09:52:16Z</time>
      </trkpt>
      <trkpt lat="48.4226" lon="7.40436">
        <ele>747</ele>
        <time>2017-02-18T09:52:19Z</time>
      </trkpt>
      <trkpt lat="48.42259" lon="7.40438">
        <ele>748</ele>
        <time>2017-02-18T09:52:21Z</time>
      </trkpt>
      <trkpt lat="48.42258" lon="7.40439">
        <ele>748</ele>
        <time>2017-02-18T09:52:22Z</time>
      </trkpt>
      <trkpt lat="48.42258" lon="7.40439">
        <ele>748</ele>
        <time>2017-02-18T09:52:23Z</time>
      </trkpt>
      <trkpt lat="48.4226" lon="7.40447">
        <ele>749</ele>
        <time>2017-02-18T09:53:02Z</time>
      </trkpt>
      <trkpt lat="48.42261" lon="7.40452">
        <ele>750</ele>
        <time>2017-02-18T09:53:03Z</time>
      </trkpt>
      <trkpt lat="48.42264" lon="7.40463">
        <ele>751</ele>
        <time>2017-02-18T09:53:05Z</time>
      </trkpt>
      <trkpt lat="48.42268" lon="7.40473">
        <ele>752</ele>
        <time>2017-02-18T09:53:07Z</time>
      </trkpt>
      <trkpt lat="48.42269" lon="7.40477">
        <ele>752</ele>
        <time>2017-02-18T09:53:08Z</time>
      </trkpt>
      <trkpt lat="48.4227" lon="7.40481">
        <ele>752</ele>
        <time>2017-02-18T09:53:10Z</time>
      </trkpt>
      <trkpt lat="48.4227" lon="7.40482">
        <ele>751</ele>
        <time>2017-02-18T09:53:11Z</time>
      </trkpt>
      <trkpt lat="48.42271" lon="7.40482">
        <ele>752</ele>
        <time>2017-02-18T09:53:12Z</time>
      </trkpt>
      <trkpt lat="48.42271" lon="7.40479">
        <ele>752</ele>
        <time>2017-02-18T09:53:15Z</time>
      </trkpt>
      <trkpt lat="48.42268" lon="7.40471">
        <ele>752</ele>
        <time>2017-02-18T09:53:18Z</time>
      </trkpt>
      <trkpt lat="48.42265" lon="7.40462">
        <ele>751</ele>
        <time>2017-02-18T09:53:20Z</time>
      </trkpt>
      <trkpt lat="48.42264" lon="7.40459">
        <ele>751</ele>
        <time>2017-02-18T09:53:21Z</time>
      </trkpt>
      <trkpt lat="48.42262" lon="7.40453">
        <ele>750</ele>
        <time>2017-02-18T09:53:24Z</time>
      </trkpt>
      <trkpt lat="48.42263" lon="7.40455">
        <ele>751</ele>
        <time>2017-02-18T09:53:25Z</time>
      </trkpt>
      <trkpt lat="48.42264" lon="7.40457">
        <ele>751</ele>
        <time>2017-02-18T09:53:27Z</time>
      </trkpt>
      <trkpt lat="48.42263" lon="7.40471">
        <ele>751</ele>
        <time>2017-02-18T09:53:28Z</time>
      </trkpt>
      <trkpt lat="48.42264" lon="7.40483">
        <ele>750</ele>
        <time>2017-02-18T09:53:30Z</time>
      </trkpt>
      <trkpt lat="48.42266" lon="7.40487">
        <ele>750</ele>
        <time>2017-02-18T09:53:31Z</time>
      </trkpt>
      <trkpt lat="48.42267" lon="7.40494">
        <ele>750</ele>
        <time>2017-02-18T09:53:32Z</time>
      </trkpt>
      <trkpt lat="48.42269" lon="7.40499">
        <ele>750</ele>
        <time>2017-02-18T09:53:33Z</time>
      </trkpt>
      <trkpt lat="48.42273" lon="7.40517">
        <ele>755</ele>
        <time>2017-02-18T09:53:35Z</time>
      </trkpt>
      <trkpt lat="48.42275" lon="7.40525">
        <ele>756</ele>
        <time>2017-02-18T09:53:36Z</time>
      </trkpt>
      <trkpt lat="48.42279" lon="7.40533">
        <ele>757</ele>
        <time>2017-02-18T09:53:37Z</time>
      </trkpt>
      <trkpt lat="48.4228" lon="7.40544">
        <ele>757</ele>
        <time>2017-02-18T09:53:38Z</time>
      </trkpt>
      <trkpt lat="48.42278" lon="7.40557">
        <ele>756</ele>
        <time>2017-02-18T09:53:39Z</time>
      </trkpt>
      <trkpt lat="48.42278" lon="7.4057">
        <ele>755</ele>
        <time>2017-02-18T09:53:40Z</time>
      </trkpt>
      <trkpt lat="48.42279" lon="7.4058">
        <ele>755</ele>
        <time>2017-02-18T09:53:41Z</time>
      </trkpt>
      <trkpt lat="48.42281" lon="7.40591">
        <ele>753</ele>
        <time>2017-02-18T09:53:42Z</time>
      </trkpt>
      <trkpt lat="48.42283" lon="7.40607">
        <ele>754</ele>
        <time>2017-02-18T09:53:44Z</time>
      </trkpt>
      <trkpt lat="48.42284" lon="7.40612">
        <ele>754</ele>
        <time>2017-02-18T09:53:45Z</time>
      </trkpt>
      <trkpt lat="48.42283" lon="7.40617">
        <ele>753</ele>
        <time>2017-02-18T09:53:46Z</time>
      </trkpt>
      <trkpt lat="48.42282" lon="7.40619">
        <ele>753</ele>
        <time>2017-02-18T09:53:47Z</time>
      </trkpt>
      <trkpt lat="48.42282" lon="7.40619">
        <ele>753</ele>
        <time>2017-02-18T09:53:48Z</time>
      </trkpt>
      <trkpt lat="48.4228" lon="7.40618">
        <ele>752</ele>
        <time>2017-02-18T09:53:49Z</time>
      </trkpt>
      <trkpt lat="48.42274" lon="7.40611">
        <ele>751</ele>
        <time>2017-02-18T09:53:51Z</time>
      </trkpt>
      <trkpt lat="48.42267" lon="7.406">
        <ele>749</ele>
        <time>2017-02-18T09:53:53Z</time>
      </trkpt>
      <trkpt lat="48.42261" lon="7.40592">
        <ele>746</ele>
        <time>2017-02-18T09:53:56Z</time>
      </trkpt>
      <trkpt lat="48.42259" lon="7.40591">
        <ele>745</ele>
        <time>2017-02-18T09:53:57Z</time>
      </trkpt>
      <trkpt lat="48.42257" lon="7.40589">
        <ele>744</ele>
        <time>2017-02-18T09:53:58Z</time>
      </trkpt>
      <trkpt lat="48.42257" lon="7.40586">
        <ele>743</ele>
        <time>2017-02-18T09:53:59Z</time>
      </trkpt>
      <trkpt lat="48.42254" lon="7.40579">
        <ele>744</ele>
        <time>2017-02-18T09:54:00Z</time>
      </trkpt>
      <trkpt lat="48.42246" lon="7.40602">
        <ele>722</ele>
        <time>2017-02-18T09:54:01Z</time>
      </trkpt>
      <trkpt lat="48.42243" lon="7.40602">
        <ele>721</ele>
        <time>2017-02-18T09:54:02Z</time>
      </trkpt>
      <trkpt lat="48.42239" lon="7.40608">
        <ele>717</ele>
        <time>2017-02-18T09:54:03Z</time>
      </trkpt>
      <trkpt lat="48.42236" lon="7.40608">
        <ele>716</ele>
        <time>2017-02-18T09:54:04Z</time>
      </trkpt>
      <trkpt lat="48.42235" lon="7.40605">
        <ele>717</ele>
        <time>2017-02-18T09:54:05Z</time>
      </trkpt>
      <trkpt lat="48.42234" lon="7.40605">
        <ele>717</ele>
        <time>2017-02-18T09:54:06Z</time>
      </trkpt>
      <trkpt lat="48.42233" lon="7.40614">
        <ele>714</ele>
        <time>2017-02-18T09:54:09Z</time>
      </trkpt>
      <trkpt lat="48.42235" lon="7.40614">
        <ele>714</ele>
        <time>2017-02-18T09:54:11Z</time>
      </trkpt>
      <trkpt lat="48.42233" lon="7.40625">
        <ele>712</ele>
        <time>2017-02-18T09:55:05Z</time>
      </trkpt>
      <trkpt lat="48.42232" lon="7.40631">
        <ele>711</ele>
        <time>2017-02-18T09:55:06Z</time>
      </trkpt>
      <trkpt lat="48.42221" lon="7.40664">
        <ele>708</ele>
        <time>2017-02-18T09:55:11Z</time>
      </trkpt>
      <trkpt lat="48.42217" lon="7.40671">
        <ele>698</ele>
        <time>2017-02-18T09:55:12Z</time>
      </trkpt>
      <trkpt lat="48.42219" lon="7.40699">
        <ele>695</ele>
        <time>2017-02-18T09:56:07Z</time>
      </trkpt>
      <trkpt lat="48.4222" lon="7.40705">
        <ele>695</ele>
        <time>2017-02-18T09:56:09Z</time>
      </trkpt>
      <trkpt lat="48.4222" lon="7.40716">
        <ele>694</ele>
        <time>2017-02-18T09:56:12Z</time>
      </trkpt>
      <trkpt lat="48.42222" lon="7.40718">
        <ele>694</ele>
        <time>2017-02-18T09:56:13Z</time>
      </trkpt>
      <trkpt lat="48.42224" lon="7.40723">
        <ele>695</ele>
        <time>2017-02-18T09:56:15Z</time>
      </trkpt>
      <trkpt lat="48.42225" lon="7.40725">
        <ele>695</ele>
        <time>2017-02-18T09:56:16Z</time>
      </trkpt>
      <trkpt lat="48.42225" lon="7.40731">
        <ele>695</ele>
        <time>2017-02-18T09:56:18Z</time>
      </trkpt>
      <trkpt lat="48.42226" lon="7.40733">
        <ele>696</ele>
        <time>2017-02-18T09:56:20Z</time>
      </trkpt>
      <trkpt lat="48.42227" lon="7.40743">
        <ele>697</ele>
        <time>2017-02-18T09:56:23Z</time>
      </trkpt>
      <trkpt lat="48.42229" lon="7.40749">
        <ele>697</ele>
        <time>2017-02-18T09:56:25Z</time>
      </trkpt>
      <trkpt lat="48.42229" lon="7.40756">
        <ele>691</ele>
        <time>2017-02-18T09:56:29Z</time>
      </trkpt>
      <trkpt lat="48.4223" lon="7.40757">
        <ele>692</ele>
        <time>2017-02-18T09:56:31Z</time>
      </trkpt>
      <trkpt lat="48.4223" lon="7.40761">
        <ele>691</ele>
        <time>2017-02-18T09:56:34Z</time>
      </trkpt>
      <trkpt lat="48.42212" lon="7.40779">
        <ele>681</ele>
        <time>2017-02-18T09:57:04Z</time>
      </trkpt>
      <trkpt lat="48.42211" lon="7.40775">
        <ele>681</ele>
        <time>2017-02-18T09:57:06Z</time>
      </trkpt>
      <trkpt lat="48.42207" lon="7.40772">
        <ele>680</ele>
        <time>2017-02-18T09:57:09Z</time>
      </trkpt>
      <trkpt lat="48.42204" lon="7.40774">
        <ele>679</ele>
        <time>2017-02-18T09:57:11Z</time>
      </trkpt>
      <trkpt lat="48.42205" lon="7.40769">
        <ele>679</ele>
        <time>2017-02-18T09:58:17Z</time>
      </trkpt>
      <trkpt lat="48.42204" lon="7.40766">
        <ele>679</ele>
        <time>2017-02-18T09:58:18Z</time>
      </trkpt>
      <trkpt lat="48.42198" lon="7.40749">
        <ele>683</ele>
        <time>2017-02-18T09:58:26Z</time>
      </trkpt>
      <trkpt lat="48.42195" lon="7.40735">
        <ele>683</ele>
        <time>2017-02-18T09:58:32Z</time>
      </trkpt>
      <trkpt lat="48.42183" lon="7.40735">
        <ele>677</ele>
        <time>2017-02-18T09:59:31Z</time>
      </trkpt>
      <trkpt lat="48.4218" lon="7.4073">
        <ele>678</ele>
        <time>2017-02-18T09:59:32Z</time>
      </trkpt>
      <trkpt lat="48.42175" lon="7.40715">
        <ele>681</ele>
        <time>2017-02-18T09:59:34Z</time>
      </trkpt>
      <trkpt lat="48.42171" lon="7.40708">
        <ele>681</ele>
        <time>2017-02-18T09:59:35Z</time>
      </trkpt>
      <trkpt lat="48.42161" lon="7.40694">
        <ele>654</ele>
        <time>2017-02-18T09:59:37Z</time>
      </trkpt>
      <trkpt lat="48.42156" lon="7.40684">
        <ele>656</ele>
        <time>2017-02-18T09:59:38Z</time>
      </trkpt>
      <trkpt lat="48.42153" lon="7.40677">
        <ele>658</ele>
        <time>2017-02-18T09:59:39Z</time>
      </trkpt>
      <trkpt lat="48.42149" lon="7.4067">
        <ele>657</ele>
        <time>2017-02-18T09:59:40Z</time>
      </trkpt>
      <trkpt lat="48.42139" lon="7.4066">
        <ele>658</ele>
        <time>2017-02-18T09:59:42Z</time>
      </trkpt>
      <trkpt lat="48.4213" lon="7.40649">
        <ele>655</ele>
        <time>2017-02-18T09:59:44Z</time>
      </trkpt>
      <trkpt lat="48.42126" lon="7.40646">
        <ele>653</ele>
        <time>2017-02-18T09:59:45Z</time>
      </trkpt>
      <trkpt lat="48.42124" lon="7.40648">
        <ele>652</ele>
        <time>2017-02-18T09:59:46Z</time>
      </trkpt>
      <trkpt lat="48.42126" lon="7.4067">
        <ele>646</ele>
        <time>2017-02-18T09:59:51Z</time>
      </trkpt>
      <trkpt lat="48.4213" lon="7.40677">
        <ele>647</ele>
        <time>2017-02-18T09:59:53Z</time>
      </trkpt>
      <trkpt lat="48.42136" lon="7.40682">
        <ele>649</ele>
        <time>2017-02-18T09:59:55Z</time>
      </trkpt>
      <trkpt lat="48.42138" lon="7.40683">
        <ele>649</ele>
        <time>2017-02-18T09:59:56Z</time>
      </trkpt>
      <trkpt lat="48.4214" lon="7.40685">
        <ele>650</ele>
        <time>2017-02-18T09:59:59Z</time>
      </trkpt>
      <trkpt lat="48.42139" lon="7.4069">
        <ele>649</ele>
        <time>2017-02-18T10:00:01Z</time>
      </trkpt>
      <trkpt lat="48.4214" lon="7.40693">
        <ele>648</ele>
        <time>2017-02-18T10:00:02Z</time>
      </trkpt>
      <trkpt lat="48.42141" lon="7.40701">
        <ele>648</ele>
        <time>2017-02-18T10:00:07Z</time>
      </trkpt>
      <trkpt lat="48.42135" lon="7.40688">
        <ele>648</ele>
        <time>2017-02-18T10:00:20Z</time>
      </trkpt>
      <trkpt lat="48.42133" lon="7.40685">
        <ele>647</ele>
        <time>2017-02-18T10:00:21Z</time>
      </trkpt>
      <trkpt lat="48.42128" lon="7.40691">
        <ele>645</ele>
        <time>2017-02-18T10:00:25Z</time>
      </trkpt>
      <trkpt lat="48.42128" lon="7.40694">
        <ele>645</ele>
        <time>2017-02-18T10:00:26Z</time>
      </trkpt>
      <trkpt lat="48.42134" lon="7.40712">
        <ele>645</ele>
        <time>2017-02-18T10:00:37Z</time>
      </trkpt>
      <trkpt lat="48.42135" lon="7.4072">
        <ele>645</ele>
        <time>2017-02-18T10:00:54Z</time>
      </trkpt>
      <trkpt lat="48.42138" lon="7.40722">
        <ele>645</ele>
        <time>2017-02-18T10:00:55Z</time>
      </trkpt>
      <trkpt lat="48.42142" lon="7.40727">
        <ele>646</ele>
        <time>2017-02-18T10:00:56Z</time>
      </trkpt>
      <trkpt lat="48.42144" lon="7.40744">
        <ele>647</ele>
        <time>2017-02-18T10:00:58Z</time>
      </trkpt>
      <trkpt lat="48.42144" lon="7.4075">
        <ele>642</ele>
        <time>2017-02-18T10:00:59Z</time>
      </trkpt>
      <trkpt lat="48.42145" lon="7.40761">
        <ele>641</ele>
        <time>2017-02-18T10:01:01Z</time>
      </trkpt>
      <trkpt lat="48.42144" lon="7.40768">
        <ele>640</ele>
        <time>2017-02-18T10:01:03Z</time>
      </trkpt>
      <trkpt lat="48.42145" lon="7.40771">
        <ele>640</ele>
        <time>2017-02-18T10:01:04Z</time>
      </trkpt>
      <trkpt lat="48.42143" lon="7.40777">
        <ele>638</ele>
        <time>2017-02-18T10:01:06Z</time>
      </trkpt>
      <trkpt lat="48.4214" lon="7.40781">
        <ele>637</ele>
        <time>2017-02-18T10:01:07Z</time>
      </trkpt>
      <trkpt lat="48.42134" lon="7.40787">
        <ele>635</ele>
        <time>2017-02-18T10:01:10Z</time>
      </trkpt>
      <trkpt lat="48.42131" lon="7.40793">
        <ele>634</ele>
        <time>2017-02-18T10:01:12Z</time>
      </trkpt>
      <trkpt lat="48.42128" lon="7.40796">
        <ele>633</ele>
        <time>2017-02-18T10:01:13Z</time>
      </trkpt>
      <trkpt lat="48.42123" lon="7.40797">
        <ele>632</ele>
        <time>2017-02-18T10:01:15Z</time>
      </trkpt>
      <trkpt lat="48.4212" lon="7.40799">
        <ele>631</ele>
        <time>2017-02-18T10:01:16Z</time>
      </trkpt>
      <trkpt lat="48.42115" lon="7.408">
        <ele>630</ele>
        <time>2017-02-18T10:01:18Z</time>
      </trkpt>
      <trkpt lat="48.42107" lon="7.40804">
        <ele>627</ele>
        <time>2017-02-18T10:01:20Z</time>
      </trkpt>
      <trkpt lat="48.42093" lon="7.40814">
        <ele>622</ele>
        <time>2017-02-18T10:01:24Z</time>
      </trkpt>
      <trkpt lat="48.42089" lon="7.40819">
        <ele>619</ele>
        <time>2017-02-18T10:01:25Z</time>
      </trkpt>
      <trkpt lat="48.42086" lon="7.40824">
        <ele>616</ele>
        <time>2017-02-18T10:01:26Z</time>
      </trkpt>
      <trkpt lat="48.42082" lon="7.40828">
        <ele>605</ele>
        <time>2017-02-18T10:01:27Z</time>
      </trkpt>
      <trkpt lat="48.42079" lon="7.40832">
        <ele>606</ele>
        <time>2017-02-18T10:01:28Z</time>
      </trkpt>
      <trkpt lat="48.42077" lon="7.40834">
        <ele>605</ele>
        <time>2017-02-18T10:01:29Z</time>
      </trkpt>
      <trkpt lat="48.42074" lon="7.40835">
        <ele>604</ele>
        <time>2017-02-18T10:01:30Z</time>
      </trkpt>
      <trkpt lat="48.42064" lon="7.40835">
        <ele>601</ele>
        <time>2017-02-18T10:01:33Z</time>
      </trkpt>
      <trkpt lat="48.42053" lon="7.40838">
        <ele>598</ele>
        <time>2017-02-18T10:01:35Z</time>
      </trkpt>
      <trkpt lat="48.42049" lon="7.40837">
        <ele>597</ele>
        <time>2017-02-18T10:01:36Z</time>
      </trkpt>
      <trkpt lat="48.42042" lon="7.40827">
        <ele>593</ele>
        <time>2017-02-18T10:01:37Z</time>
      </trkpt>
      <trkpt lat="48.42027" lon="7.40817">
        <ele>589</ele>
        <time>2017-02-18T10:01:39Z</time>
      </trkpt>
      <trkpt lat="48.42021" lon="7.40814">
        <ele>588</ele>
        <time>2017-02-18T10:01:40Z</time>
      </trkpt>
      <trkpt lat="48.4201" lon="7.40812">
        <ele>586</ele>
        <time>2017-02-18T10:01:42Z</time>
      </trkpt>
      <trkpt lat="48.42001" lon="7.40813">
        <ele>585</ele>
        <time>2017-02-18T10:01:44Z</time>
      </trkpt>
      <trkpt lat="48.41998" lon="7.40812">
        <ele>568</ele>
        <time>2017-02-18T10:01:45Z</time>
      </trkpt>
      <trkpt lat="48.41992" lon="7.40816">
        <ele>569</ele>
        <time>2017-02-18T10:01:48Z</time>
      </trkpt>
      <trkpt lat="48.41983" lon="7.40826">
        <ele>568</ele>
        <time>2017-02-18T10:01:51Z</time>
      </trkpt>
      <trkpt lat="48.41969" lon="7.40847">
        <ele>571</ele>
        <time>2017-02-18T10:01:58Z</time>
      </trkpt>
      <trkpt lat="48.41947" lon="7.40892">
        <ele>570</ele>
        <time>2017-02-18T10:02:05Z</time>
      </trkpt>
      <trkpt lat="48.41941" lon="7.40893">
        <ele>569</ele>
        <time>2017-02-18T10:02:13Z</time>
      </trkpt>
      <trkpt lat="48.41944" lon="7.40886">
        <ele>569</ele>
        <time>2017-02-18T10:02:17Z</time>
      </trkpt>
      <trkpt lat="48.41963" lon="7.40844">
        <ele>569</ele>
        <time>2017-02-18T10:02:28Z</time>
      </trkpt>
      <trkpt lat="48.41964" lon="7.40837">
        <ele>569</ele>
        <time>2017-02-18T10:02:29Z</time>
      </trkpt>
      <trkpt lat="48.41969" lon="7.40824">
        <ele>564</ele>
        <time>2017-02-18T10:02:31Z</time>
      </trkpt>
      <trkpt lat="48.41974" lon="7.40812">
        <ele>565</ele>
        <time>2017-02-18T10:02:33Z</time>
      </trkpt>
      <trkpt lat="48.41978" lon="7.40808">
        <ele>565</ele>
        <time>2017-02-18T10:02:34Z</time>
      </trkpt>
      <trkpt lat="48.41987" lon="7.40796">
        <ele>565</ele>
        <time>2017-02-18T10:02:37Z</time>
      </trkpt>
      <trkpt lat="48.41999" lon="7.40771">
        <ele>566</ele>
        <time>2017-02-18T10:02:42Z</time>
      </trkpt>
      <trkpt lat="48.41997" lon="7.40737">
        <ele>568</ele>
        <time>2017-02-18T10:02:48Z</time>
      </trkpt>
      <trkpt lat="48.41989" lon="7.40714">
        <ele>566</ele>
        <time>2017-02-18T10:02:53Z</time>
      </trkpt>
      <trkpt lat="48.41966" lon="7.40665">
        <ele>571</ele>
        <time>2017-02-18T10:03:05Z</time>
      </trkpt>
      <trkpt lat="48.41954" lon="7.40626">
        <ele>569</ele>
        <time>2017-02-18T10:03:13Z</time>
      </trkpt>
      <trkpt lat="48.41942" lon="7.40597">
        <ele>567</ele>
        <time>2017-02-18T10:03:20Z</time>
      </trkpt>
      <trkpt lat="48.41938" lon="7.40571">
        <ele>570</ele>
        <time>2017-02-18T10:03:25Z</time>
      </trkpt>
      <trkpt lat="48.41938" lon="7.40566">
        <ele>570</ele>
        <time>2017-02-18T10:03:26Z</time>
      </trkpt>
      <trkpt lat="48.41937" lon="7.40562">
        <ele>571</ele>
        <time>2017-02-18T10:03:27Z</time>
      </trkpt>
      <trkpt lat="48.41934" lon="7.40528">
        <ele>572</ele>
        <time>2017-02-18T10:03:35Z</time>
      </trkpt>
      <trkpt lat="48.41936" lon="7.40498">
        <ele>571</ele>
        <time>2017-02-18T10:03:42Z</time>
      </trkpt>
      <trkpt lat="48.41937" lon="7.40487">
        <ele>572</ele>
        <time>2017-02-18T10:03:44Z</time>
      </trkpt>
      <trkpt lat="48.41942" lon="7.40468">
        <ele>574</ele>
        <time>2017-02-18T10:03:49Z</time>
      </trkpt>
      <trkpt lat="48.41942" lon="7.40468">
        <ele>574</ele>
        <time>2017-02-18T10:03:50Z</time>
      </trkpt>
      <trkpt lat="48.41935" lon="7.40452">
        <ele>573</ele>
        <time>2017-02-18T10:04:00Z</time>
      </trkpt>
      <trkpt lat="48.41933" lon="7.40443">
        <ele>572</ele>
        <time>2017-02-18T10:04:05Z</time>
      </trkpt>
      <trkpt lat="48.41937" lon="7.40449">
        <ele>573</ele>
        <time>2017-02-18T10:07:23Z</time>
      </trkpt>
      <trkpt lat="48.41936" lon="7.40446">
        <ele>573</ele>
        <time>2017-02-18T10:07:24Z</time>
      </trkpt>
      <trkpt lat="48.41935" lon="7.40442">
        <ele>572</ele>
        <time>2017-02-18T10:07:27Z</time>
      </trkpt>
      <trkpt lat="48.41937" lon="7.40447">
        <ele>573</ele>
        <time>2017-02-18T10:08:22Z</time>
      </trkpt>
      <trkpt lat="48.41938" lon="7.40432">
        <ele>572</ele>
        <time>2017-02-18T10:08:24Z</time>
      </trkpt>
      <trkpt lat="48.41937" lon="7.40429">
        <ele>571</ele>
        <time>2017-02-18T10:08:25Z</time>
      </trkpt>
      <trkpt lat="48.41936" lon="7.4043">
        <ele>571</ele>
        <time>2017-02-18T10:08:27Z</time>
      </trkpt>
      <trkpt lat="48.41937" lon="7.4044">
        <ele>572</ele>
        <time>2017-02-18T10:08:47Z</time>
      </trkpt>
      <trkpt lat="48.41938" lon="7.40447">
        <ele>573</ele>
        <time>2017-02-18T10:08:52Z</time>
      </trkpt>
      <trkpt lat="48.41939" lon="7.40448">
        <ele>573</ele>
        <time>2017-02-18T10:08:53Z</time>
      </trkpt>
      <trkpt lat="48.41939" lon="7.40451">
        <ele>574</ele>
        <time>2017-02-18T10:08:54Z</time>
      </trkpt>
      <trkpt lat="48.41939" lon="7.40456">
        <ele>574</ele>
        <time>2017-02-18T10:08:59Z</time>
      </trkpt>
      <trkpt lat="48.41936" lon="7.40447">
        <ele>573</ele>
        <time>2017-02-18T10:09:10Z</time>
      </trkpt>
      <trkpt lat="48.41935" lon="7.40428">
        <ele>571</ele>
        <time>2017-02-18T10:09:13Z</time>
      </trkpt>
      <trkpt lat="48.41934" lon="7.40429">
        <ele>570</ele>
        <time>2017-02-18T10:09:15Z</time>
      </trkpt>
      <trkpt lat="48.41939" lon="7.40454">
        <ele>574</ele>
        <time>2017-02-18T10:10:15Z</time>
      </trkpt>
      <trkpt lat="48.4194" lon="7.40465">
        <ele>574</ele>
        <time>2017-02-18T10:10:21Z</time>
      </trkpt>
      <trkpt lat="48.41941" lon="7.40466">
        <ele>574</ele>
        <time>2017-02-18T10:10:22Z</time>
      </trkpt>
      <trkpt lat="48.41946" lon="7.4047">
        <ele>575</ele>
        <time>2017-02-18T10:10:28Z</time>
      </trkpt>
      <trkpt lat="48.41947" lon="7.4047">
        <ele>575</ele>
        <time>2017-02-18T10:10:29Z</time>
      </trkpt>
      <trkpt lat="48.41949" lon="7.40467">
        <ele>575</ele>
        <time>2017-02-18T10:10:34Z</time>
      </trkpt>
      <trkpt lat="48.4195" lon="7.40451">
        <ele>575</ele>
        <time>2017-02-18T10:10:43Z</time>
      </trkpt>
      <trkpt lat="48.41953" lon="7.40443">
        <ele>576</ele>
        <time>2017-02-18T10:10:46Z</time>
      </trkpt>
      <trkpt lat="48.4196" lon="7.40417">
        <ele>577</ele>
        <time>2017-02-18T10:10:53Z</time>
      </trkpt>
      <trkpt lat="48.41981" lon="7.40365">
        <ele>574</ele>
        <time>2017-02-18T10:11:06Z</time>
      </trkpt>
      <trkpt lat="48.41984" lon="7.40356">
        <ele>575</ele>
        <time>2017-02-18T10:11:08Z</time>
      </trkpt>
      <trkpt lat="48.42003" lon="7.40319">
        <ele>587</ele>
        <time>2017-02-18T10:11:16Z</time>
      </trkpt>
      <trkpt lat="48.42012" lon="7.403">
        <ele>590</ele>
        <time>2017-02-18T10:11:20Z</time>
      </trkpt>
      <trkpt lat="48.42014" lon="7.40296">
        <ele>590</ele>
        <time>2017-02-18T10:11:21Z</time>
      </trkpt>
      <trkpt lat="48.42017" lon="7.4029">
        <ele>590</ele>
        <time>2017-02-18T10:11:23Z</time>
      </trkpt>
      <trkpt lat="48.42027" lon="7.4027">
        <ele>590</ele>
        <time>2017-02-18T10:11:29Z</time>
      </trkpt>
      <trkpt lat="48.42028" lon="7.40266">
        <ele>590</ele>
        <time>2017-02-18T10:11:30Z</time>
      </trkpt>
      <trkpt lat="48.42031" lon="7.4026">
        <ele>590</ele>
        <time>2017-02-18T10:11:32Z</time>
      </trkpt>
      <trkpt lat="48.4204" lon="7.40241">
        <ele>589</ele>
        <time>2017-02-18T10:11:37Z</time>
      </trkpt>
      <trkpt lat="48.42045" lon="7.40225">
        <ele>590</ele>
        <time>2017-02-18T10:11:41Z</time>
      </trkpt>
      <trkpt lat="48.42046" lon="7.40217">
        <ele>590</ele>
        <time>2017-02-18T10:11:43Z</time>
      </trkpt>
      <trkpt lat="48.42046" lon="7.40209">
        <ele>590</ele>
        <time>2017-02-18T10:11:45Z</time>
      </trkpt>
      <trkpt lat="48.42048" lon="7.40183">
        <ele>591</ele>
        <time>2017-02-18T10:11:51Z</time>
      </trkpt>
      <trkpt lat="48.42047" lon="7.40146">
        <ele>591</ele>
        <time>2017-02-18T10:11:59Z</time>
      </trkpt>
      <trkpt lat="48.42046" lon="7.40137">
        <ele>591</ele>
        <time>2017-02-18T10:12:01Z</time>
      </trkpt>
      <trkpt lat="48.42042" lon="7.40102">
        <ele>591</ele>
        <time>2017-02-18T10:12:09Z</time>
      </trkpt>
      <trkpt lat="48.42035" lon="7.40071">
        <ele>593</ele>
        <time>2017-02-18T10:12:16Z</time>
      </trkpt>
      <trkpt lat="48.42029" lon="7.40061">
        <ele>593</ele>
        <time>2017-02-18T10:12:19Z</time>
      </trkpt>
      <trkpt lat="48.42027" lon="7.40051">
        <ele>593</ele>
        <time>2017-02-18T10:12:21Z</time>
      </trkpt>
      <trkpt lat="48.42025" lon="7.40043">
        <ele>594</ele>
        <time>2017-02-18T10:12:23Z</time>
      </trkpt>
      <trkpt lat="48.42024" lon="7.40034">
        <ele>594</ele>
        <time>2017-02-18T10:12:25Z</time>
      </trkpt>
      <trkpt lat="48.42005" lon="7.3999">
        <ele>591</ele>
        <time>2017-02-18T10:12:38Z</time>
      </trkpt>
      <trkpt lat="48.42" lon="7.39981">
        <ele>580</ele>
        <time>2017-02-18T10:12:41Z</time>
      </trkpt>
      <trkpt lat="48.41991" lon="7.39954">
        <ele>580</ele>
        <time>2017-02-18T10:12:48Z</time>
      </trkpt>
      <trkpt lat="48.41989" lon="7.39944">
        <ele>581</ele>
        <time>2017-02-18T10:12:50Z</time>
      </trkpt>
      <trkpt lat="48.41984" lon="7.39924">
        <ele>582</ele>
        <time>2017-02-18T10:12:56Z</time>
      </trkpt>
      <trkpt lat="48.41974" lon="7.39897">
        <ele>583</ele>
        <time>2017-02-18T10:13:04Z</time>
      </trkpt>
      <trkpt lat="48.41964" lon="7.39869">
        <ele>582</ele>
        <time>2017-02-18T10:13:11Z</time>
      </trkpt>
      <trkpt lat="48.41958" lon="7.39848">
        <ele>582</ele>
        <time>2017-02-18T10:13:15Z</time>
      </trkpt>
      <trkpt lat="48.41956" lon="7.39845">
        <ele>582</ele>
        <time>2017-02-18T10:13:16Z</time>
      </trkpt>
      <trkpt lat="48.41953" lon="7.39843">
        <ele>581</ele>
        <time>2017-02-18T10:13:17Z</time>
      </trkpt>
      <trkpt lat="48.41949" lon="7.39844">
        <ele>581</ele>
        <time>2017-02-18T10:13:19Z</time>
      </trkpt>
      <trkpt lat="48.41947" lon="7.3985">
        <ele>580</ele>
        <time>2017-02-18T10:13:20Z</time>
      </trkpt>
      <trkpt lat="48.41944" lon="7.39853">
        <ele>580</ele>
        <time>2017-02-18T10:13:22Z</time>
      </trkpt>
      <trkpt lat="48.4194" lon="7.39854">
        <ele>580</ele>
        <time>2017-02-18T10:13:24Z</time>
      </trkpt>
      <trkpt lat="48.41915" lon="7.39854">
        <ele>568</ele>
        <time>2017-02-18T10:13:30Z</time>
      </trkpt>
      <trkpt lat="48.41912" lon="7.39852">
        <ele>568</ele>
        <time>2017-02-18T10:13:31Z</time>
      </trkpt>
      <trkpt lat="48.41908" lon="7.39851">
        <ele>568</ele>
        <time>2017-02-18T10:13:32Z</time>
      </trkpt>
      <trkpt lat="48.41904" lon="7.39846">
        <ele>568</ele>
        <time>2017-02-18T10:13:33Z</time>
      </trkpt>
      <trkpt lat="48.41898" lon="7.39842">
        <ele>567</ele>
        <time>2017-02-18T10:13:34Z</time>
      </trkpt>
      <trkpt lat="48.41893" lon="7.39835">
        <ele>566</ele>
        <time>2017-02-18T10:13:35Z</time>
      </trkpt>
      <trkpt lat="48.41888" lon="7.39832">
        <ele>564</ele>
        <time>2017-02-18T10:13:36Z</time>
      </trkpt>
      <trkpt lat="48.41881" lon="7.39832">
        <ele>563</ele>
        <time>2017-02-18T10:13:37Z</time>
      </trkpt>
      <trkpt lat="48.41869" lon="7.39829">
        <ele>560</ele>
        <time>2017-02-18T10:13:39Z</time>
      </trkpt>
      <trkpt lat="48.41864" lon="7.39827">
        <ele>559</ele>
        <time>2017-02-18T10:13:40Z</time>
      </trkpt>
      <trkpt lat="48.41844" lon="7.39824">
        <ele>555</ele>
        <time>2017-02-18T10:13:45Z</time>
      </trkpt>
      <trkpt lat="48.41838" lon="7.39826">
        <ele>553</ele>
        <time>2017-02-18T10:13:46Z</time>
      </trkpt>
      <trkpt lat="48.41826" lon="7.39833">
        <ele>546</ele>
        <time>2017-02-18T10:13:49Z</time>
      </trkpt>
      <trkpt lat="48.41822" lon="7.39833">
        <ele>544</ele>
        <time>2017-02-18T10:13:50Z</time>
      </trkpt>
      <trkpt lat="48.41816" lon="7.39835">
        <ele>544</ele>
        <time>2017-02-18T10:13:51Z</time>
      </trkpt>
      <trkpt lat="48.41813" lon="7.39839">
        <ele>542</ele>
        <time>2017-02-18T10:13:52Z</time>
      </trkpt>
      <trkpt lat="48.4181" lon="7.39847">
        <ele>541</ele>
        <time>2017-02-18T10:13:54Z</time>
      </trkpt>
      <trkpt lat="48.41806" lon="7.39849">
        <ele>540</ele>
        <time>2017-02-18T10:13:55Z</time>
      </trkpt>
      <trkpt lat="48.41794" lon="7.39854">
        <ele>538</ele>
        <time>2017-02-18T10:13:57Z</time>
      </trkpt>
      <trkpt lat="48.41788" lon="7.39858">
        <ele>537</ele>
        <time>2017-02-18T10:13:58Z</time>
      </trkpt>
      <trkpt lat="48.41785" lon="7.39862">
        <ele>536</ele>
        <time>2017-02-18T10:13:59Z</time>
      </trkpt>
      <trkpt lat="48.41781" lon="7.39864">
        <ele>536</ele>
        <time>2017-02-18T10:14:00Z</time>
      </trkpt>
      <trkpt lat="48.41765" lon="7.39872">
        <ele>534</ele>
        <time>2017-02-18T10:14:04Z</time>
      </trkpt>
      <trkpt lat="48.41749" lon="7.39882">
        <ele>519</ele>
        <time>2017-02-18T10:14:08Z</time>
      </trkpt>
      <trkpt lat="48.41745" lon="7.39883">
        <ele>518</ele>
        <time>2017-02-18T10:14:09Z</time>
      </trkpt>
      <trkpt lat="48.41712" lon="7.39893">
        <ele>515</ele>
        <time>2017-02-18T10:14:14Z</time>
      </trkpt>
      <trkpt lat="48.41699" lon="7.39894">
        <ele>513</ele>
        <time>2017-02-18T10:14:16Z</time>
      </trkpt>
      <trkpt lat="48.41695" lon="7.39895">
        <ele>512</ele>
        <time>2017-02-18T10:14:17Z</time>
      </trkpt>
      <trkpt lat="48.41693" lon="7.39894">
        <ele>512</ele>
        <time>2017-02-18T10:14:18Z</time>
      </trkpt>
      <trkpt lat="48.41691" lon="7.39896">
        <ele>512</ele>
        <time>2017-02-18T10:14:20Z</time>
      </trkpt>
      <trkpt lat="48.41876" lon="7.39837">
        <ele>562</ele>
        <time>2017-02-18T10:22:20Z</time>
      </trkpt>
      <trkpt lat="48.41862" lon="7.39832">
        <ele>559</ele>
        <time>2017-02-18T10:22:26Z</time>
      </trkpt>
      <trkpt lat="48.41858" lon="7.3983">
        <ele>558</ele>
        <time>2017-02-18T10:22:27Z</time>
      </trkpt>
      <trkpt lat="48.41841" lon="7.39826">
        <ele>554</ele>
        <time>2017-02-18T10:22:32Z</time>
      </trkpt>
      <trkpt lat="48.41835" lon="7.39828">
        <ele>552</ele>
        <time>2017-02-18T10:22:33Z</time>
      </trkpt>
      <trkpt lat="48.41831" lon="7.39831">
        <ele>548</ele>
        <time>2017-02-18T10:22:34Z</time>
      </trkpt>
      <trkpt lat="48.41827" lon="7.39833">
        <ele>546</ele>
        <time>2017-02-18T10:22:35Z</time>
      </trkpt>
      <trkpt lat="48.41823" lon="7.39833">
        <ele>545</ele>
        <time>2017-02-18T10:22:36Z</time>
      </trkpt>
      <trkpt lat="48.41818" lon="7.39836">
        <ele>544</ele>
        <time>2017-02-18T10:22:37Z</time>
      </trkpt>
      <trkpt lat="48.41815" lon="7.39839">
        <ele>543</ele>
        <time>2017-02-18T10:22:38Z</time>
      </trkpt>
      <trkpt lat="48.41813" lon="7.39843">
        <ele>542</ele>
        <time>2017-02-18T10:22:39Z</time>
      </trkpt>
      <trkpt lat="48.41809" lon="7.39846">
        <ele>541</ele>
        <time>2017-02-18T10:22:40Z</time>
      </trkpt>
      <trkpt lat="48.41804" lon="7.39849">
        <ele>540</ele>
        <time>2017-02-18T10:22:41Z</time>
      </trkpt>
      <trkpt lat="48.41798" lon="7.39852">
        <ele>539</ele>
        <time>2017-02-18T10:22:42Z</time>
      </trkpt>
      <trkpt lat="48.41791" lon="7.39861">
        <ele>537</ele>
        <time>2017-02-18T10:22:44Z</time>
      </trkpt>
      <trkpt lat="48.41788" lon="7.39864">
        <ele>537</ele>
        <time>2017-02-18T10:22:45Z</time>
      </trkpt>
      <trkpt lat="48.41784" lon="7.39866">
        <ele>536</ele>
        <time>2017-02-18T10:22:46Z</time>
      </trkpt>
      <trkpt lat="48.41776" lon="7.3987">
        <ele>535</ele>
        <time>2017-02-18T10:22:48Z</time>
      </trkpt>
      <trkpt lat="48.41763" lon="7.39876">
        <ele>534</ele>
        <time>2017-02-18T10:22:51Z</time>
      </trkpt>
      <trkpt lat="48.41748" lon="7.39883">
        <ele>519</ele>
        <time>2017-02-18T10:22:53Z</time>
      </trkpt>
      <trkpt lat="48.41731" lon="7.39886">
        <ele>518</ele>
        <time>2017-02-18T10:22:56Z</time>
      </trkpt>
      <trkpt lat="48.41724" lon="7.39885">
        <ele>516</ele>
        <time>2017-02-18T10:22:57Z</time>
      </trkpt>
      <trkpt lat="48.41715" lon="7.39886">
        <ele>515</ele>
        <time>2017-02-18T10:22:58Z</time>
      </trkpt>
      <trkpt lat="48.41696" lon="7.39892">
        <ele>513</ele>
        <time>2017-02-18T10:23:00Z</time>
      </trkpt>
      <trkpt lat="48.4169" lon="7.39895">
        <ele>512</ele>
        <time>2017-02-18T10:23:01Z</time>
      </trkpt>
      <trkpt lat="48.4169" lon="7.39901">
        <ele>512</ele>
        <time>2017-02-18T10:23:02Z</time>
      </trkpt>
      <trkpt lat="48.41682" lon="7.39916">
        <ele>510</ele>
        <time>2017-02-18T10:23:05Z</time>
      </trkpt>
      <trkpt lat="48.41678" lon="7.39925">
        <ele>511</ele>
        <time>2017-02-18T10:23:06Z</time>
      </trkpt>
      <trkpt lat="48.41675" lon="7.39942">
        <ele>512</ele>
        <time>2017-02-18T10:23:08Z</time>
      </trkpt>
      <trkpt lat="48.41672" lon="7.39952">
        <ele>513</ele>
        <time>2017-02-18T10:23:09Z</time>
      </trkpt>
      <trkpt lat="48.4167" lon="7.3996">
        <ele>513</ele>
        <time>2017-02-18T10:23:10Z</time>
      </trkpt>
      <trkpt lat="48.41667" lon="7.39967">
        <ele>513</ele>
        <time>2017-02-18T10:23:11Z</time>
      </trkpt>
      <trkpt lat="48.41663" lon="7.39974">
        <ele>503</ele>
        <time>2017-02-18T10:23:12Z</time>
      </trkpt>
      <trkpt lat="48.41657" lon="7.39981">
        <ele>503</ele>
        <time>2017-02-18T10:23:14Z</time>
      </trkpt>
      <trkpt lat="48.41652" lon="7.39983">
        <ele>503</ele>
        <time>2017-02-18T10:23:15Z</time>
      </trkpt>
      <trkpt lat="48.41648" lon="7.39987">
        <ele>503</ele>
        <time>2017-02-18T10:23:16Z</time>
      </trkpt>
      <trkpt lat="48.41643" lon="7.39993">
        <ele>502</ele>
        <time>2017-02-18T10:23:17Z</time>
      </trkpt>
      <trkpt lat="48.4164" lon="7.4">
        <ele>502</ele>
        <time>2017-02-18T10:23:18Z</time>
      </trkpt>
      <trkpt lat="48.41639" lon="7.40004">
        <ele>499</ele>
        <time>2017-02-18T10:23:19Z</time>
      </trkpt>
      <trkpt lat="48.41634" lon="7.40019">
        <ele>497</ele>
        <time>2017-02-18T10:23:22Z</time>
      </trkpt>
      <trkpt lat="48.41633" lon="7.40023">
        <ele>497</ele>
        <time>2017-02-18T10:23:23Z</time>
      </trkpt>
      <trkpt lat="48.41632" lon="7.40029">
        <ele>496</ele>
        <time>2017-02-18T10:23:24Z</time>
      </trkpt>
      <trkpt lat="48.41621" lon="7.40051">
        <ele>494</ele>
        <time>2017-02-18T10:23:27Z</time>
      </trkpt>
      <trkpt lat="48.41616" lon="7.40063">
        <ele>492</ele>
        <time>2017-02-18T10:23:29Z</time>
      </trkpt>
      <trkpt lat="48.41613" lon="7.40069">
        <ele>491</ele>
        <time>2017-02-18T10:23:30Z</time>
      </trkpt>
      <trkpt lat="48.41604" lon="7.40094">
        <ele>484</ele>
        <time>2017-02-18T10:23:33Z</time>
      </trkpt>
      <trkpt lat="48.41598" lon="7.40116">
        <ele>483</ele>
        <time>2017-02-18T10:23:35Z</time>
      </trkpt>
      <trkpt lat="48.41596" lon="7.40127">
        <ele>483</ele>
        <time>2017-02-18T10:23:36Z</time>
      </trkpt>
      <trkpt lat="48.41595" lon="7.40134">
        <ele>482</ele>
        <time>2017-02-18T10:23:37Z</time>
      </trkpt>
      <trkpt lat="48.41592" lon="7.40139">
        <ele>481</ele>
        <time>2017-02-18T10:23:38Z</time>
      </trkpt>
      <trkpt lat="48.41585" lon="7.40146">
        <ele>480</ele>
        <time>2017-02-18T10:23:39Z</time>
      </trkpt>
      <trkpt lat="48.41583" lon="7.40151">
        <ele>473</ele>
        <time>2017-02-18T10:23:40Z</time>
      </trkpt>
      <trkpt lat="48.41582" lon="7.40158">
        <ele>474</ele>
        <time>2017-02-18T10:23:41Z</time>
      </trkpt>
      <trkpt lat="48.4158" lon="7.40165">
        <ele>474</ele>
        <time>2017-02-18T10:23:42Z</time>
      </trkpt>
      <trkpt lat="48.41577" lon="7.4017">
        <ele>471</ele>
        <time>2017-02-18T10:23:43Z</time>
      </trkpt>
      <trkpt lat="48.41572" lon="7.40175">
        <ele>469</ele>
        <time>2017-02-18T10:23:44Z</time>
      </trkpt>
      <trkpt lat="48.41561" lon="7.40189">
        <ele>464</ele>
        <time>2017-02-18T10:23:47Z</time>
      </trkpt>
      <trkpt lat="48.41559" lon="7.40194">
        <ele>463</ele>
        <time>2017-02-18T10:23:48Z</time>
      </trkpt>
      <trkpt lat="48.41559" lon="7.402">
        <ele>463</ele>
        <time>2017-02-18T10:23:49Z</time>
      </trkpt>
      <trkpt lat="48.41557" lon="7.40208">
        <ele>462</ele>
        <time>2017-02-18T10:23:50Z</time>
      </trkpt>
      <trkpt lat="48.41553" lon="7.40222">
        <ele>461</ele>
        <time>2017-02-18T10:23:52Z</time>
      </trkpt>
      <trkpt lat="48.41549" lon="7.40231">
        <ele>460</ele>
        <time>2017-02-18T10:23:53Z</time>
      </trkpt>
      <trkpt lat="48.41547" lon="7.40244">
        <ele>459</ele>
        <time>2017-02-18T10:23:54Z</time>
      </trkpt>
      <trkpt lat="48.41541" lon="7.40265">
        <ele>453</ele>
        <time>2017-02-18T10:23:56Z</time>
      </trkpt>
      <trkpt lat="48.41535" lon="7.40276">
        <ele>452</ele>
        <time>2017-02-18T10:23:57Z</time>
      </trkpt>
      <trkpt lat="48.4153" lon="7.40281">
        <ele>452</ele>
        <time>2017-02-18T10:23:58Z</time>
      </trkpt>
      <trkpt lat="48.41523" lon="7.40281">
        <ele>451</ele>
        <time>2017-02-18T10:23:59Z</time>
      </trkpt>
      <trkpt lat="48.41517" lon="7.40279">
        <ele>451</ele>
        <time>2017-02-18T10:24:00Z</time>
      </trkpt>
      <trkpt lat="48.41512" lon="7.4028">
        <ele>451</ele>
        <time>2017-02-18T10:24:01Z</time>
      </trkpt>
      <trkpt lat="48.41495" lon="7.40288">
        <ele>443</ele>
        <time>2017-02-18T10:24:04Z</time>
      </trkpt>
      <trkpt lat="48.41488" lon="7.40297">
        <ele>442</ele>
        <time>2017-02-18T10:24:05Z</time>
      </trkpt>
      <trkpt lat="48.41481" lon="7.40311">
        <ele>441</ele>
        <time>2017-02-18T10:24:07Z</time>
      </trkpt>
      <trkpt lat="48.41478" lon="7.40315">
        <ele>441</ele>
        <time>2017-02-18T10:24:08Z</time>
      </trkpt>
      <trkpt lat="48.41468" lon="7.40322">
        <ele>440</ele>
        <time>2017-02-18T10:24:11Z</time>
      </trkpt>
      <trkpt lat="48.41463" lon="7.40327">
        <ele>439</ele>
        <time>2017-02-18T10:24:13Z</time>
      </trkpt>
      <trkpt lat="48.41458" lon="7.40334">
        <ele>435</ele>
        <time>2017-02-18T10:24:15Z</time>
      </trkpt>
      <trkpt lat="48.41454" lon="7.40337">
        <ele>434</ele>
        <time>2017-02-18T10:24:16Z</time>
      </trkpt>
      <trkpt lat="48.41448" lon="7.40337">
        <ele>433</ele>
        <time>2017-02-18T10:24:17Z</time>
      </trkpt>
      <trkpt lat="48.41443" lon="7.40337">
        <ele>432</ele>
        <time>2017-02-18T10:24:18Z</time>
      </trkpt>
      <trkpt lat="48.41438" lon="7.40338">
        <ele>431</ele>
        <time>2017-02-18T10:24:19Z</time>
      </trkpt>
      <trkpt lat="48.41423" lon="7.40349">
        <ele>430</ele>
        <time>2017-02-18T10:24:22Z</time>
      </trkpt>
      <trkpt lat="48.41418" lon="7.40353">
        <ele>430</ele>
        <time>2017-02-18T10:24:23Z</time>
      </trkpt>
      <trkpt lat="48.41418" lon="7.40351">
        <ele>430</ele>
        <time>2017-02-18T10:24:24Z</time>
      </trkpt>
      <trkpt lat="48.41418" lon="7.40351">
        <ele>430</ele>
        <time>2017-02-18T10:24:25Z</time>
      </trkpt>
      <trkpt lat="48.41419" lon="7.40349">
        <ele>430</ele>
        <time>2017-02-18T10:24:28Z</time>
      </trkpt>
      <trkpt lat="48.41414" lon="7.40354">
        <ele>423</ele>
        <time>2017-02-18T10:26:35Z</time>
      </trkpt>
      <trkpt lat="48.4141" lon="7.40365">
        <ele>422</ele>
        <time>2017-02-18T10:26:37Z</time>
      </trkpt>
      <trkpt lat="48.41406" lon="7.40371">
        <ele>421</ele>
        <time>2017-02-18T10:26:38Z</time>
      </trkpt>
      <trkpt lat="48.41399" lon="7.40373">
        <ele>421</ele>
        <time>2017-02-18T10:26:40Z</time>
      </trkpt>
      <trkpt lat="48.41395" lon="7.40372">
        <ele>421</ele>
        <time>2017-02-18T10:26:41Z</time>
      </trkpt>
      <trkpt lat="48.41389" lon="7.40373">
        <ele>420</ele>
        <time>2017-02-18T10:26:42Z</time>
      </trkpt>
      <trkpt lat="48.4138" lon="7.4037">
        <ele>420</ele>
        <time>2017-02-18T10:26:45Z</time>
      </trkpt>
      <trkpt lat="48.41375" lon="7.40367">
        <ele>419</ele>
        <time>2017-02-18T10:26:46Z</time>
      </trkpt>
      <trkpt lat="48.41361" lon="7.4037">
        <ele>418</ele>
        <time>2017-02-18T10:26:48Z</time>
      </trkpt>
      <trkpt lat="48.41349" lon="7.40368">
        <ele>418</ele>
        <time>2017-02-18T10:26:50Z</time>
      </trkpt>
      <trkpt lat="48.41337" lon="7.40365">
        <ele>417</ele>
        <time>2017-02-18T10:26:52Z</time>
      </trkpt>
      <trkpt lat="48.4133" lon="7.40366">
        <ele>410</ele>
        <time>2017-02-18T10:26:53Z</time>
      </trkpt>
      <trkpt lat="48.41322" lon="7.40372">
        <ele>409</ele>
        <time>2017-02-18T10:26:55Z</time>
      </trkpt>
      <trkpt lat="48.4132" lon="7.40375">
        <ele>409</ele>
        <time>2017-02-18T10:26:56Z</time>
      </trkpt>
      <trkpt lat="48.41316" lon="7.40379">
        <ele>408</ele>
        <time>2017-02-18T10:26:58Z</time>
      </trkpt>
      <trkpt lat="48.41312" lon="7.40383">
        <ele>408</ele>
        <time>2017-02-18T10:27:00Z</time>
      </trkpt>
      <trkpt lat="48.41313" lon="7.40382">
        <ele>408</ele>
        <time>2017-02-18T10:27:01Z</time>
      </trkpt>
      <trkpt lat="48.41354" lon="7.40407">
        <ele>416</ele>
        <time>2017-02-18T10:30:42Z</time>
      </trkpt>
      <trkpt lat="48.41364" lon="7.40409">
        <ele>417</ele>
        <time>2017-02-18T10:30:46Z</time>
      </trkpt>
      <trkpt lat="48.41365" lon="7.40409">
        <ele>417</ele>
        <time>2017-02-18T10:30:47Z</time>
      </trkpt>
      <trkpt lat="48.41367" lon="7.4041">
        <ele>418</ele>
        <time>2017-02-18T10:30:48Z</time>
      </trkpt>
      <trkpt lat="48.41373" lon="7.4041">
        <ele>418</ele>
        <time>2017-02-18T10:30:51Z</time>
      </trkpt>
      <trkpt lat="48.41376" lon="7.40412">
        <ele>419</ele>
        <time>2017-02-18T10:30:53Z</time>
      </trkpt>
      <trkpt lat="48.4138" lon="7.40414">
        <ele>419</ele>
        <time>2017-02-18T10:30:55Z</time>
      </trkpt>
      <trkpt lat="48.41394" lon="7.4041">
        <ele>421</ele>
        <time>2017-02-18T10:31:02Z</time>
      </trkpt>
      <trkpt lat="48.41402" lon="7.40415">
        <ele>422</ele>
        <time>2017-02-18T10:31:07Z</time>
      </trkpt>
      <trkpt lat="48.41403" lon="7.40415">
        <ele>422</ele>
        <time>2017-02-18T10:31:08Z</time>
      </trkpt>
      <trkpt lat="48.4141" lon="7.40425">
        <ele>424</ele>
        <time>2017-02-18T10:31:16Z</time>
      </trkpt>
      <trkpt lat="48.41411" lon="7.4043">
        <ele>424</ele>
        <time>2017-02-18T10:31:20Z</time>
      </trkpt>
      <trkpt lat="48.4141" lon="7.40432">
        <ele>424</ele>
        <time>2017-02-18T10:31:21Z</time>
      </trkpt>
      <trkpt lat="48.41411" lon="7.40436">
        <ele>424</ele>
        <time>2017-02-18T10:31:23Z</time>
      </trkpt>
      <trkpt lat="48.41409" lon="7.40449">
        <ele>424</ele>
        <time>2017-02-18T10:31:31Z</time>
      </trkpt>
      <trkpt lat="48.41407" lon="7.40456">
        <ele>424</ele>
        <time>2017-02-18T10:31:34Z</time>
      </trkpt>
      <trkpt lat="48.41405" lon="7.40464">
        <ele>424</ele>
        <time>2017-02-18T10:31:38Z</time>
      </trkpt>
      <trkpt lat="48.414" lon="7.4047">
        <ele>425</ele>
        <time>2017-02-18T10:31:44Z</time>
      </trkpt>
      <trkpt lat="48.414" lon="7.40469">
        <ele>425</ele>
        <time>2017-02-18T10:31:45Z</time>
      </trkpt>
      <trkpt lat="48.41391" lon="7.40475">
        <ele>424</ele>
        <time>2017-02-18T10:31:52Z</time>
      </trkpt>
      <trkpt lat="48.41371" lon="7.40483">
        <ele>422</ele>
        <time>2017-02-18T10:32:04Z</time>
      </trkpt>
      <trkpt lat="48.41368" lon="7.40485">
        <ele>422</ele>
        <time>2017-02-18T10:32:06Z</time>
      </trkpt>
      <trkpt lat="48.41363" lon="7.40492">
        <ele>422</ele>
        <time>2017-02-18T10:32:10Z</time>
      </trkpt>
      <trkpt lat="48.4136" lon="7.40501">
        <ele>427</ele>
        <time>2017-02-18T10:32:15Z</time>
      </trkpt>
      <trkpt lat="48.41357" lon="7.40505">
        <ele>427</ele>
        <time>2017-02-18T10:32:16Z</time>
      </trkpt>
      <trkpt lat="48.41357" lon="7.40506">
        <ele>427</ele>
        <time>2017-02-18T10:32:17Z</time>
      </trkpt>
      <trkpt lat="48.41355" lon="7.40509">
        <ele>427</ele>
        <time>2017-02-18T10:32:19Z</time>
      </trkpt>
      <trkpt lat="48.41353" lon="7.4052">
        <ele>428</ele>
        <time>2017-02-18T10:32:26Z</time>
      </trkpt>
      <trkpt lat="48.41352" lon="7.40528">
        <ele>429</ele>
        <time>2017-02-18T10:32:30Z</time>
      </trkpt>
      <trkpt lat="48.41346" lon="7.40542">
        <ele>430</ele>
        <time>2017-02-18T10:32:39Z</time>
      </trkpt>
      <trkpt lat="48.41338" lon="7.40552">
        <ele>431</ele>
        <time>2017-02-18T10:32:47Z</time>
      </trkpt>
      <trkpt lat="48.41331" lon="7.40554">
        <ele>423</ele>
        <time>2017-02-18T10:32:52Z</time>
      </trkpt>
      <trkpt lat="48.41317" lon="7.4056">
        <ele>423</ele>
        <time>2017-02-18T10:32:58Z</time>
      </trkpt>
      <trkpt lat="48.4131" lon="7.40564">
        <ele>423</ele>
        <time>2017-02-18T10:33:00Z</time>
      </trkpt>
      <trkpt lat="48.41307" lon="7.40565">
        <ele>422</ele>
        <time>2017-02-18T10:33:01Z</time>
      </trkpt>
      <trkpt lat="48.41299" lon="7.40568">
        <ele>422</ele>
        <time>2017-02-18T10:33:03Z</time>
      </trkpt>
      <trkpt lat="48.41291" lon="7.40574">
        <ele>421</ele>
        <time>2017-02-18T10:33:05Z</time>
      </trkpt>
      <trkpt lat="48.41286" lon="7.40583">
        <ele>420</ele>
        <time>2017-02-18T10:33:07Z</time>
      </trkpt>
      <trkpt lat="48.41284" lon="7.40588">
        <ele>425</ele>
        <time>2017-02-18T10:33:08Z</time>
      </trkpt>
      <trkpt lat="48.41282" lon="7.4059">
        <ele>425</ele>
        <time>2017-02-18T10:33:09Z</time>
      </trkpt>
      <trkpt lat="48.41273" lon="7.40597">
        <ele>423</ele>
        <time>2017-02-18T10:33:11Z</time>
      </trkpt>
      <trkpt lat="48.4126" lon="7.40612">
        <ele>423</ele>
        <time>2017-02-18T10:33:14Z</time>
      </trkpt>
      <trkpt lat="48.4125" lon="7.40623">
        <ele>415</ele>
        <time>2017-02-18T10:33:16Z</time>
      </trkpt>
      <trkpt lat="48.41226" lon="7.40642">
        <ele>415</ele>
        <time>2017-02-18T10:33:20Z</time>
      </trkpt>
      <trkpt lat="48.41221" lon="7.40648">
        <ele>415</ele>
        <time>2017-02-18T10:33:21Z</time>
      </trkpt>
      <trkpt lat="48.41217" lon="7.40654">
        <ele>414</ele>
        <time>2017-02-18T10:33:22Z</time>
      </trkpt>
      <trkpt lat="48.41208" lon="7.40667">
        <ele>413</ele>
        <time>2017-02-18T10:33:24Z</time>
      </trkpt>
      <trkpt lat="48.41203" lon="7.40672">
        <ele>412</ele>
        <time>2017-02-18T10:33:25Z</time>
      </trkpt>
      <trkpt lat="48.41199" lon="7.40676">
        <ele>412</ele>
        <time>2017-02-18T10:33:26Z</time>
      </trkpt>
      <trkpt lat="48.41184" lon="7.40692">
        <ele>411</ele>
        <time>2017-02-18T10:33:29Z</time>
      </trkpt>
      <trkpt lat="48.41176" lon="7.40713">
        <ele>410</ele>
        <time>2017-02-18T10:33:32Z</time>
      </trkpt>
      <trkpt lat="48.41173" lon="7.4072">
        <ele>409</ele>
        <time>2017-02-18T10:33:34Z</time>
      </trkpt>
      <trkpt lat="48.41168" lon="7.40734">
        <ele>407</ele>
        <time>2017-02-18T10:33:37Z</time>
      </trkpt>
      <trkpt lat="48.41163" lon="7.40742">
        <ele>403</ele>
        <time>2017-02-18T10:33:38Z</time>
      </trkpt>
      <trkpt lat="48.41158" lon="7.4075">
        <ele>401</ele>
        <time>2017-02-18T10:33:39Z</time>
      </trkpt>
      <trkpt lat="48.41151" lon="7.40773">
        <ele>397</ele>
        <time>2017-02-18T10:33:41Z</time>
      </trkpt>
      <trkpt lat="48.41148" lon="7.40796">
        <ele>395</ele>
        <time>2017-02-18T10:33:43Z</time>
      </trkpt>
      <trkpt lat="48.41145" lon="7.40809">
        <ele>394</ele>
        <time>2017-02-18T10:33:44Z</time>
      </trkpt>
      <trkpt lat="48.41141" lon="7.40822">
        <ele>394</ele>
        <time>2017-02-18T10:33:45Z</time>
      </trkpt>
      <trkpt lat="48.41138" lon="7.40834">
        <ele>389</ele>
        <time>2017-02-18T10:33:46Z</time>
      </trkpt>
      <trkpt lat="48.41131" lon="7.4085">
        <ele>387</ele>
        <time>2017-02-18T10:33:47Z</time>
      </trkpt>
      <trkpt lat="48.41127" lon="7.40863">
        <ele>386</ele>
        <time>2017-02-18T10:33:48Z</time>
      </trkpt>
      <trkpt lat="48.41125" lon="7.40877">
        <ele>385</ele>
        <time>2017-02-18T10:33:49Z</time>
      </trkpt>
      <trkpt lat="48.41123" lon="7.40892">
        <ele>385</ele>
        <time>2017-02-18T10:33:50Z</time>
      </trkpt>
      <trkpt lat="48.41123" lon="7.40906">
        <ele>384</ele>
        <time>2017-02-18T10:33:51Z</time>
      </trkpt>
      <trkpt lat="48.41122" lon="7.40926">
        <ele>382</ele>
        <time>2017-02-18T10:33:53Z</time>
      </trkpt>
      <trkpt lat="48.41124" lon="7.40932">
        <ele>382</ele>
        <time>2017-02-18T10:33:54Z</time>
      </trkpt>
      <trkpt lat="48.41124" lon="7.4095">
        <ele>382</ele>
        <time>2017-02-18T10:33:58Z</time>
      </trkpt>
      <trkpt lat="48.41129" lon="7.40966">
        <ele>382</ele>
        <time>2017-02-18T10:34:04Z</time>
      </trkpt>
      <trkpt lat="48.41147" lon="7.40984">
        <ele>384</ele>
        <time>2017-02-18T10:34:12Z</time>
      </trkpt>
      <trkpt lat="48.41151" lon="7.41004">
        <ele>385</ele>
        <time>2017-02-18T10:34:19Z</time>
      </trkpt>
      <trkpt lat="48.41151" lon="7.41007">
        <ele>385</ele>
        <time>2017-02-18T10:34:20Z</time>
      </trkpt>
      <trkpt lat="48.41152" lon="7.41011">
        <ele>385</ele>
        <time>2017-02-18T10:34:21Z</time>
      </trkpt>
      <trkpt lat="48.41151" lon="7.41017">
        <ele>384</ele>
        <time>2017-02-18T10:34:22Z</time>
      </trkpt>
      <trkpt lat="48.4115" lon="7.41029">
        <ele>383</ele>
        <time>2017-02-18T10:34:25Z</time>
      </trkpt>
      <trkpt lat="48.41149" lon="7.41039">
        <ele>383</ele>
        <time>2017-02-18T10:34:28Z</time>
      </trkpt>
      <trkpt lat="48.41148" lon="7.41043">
        <ele>383</ele>
        <time>2017-02-18T10:34:29Z</time>
      </trkpt>
      <trkpt lat="48.41148" lon="7.41047">
        <ele>383</ele>
        <time>2017-02-18T10:34:30Z</time>
      </trkpt>
      <trkpt lat="48.41146" lon="7.41071">
        <ele>383</ele>
        <time>2017-02-18T10:34:36Z</time>
      </trkpt>
      <trkpt lat="48.41148" lon="7.41075">
        <ele>384</ele>
        <time>2017-02-18T10:34:37Z</time>
      </trkpt>
      <trkpt lat="48.41148" lon="7.41084">
        <ele>383</ele>
        <time>2017-02-18T10:34:39Z</time>
      </trkpt>
      <trkpt lat="48.41148" lon="7.41104">
        <ele>381</ele>
        <time>2017-02-18T10:34:43Z</time>
      </trkpt>
      <trkpt lat="48.41147" lon="7.41118">
        <ele>380</ele>
        <time>2017-02-18T10:34:45Z</time>
      </trkpt>
      <trkpt lat="48.4115" lon="7.41134">
        <ele>380</ele>
        <time>2017-02-18T10:34:47Z</time>
      </trkpt>
      <trkpt lat="48.41152" lon="7.41141">
        <ele>380</ele>
        <time>2017-02-18T10:34:48Z</time>
      </trkpt>
      <trkpt lat="48.41157" lon="7.41157">
        <ele>381</ele>
        <time>2017-02-18T10:34:50Z</time>
      </trkpt>
      <trkpt lat="48.41161" lon="7.41164">
        <ele>382</ele>
        <time>2017-02-18T10:34:51Z</time>
      </trkpt>
      <trkpt lat="48.41165" lon="7.41175">
        <ele>380</ele>
        <time>2017-02-18T10:34:53Z</time>
      </trkpt>
      <trkpt lat="48.41168" lon="7.41188">
        <ele>387</ele>
        <time>2017-02-18T10:34:57Z</time>
      </trkpt>
      <trkpt lat="48.41168" lon="7.41193">
        <ele>387</ele>
        <time>2017-02-18T10:34:59Z</time>
      </trkpt>
      <trkpt lat="48.41167" lon="7.41199">
        <ele>387</ele>
        <time>2017-02-18T10:35:00Z</time>
      </trkpt>
      <trkpt lat="48.41167" lon="7.41204">
        <ele>375</ele>
        <time>2017-02-18T10:35:01Z</time>
      </trkpt>
      <trkpt lat="48.41169" lon="7.41219">
        <ele>386</ele>
        <time>2017-02-18T10:35:05Z</time>
      </trkpt>
      <trkpt lat="48.41168" lon="7.41227">
        <ele>384</ele>
        <time>2017-02-18T10:35:07Z</time>
      </trkpt>
      <trkpt lat="48.4117" lon="7.41232">
        <ele>383</ele>
        <time>2017-02-18T10:35:08Z</time>
      </trkpt>
      <trkpt lat="48.41168" lon="7.41239">
        <ele>381</ele>
        <time>2017-02-18T10:35:09Z</time>
      </trkpt>
      <trkpt lat="48.41163" lon="7.41255">
        <ele>373</ele>
        <time>2017-02-18T10:35:12Z</time>
      </trkpt>
      <trkpt lat="48.41162" lon="7.4126">
        <ele>372</ele>
        <time>2017-02-18T10:35:13Z</time>
      </trkpt>
      <trkpt lat="48.41159" lon="7.4127">
        <ele>371</ele>
        <time>2017-02-18T10:35:16Z</time>
      </trkpt>
      <trkpt lat="48.41156" lon="7.41278">
        <ele>370</ele>
        <time>2017-02-18T10:35:20Z</time>
      </trkpt>
      <trkpt lat="48.41157" lon="7.41281">
        <ele>370</ele>
        <time>2017-02-18T10:35:23Z</time>
      </trkpt>
      <trkpt lat="48.41158" lon="7.41286">
        <ele>370</ele>
        <time>2017-02-18T10:36:03Z</time>
      </trkpt>
      <trkpt lat="48.41154" lon="7.41296">
        <ele>370</ele>
        <time>2017-02-18T10:36:04Z</time>
      </trkpt>
      <trkpt lat="48.41157" lon="7.41315">
        <ele>371</ele>
        <time>2017-02-18T10:36:06Z</time>
      </trkpt>
      <trkpt lat="48.41157" lon="7.41328">
        <ele>372</ele>
        <time>2017-02-18T10:36:07Z</time>
      </trkpt>
      <trkpt lat="48.41161" lon="7.4134">
        <ele>374</ele>
        <time>2017-02-18T10:36:08Z</time>
      </trkpt>
      <trkpt lat="48.41164" lon="7.41361">
        <ele>372</ele>
        <time>2017-02-18T10:36:10Z</time>
      </trkpt>
      <trkpt lat="48.41164" lon="7.4137">
        <ele>372</ele>
        <time>2017-02-18T10:36:11Z</time>
      </trkpt>
      <trkpt lat="48.41163" lon="7.4138">
        <ele>372</ele>
        <time>2017-02-18T10:36:12Z</time>
      </trkpt>
      <trkpt lat="48.41165" lon="7.41398">
        <ele>374</ele>
        <time>2017-02-18T10:36:14Z</time>
      </trkpt>
      <trkpt lat="48.4117" lon="7.41421">
        <ele>381</ele>
        <time>2017-02-18T10:36:18Z</time>
      </trkpt>
      <trkpt lat="48.41169" lon="7.41462">
        <ele>387</ele>
        <time>2017-02-18T10:36:26Z</time>
      </trkpt>
      <trkpt lat="48.41166" lon="7.41495">
        <ele>376</ele>
        <time>2017-02-18T10:36:33Z</time>
      </trkpt>
      <trkpt lat="48.41152" lon="7.41578">
        <ele>371</ele>
        <time>2017-02-18T10:36:46Z</time>
      </trkpt>
      <trkpt lat="48.41152" lon="7.41586">
        <ele>372</ele>
        <time>2017-02-18T10:36:47Z</time>
      </trkpt>
      <trkpt lat="48.4115" lon="7.41593">
        <ele>372</ele>
        <time>2017-02-18T10:36:48Z</time>
      </trkpt>
      <trkpt lat="48.41145" lon="7.41604">
        <ele>371</ele>
        <time>2017-02-18T10:36:50Z</time>
      </trkpt>
      <trkpt lat="48.41134" lon="7.41622">
        <ele>370</ele>
        <time>2017-02-18T10:36:56Z</time>
      </trkpt>
      <trkpt lat="48.41125" lon="7.41632">
        <ele>369</ele>
        <time>2017-02-18T10:37:01Z</time>
      </trkpt>
      <trkpt lat="48.41118" lon="7.41646">
        <ele>369</ele>
        <time>2017-02-18T10:37:06Z</time>
      </trkpt>
      <trkpt lat="48.41114" lon="7.41652">
        <ele>368</ele>
        <time>2017-02-18T10:37:07Z</time>
      </trkpt>
      <trkpt lat="48.4111" lon="7.4166">
        <ele>368</ele>
        <time>2017-02-18T10:37:09Z</time>
      </trkpt>
      <trkpt lat="48.41103" lon="7.41684">
        <ele>370</ele>
        <time>2017-02-18T10:37:14Z</time>
      </trkpt>
      <trkpt lat="48.41096" lon="7.41714">
        <ele>371</ele>
        <time>2017-02-18T10:37:22Z</time>
      </trkpt>
      <trkpt lat="48.41096" lon="7.41719">
        <ele>371</ele>
        <time>2017-02-18T10:37:23Z</time>
      </trkpt>
      <trkpt lat="48.41095" lon="7.41724">
        <ele>371</ele>
        <time>2017-02-18T10:37:24Z</time>
      </trkpt>
      <trkpt lat="48.41094" lon="7.41733">
        <ele>371</ele>
        <time>2017-02-18T10:37:26Z</time>
      </trkpt>
      <trkpt lat="48.41095" lon="7.41757">
        <ele>370</ele>
        <time>2017-02-18T10:37:32Z</time>
      </trkpt>
      <trkpt lat="48.41108" lon="7.4179">
        <ele>371</ele>
        <time>2017-02-18T10:37:40Z</time>
      </trkpt>
      <trkpt lat="48.41109" lon="7.41792">
        <ele>371</ele>
        <time>2017-02-18T10:37:41Z</time>
      </trkpt>
      <trkpt lat="48.4111" lon="7.41795">
        <ele>371</ele>
        <time>2017-02-18T10:37:42Z</time>
      </trkpt>
      <trkpt lat="48.41112" lon="7.41797">
        <ele>371</ele>
        <time>2017-02-18T10:37:43Z</time>
      </trkpt>
      <trkpt lat="48.41113" lon="7.41801">
        <ele>370</ele>
        <time>2017-02-18T10:37:45Z</time>
      </trkpt>
      <trkpt lat="48.41142" lon="7.41798">
        <ele>372</ele>
        <time>2017-02-18T10:38:45Z</time>
      </trkpt>
      <trkpt lat="48.41149" lon="7.418">
        <ele>372</ele>
        <time>2017-02-18T10:38:50Z</time>
      </trkpt>
      <trkpt lat="48.41151" lon="7.41799">
        <ele>372</ele>
        <time>2017-02-18T10:38:52Z</time>
      </trkpt>
      <trkpt lat="48.41152" lon="7.41798">
        <ele>373</ele>
        <time>2017-02-18T10:38:54Z</time>
      </trkpt>
      <trkpt lat="48.41157" lon="7.41796">
        <ele>373</ele>
        <time>2017-02-18T10:38:57Z</time>
      </trkpt>
      <trkpt lat="48.41162" lon="7.41794">
        <ele>373</ele>
        <time>2017-02-18T10:39:00Z</time>
      </trkpt>
      <trkpt lat="48.41164" lon="7.41794">
        <ele>373</ele>
        <time>2017-02-18T10:39:01Z</time>
      </trkpt>
      <trkpt lat="48.41165" lon="7.41794">
        <ele>373</ele>
        <time>2017-02-18T10:39:02Z</time>
      </trkpt>
      <trkpt lat="48.41178" lon="7.41795">
        <ele>381</ele>
        <time>2017-02-18T10:39:09Z</time>
      </trkpt>
      <trkpt lat="48.41185" lon="7.41797">
        <ele>381</ele>
        <time>2017-02-18T10:39:14Z</time>
      </trkpt>
      <trkpt lat="48.4119" lon="7.41804">
        <ele>380</ele>
        <time>2017-02-18T10:39:20Z</time>
      </trkpt>
      <trkpt lat="48.41202" lon="7.4181">
        <ele>381</ele>
        <time>2017-02-18T10:39:27Z</time>
      </trkpt>
      <trkpt lat="48.41209" lon="7.41816">
        <ele>382</ele>
        <time>2017-02-18T10:39:30Z</time>
      </trkpt>
      <trkpt lat="48.41216" lon="7.4182">
        <ele>382</ele>
        <time>2017-02-18T10:39:32Z</time>
      </trkpt>
      <trkpt lat="48.41218" lon="7.41823">
        <ele>382</ele>
        <time>2017-02-18T10:39:33Z</time>
      </trkpt>
      <trkpt lat="48.4122" lon="7.41827">
        <ele>382</ele>
        <time>2017-02-18T10:39:34Z</time>
      </trkpt>
      <trkpt lat="48.41223" lon="7.41835">
        <ele>379</ele>
        <time>2017-02-18T10:39:37Z</time>
      </trkpt>
      <trkpt lat="48.41226" lon="7.41842">
        <ele>380</ele>
        <time>2017-02-18T10:39:43Z</time>
      </trkpt>
      <trkpt lat="48.41227" lon="7.41842">
        <ele>380</ele>
        <time>2017-02-18T10:39:44Z</time>
      </trkpt>
      <trkpt lat="48.41225" lon="7.41833">
        <ele>383</ele>
        <time>2017-02-18T10:40:41Z</time>
      </trkpt>
      <trkpt lat="48.4122" lon="7.41823">
        <ele>382</ele>
        <time>2017-02-18T10:40:43Z</time>
      </trkpt>
      <trkpt lat="48.41213" lon="7.4182">
        <ele>382</ele>
        <time>2017-02-18T10:40:45Z</time>
      </trkpt>
      <trkpt lat="48.41211" lon="7.4182">
        <ele>382</ele>
        <time>2017-02-18T10:40:46Z</time>
      </trkpt>
      <trkpt lat="48.4121" lon="7.4182">
        <ele>382</ele>
        <time>2017-02-18T10:40:47Z</time>
      </trkpt>
      <trkpt lat="48.41208" lon="7.4182">
        <ele>381</ele>
        <time>2017-02-18T10:40:48Z</time>
      </trkpt>
      <trkpt lat="48.41205" lon="7.41818">
        <ele>381</ele>
        <time>2017-02-18T10:40:50Z</time>
      </trkpt>
      <trkpt lat="48.41204" lon="7.41817">
        <ele>381</ele>
        <time>2017-02-18T10:40:51Z</time>
      </trkpt>
      <trkpt lat="48.41204" lon="7.41815">
        <ele>381</ele>
        <time>2017-02-18T10:40:52Z</time>
      </trkpt>
      <trkpt lat="48.41195" lon="7.41804">
        <ele>381</ele>
        <time>2017-02-18T10:41:01Z</time>
      </trkpt>
      <trkpt lat="48.4118" lon="7.418">
        <ele>380</ele>
        <time>2017-02-18T10:41:07Z</time>
      </trkpt>
      <trkpt lat="48.41174" lon="7.41799">
        <ele>380</ele>
        <time>2017-02-18T10:41:09Z</time>
      </trkpt>
      <trkpt lat="48.41165" lon="7.41802">
        <ele>373</ele>
        <time>2017-02-18T10:41:12Z</time>
      </trkpt>
      <trkpt lat="48.4116" lon="7.41802">
        <ele>373</ele>
        <time>2017-02-18T10:41:13Z</time>
      </trkpt>
      <trkpt lat="48.41149" lon="7.41803">
        <ele>372</ele>
        <time>2017-02-18T10:41:15Z</time>
      </trkpt>
      <trkpt lat="48.41139" lon="7.41802">
        <ele>372</ele>
        <time>2017-02-18T10:41:17Z</time>
      </trkpt>
      <trkpt lat="48.41121" lon="7.41806">
        <ele>371</ele>
        <time>2017-02-18T10:41:21Z</time>
      </trkpt>
      <trkpt lat="48.41117" lon="7.41805">
        <ele>371</ele>
        <time>2017-02-18T10:41:22Z</time>
      </trkpt>
      <trkpt lat="48.41114" lon="7.41803">
        <ele>370</ele>
        <time>2017-02-18T10:41:23Z</time>
      </trkpt>
      <trkpt lat="48.41103" lon="7.41777">
        <ele>371</ele>
        <time>2017-02-18T10:41:29Z</time>
      </trkpt>
      <trkpt lat="48.41097" lon="7.41764">
        <ele>370</ele>
        <time>2017-02-18T10:41:32Z</time>
      </trkpt>
      <trkpt lat="48.41096" lon="7.41761">
        <ele>370</ele>
        <time>2017-02-18T10:41:33Z</time>
      </trkpt>
      <trkpt lat="48.41091" lon="7.41744">
        <ele>370</ele>
        <time>2017-02-18T10:41:37Z</time>
      </trkpt>
      <trkpt lat="48.41092" lon="7.41707">
        <ele>371</ele>
        <time>2017-02-18T10:41:45Z</time>
      </trkpt>
      <trkpt lat="48.41093" lon="7.41699">
        <ele>370</ele>
        <time>2017-02-18T10:41:46Z</time>
      </trkpt>
      <trkpt lat="48.41097" lon="7.41683">
        <ele>369</ele>
        <time>2017-02-18T10:41:49Z</time>
      </trkpt>
      <trkpt lat="48.41107" lon="7.4166">
        <ele>367</ele>
        <time>2017-02-18T10:41:55Z</time>
      </trkpt>
      <trkpt lat="48.4112" lon="7.41639">
        <ele>369</ele>
        <time>2017-02-18T10:42:00Z</time>
      </trkpt>
      <trkpt lat="48.41129" lon="7.41633">
        <ele>370</ele>
        <time>2017-02-18T10:42:02Z</time>
      </trkpt>
      <trkpt lat="48.41132" lon="7.41628">
        <ele>370</ele>
        <time>2017-02-18T10:42:03Z</time>
      </trkpt>
      <trkpt lat="48.41138" lon="7.41622">
        <ele>370</ele>
        <time>2017-02-18T10:42:04Z</time>
      </trkpt>
      <trkpt lat="48.41147" lon="7.41608">
        <ele>371</ele>
        <time>2017-02-18T10:42:06Z</time>
      </trkpt>
      <trkpt lat="48.41151" lon="7.41599">
        <ele>371</ele>
        <time>2017-02-18T10:42:07Z</time>
      </trkpt>
      <trkpt lat="48.41153" lon="7.41582">
        <ele>371</ele>
        <time>2017-02-18T10:42:09Z</time>
      </trkpt>
      <trkpt lat="48.41153" lon="7.41566">
        <ele>370</ele>
        <time>2017-02-18T10:42:12Z</time>
      </trkpt>
      <trkpt lat="48.41154" lon="7.41561">
        <ele>370</ele>
        <time>2017-02-18T10:42:13Z</time>
      </trkpt>
      <trkpt lat="48.41155" lon="7.41558">
        <ele>370</ele>
        <time>2017-02-18T10:42:14Z</time>
      </trkpt>
      <trkpt lat="48.41156" lon="7.41551">
        <ele>370</ele>
        <time>2017-02-18T10:42:15Z</time>
      </trkpt>
      <trkpt lat="48.4116" lon="7.41534">
        <ele>370</ele>
        <time>2017-02-18T10:42:19Z</time>
      </trkpt>
      <trkpt lat="48.41161" lon="7.41529">
        <ele>371</ele>
        <time>2017-02-18T10:42:20Z</time>
      </trkpt>
      <trkpt lat="48.41161" lon="7.41524">
        <ele>371</ele>
        <time>2017-02-18T10:42:21Z</time>
      </trkpt>
      <trkpt lat="48.41166" lon="7.41485">
        <ele>374</ele>
        <time>2017-02-18T10:42:31Z</time>
      </trkpt>
      <trkpt lat="48.4117" lon="7.41463">
        <ele>387</ele>
        <time>2017-02-18T10:42:36Z</time>
      </trkpt>
      <trkpt lat="48.41171" lon="7.41435">
        <ele>385</ele>
        <time>2017-02-18T10:42:41Z</time>
      </trkpt>
      <trkpt lat="48.41166" lon="7.41404">
        <ele>375</ele>
        <time>2017-02-18T10:42:46Z</time>
      </trkpt>
      <trkpt lat="48.41164" lon="7.41397">
        <ele>374</ele>
        <time>2017-02-18T10:42:47Z</time>
      </trkpt>
      <trkpt lat="48.41161" lon="7.41392">
        <ele>373</ele>
        <time>2017-02-18T10:42:48Z</time>
      </trkpt>
      <trkpt lat="48.41158" lon="7.41382">
        <ele>372</ele>
        <time>2017-02-18T10:42:50Z</time>
      </trkpt>
      <trkpt lat="48.41155" lon="7.41352">
        <ele>372</ele>
        <time>2017-02-18T10:42:55Z</time>
      </trkpt>
      <trkpt lat="48.41153" lon="7.41341">
        <ele>373</ele>
        <time>2017-02-18T10:42:58Z</time>
      </trkpt>
      <trkpt lat="48.41149" lon="7.41326">
        <ele>371</ele>
        <time>2017-02-18T10:43:03Z</time>
      </trkpt>
      <trkpt lat="48.41149" lon="7.4132">
        <ele>371</ele>
        <time>2017-02-18T10:43:05Z</time>
      </trkpt>
      <trkpt lat="48.41151" lon="7.41308">
        <ele>370</ele>
        <time>2017-02-18T10:43:08Z</time>
      </trkpt>
      <trkpt lat="48.41153" lon="7.41305">
        <ele>370</ele>
        <time>2017-02-18T10:43:09Z</time>
      </trkpt>
      <trkpt lat="48.41154" lon="7.413">
        <ele>370</ele>
        <time>2017-02-18T10:43:11Z</time>
      </trkpt>
      <trkpt lat="48.41156" lon="7.4129">
        <ele>370</ele>
        <time>2017-02-18T10:43:14Z</time>
      </trkpt>
      <trkpt lat="48.41159" lon="7.41284">
        <ele>370</ele>
        <time>2017-02-18T10:43:16Z</time>
      </trkpt>
      <trkpt lat="48.41159" lon="7.4128">
        <ele>370</ele>
        <time>2017-02-18T10:43:17Z</time>
      </trkpt>
      <trkpt lat="48.41162" lon="7.41273">
        <ele>371</ele>
        <time>2017-02-18T10:43:20Z</time>
      </trkpt>
      <trkpt lat="48.41169" lon="7.41269">
        <ele>381</ele>
        <time>2017-02-18T10:43:26Z</time>
      </trkpt>
      <trkpt lat="48.41177" lon="7.41262">
        <ele>381</ele>
        <time>2017-02-18T10:43:32Z</time>
      </trkpt>
      <trkpt lat="48.41178" lon="7.41261">
        <ele>381</ele>
        <time>2017-02-18T10:43:33Z</time>
      </trkpt>
      <trkpt lat="48.41181" lon="7.41258">
        <ele>382</ele>
        <time>2017-02-18T10:43:34Z</time>
      </trkpt>
      <trkpt lat="48.41183" lon="7.41255">
        <ele>382</ele>
        <time>2017-02-18T10:43:36Z</time>
      </trkpt>
      <trkpt lat="48.41186" lon="7.41254">
        <ele>383</ele>
        <time>2017-02-18T10:43:40Z</time>
      </trkpt>
      <trkpt lat="48.41191" lon="7.4126">
        <ele>384</ele>
        <time>2017-02-18T10:43:45Z</time>
      </trkpt>
      <trkpt lat="48.41192" lon="7.41261">
        <ele>385</ele>
        <time>2017-02-18T10:43:46Z</time>
      </trkpt>
      <trkpt lat="48.41196" lon="7.41264">
        <ele>386</ele>
        <time>2017-02-18T10:43:48Z</time>
      </trkpt>
      <trkpt lat="48.41198" lon="7.41269">
        <ele>386</ele>
        <time>2017-02-18T10:43:49Z</time>
      </trkpt>
      <trkpt lat="48.41201" lon="7.41272">
        <ele>387</ele>
        <time>2017-02-18T10:43:51Z</time>
      </trkpt>
      <trkpt lat="48.41202" lon="7.41274">
        <ele>387</ele>
        <time>2017-02-18T10:43:52Z</time>
      </trkpt>
      <trkpt lat="48.41205" lon="7.41277">
        <ele>388</ele>
        <time>2017-02-18T10:43:54Z</time>
      </trkpt>
      <trkpt lat="48.41213" lon="7.41297">
        <ele>389</ele>
        <time>2017-02-18T10:44:05Z</time>
      </trkpt>
      <trkpt lat="48.41213" lon="7.41297">
        <ele>389</ele>
        <time>2017-02-18T10:44:06Z</time>
      </trkpt>
      <trkpt lat="48.41226" lon="7.41352">
        <ele>393</ele>
        <time>2017-02-18T10:44:34Z</time>
      </trkpt>
      <trkpt lat="48.41231" lon="7.41367">
        <ele>394</ele>
        <time>2017-02-18T10:44:43Z</time>
      </trkpt>
      <trkpt lat="48.41232" lon="7.4137">
        <ele>394</ele>
        <time>2017-02-18T10:44:44Z</time>
      </trkpt>
      <trkpt lat="48.41235" lon="7.41383">
        <ele>395</ele>
        <time>2017-02-18T10:44:51Z</time>
      </trkpt>
      <trkpt lat="48.41236" lon="7.41386">
        <ele>395</ele>
        <time>2017-02-18T10:44:52Z</time>
      </trkpt>
      <trkpt lat="48.41237" lon="7.41391">
        <ele>396</ele>
        <time>2017-02-18T10:44:54Z</time>
      </trkpt>
      <trkpt lat="48.41238" lon="7.41393">
        <ele>396</ele>
        <time>2017-02-18T10:44:55Z</time>
      </trkpt>
      <trkpt lat="48.4124" lon="7.414">
        <ele>398</ele>
        <time>2017-02-18T10:44:58Z</time>
      </trkpt>
      <trkpt lat="48.4124" lon="7.41405">
        <ele>399</ele>
        <time>2017-02-18T10:45:00Z</time>
      </trkpt>
      <trkpt lat="48.41239" lon="7.41407">
        <ele>399</ele>
        <time>2017-02-18T10:45:01Z</time>
      </trkpt>
      <trkpt lat="48.41239" lon="7.41416">
        <ele>400</ele>
        <time>2017-02-18T10:45:05Z</time>
      </trkpt>
      <trkpt lat="48.4124" lon="7.41435">
        <ele>398</ele>
        <time>2017-02-18T10:45:15Z</time>
      </trkpt>
      <trkpt lat="48.4124" lon="7.4144">
        <ele>398</ele>
        <time>2017-02-18T10:45:17Z</time>
      </trkpt>
      <trkpt lat="48.41244" lon="7.41448">
        <ele>397</ele>
        <time>2017-02-18T10:45:21Z</time>
      </trkpt>
      <trkpt lat="48.41245" lon="7.41451">
        <ele>397</ele>
        <time>2017-02-18T10:45:22Z</time>
      </trkpt>
      <trkpt lat="48.41246" lon="7.41452">
        <ele>397</ele>
        <time>2017-02-18T10:45:23Z</time>
      </trkpt>
      <trkpt lat="48.41247" lon="7.41459">
        <ele>397</ele>
        <time>2017-02-18T10:45:25Z</time>
      </trkpt>
      <trkpt lat="48.4125" lon="7.41474">
        <ele>413</ele>
        <time>2017-02-18T10:45:31Z</time>
      </trkpt>
      <trkpt lat="48.41259" lon="7.4149">
        <ele>410</ele>
        <time>2017-02-18T10:45:38Z</time>
      </trkpt>
      <trkpt lat="48.41263" lon="7.41498">
        <ele>411</ele>
        <time>2017-02-18T10:45:42Z</time>
      </trkpt>
      <trkpt lat="48.41268" lon="7.41507">
        <ele>409</ele>
        <time>2017-02-18T10:45:46Z</time>
      </trkpt>
      <trkpt lat="48.4127" lon="7.41518">
        <ele>410</ele>
        <time>2017-02-18T10:45:50Z</time>
      </trkpt>
      <trkpt lat="48.41274" lon="7.41526">
        <ele>410</ele>
        <time>2017-02-18T10:45:53Z</time>
      </trkpt>
      <trkpt lat="48.41275" lon="7.41529">
        <ele>410</ele>
        <time>2017-02-18T10:45:54Z</time>
      </trkpt>
      <trkpt lat="48.41278" lon="7.41534">
        <ele>410</ele>
        <time>2017-02-18T10:45:57Z</time>
      </trkpt>
      <trkpt lat="48.41281" lon="7.41537">
        <ele>411</ele>
        <time>2017-02-18T10:46:00Z</time>
      </trkpt>
      <trkpt lat="48.41288" lon="7.4154">
        <ele>411</ele>
        <time>2017-02-18T10:46:06Z</time>
      </trkpt>
      <trkpt lat="48.41292" lon="7.41545">
        <ele>412</ele>
        <time>2017-02-18T10:46:10Z</time>
      </trkpt>
      <trkpt lat="48.413" lon="7.41542">
        <ele>413</ele>
        <time>2017-02-18T10:46:15Z</time>
      </trkpt>
      <trkpt lat="48.41307" lon="7.41536">
        <ele>414</ele>
        <time>2017-02-18T10:46:21Z</time>
      </trkpt>
      <trkpt lat="48.41313" lon="7.41532">
        <ele>416</ele>
        <time>2017-02-18T10:46:25Z</time>
      </trkpt>
      <trkpt lat="48.41318" lon="7.41531">
        <ele>416</ele>
        <time>2017-02-18T10:46:28Z</time>
      </trkpt>
      <trkpt lat="48.41323" lon="7.41534">
        <ele>416</ele>
        <time>2017-02-18T10:46:31Z</time>
      </trkpt>
      <trkpt lat="48.41326" lon="7.41537">
        <ele>416</ele>
        <time>2017-02-18T10:46:34Z</time>
      </trkpt>
      <trkpt lat="48.41334" lon="7.4154">
        <ele>430</ele>
        <time>2017-02-18T10:46:38Z</time>
      </trkpt>
      <trkpt lat="48.41339" lon="7.4154">
        <ele>430</ele>
        <time>2017-02-18T10:46:42Z</time>
      </trkpt>
      <trkpt lat="48.41345" lon="7.41533">
        <ele>431</ele>
        <time>2017-02-18T10:46:48Z</time>
      </trkpt>
      <trkpt lat="48.41347" lon="7.4153">
        <ele>432</ele>
        <time>2017-02-18T10:46:50Z</time>
      </trkpt>
      <trkpt lat="48.41348" lon="7.41528">
        <ele>432</ele>
        <time>2017-02-18T10:46:52Z</time>
      </trkpt>
      <trkpt lat="48.41358" lon="7.41524">
        <ele>433</ele>
        <time>2017-02-18T10:46:59Z</time>
      </trkpt>
      <trkpt lat="48.41361" lon="7.41524">
        <ele>434</ele>
        <time>2017-02-18T10:47:01Z</time>
      </trkpt>
      <trkpt lat="48.41362" lon="7.41525">
        <ele>434</ele>
        <time>2017-02-18T10:47:03Z</time>
      </trkpt>
      <trkpt lat="48.41375" lon="7.4153">
        <ele>435</ele>
        <time>2017-02-18T10:47:10Z</time>
      </trkpt>
      <trkpt lat="48.41375" lon="7.41532">
        <ele>435</ele>
        <time>2017-02-18T10:47:11Z</time>
      </trkpt>
      <trkpt lat="48.41378" lon="7.41535">
        <ele>435</ele>
        <time>2017-02-18T10:47:13Z</time>
      </trkpt>
      <trkpt lat="48.41379" lon="7.41537">
        <ele>435</ele>
        <time>2017-02-18T10:47:14Z</time>
      </trkpt>
      <trkpt lat="48.41385" lon="7.41545">
        <ele>435</ele>
        <time>2017-02-18T10:47:19Z</time>
      </trkpt>
      <trkpt lat="48.41401" lon="7.4156">
        <ele>437</ele>
        <time>2017-02-18T10:47:32Z</time>
      </trkpt>
      <trkpt lat="48.41403" lon="7.4156">
        <ele>437</ele>
        <time>2017-02-18T10:47:33Z</time>
      </trkpt>
      <trkpt lat="48.41408" lon="7.41565">
        <ele>438</ele>
        <time>2017-02-18T10:47:38Z</time>
      </trkpt>
      <trkpt lat="48.41409" lon="7.41564">
        <ele>438</ele>
        <time>2017-02-18T10:47:39Z</time>
      </trkpt>
      <trkpt lat="48.41416" lon="7.41569">
        <ele>439</ele>
        <time>2017-02-18T10:47:47Z</time>
      </trkpt>
      <trkpt lat="48.4143" lon="7.41595">
        <ele>452</ele>
        <time>2017-02-18T10:48:15Z</time>
      </trkpt>
      <trkpt lat="48.41428" lon="7.41605">
        <ele>453</ele>
        <time>2017-02-18T10:48:18Z</time>
      </trkpt>
      <trkpt lat="48.41431" lon="7.41623">
        <ele>455</ele>
        <time>2017-02-18T10:48:26Z</time>
      </trkpt>
      <trkpt lat="48.41432" lon="7.41631">
        <ele>456</ele>
        <time>2017-02-18T10:48:30Z</time>
      </trkpt>
      <trkpt lat="48.41432" lon="7.41634">
        <ele>456</ele>
        <time>2017-02-18T10:48:31Z</time>
      </trkpt>
      <trkpt lat="48.41432" lon="7.41639">
        <ele>455</ele>
        <time>2017-02-18T10:48:33Z</time>
      </trkpt>
      <trkpt lat="48.41433" lon="7.41641">
        <ele>455</ele>
        <time>2017-02-18T10:48:34Z</time>
      </trkpt>
      <trkpt lat="48.41431" lon="7.41657">
        <ele>453</ele>
        <time>2017-02-18T10:48:41Z</time>
      </trkpt>
      <trkpt lat="48.41431" lon="7.41661">
        <ele>452</ele>
        <time>2017-02-18T10:48:44Z</time>
      </trkpt>
      <trkpt lat="48.41431" lon="7.41669">
        <ele>453</ele>
        <time>2017-02-18T10:48:48Z</time>
      </trkpt>
      <trkpt lat="48.41425" lon="7.41677">
        <ele>452</ele>
        <time>2017-02-18T10:48:56Z</time>
      </trkpt>
      <trkpt lat="48.41427" lon="7.41705">
        <ele>457</ele>
        <time>2017-02-18T10:50:25Z</time>
      </trkpt>
      <trkpt lat="48.41428" lon="7.41707">
        <ele>457</ele>
        <time>2017-02-18T10:50:26Z</time>
      </trkpt>
      <trkpt lat="48.41431" lon="7.41723">
        <ele>457</ele>
        <time>2017-02-18T10:50:34Z</time>
      </trkpt>
      <trkpt lat="48.41431" lon="7.41736">
        <ele>455</ele>
        <time>2017-02-18T10:50:39Z</time>
      </trkpt>
      <trkpt lat="48.41431" lon="7.41739">
        <ele>455</ele>
        <time>2017-02-18T10:50:40Z</time>
      </trkpt>
      <trkpt lat="48.41432" lon="7.41744">
        <ele>454</ele>
        <time>2017-02-18T10:50:42Z</time>
      </trkpt>
      <trkpt lat="48.41432" lon="7.41746">
        <ele>454</ele>
        <time>2017-02-18T10:50:43Z</time>
      </trkpt>
      <trkpt lat="48.41432" lon="7.41751">
        <ele>452</ele>
        <time>2017-02-18T10:50:45Z</time>
      </trkpt>
      <trkpt lat="48.41432" lon="7.41769">
        <ele>455</ele>
        <time>2017-02-18T10:50:52Z</time>
      </trkpt>
      <trkpt lat="48.41438" lon="7.41784">
        <ele>456</ele>
        <time>2017-02-18T10:50:59Z</time>
      </trkpt>
      <trkpt lat="48.4144" lon="7.41788">
        <ele>457</ele>
        <time>2017-02-18T10:51:01Z</time>
      </trkpt>
      <trkpt lat="48.41442" lon="7.4179">
        <ele>457</ele>
        <time>2017-02-18T10:51:02Z</time>
      </trkpt>
      <trkpt lat="48.41447" lon="7.41803">
        <ele>457</ele>
        <time>2017-02-18T10:51:09Z</time>
      </trkpt>
      <trkpt lat="48.41451" lon="7.41808">
        <ele>458</ele>
        <time>2017-02-18T10:51:12Z</time>
      </trkpt>
      <trkpt lat="48.41452" lon="7.41811">
        <ele>458</ele>
        <time>2017-02-18T10:51:13Z</time>
      </trkpt>
      <trkpt lat="48.41453" lon="7.41812">
        <ele>458</ele>
        <time>2017-02-18T10:51:14Z</time>
      </trkpt>
      <trkpt lat="48.41455" lon="7.41813">
        <ele>458</ele>
        <time>2017-02-18T10:51:15Z</time>
      </trkpt>
      <trkpt lat="48.41457" lon="7.41817">
        <ele>459</ele>
        <time>2017-02-18T10:51:17Z</time>
      </trkpt>
      <trkpt lat="48.41459" lon="7.41819">
        <ele>459</ele>
        <time>2017-02-18T10:51:19Z</time>
      </trkpt>
      <trkpt lat="48.4146" lon="7.4182">
        <ele>460</ele>
        <time>2017-02-18T10:51:20Z</time>
      </trkpt>
      <trkpt lat="48.41461" lon="7.41823">
        <ele>460</ele>
        <time>2017-02-18T10:51:21Z</time>
      </trkpt>
      <trkpt lat="48.41473" lon="7.41834">
        <ele>458</ele>
        <time>2017-02-18T10:51:29Z</time>
      </trkpt>
      <trkpt lat="48.41474" lon="7.41837">
        <ele>459</ele>
        <time>2017-02-18T10:51:31Z</time>
      </trkpt>
      <trkpt lat="48.41474" lon="7.41839">
        <ele>458</ele>
        <time>2017-02-18T10:51:32Z</time>
      </trkpt>
      <trkpt lat="48.41477" lon="7.41844">
        <ele>459</ele>
        <time>2017-02-18T10:51:36Z</time>
      </trkpt>
      <trkpt lat="48.41479" lon="7.41845">
        <ele>459</ele>
        <time>2017-02-18T10:51:38Z</time>
      </trkpt>
      <trkpt lat="48.41479" lon="7.41847">
        <ele>459</ele>
        <time>2017-02-18T10:51:39Z</time>
      </trkpt>
      <trkpt lat="48.41479" lon="7.41847">
        <ele>459</ele>
        <time>2017-02-18T10:51:40Z</time>
      </trkpt>
      <trkpt lat="48.41487" lon="7.41845">
        <ele>462</ele>
        <time>2017-02-18T10:51:46Z</time>
      </trkpt>
      <trkpt lat="48.4149" lon="7.41842">
        <ele>465</ele>
        <time>2017-02-18T10:51:50Z</time>
      </trkpt>
      <trkpt lat="48.41494" lon="7.41842">
        <ele>466</ele>
        <time>2017-02-18T10:51:53Z</time>
      </trkpt>
      <trkpt lat="48.41496" lon="7.41842">
        <ele>467</ele>
        <time>2017-02-18T10:51:54Z</time>
      </trkpt>
      <trkpt lat="48.415" lon="7.41841">
        <ele>474</ele>
        <time>2017-02-18T10:51:56Z</time>
      </trkpt>
      <trkpt lat="48.41507" lon="7.41842">
        <ele>474</ele>
        <time>2017-02-18T10:52:02Z</time>
      </trkpt>
      <trkpt lat="48.4151" lon="7.41842">
        <ele>475</ele>
        <time>2017-02-18T10:52:05Z</time>
      </trkpt>
      <trkpt lat="48.41512" lon="7.41843">
        <ele>475</ele>
        <time>2017-02-18T10:52:07Z</time>
      </trkpt>
      <trkpt lat="48.41513" lon="7.41842">
        <ele>475</ele>
        <time>2017-02-18T10:52:08Z</time>
      </trkpt>
      <trkpt lat="48.41515" lon="7.41842">
        <ele>475</ele>
        <time>2017-02-18T10:52:10Z</time>
      </trkpt>
      <trkpt lat="48.4152" lon="7.4184">
        <ele>475</ele>
        <time>2017-02-18T10:52:15Z</time>
      </trkpt>
      <trkpt lat="48.41522" lon="7.41841">
        <ele>476</ele>
        <time>2017-02-18T10:52:16Z</time>
      </trkpt>
      <trkpt lat="48.4153" lon="7.41836">
        <ele>477</ele>
        <time>2017-02-18T10:52:22Z</time>
      </trkpt>
      <trkpt lat="48.41533" lon="7.41836">
        <ele>477</ele>
        <time>2017-02-18T10:52:25Z</time>
      </trkpt>
      <trkpt lat="48.41534" lon="7.41835">
        <ele>477</ele>
        <time>2017-02-18T10:52:26Z</time>
      </trkpt>
      <trkpt lat="48.41535" lon="7.41833">
        <ele>485</ele>
        <time>2017-02-18T10:52:28Z</time>
      </trkpt>
      <trkpt lat="48.4154" lon="7.41827">
        <ele>487</ele>
        <time>2017-02-18T10:52:34Z</time>
      </trkpt>
      <trkpt lat="48.41551" lon="7.41818">
        <ele>489</ele>
        <time>2017-02-18T10:52:41Z</time>
      </trkpt>
      <trkpt lat="48.41562" lon="7.41818">
        <ele>490</ele>
        <time>2017-02-18T10:52:50Z</time>
      </trkpt>
      <trkpt lat="48.41565" lon="7.41817">
        <ele>490</ele>
        <time>2017-02-18T10:52:52Z</time>
      </trkpt>
      <trkpt lat="48.41565" lon="7.41817">
        <ele>490</ele>
        <time>2017-02-18T10:52:53Z</time>
      </trkpt>
      <trkpt lat="48.41566" lon="7.41817">
        <ele>490</ele>
        <time>2017-02-18T10:52:54Z</time>
      </trkpt>
      <trkpt lat="48.41572" lon="7.4182">
        <ele>491</ele>
        <time>2017-02-18T10:52:58Z</time>
      </trkpt>
      <trkpt lat="48.41577" lon="7.41824">
        <ele>491</ele>
        <time>2017-02-18T10:53:01Z</time>
      </trkpt>
      <trkpt lat="48.41588" lon="7.41838">
        <ele>493</ele>
        <time>2017-02-18T10:53:08Z</time>
      </trkpt>
      <trkpt lat="48.41591" lon="7.41842">
        <ele>493</ele>
        <time>2017-02-18T10:53:10Z</time>
      </trkpt>
      <trkpt lat="48.41597" lon="7.41852">
        <ele>493</ele>
        <time>2017-02-18T10:53:17Z</time>
      </trkpt>
      <trkpt lat="48.41599" lon="7.41855">
        <ele>493</ele>
        <time>2017-02-18T10:53:18Z</time>
      </trkpt>
      <trkpt lat="48.41601" lon="7.41859">
        <ele>493</ele>
        <time>2017-02-18T10:53:20Z</time>
      </trkpt>
      <trkpt lat="48.41609" lon="7.41871">
        <ele>493</ele>
        <time>2017-02-18T10:53:28Z</time>
      </trkpt>
      <trkpt lat="48.41612" lon="7.41876">
        <ele>493</ele>
        <time>2017-02-18T10:53:31Z</time>
      </trkpt>
      <trkpt lat="48.41619" lon="7.41886">
        <ele>493</ele>
        <time>2017-02-18T10:53:38Z</time>
      </trkpt>
      <trkpt lat="48.41622" lon="7.41889">
        <ele>493</ele>
        <time>2017-02-18T10:53:39Z</time>
      </trkpt>
      <trkpt lat="48.41624" lon="7.41891">
        <ele>493</ele>
        <time>2017-02-18T10:53:40Z</time>
      </trkpt>
      <trkpt lat="48.41628" lon="7.41894">
        <ele>493</ele>
        <time>2017-02-18T10:53:44Z</time>
      </trkpt>
      <trkpt lat="48.41637" lon="7.41897">
        <ele>494</ele>
        <time>2017-02-18T10:53:52Z</time>
      </trkpt>
      <trkpt lat="48.41642" lon="7.41902">
        <ele>494</ele>
        <time>2017-02-18T10:53:57Z</time>
      </trkpt>
      <trkpt lat="48.41649" lon="7.41906">
        <ele>494</ele>
        <time>2017-02-18T10:54:02Z</time>
      </trkpt>
      <trkpt lat="48.41651" lon="7.41909">
        <ele>495</ele>
        <time>2017-02-18T10:54:05Z</time>
      </trkpt>
      <trkpt lat="48.41652" lon="7.4191">
        <ele>495</ele>
        <time>2017-02-18T10:54:06Z</time>
      </trkpt>
      <trkpt lat="48.41652" lon="7.4191">
        <ele>495</ele>
        <time>2017-02-18T10:54:08Z</time>
      </trkpt>
      <trkpt lat="48.41676" lon="7.41928">
        <ele>493</ele>
        <time>2017-02-18T10:58:17Z</time>
      </trkpt>
      <trkpt lat="48.41678" lon="7.4193">
        <ele>493</ele>
        <time>2017-02-18T10:58:18Z</time>
      </trkpt>
      <trkpt lat="48.41683" lon="7.41933">
        <ele>493</ele>
        <time>2017-02-18T10:58:23Z</time>
      </trkpt>
      <trkpt lat="48.41687" lon="7.41933">
        <ele>493</ele>
        <time>2017-02-18T10:58:25Z</time>
      </trkpt>
      <trkpt lat="48.41689" lon="7.41932">
        <ele>493</ele>
        <time>2017-02-18T10:58:27Z</time>
      </trkpt>
      <trkpt lat="48.41692" lon="7.41929">
        <ele>493</ele>
        <time>2017-02-18T10:58:29Z</time>
      </trkpt>
      <trkpt lat="48.41694" lon="7.41929">
        <ele>493</ele>
        <time>2017-02-18T10:58:30Z</time>
      </trkpt>
      <trkpt lat="48.41702" lon="7.41917">
        <ele>494</ele>
        <time>2017-02-18T10:58:38Z</time>
      </trkpt>
      <trkpt lat="48.41712" lon="7.41903">
        <ele>507</ele>
        <time>2017-02-18T10:58:47Z</time>
      </trkpt>
      <trkpt lat="48.41717" lon="7.41896">
        <ele>508</ele>
        <time>2017-02-18T10:58:50Z</time>
      </trkpt>
      <trkpt lat="48.41718" lon="7.41894">
        <ele>508</ele>
        <time>2017-02-18T10:58:51Z</time>
      </trkpt>
      <trkpt lat="48.41721" lon="7.41887">
        <ele>509</ele>
        <time>2017-02-18T10:58:56Z</time>
      </trkpt>
      <trkpt lat="48.41721" lon="7.41885">
        <ele>509</ele>
        <time>2017-02-18T10:58:57Z</time>
      </trkpt>
      <trkpt lat="48.41723" lon="7.41882">
        <ele>510</ele>
        <time>2017-02-18T10:58:59Z</time>
      </trkpt>
      <trkpt lat="48.41732" lon="7.41868">
        <ele>512</ele>
        <time>2017-02-18T10:59:07Z</time>
      </trkpt>
      <trkpt lat="48.41735" lon="7.41862">
        <ele>513</ele>
        <time>2017-02-18T10:59:10Z</time>
      </trkpt>
      <trkpt lat="48.41742" lon="7.41853">
        <ele>516</ele>
        <time>2017-02-18T10:59:16Z</time>
      </trkpt>
      <trkpt lat="48.41743" lon="7.41851">
        <ele>517</ele>
        <time>2017-02-18T10:59:17Z</time>
      </trkpt>
      <trkpt lat="48.41745" lon="7.41851">
        <ele>517</ele>
        <time>2017-02-18T10:59:18Z</time>
      </trkpt>
      <trkpt lat="48.41748" lon="7.41848">
        <ele>518</ele>
        <time>2017-02-18T10:59:20Z</time>
      </trkpt>
      <trkpt lat="48.41752" lon="7.41846">
        <ele>524</ele>
        <time>2017-02-18T10:59:22Z</time>
      </trkpt>
      <trkpt lat="48.41754" lon="7.41842">
        <ele>524</ele>
        <time>2017-02-18T10:59:25Z</time>
      </trkpt>
      <trkpt lat="48.41756" lon="7.41842">
        <ele>524</ele>
        <time>2017-02-18T10:59:26Z</time>
      </trkpt>
      <trkpt lat="48.4176" lon="7.41838">
        <ele>524</ele>
        <time>2017-02-18T10:59:28Z</time>
      </trkpt>
      <trkpt lat="48.41768" lon="7.41835">
        <ele>524</ele>
        <time>2017-02-18T10:59:36Z</time>
      </trkpt>
      <trkpt lat="48.4177" lon="7.41836">
        <ele>524</ele>
        <time>2017-02-18T10:59:40Z</time>
      </trkpt>
      <trkpt lat="48.41857" lon="7.41858">
        <ele>543</ele>
        <time>2017-02-18T11:03:59Z</time>
      </trkpt>
      <trkpt lat="48.41859" lon="7.41861">
        <ele>543</ele>
        <time>2017-02-18T11:04:00Z</time>
      </trkpt>
      <trkpt lat="48.41862" lon="7.41882">
        <ele>542</ele>
        <time>2017-02-18T11:04:04Z</time>
      </trkpt>
      <trkpt lat="48.41865" lon="7.419">
        <ele>540</ele>
        <time>2017-02-18T11:04:06Z</time>
      </trkpt>
      <trkpt lat="48.41867" lon="7.4192">
        <ele>533</ele>
        <time>2017-02-18T11:04:08Z</time>
      </trkpt>
      <trkpt lat="48.41872" lon="7.41941">
        <ele>533</ele>
        <time>2017-02-18T11:04:10Z</time>
      </trkpt>
      <trkpt lat="48.4188" lon="7.41977">
        <ele>533</ele>
        <time>2017-02-18T11:04:14Z</time>
      </trkpt>
      <trkpt lat="48.41885" lon="7.41995">
        <ele>534</ele>
        <time>2017-02-18T11:04:16Z</time>
      </trkpt>
      <trkpt lat="48.41888" lon="7.42002">
        <ele>528</ele>
        <time>2017-02-18T11:04:17Z</time>
      </trkpt>
      <trkpt lat="48.41891" lon="7.42007">
        <ele>529</ele>
        <time>2017-02-18T11:04:18Z</time>
      </trkpt>
      <trkpt lat="48.41898" lon="7.42023">
        <ele>529</ele>
        <time>2017-02-18T11:04:20Z</time>
      </trkpt>
      <trkpt lat="48.41914" lon="7.42051">
        <ele>528</ele>
        <time>2017-02-18T11:04:23Z</time>
      </trkpt>
      <trkpt lat="48.41918" lon="7.42063">
        <ele>541</ele>
        <time>2017-02-18T11:04:24Z</time>
      </trkpt>
      <trkpt lat="48.41918" lon="7.42075">
        <ele>537</ele>
        <time>2017-02-18T11:04:25Z</time>
      </trkpt>
      <trkpt lat="48.41915" lon="7.42086">
        <ele>530</ele>
        <time>2017-02-18T11:04:26Z</time>
      </trkpt>
      <trkpt lat="48.41914" lon="7.42096">
        <ele>527</ele>
        <time>2017-02-18T11:04:27Z</time>
      </trkpt>
      <trkpt lat="48.41913" lon="7.42104">
        <ele>525</ele>
        <time>2017-02-18T11:04:28Z</time>
      </trkpt>
      <trkpt lat="48.41912" lon="7.42112">
        <ele>523</ele>
        <time>2017-02-18T11:04:29Z</time>
      </trkpt>
      <trkpt lat="48.41906" lon="7.42145">
        <ele>523</ele>
        <time>2017-02-18T11:04:34Z</time>
      </trkpt>
      <trkpt lat="48.41901" lon="7.4216">
        <ele>523</ele>
        <time>2017-02-18T11:04:37Z</time>
      </trkpt>
      <trkpt lat="48.41896" lon="7.42164">
        <ele>523</ele>
        <time>2017-02-18T11:04:38Z</time>
      </trkpt>
      <trkpt lat="48.41888" lon="7.42176">
        <ele>524</ele>
        <time>2017-02-18T11:04:40Z</time>
      </trkpt>
      <trkpt lat="48.4187" lon="7.42216">
        <ele>524</ele>
        <time>2017-02-18T11:04:47Z</time>
      </trkpt>
      <trkpt lat="48.41863" lon="7.42227">
        <ele>523</ele>
        <time>2017-02-18T11:04:49Z</time>
      </trkpt>
      <trkpt lat="48.41855" lon="7.42241">
        <ele>523</ele>
        <time>2017-02-18T11:04:52Z</time>
      </trkpt>
      <trkpt lat="48.41852" lon="7.42262">
        <ele>527</ele>
        <time>2017-02-18T11:04:56Z</time>
      </trkpt>
      <trkpt lat="48.4184" lon="7.4229">
        <ele>528</ele>
        <time>2017-02-18T11:05:01Z</time>
      </trkpt>
      <trkpt lat="48.41832" lon="7.42331">
        <ele>522</ele>
        <time>2017-02-18T11:05:07Z</time>
      </trkpt>
      <trkpt lat="48.41828" lon="7.42352">
        <ele>520</ele>
        <time>2017-02-18T11:05:09Z</time>
      </trkpt>
      <trkpt lat="48.41826" lon="7.42363">
        <ele>519</ele>
        <time>2017-02-18T11:05:10Z</time>
      </trkpt>
      <trkpt lat="48.41822" lon="7.42372">
        <ele>519</ele>
        <time>2017-02-18T11:05:11Z</time>
      </trkpt>
      <trkpt lat="48.41817" lon="7.4238">
        <ele>518</ele>
        <time>2017-02-18T11:05:12Z</time>
      </trkpt>
      <trkpt lat="48.41813" lon="7.42392">
        <ele>518</ele>
        <time>2017-02-18T11:05:13Z</time>
      </trkpt>
      <trkpt lat="48.41809" lon="7.42411">
        <ele>519</ele>
        <time>2017-02-18T11:05:15Z</time>
      </trkpt>
      <trkpt lat="48.41803" lon="7.42445">
        <ele>516</ele>
        <time>2017-02-18T11:05:18Z</time>
      </trkpt>
      <trkpt lat="48.41801" lon="7.42458">
        <ele>515</ele>
        <time>2017-02-18T11:05:19Z</time>
      </trkpt>
      <trkpt lat="48.41795" lon="7.4249">
        <ele>515</ele>
        <time>2017-02-18T11:05:22Z</time>
      </trkpt>
      <trkpt lat="48.41793" lon="7.42501">
        <ele>510</ele>
        <time>2017-02-18T11:05:23Z</time>
      </trkpt>
      <trkpt lat="48.41791" lon="7.42514">
        <ele>510</ele>
        <time>2017-02-18T11:05:24Z</time>
      </trkpt>
      <trkpt lat="48.41791" lon="7.42525">
        <ele>509</ele>
        <time>2017-02-18T11:05:25Z</time>
      </trkpt>
      <trkpt lat="48.41792" lon="7.42534">
        <ele>509</ele>
        <time>2017-02-18T11:05:26Z</time>
      </trkpt>
      <trkpt lat="48.41794" lon="7.42542">
        <ele>509</ele>
        <time>2017-02-18T11:05:27Z</time>
      </trkpt>
      <trkpt lat="48.41804" lon="7.42558">
        <ele>509</ele>
        <time>2017-02-18T11:05:29Z</time>
      </trkpt>
      <trkpt lat="48.41822" lon="7.42594">
        <ele>504</ele>
        <time>2017-02-18T11:05:39Z</time>
      </trkpt>
      <trkpt lat="48.41824" lon="7.42597">
        <ele>504</ele>
        <time>2017-02-18T11:05:41Z</time>
      </trkpt>
      <trkpt lat="48.41825" lon="7.426">
        <ele>503</ele>
        <time>2017-02-18T11:05:42Z</time>
      </trkpt>
      <trkpt lat="48.41824" lon="7.42607">
        <ele>502</ele>
        <time>2017-02-18T11:05:43Z</time>
      </trkpt>
      <trkpt lat="48.41824" lon="7.42614">
        <ele>500</ele>
        <time>2017-02-18T11:05:44Z</time>
      </trkpt>
      <trkpt lat="48.41833" lon="7.42634">
        <ele>497</ele>
        <time>2017-02-18T11:05:49Z</time>
      </trkpt>
      <trkpt lat="48.4184" lon="7.42645">
        <ele>505</ele>
        <time>2017-02-18T11:05:51Z</time>
      </trkpt>
      <trkpt lat="48.41841" lon="7.42648">
        <ele>504</ele>
        <time>2017-02-18T11:05:52Z</time>
      </trkpt>
      <trkpt lat="48.41853" lon="7.42668">
        <ele>497</ele>
        <time>2017-02-18T11:05:55Z</time>
      </trkpt>
      <trkpt lat="48.41857" lon="7.42673">
        <ele>498</ele>
        <time>2017-02-18T11:05:56Z</time>
      </trkpt>
      <trkpt lat="48.41858" lon="7.42682">
        <ele>498</ele>
        <time>2017-02-18T11:05:57Z</time>
      </trkpt>
      <trkpt lat="48.41861" lon="7.42687">
        <ele>498</ele>
        <time>2017-02-18T11:05:58Z</time>
      </trkpt>
      <trkpt lat="48.41863" lon="7.42695">
        <ele>498</ele>
        <time>2017-02-18T11:05:59Z</time>
      </trkpt>
      <trkpt lat="48.41868" lon="7.42705">
        <ele>497</ele>
        <time>2017-02-18T11:06:00Z</time>
      </trkpt>
      <trkpt lat="48.41879" lon="7.42732">
        <ele>497</ele>
        <time>2017-02-18T11:06:03Z</time>
      </trkpt>
      <trkpt lat="48.41886" lon="7.42743">
        <ele>497</ele>
        <time>2017-02-18T11:06:04Z</time>
      </trkpt>
      <trkpt lat="48.4189" lon="7.42752">
        <ele>490</ele>
        <time>2017-02-18T11:06:05Z</time>
      </trkpt>
      <trkpt lat="48.41895" lon="7.42767">
        <ele>489</ele>
        <time>2017-02-18T11:06:07Z</time>
      </trkpt>
      <trkpt lat="48.4189" lon="7.42772">
        <ele>487</ele>
        <time>2017-02-18T11:06:09Z</time>
      </trkpt>
      <trkpt lat="48.4189" lon="7.42773">
        <ele>487</ele>
        <time>2017-02-18T11:06:10Z</time>
      </trkpt>
      <trkpt lat="48.41888" lon="7.42773">
        <ele>487</ele>
        <time>2017-02-18T11:06:12Z</time>
      </trkpt>
      <trkpt lat="48.41889" lon="7.42777">
        <ele>487</ele>
        <time>2017-02-18T11:07:02Z</time>
      </trkpt>
      <trkpt lat="48.41894" lon="7.42787">
        <ele>486</ele>
        <time>2017-02-18T11:07:03Z</time>
      </trkpt>
      <trkpt lat="48.41899" lon="7.42794">
        <ele>485</ele>
        <time>2017-02-18T11:07:04Z</time>
      </trkpt>
      <trkpt lat="48.41903" lon="7.42802">
        <ele>485</ele>
        <time>2017-02-18T11:07:05Z</time>
      </trkpt>
      <trkpt lat="48.41908" lon="7.42814">
        <ele>484</ele>
        <time>2017-02-18T11:07:06Z</time>
      </trkpt>
      <trkpt lat="48.4191" lon="7.42825">
        <ele>484</ele>
        <time>2017-02-18T11:07:07Z</time>
      </trkpt>
      <trkpt lat="48.41916" lon="7.42843">
        <ele>478</ele>
        <time>2017-02-18T11:07:09Z</time>
      </trkpt>
      <trkpt lat="48.41919" lon="7.42873">
        <ele>479</ele>
        <time>2017-02-18T11:07:12Z</time>
      </trkpt>
      <trkpt lat="48.41922" lon="7.42881">
        <ele>478</ele>
        <time>2017-02-18T11:07:13Z</time>
      </trkpt>
      <trkpt lat="48.41919" lon="7.42898">
        <ele>474</ele>
        <time>2017-02-18T11:07:14Z</time>
      </trkpt>
      <trkpt lat="48.41918" lon="7.42912">
        <ele>469</ele>
        <time>2017-02-18T11:07:15Z</time>
      </trkpt>
      <trkpt lat="48.41917" lon="7.42939">
        <ele>466</ele>
        <time>2017-02-18T11:07:17Z</time>
      </trkpt>
      <trkpt lat="48.41916" lon="7.42952">
        <ele>456</ele>
        <time>2017-02-18T11:07:18Z</time>
      </trkpt>
      <trkpt lat="48.41915" lon="7.42966">
        <ele>455</ele>
        <time>2017-02-18T11:07:19Z</time>
      </trkpt>
      <trkpt lat="48.41914" lon="7.42978">
        <ele>455</ele>
        <time>2017-02-18T11:07:20Z</time>
      </trkpt>
      <trkpt lat="48.41913" lon="7.43">
        <ele>455</ele>
        <time>2017-02-18T11:07:22Z</time>
      </trkpt>
      <trkpt lat="48.41912" lon="7.43008">
        <ele>452</ele>
        <time>2017-02-18T11:07:23Z</time>
      </trkpt>
      <trkpt lat="48.41909" lon="7.43021">
        <ele>450</ele>
        <time>2017-02-18T11:07:24Z</time>
      </trkpt>
      <trkpt lat="48.41907" lon="7.43029">
        <ele>448</ele>
        <time>2017-02-18T11:07:25Z</time>
      </trkpt>
      <trkpt lat="48.41905" lon="7.43039">
        <ele>447</ele>
        <time>2017-02-18T11:07:26Z</time>
      </trkpt>
      <trkpt lat="48.41902" lon="7.43046">
        <ele>447</ele>
        <time>2017-02-18T11:07:27Z</time>
      </trkpt>
      <trkpt lat="48.41897" lon="7.43054">
        <ele>446</ele>
        <time>2017-02-18T11:07:28Z</time>
      </trkpt>
      <trkpt lat="48.41891" lon="7.43066">
        <ele>446</ele>
        <time>2017-02-18T11:07:30Z</time>
      </trkpt>
      <trkpt lat="48.41888" lon="7.43071">
        <ele>446</ele>
        <time>2017-02-18T11:07:31Z</time>
      </trkpt>
      <trkpt lat="48.41889" lon="7.43091">
        <ele>442</ele>
        <time>2017-02-18T11:07:33Z</time>
      </trkpt>
      <trkpt lat="48.4189" lon="7.43101">
        <ele>442</ele>
        <time>2017-02-18T11:07:34Z</time>
      </trkpt>
      <trkpt lat="48.41892" lon="7.43112">
        <ele>441</ele>
        <time>2017-02-18T11:07:35Z</time>
      </trkpt>
      <trkpt lat="48.41896" lon="7.43139">
        <ele>440</ele>
        <time>2017-02-18T11:07:37Z</time>
      </trkpt>
      <trkpt lat="48.419" lon="7.43157">
        <ele>440</ele>
        <time>2017-02-18T11:07:38Z</time>
      </trkpt>
      <trkpt lat="48.41901" lon="7.43174">
        <ele>438</ele>
        <time>2017-02-18T11:07:39Z</time>
      </trkpt>
      <trkpt lat="48.41905" lon="7.43187">
        <ele>436</ele>
        <time>2017-02-18T11:07:40Z</time>
      </trkpt>
      <trkpt lat="48.41906" lon="7.43201">
        <ele>435</ele>
        <time>2017-02-18T11:07:41Z</time>
      </trkpt>
      <trkpt lat="48.41907" lon="7.43216">
        <ele>434</ele>
        <time>2017-02-18T11:07:42Z</time>
      </trkpt>
      <trkpt lat="48.41909" lon="7.43227">
        <ele>433</ele>
        <time>2017-02-18T11:07:43Z</time>
      </trkpt>
      <trkpt lat="48.41909" lon="7.43244">
        <ele>432</ele>
        <time>2017-02-18T11:07:44Z</time>
      </trkpt>
      <trkpt lat="48.41914" lon="7.43268">
        <ele>432</ele>
        <time>2017-02-18T11:07:46Z</time>
      </trkpt>
      <trkpt lat="48.41913" lon="7.4328">
        <ele>432</ele>
        <time>2017-02-18T11:07:47Z</time>
      </trkpt>
      <trkpt lat="48.41911" lon="7.43301">
        <ele>432</ele>
        <time>2017-02-18T11:07:49Z</time>
      </trkpt>
      <trkpt lat="48.41903" lon="7.43346">
        <ele>433</ele>
        <time>2017-02-18T11:07:54Z</time>
      </trkpt>
      <trkpt lat="48.41902" lon="7.43363">
        <ele>434</ele>
        <time>2017-02-18T11:07:57Z</time>
      </trkpt>
      <trkpt lat="48.41901" lon="7.43367">
        <ele>434</ele>
        <time>2017-02-18T11:07:58Z</time>
      </trkpt>
      <trkpt lat="48.41901" lon="7.43371">
        <ele>434</ele>
        <time>2017-02-18T11:07:59Z</time>
      </trkpt>
      <trkpt lat="48.41899" lon="7.43379">
        <ele>434</ele>
        <time>2017-02-18T11:08:01Z</time>
      </trkpt>
      <trkpt lat="48.41899" lon="7.43389">
        <ele>434</ele>
        <time>2017-02-18T11:08:04Z</time>
      </trkpt>
      <trkpt lat="48.41894" lon="7.43402">
        <ele>435</ele>
        <time>2017-02-18T11:08:08Z</time>
      </trkpt>
      <trkpt lat="48.41892" lon="7.43406">
        <ele>435</ele>
        <time>2017-02-18T11:08:09Z</time>
      </trkpt>
      <trkpt lat="48.41891" lon="7.43416">
        <ele>435</ele>
        <time>2017-02-18T11:08:12Z</time>
      </trkpt>
      <trkpt lat="48.41888" lon="7.43432">
        <ele>434</ele>
        <time>2017-02-18T11:08:17Z</time>
      </trkpt>
      <trkpt lat="48.41888" lon="7.43446">
        <ele>434</ele>
        <time>2017-02-18T11:08:22Z</time>
      </trkpt>
      <trkpt lat="48.41887" lon="7.43452">
        <ele>434</ele>
        <time>2017-02-18T11:08:24Z</time>
      </trkpt>
      <trkpt lat="48.41889" lon="7.43473">
        <ele>434</ele>
        <time>2017-02-18T11:08:33Z</time>
      </trkpt>
      <trkpt lat="48.41889" lon="7.43491">
        <ele>434</ele>
        <time>2017-02-18T11:08:37Z</time>
      </trkpt>
      <trkpt lat="48.41884" lon="7.43523">
        <ele>428</ele>
        <time>2017-02-18T11:08:44Z</time>
      </trkpt>
      <trkpt lat="48.41895" lon="7.4354">
        <ele>427</ele>
        <time>2017-02-18T11:08:49Z</time>
      </trkpt>
      <trkpt lat="48.41897" lon="7.43543">
        <ele>427</ele>
        <time>2017-02-18T11:08:50Z</time>
      </trkpt>
      <trkpt lat="48.41896" lon="7.43547">
        <ele>426</ele>
        <time>2017-02-18T11:08:51Z</time>
      </trkpt>
      <trkpt lat="48.41901" lon="7.43552">
        <ele>426</ele>
        <time>2017-02-18T11:08:53Z</time>
      </trkpt>
      <trkpt lat="48.41905" lon="7.43558">
        <ele>426</ele>
        <time>2017-02-18T11:08:55Z</time>
      </trkpt>
      <trkpt lat="48.41918" lon="7.43573">
        <ele>424</ele>
        <time>2017-02-18T11:09:02Z</time>
      </trkpt>
      <trkpt lat="48.41936" lon="7.43589">
        <ele>418</ele>
        <time>2017-02-18T11:09:08Z</time>
      </trkpt>
      <trkpt lat="48.41958" lon="7.43594">
        <ele>415</ele>
        <time>2017-02-18T11:09:13Z</time>
      </trkpt>
      <trkpt lat="48.41973" lon="7.43584">
        <ele>415</ele>
        <time>2017-02-18T11:09:16Z</time>
      </trkpt>
      <trkpt lat="48.41982" lon="7.43575">
        <ele>422</ele>
        <time>2017-02-18T11:09:18Z</time>
      </trkpt>
      <trkpt lat="48.41986" lon="7.43571">
        <ele>421</ele>
        <time>2017-02-18T11:09:19Z</time>
      </trkpt>
      <trkpt lat="48.41989" lon="7.43565">
        <ele>422</ele>
        <time>2017-02-18T11:09:20Z</time>
      </trkpt>
      <trkpt lat="48.41998" lon="7.43544">
        <ele>423</ele>
        <time>2017-02-18T11:09:22Z</time>
      </trkpt>
      <trkpt lat="48.42004" lon="7.43529">
        <ele>415</ele>
        <time>2017-02-18T11:09:24Z</time>
      </trkpt>
      <trkpt lat="48.42006" lon="7.43526">
        <ele>415</ele>
        <time>2017-02-18T11:09:25Z</time>
      </trkpt>
      <trkpt lat="48.42008" lon="7.43525">
        <ele>415</ele>
        <time>2017-02-18T11:09:26Z</time>
      </trkpt>
      <trkpt lat="48.42009" lon="7.43523">
        <ele>415</ele>
        <time>2017-02-18T11:09:27Z</time>
      </trkpt>
      <trkpt lat="48.42015" lon="7.43531">
        <ele>413</ele>
        <time>2017-02-18T11:09:28Z</time>
      </trkpt>
      <trkpt lat="48.42025" lon="7.43541">
        <ele>412</ele>
        <time>2017-02-18T11:09:30Z</time>
      </trkpt>
      <trkpt lat="48.42034" lon="7.43546">
        <ele>410</ele>
        <time>2017-02-18T11:09:31Z</time>
      </trkpt>
      <trkpt lat="48.42039" lon="7.43549">
        <ele>410</ele>
        <time>2017-02-18T11:09:32Z</time>
      </trkpt>
      <trkpt lat="48.4204" lon="7.43551">
        <ele>410</ele>
        <time>2017-02-18T11:09:33Z</time>
      </trkpt>
      <trkpt lat="48.42042" lon="7.43553">
        <ele>409</ele>
        <time>2017-02-18T11:09:34Z</time>
      </trkpt>
      <trkpt lat="48.42042" lon="7.43549">
        <ele>409</ele>
        <time>2017-02-18T11:09:35Z</time>
      </trkpt>
      <trkpt lat="48.42063" lon="7.43534">
        <ele>407</ele>
        <time>2017-02-18T11:09:39Z</time>
      </trkpt>
      <trkpt lat="48.42063" lon="7.43542">
        <ele>407</ele>
        <time>2017-02-18T11:09:40Z</time>
      </trkpt>
      <trkpt lat="48.42064" lon="7.43545">
        <ele>407</ele>
        <time>2017-02-18T11:09:41Z</time>
      </trkpt>
      <trkpt lat="48.42069" lon="7.43547">
        <ele>406</ele>
        <time>2017-02-18T11:09:42Z</time>
      </trkpt>
      <trkpt lat="48.42068" lon="7.43563">
        <ele>405</ele>
        <time>2017-02-18T11:09:43Z</time>
      </trkpt>
      <trkpt lat="48.42064" lon="7.43573">
        <ele>405</ele>
        <time>2017-02-18T11:09:44Z</time>
      </trkpt>
      <trkpt lat="48.42063" lon="7.43581">
        <ele>405</ele>
        <time>2017-02-18T11:09:45Z</time>
      </trkpt>
      <trkpt lat="48.42064" lon="7.43586">
        <ele>401</ele>
        <time>2017-02-18T11:09:46Z</time>
      </trkpt>
      <trkpt lat="48.42065" lon="7.4359">
        <ele>401</ele>
        <time>2017-02-18T11:09:47Z</time>
      </trkpt>
      <trkpt lat="48.42074" lon="7.43601">
        <ele>400</ele>
        <time>2017-02-18T11:09:49Z</time>
      </trkpt>
      <trkpt lat="48.4208" lon="7.43609">
        <ele>400</ele>
        <time>2017-02-18T11:09:50Z</time>
      </trkpt>
      <trkpt lat="48.42088" lon="7.43617">
        <ele>389</ele>
        <time>2017-02-18T11:09:51Z</time>
      </trkpt>
      <trkpt lat="48.421" lon="7.43626">
        <ele>387</ele>
        <time>2017-02-18T11:09:53Z</time>
      </trkpt>
      <trkpt lat="48.42108" lon="7.43614">
        <ele>387</ele>
        <time>2017-02-18T11:09:54Z</time>
      </trkpt>
      <trkpt lat="48.42113" lon="7.43606">
        <ele>387</ele>
        <time>2017-02-18T11:09:55Z</time>
      </trkpt>
      <trkpt lat="48.42118" lon="7.43597">
        <ele>387</ele>
        <time>2017-02-18T11:09:56Z</time>
      </trkpt>
      <trkpt lat="48.42133" lon="7.43578">
        <ele>386</ele>
        <time>2017-02-18T11:09:58Z</time>
      </trkpt>
      <trkpt lat="48.4215" lon="7.4355">
        <ele>385</ele>
        <time>2017-02-18T11:10:01Z</time>
      </trkpt>
      <trkpt lat="48.42157" lon="7.4354">
        <ele>385</ele>
        <time>2017-02-18T11:10:02Z</time>
      </trkpt>
      <trkpt lat="48.42169" lon="7.4352">
        <ele>374</ele>
        <time>2017-02-18T11:10:04Z</time>
      </trkpt>
      <trkpt lat="48.42186" lon="7.43489">
        <ele>376</ele>
        <time>2017-02-18T11:10:07Z</time>
      </trkpt>
      <trkpt lat="48.4219" lon="7.43478">
        <ele>375</ele>
        <time>2017-02-18T11:10:08Z</time>
      </trkpt>
      <trkpt lat="48.42194" lon="7.43467">
        <ele>375</ele>
        <time>2017-02-18T11:10:09Z</time>
      </trkpt>
      <trkpt lat="48.42205" lon="7.43445">
        <ele>375</ele>
        <time>2017-02-18T11:10:11Z</time>
      </trkpt>
      <trkpt lat="48.42215" lon="7.43422">
        <ele>374</ele>
        <time>2017-02-18T11:10:13Z</time>
      </trkpt>
      <trkpt lat="48.42219" lon="7.4341">
        <ele>379</ele>
        <time>2017-02-18T11:10:14Z</time>
      </trkpt>
      <trkpt lat="48.42225" lon="7.43387">
        <ele>380</ele>
        <time>2017-02-18T11:10:16Z</time>
      </trkpt>
      <trkpt lat="48.42237" lon="7.43354">
        <ele>380</ele>
        <time>2017-02-18T11:10:19Z</time>
      </trkpt>
      <trkpt lat="48.42244" lon="7.43347">
        <ele>379</ele>
        <time>2017-02-18T11:10:20Z</time>
      </trkpt>
      <trkpt lat="48.42269" lon="7.43327">
        <ele>381</ele>
        <time>2017-02-18T11:10:24Z</time>
      </trkpt>
      <trkpt lat="48.42289" lon="7.43317">
        <ele>383</ele>
        <time>2017-02-18T11:10:27Z</time>
      </trkpt>
      <trkpt lat="48.42328" lon="7.43297">
        <ele>383</ele>
        <time>2017-02-18T11:10:37Z</time>
      </trkpt>
      <trkpt lat="48.42351" lon="7.43282">
        <ele>378</ele>
        <time>2017-02-18T11:10:44Z</time>
      </trkpt>
      <trkpt lat="48.42372" lon="7.43274">
        <ele>377</ele>
        <time>2017-02-18T11:10:50Z</time>
      </trkpt>
      <trkpt lat="48.42403" lon="7.43268">
        <ele>375</ele>
        <time>2017-02-18T11:10:57Z</time>
      </trkpt>
      <trkpt lat="48.42433" lon="7.43265">
        <ele>372</ele>
        <time>2017-02-18T11:11:05Z</time>
      </trkpt>
      <trkpt lat="48.42453" lon="7.4327">
        <ele>372</ele>
        <time>2017-02-18T11:11:11Z</time>
      </trkpt>
      <trkpt lat="48.42506" lon="7.43305">
        <ele>371</ele>
        <time>2017-02-18T11:11:26Z</time>
      </trkpt>
      <trkpt lat="48.42542" lon="7.43325">
        <ele>370</ele>
        <time>2017-02-18T11:11:36Z</time>
      </trkpt>
      <trkpt lat="48.42566" lon="7.43342">
        <ele>364</ele>
        <time>2017-02-18T11:11:43Z</time>
      </trkpt>
      <trkpt lat="48.42602" lon="7.43361">
        <ele>364</ele>
        <time>2017-02-18T11:11:52Z</time>
      </trkpt>
      <trkpt lat="48.42631" lon="7.43366">
        <ele>364</ele>
        <time>2017-02-18T11:11:59Z</time>
      </trkpt>
      <trkpt lat="48.42658" lon="7.43365">
        <ele>365</ele>
        <time>2017-02-18T11:12:05Z</time>
      </trkpt>
      <trkpt lat="48.42666" lon="7.43363">
        <ele>365</ele>
        <time>2017-02-18T11:12:07Z</time>
      </trkpt>
      <trkpt lat="48.42667" lon="7.43355">
        <ele>366</ele>
        <time>2017-02-18T11:12:08Z</time>
      </trkpt>
      <trkpt lat="48.42672" lon="7.43348">
        <ele>367</ele>
        <time>2017-02-18T11:12:10Z</time>
      </trkpt>
      <trkpt lat="48.42671" lon="7.43334">
        <ele>368</ele>
        <time>2017-02-18T11:12:12Z</time>
      </trkpt>
      <trkpt lat="48.42671" lon="7.43329">
        <ele>369</ele>
        <time>2017-02-18T11:12:13Z</time>
      </trkpt>
      <trkpt lat="48.42673" lon="7.43327">
        <ele>369</ele>
        <time>2017-02-18T11:12:14Z</time>
      </trkpt>
      <trkpt lat="48.42672" lon="7.43321">
        <ele>369</ele>
        <time>2017-02-18T11:12:15Z</time>
      </trkpt>
      <trkpt lat="48.42673" lon="7.43307">
        <ele>371</ele>
        <time>2017-02-18T11:12:19Z</time>
      </trkpt>
      <trkpt lat="48.42675" lon="7.43298">
        <ele>371</ele>
        <time>2017-02-18T11:12:21Z</time>
      </trkpt>
      <trkpt lat="48.42678" lon="7.43295">
        <ele>372</ele>
        <time>2017-02-18T11:12:22Z</time>
      </trkpt>
      <trkpt lat="48.42694" lon="7.43273">
        <ele>373</ele>
        <time>2017-02-18T11:12:29Z</time>
      </trkpt>
      <trkpt lat="48.42708" lon="7.4325">
        <ele>379</ele>
        <time>2017-02-18T11:12:36Z</time>
      </trkpt>
      <trkpt lat="48.42717" lon="7.43227">
        <ele>380</ele>
        <time>2017-02-18T11:12:42Z</time>
      </trkpt>
      <trkpt lat="48.42733" lon="7.43204">
        <ele>382</ele>
        <time>2017-02-18T11:12:49Z</time>
      </trkpt>
      <trkpt lat="48.42748" lon="7.43181">
        <ele>384</ele>
        <time>2017-02-18T11:12:56Z</time>
      </trkpt>
      <trkpt lat="48.42765" lon="7.43173">
        <ele>378</ele>
        <time>2017-02-18T11:13:02Z</time>
      </trkpt>
      <trkpt lat="48.42785" lon="7.43166">
        <ele>389</ele>
        <time>2017-02-18T11:13:09Z</time>
      </trkpt>
      <trkpt lat="48.42803" lon="7.43164">
        <ele>386</ele>
        <time>2017-02-18T11:13:13Z</time>
      </trkpt>
      <trkpt lat="48.42815" lon="7.4316">
        <ele>383</ele>
        <time>2017-02-18T11:13:15Z</time>
      </trkpt>
      <trkpt lat="48.4283" lon="7.43158">
        <ele>378</ele>
        <time>2017-02-18T11:13:17Z</time>
      </trkpt>
      <trkpt lat="48.42845" lon="7.43153">
        <ele>377</ele>
        <time>2017-02-18T11:13:19Z</time>
      </trkpt>
      <trkpt lat="48.42861" lon="7.43149">
        <ele>380</ele>
        <time>2017-02-18T11:13:21Z</time>
      </trkpt>
      <trkpt lat="48.42879" lon="7.43146">
        <ele>380</ele>
        <time>2017-02-18T11:13:23Z</time>
      </trkpt>
      <trkpt lat="48.42887" lon="7.43145">
        <ele>379</ele>
        <time>2017-02-18T11:13:24Z</time>
      </trkpt>
      <trkpt lat="48.42895" lon="7.43145">
        <ele>379</ele>
        <time>2017-02-18T11:13:25Z</time>
      </trkpt>
      <trkpt lat="48.42904" lon="7.43147">
        <ele>377</ele>
        <time>2017-02-18T11:13:26Z</time>
      </trkpt>
      <trkpt lat="48.42915" lon="7.43147">
        <ele>376</ele>
        <time>2017-02-18T11:13:27Z</time>
      </trkpt>
      <trkpt lat="48.42935" lon="7.43149">
        <ele>375</ele>
        <time>2017-02-18T11:13:29Z</time>
      </trkpt>
      <trkpt lat="48.42955" lon="7.43151">
        <ele>376</ele>
        <time>2017-02-18T11:13:31Z</time>
      </trkpt>
      <trkpt lat="48.42965" lon="7.43151">
        <ele>375</ele>
        <time>2017-02-18T11:13:32Z</time>
      </trkpt>
      <trkpt lat="48.42995" lon="7.43151">
        <ele>372</ele>
        <time>2017-02-18T11:13:35Z</time>
      </trkpt>
      <trkpt lat="48.43005" lon="7.43151">
        <ele>369</ele>
        <time>2017-02-18T11:13:36Z</time>
      </trkpt>
      <trkpt lat="48.43024" lon="7.43153">
        <ele>370</ele>
        <time>2017-02-18T11:13:38Z</time>
      </trkpt>
      <trkpt lat="48.4306" lon="7.43159">
        <ele>367</ele>
        <time>2017-02-18T11:13:42Z</time>
      </trkpt>
      <trkpt lat="48.43088" lon="7.43167">
        <ele>355</ele>
        <time>2017-02-18T11:13:45Z</time>
      </trkpt>
      <trkpt lat="48.43106" lon="7.43175">
        <ele>351</ele>
        <time>2017-02-18T11:13:47Z</time>
      </trkpt>
      <trkpt lat="48.43114" lon="7.4318">
        <ele>350</ele>
        <time>2017-02-18T11:13:48Z</time>
      </trkpt>
      <trkpt lat="48.43129" lon="7.43194">
        <ele>349</ele>
        <time>2017-02-18T11:13:50Z</time>
      </trkpt>
      <trkpt lat="48.43139" lon="7.43208">
        <ele>348</ele>
        <time>2017-02-18T11:13:52Z</time>
      </trkpt>
      <trkpt lat="48.43147" lon="7.43223">
        <ele>347</ele>
        <time>2017-02-18T11:13:54Z</time>
      </trkpt>
      <trkpt lat="48.43151" lon="7.43226">
        <ele>347</ele>
        <time>2017-02-18T11:13:55Z</time>
      </trkpt>
      <trkpt lat="48.43156" lon="7.43226">
        <ele>347</ele>
        <time>2017-02-18T11:13:56Z</time>
      </trkpt>
      <trkpt lat="48.43161" lon="7.43223">
        <ele>347</ele>
        <time>2017-02-18T11:13:57Z</time>
      </trkpt>
      <trkpt lat="48.43169" lon="7.43217">
        <ele>348</ele>
        <time>2017-02-18T11:13:59Z</time>
      </trkpt>
      <trkpt lat="48.43184" lon="7.43209">
        <ele>349</ele>
        <time>2017-02-18T11:14:04Z</time>
      </trkpt>
      <trkpt lat="48.43212" lon="7.43198">
        <ele>349</ele>
        <time>2017-02-18T11:14:12Z</time>
      </trkpt>
      <trkpt lat="48.43216" lon="7.43196">
        <ele>350</ele>
        <time>2017-02-18T11:14:13Z</time>
      </trkpt>
      <trkpt lat="48.43233" lon="7.43193">
        <ele>350</ele>
        <time>2017-02-18T11:14:17Z</time>
      </trkpt>
      <trkpt lat="48.43262" lon="7.43185">
        <ele>350</ele>
        <time>2017-02-18T11:14:23Z</time>
      </trkpt>
      <trkpt lat="48.4332" lon="7.43171">
        <ele>351</ele>
        <time>2017-02-18T11:14:37Z</time>
      </trkpt>
      <trkpt lat="48.43344" lon="7.43161">
        <ele>353</ele>
        <time>2017-02-18T11:14:44Z</time>
      </trkpt>
      <trkpt lat="48.4337" lon="7.43147">
        <ele>353</ele>
        <time>2017-02-18T11:14:50Z</time>
      </trkpt>
      <trkpt lat="48.43399" lon="7.43132">
        <ele>353</ele>
        <time>2017-02-18T11:14:57Z</time>
      </trkpt>
      <trkpt lat="48.43408" lon="7.43126">
        <ele>353</ele>
        <time>2017-02-18T11:14:59Z</time>
      </trkpt>
      <trkpt lat="48.43417" lon="7.43115">
        <ele>350</ele>
        <time>2017-02-18T11:15:01Z</time>
      </trkpt>
      <trkpt lat="48.43422" lon="7.43111">
        <ele>350</ele>
        <time>2017-02-18T11:15:02Z</time>
      </trkpt>
      <trkpt lat="48.43448" lon="7.43081">
        <ele>359</ele>
        <time>2017-02-18T11:15:08Z</time>
      </trkpt>
      <trkpt lat="48.43456" lon="7.43071">
        <ele>359</ele>
        <time>2017-02-18T11:15:10Z</time>
      </trkpt>
      <trkpt lat="48.4347" lon="7.43055">
        <ele>359</ele>
        <time>2017-02-18T11:15:14Z</time>
      </trkpt>
      <trkpt lat="48.43496" lon="7.43036">
        <ele>361</ele>
        <time>2017-02-18T11:15:20Z</time>
      </trkpt>
      <trkpt lat="48.43505" lon="7.4303">
        <ele>354</ele>
        <time>2017-02-18T11:15:22Z</time>
      </trkpt>
      <trkpt lat="48.43539" lon="7.42999">
        <ele>363</ele>
        <time>2017-02-18T11:15:30Z</time>
      </trkpt>
      <trkpt lat="48.43544" lon="7.42992">
        <ele>363</ele>
        <time>2017-02-18T11:15:31Z</time>
      </trkpt>
      <trkpt lat="48.43554" lon="7.42982">
        <ele>362</ele>
        <time>2017-02-18T11:15:33Z</time>
      </trkpt>
      <trkpt lat="48.43567" lon="7.42965">
        <ele>363</ele>
        <time>2017-02-18T11:15:36Z</time>
      </trkpt>
      <trkpt lat="48.43576" lon="7.42954">
        <ele>364</ele>
        <time>2017-02-18T11:15:38Z</time>
      </trkpt>
      <trkpt lat="48.43579" lon="7.42949">
        <ele>364</ele>
        <time>2017-02-18T11:15:39Z</time>
      </trkpt>
      <trkpt lat="48.43587" lon="7.4294">
        <ele>357</ele>
        <time>2017-02-18T11:15:42Z</time>
      </trkpt>
      <trkpt lat="48.43594" lon="7.4293">
        <ele>358</ele>
        <time>2017-02-18T11:15:45Z</time>
      </trkpt>
      <trkpt lat="48.43604" lon="7.42918">
        <ele>358</ele>
        <time>2017-02-18T11:15:48Z</time>
      </trkpt>
      <trkpt lat="48.43613" lon="7.42911">
        <ele>369</ele>
        <time>2017-02-18T11:15:51Z</time>
      </trkpt>
      <trkpt lat="48.43621" lon="7.42906">
        <ele>369</ele>
        <time>2017-02-18T11:15:54Z</time>
      </trkpt>
      <trkpt lat="48.43637" lon="7.42899">
        <ele>368</ele>
        <time>2017-02-18T11:16:00Z</time>
      </trkpt>
      <trkpt lat="48.43651" lon="7.42892">
        <ele>368</ele>
        <time>2017-02-18T11:16:06Z</time>
      </trkpt>
      <trkpt lat="48.43683" lon="7.42886">
        <ele>359</ele>
        <time>2017-02-18T11:16:17Z</time>
      </trkpt>
      <trkpt lat="48.4371" lon="7.42877">
        <ele>358</ele>
        <time>2017-02-18T11:16:23Z</time>
      </trkpt>
      <trkpt lat="48.43752" lon="7.42866">
        <ele>347</ele>
        <time>2017-02-18T11:16:31Z</time>
      </trkpt>
      <trkpt lat="48.43756" lon="7.42865">
        <ele>347</ele>
        <time>2017-02-18T11:16:32Z</time>
      </trkpt>
      <trkpt lat="48.4377" lon="7.42865">
        <ele>346</ele>
        <time>2017-02-18T11:16:34Z</time>
      </trkpt>
      <trkpt lat="48.43778" lon="7.42864">
        <ele>346</ele>
        <time>2017-02-18T11:16:35Z</time>
      </trkpt>
      <trkpt lat="48.43784" lon="7.42862">
        <ele>345</ele>
        <time>2017-02-18T11:16:36Z</time>
      </trkpt>
      <trkpt lat="48.43791" lon="7.42858">
        <ele>345</ele>
        <time>2017-02-18T11:16:37Z</time>
      </trkpt>
      <trkpt lat="48.43806" lon="7.42847">
        <ele>344</ele>
        <time>2017-02-18T11:16:39Z</time>
      </trkpt>
      <trkpt lat="48.43814" lon="7.42841">
        <ele>343</ele>
        <time>2017-02-18T11:16:40Z</time>
      </trkpt>
      <trkpt lat="48.43821" lon="7.42834">
        <ele>342</ele>
        <time>2017-02-18T11:16:41Z</time>
      </trkpt>
      <trkpt lat="48.43829" lon="7.42827">
        <ele>345</ele>
        <time>2017-02-18T11:16:42Z</time>
      </trkpt>
      <trkpt lat="48.43843" lon="7.42813">
        <ele>342</ele>
        <time>2017-02-18T11:16:44Z</time>
      </trkpt>
      <trkpt lat="48.43853" lon="7.42807">
        <ele>342</ele>
        <time>2017-02-18T11:16:45Z</time>
      </trkpt>
      <trkpt lat="48.43867" lon="7.42796">
        <ele>342</ele>
        <time>2017-02-18T11:16:47Z</time>
      </trkpt>
      <trkpt lat="48.43895" lon="7.42771">
        <ele>342</ele>
        <time>2017-02-18T11:16:52Z</time>
      </trkpt>
      <trkpt lat="48.43918" lon="7.42754">
        <ele>341</ele>
        <time>2017-02-18T11:16:57Z</time>
      </trkpt>
      <trkpt lat="48.43936" lon="7.42742">
        <ele>344</ele>
        <time>2017-02-18T11:17:00Z</time>
      </trkpt>
      <trkpt lat="48.43948" lon="7.42736">
        <ele>344</ele>
        <time>2017-02-18T11:17:02Z</time>
      </trkpt>
      <trkpt lat="48.43954" lon="7.42733">
        <ele>344</ele>
        <time>2017-02-18T11:17:03Z</time>
      </trkpt>
      <trkpt lat="48.43962" lon="7.42731">
        <ele>344</ele>
        <time>2017-02-18T11:17:04Z</time>
      </trkpt>
      <trkpt lat="48.43976" lon="7.42725">
        <ele>344</ele>
        <time>2017-02-18T11:17:06Z</time>
      </trkpt>
      <trkpt lat="48.43988" lon="7.42721">
        <ele>344</ele>
        <time>2017-02-18T11:17:08Z</time>
      </trkpt>
      <trkpt lat="48.4401" lon="7.42712">
        <ele>342</ele>
        <time>2017-02-18T11:17:12Z</time>
      </trkpt>
      <trkpt lat="48.44033" lon="7.42708">
        <ele>342</ele>
        <time>2017-02-18T11:17:17Z</time>
      </trkpt>
      <trkpt lat="48.44047" lon="7.42704">
        <ele>342</ele>
        <time>2017-02-18T11:17:20Z</time>
      </trkpt>
      <trkpt lat="48.44093" lon="7.42697">
        <ele>339</ele>
        <time>2017-02-18T11:17:30Z</time>
      </trkpt>
      <trkpt lat="48.44125" lon="7.42689">
        <ele>338</ele>
        <time>2017-02-18T11:17:36Z</time>
      </trkpt>
      <trkpt lat="48.44152" lon="7.42681">
        <ele>337</ele>
        <time>2017-02-18T11:17:40Z</time>
      </trkpt>
      <trkpt lat="48.44168" lon="7.42675">
        <ele>333</ele>
        <time>2017-02-18T11:17:42Z</time>
      </trkpt>
      <trkpt lat="48.44185" lon="7.42669">
        <ele>330</ele>
        <time>2017-02-18T11:17:44Z</time>
      </trkpt>
      <trkpt lat="48.44212" lon="7.42655">
        <ele>329</ele>
        <time>2017-02-18T11:17:47Z</time>
      </trkpt>
      <trkpt lat="48.44222" lon="7.42649">
        <ele>327</ele>
        <time>2017-02-18T11:17:48Z</time>
      </trkpt>
      <trkpt lat="48.44231" lon="7.42643">
        <ele>327</ele>
        <time>2017-02-18T11:17:49Z</time>
      </trkpt>
      <trkpt lat="48.44238" lon="7.42634">
        <ele>327</ele>
        <time>2017-02-18T11:17:50Z</time>
      </trkpt>
      <trkpt lat="48.44244" lon="7.42626">
        <ele>327</ele>
        <time>2017-02-18T11:17:51Z</time>
      </trkpt>
      <trkpt lat="48.44255" lon="7.42608">
        <ele>319</ele>
        <time>2017-02-18T11:17:53Z</time>
      </trkpt>
      <trkpt lat="48.44274" lon="7.42587">
        <ele>319</ele>
        <time>2017-02-18T11:17:57Z</time>
      </trkpt>
      <trkpt lat="48.44296" lon="7.42586">
        <ele>317</ele>
        <time>2017-02-18T11:18:02Z</time>
      </trkpt>
      <trkpt lat="48.44306" lon="7.42585">
        <ele>316</ele>
        <time>2017-02-18T11:18:05Z</time>
      </trkpt>
      <trkpt lat="48.44317" lon="7.42582">
        <ele>318</ele>
        <time>2017-02-18T11:18:08Z</time>
      </trkpt>
      <trkpt lat="48.44327" lon="7.42578">
        <ele>317</ele>
        <time>2017-02-18T11:18:12Z</time>
      </trkpt>
      <trkpt lat="48.4433" lon="7.42578">
        <ele>316</ele>
        <time>2017-02-18T11:18:13Z</time>
      </trkpt>
      <trkpt lat="48.44341" lon="7.42574">
        <ele>318</ele>
        <time>2017-02-18T11:18:18Z</time>
      </trkpt>
      <trkpt lat="48.44348" lon="7.42572">
        <ele>319</ele>
        <time>2017-02-18T11:18:21Z</time>
      </trkpt>
      <trkpt lat="48.4435" lon="7.42571">
        <ele>319</ele>
        <time>2017-02-18T11:18:22Z</time>
      </trkpt>
      <trkpt lat="48.44358" lon="7.42568">
        <ele>320</ele>
        <time>2017-02-18T11:18:26Z</time>
      </trkpt>
      <trkpt lat="48.44362" lon="7.42568">
        <ele>321</ele>
        <time>2017-02-18T11:18:28Z</time>
      </trkpt>
      <trkpt lat="48.44394" lon="7.4256">
        <ele>322</ele>
        <time>2017-02-18T11:18:43Z</time>
      </trkpt>
      <trkpt lat="48.44409" lon="7.42557">
        <ele>323</ele>
        <time>2017-02-18T11:18:50Z</time>
      </trkpt>
      <trkpt lat="48.4443" lon="7.42548">
        <ele>327</ele>
        <time>2017-02-18T11:18:59Z</time>
      </trkpt>
      <trkpt lat="48.44432" lon="7.42547">
        <ele>327</ele>
        <time>2017-02-18T11:19:00Z</time>
      </trkpt>
      <trkpt lat="48.44455" lon="7.4254">
        <ele>327</ele>
        <time>2017-02-18T11:19:10Z</time>
      </trkpt>
      <trkpt lat="48.44477" lon="7.42528">
        <ele>329</ele>
        <time>2017-02-18T11:19:21Z</time>
      </trkpt>
      <trkpt lat="48.44479" lon="7.42527">
        <ele>329</ele>
        <time>2017-02-18T11:19:22Z</time>
      </trkpt>
      <trkpt lat="48.44491" lon="7.42519">
        <ele>330</ele>
        <time>2017-02-18T11:19:27Z</time>
      </trkpt>
      <trkpt lat="48.44506" lon="7.4251">
        <ele>332</ele>
        <time>2017-02-18T11:19:34Z</time>
      </trkpt>
      <trkpt lat="48.44508" lon="7.42507">
        <ele>332</ele>
        <time>2017-02-18T11:19:35Z</time>
      </trkpt>
      <trkpt lat="48.44511" lon="7.42497">
        <ele>334</ele>
        <time>2017-02-18T11:19:38Z</time>
      </trkpt>
      <trkpt lat="48.44518" lon="7.42481">
        <ele>335</ele>
        <time>2017-02-18T11:19:43Z</time>
      </trkpt>
      <trkpt lat="48.44519" lon="7.42479">
        <ele>335</ele>
        <time>2017-02-18T11:19:44Z</time>
      </trkpt>
      <trkpt lat="48.44526" lon="7.42473">
        <ele>336</ele>
        <time>2017-02-18T11:19:47Z</time>
      </trkpt>
      <trkpt lat="48.44535" lon="7.42468">
        <ele>336</ele>
        <time>2017-02-18T11:19:51Z</time>
      </trkpt>
      <trkpt lat="48.44539" lon="7.4246">
        <ele>336</ele>
        <time>2017-02-18T11:19:55Z</time>
      </trkpt>
      <trkpt lat="48.44546" lon="7.42456">
        <ele>336</ele>
        <time>2017-02-18T11:19:59Z</time>
      </trkpt>
      <trkpt lat="48.44568" lon="7.42443">
        <ele>337</ele>
        <time>2017-02-18T11:20:08Z</time>
      </trkpt>
      <trkpt lat="48.44581" lon="7.42428">
        <ele>337</ele>
        <time>2017-02-18T11:20:14Z</time>
      </trkpt>
      <trkpt lat="48.44582" lon="7.42408">
        <ele>339</ele>
        <time>2017-02-18T11:20:20Z</time>
      </trkpt>
      <trkpt lat="48.44581" lon="7.42397">
        <ele>340</ele>
        <time>2017-02-18T11:20:23Z</time>
      </trkpt>
      <trkpt lat="48.44579" lon="7.42391">
        <ele>340</ele>
        <time>2017-02-18T11:20:25Z</time>
      </trkpt>
      <trkpt lat="48.44579" lon="7.42388">
        <ele>340</ele>
        <time>2017-02-18T11:20:26Z</time>
      </trkpt>
      <trkpt lat="48.44584" lon="7.42376">
        <ele>338</ele>
        <time>2017-02-18T11:20:30Z</time>
      </trkpt>
      <trkpt lat="48.44585" lon="7.42374">
        <ele>338</ele>
        <time>2017-02-18T11:20:31Z</time>
      </trkpt>
      <trkpt lat="48.44596" lon="7.42364">
        <ele>338</ele>
        <time>2017-02-18T11:20:37Z</time>
      </trkpt>
      <trkpt lat="48.44612" lon="7.42364">
        <ele>337</ele>
        <time>2017-02-18T11:20:43Z</time>
      </trkpt>
      <trkpt lat="48.44625" lon="7.42374">
        <ele>336</ele>
        <time>2017-02-18T11:20:47Z</time>
      </trkpt>
      <trkpt lat="48.44633" lon="7.42381">
        <ele>336</ele>
        <time>2017-02-18T11:20:49Z</time>
      </trkpt>
      <trkpt lat="48.44651" lon="7.42395">
        <ele>335</ele>
        <time>2017-02-18T11:20:53Z</time>
      </trkpt>
      <trkpt lat="48.44668" lon="7.42409">
        <ele>332</ele>
        <time>2017-02-18T11:20:56Z</time>
      </trkpt>
      <trkpt lat="48.44688" lon="7.42425">
        <ele>331</ele>
        <time>2017-02-18T11:20:59Z</time>
      </trkpt>
      <trkpt lat="48.44725" lon="7.42452">
        <ele>328</ele>
        <time>2017-02-18T11:21:04Z</time>
      </trkpt>
      <trkpt lat="48.44734" lon="7.42457">
        <ele>328</ele>
        <time>2017-02-18T11:21:05Z</time>
      </trkpt>
      <trkpt lat="48.44768" lon="7.4247">
        <ele>324</ele>
        <time>2017-02-18T11:21:09Z</time>
      </trkpt>
      <trkpt lat="48.44786" lon="7.42477">
        <ele>323</ele>
        <time>2017-02-18T11:21:11Z</time>
      </trkpt>
      <trkpt lat="48.44812" lon="7.42484">
        <ele>322</ele>
        <time>2017-02-18T11:21:14Z</time>
      </trkpt>
      <trkpt lat="48.44882" lon="7.42493">
        <ele>317</ele>
        <time>2017-02-18T11:21:23Z</time>
      </trkpt>
      <trkpt lat="48.44887" lon="7.42493">
        <ele>317</ele>
        <time>2017-02-18T11:21:24Z</time>
      </trkpt>
      <trkpt lat="48.449" lon="7.42485">
        <ele>317</ele>
        <time>2017-02-18T11:21:27Z</time>
      </trkpt>
      <trkpt lat="48.44909" lon="7.42482">
        <ele>316</ele>
        <time>2017-02-18T11:21:29Z</time>
      </trkpt>
      <trkpt lat="48.44914" lon="7.42482">
        <ele>316</ele>
        <time>2017-02-18T11:21:30Z</time>
      </trkpt>
      <trkpt lat="48.44925" lon="7.42483">
        <ele>314</ele>
        <time>2017-02-18T11:21:32Z</time>
      </trkpt>
      <trkpt lat="48.44937" lon="7.42488">
        <ele>314</ele>
        <time>2017-02-18T11:21:34Z</time>
      </trkpt>
      <trkpt lat="48.44971" lon="7.42497">
        <ele>313</ele>
        <time>2017-02-18T11:21:40Z</time>
      </trkpt>
      <trkpt lat="48.44977" lon="7.42498">
        <ele>313</ele>
        <time>2017-02-18T11:21:41Z</time>
      </trkpt>
      <trkpt lat="48.44981" lon="7.42495">
        <ele>313</ele>
        <time>2017-02-18T11:21:42Z</time>
      </trkpt>
      <trkpt lat="48.44983" lon="7.42491">
        <ele>313</ele>
        <time>2017-02-18T11:21:43Z</time>
      </trkpt>
      <trkpt lat="48.44988" lon="7.42421">
        <ele>314</ele>
        <time>2017-02-18T11:21:55Z</time>
      </trkpt>
      <trkpt lat="48.44986" lon="7.42414">
        <ele>316</ele>
        <time>2017-02-18T11:21:56Z</time>
      </trkpt>
      <trkpt lat="48.44986" lon="7.42408">
        <ele>316</ele>
        <time>2017-02-18T11:21:57Z</time>
      </trkpt>
      <trkpt lat="48.44987" lon="7.42401">
        <ele>316</ele>
        <time>2017-02-18T11:21:58Z</time>
      </trkpt>
      <trkpt lat="48.45002" lon="7.4237">
        <ele>315</ele>
        <time>2017-02-18T11:22:05Z</time>
      </trkpt>
      <trkpt lat="48.45011" lon="7.42372">
        <ele>314</ele>
        <time>2017-02-18T11:22:06Z</time>
      </trkpt>
      <trkpt lat="48.45029" lon="7.42368">
        <ele>314</ele>
        <time>2017-02-18T11:22:10Z</time>
      </trkpt>
      <trkpt lat="48.45064" lon="7.42354">
        <ele>313</ele>
        <time>2017-02-18T11:22:17Z</time>
      </trkpt>
      <trkpt lat="48.45069" lon="7.42351">
        <ele>313</ele>
        <time>2017-02-18T11:22:18Z</time>
      </trkpt>
      <trkpt lat="48.45075" lon="7.4235">
        <ele>313</ele>
        <time>2017-02-18T11:22:19Z</time>
      </trkpt>
      <trkpt lat="48.45093" lon="7.42344">
        <ele>310</ele>
        <time>2017-02-18T11:22:22Z</time>
      </trkpt>
      <trkpt lat="48.45098" lon="7.42341">
        <ele>309</ele>
        <time>2017-02-18T11:22:23Z</time>
      </trkpt>
      <trkpt lat="48.45106" lon="7.4234">
        <ele>309</ele>
        <time>2017-02-18T11:22:24Z</time>
      </trkpt>
      <trkpt lat="48.45111" lon="7.42338">
        <ele>308</ele>
        <time>2017-02-18T11:22:25Z</time>
      </trkpt>
      <trkpt lat="48.45118" lon="7.42337">
        <ele>307</ele>
        <time>2017-02-18T11:22:26Z</time>
      </trkpt>
      <trkpt lat="48.45124" lon="7.42335">
        <ele>307</ele>
        <time>2017-02-18T11:22:27Z</time>
      </trkpt>
      <trkpt lat="48.45148" lon="7.42326">
        <ele>308</ele>
        <time>2017-02-18T11:22:31Z</time>
      </trkpt>
      <trkpt lat="48.45167" lon="7.42317">
        <ele>308</ele>
        <time>2017-02-18T11:22:34Z</time>
      </trkpt>
      <trkpt lat="48.45179" lon="7.4231">
        <ele>304</ele>
        <time>2017-02-18T11:22:36Z</time>
      </trkpt>
      <trkpt lat="48.4519" lon="7.42307">
        <ele>304</ele>
        <time>2017-02-18T11:22:38Z</time>
      </trkpt>
      <trkpt lat="48.45196" lon="7.4231">
        <ele>304</ele>
        <time>2017-02-18T11:22:39Z</time>
      </trkpt>
      <trkpt lat="48.45203" lon="7.42313">
        <ele>303</ele>
        <time>2017-02-18T11:22:40Z</time>
      </trkpt>
      <trkpt lat="48.4521" lon="7.42316">
        <ele>303</ele>
        <time>2017-02-18T11:22:41Z</time>
      </trkpt>
      <trkpt lat="48.45218" lon="7.42316">
        <ele>302</ele>
        <time>2017-02-18T11:22:42Z</time>
      </trkpt>
      <trkpt lat="48.45225" lon="7.42315">
        <ele>302</ele>
        <time>2017-02-18T11:22:43Z</time>
      </trkpt>
      <trkpt lat="48.45244" lon="7.42306">
        <ele>301</ele>
        <time>2017-02-18T11:22:46Z</time>
      </trkpt>
      <trkpt lat="48.4525" lon="7.42305">
        <ele>301</ele>
        <time>2017-02-18T11:22:47Z</time>
      </trkpt>
      <trkpt lat="48.45265" lon="7.42316">
        <ele>297</ele>
        <time>2017-02-18T11:22:50Z</time>
      </trkpt>
      <trkpt lat="48.45275" lon="7.42319">
        <ele>297</ele>
        <time>2017-02-18T11:22:52Z</time>
      </trkpt>
      <trkpt lat="48.45295" lon="7.42312">
        <ele>297</ele>
        <time>2017-02-18T11:22:56Z</time>
      </trkpt>
      <trkpt lat="48.45329" lon="7.42296">
        <ele>296</ele>
        <time>2017-02-18T11:23:02Z</time>
      </trkpt>
      <trkpt lat="48.45341" lon="7.42288">
        <ele>293</ele>
        <time>2017-02-18T11:23:04Z</time>
      </trkpt>
      <trkpt lat="48.45365" lon="7.42271">
        <ele>293</ele>
        <time>2017-02-18T11:23:08Z</time>
      </trkpt>
      <trkpt lat="48.45371" lon="7.42268">
        <ele>293</ele>
        <time>2017-02-18T11:23:09Z</time>
      </trkpt>
      <trkpt lat="48.45378" lon="7.42269">
        <ele>293</ele>
        <time>2017-02-18T11:23:10Z</time>
      </trkpt>
      <trkpt lat="48.45383" lon="7.42273">
        <ele>292</ele>
        <time>2017-02-18T11:23:11Z</time>
      </trkpt>
      <trkpt lat="48.45387" lon="7.4228">
        <ele>292</ele>
        <time>2017-02-18T11:23:12Z</time>
      </trkpt>
      <trkpt lat="48.4539" lon="7.42289">
        <ele>292</ele>
        <time>2017-02-18T11:23:13Z</time>
      </trkpt>
      <trkpt lat="48.45394" lon="7.42295">
        <ele>291</ele>
        <time>2017-02-18T11:23:14Z</time>
      </trkpt>
      <trkpt lat="48.454" lon="7.42296">
        <ele>291</ele>
        <time>2017-02-18T11:23:15Z</time>
      </trkpt>
      <trkpt lat="48.45421" lon="7.42295">
        <ele>290</ele>
        <time>2017-02-18T11:23:19Z</time>
      </trkpt>
      <trkpt lat="48.45454" lon="7.42296">
        <ele>291</ele>
        <time>2017-02-18T11:23:25Z</time>
      </trkpt>
      <trkpt lat="48.45474" lon="7.42301">
        <ele>292</ele>
        <time>2017-02-18T11:23:29Z</time>
      </trkpt>
      <trkpt lat="48.45492" lon="7.42308">
        <ele>292</ele>
        <time>2017-02-18T11:23:33Z</time>
      </trkpt>
      <trkpt lat="48.45517" lon="7.42315">
        <ele>294</ele>
        <time>2017-02-18T11:23:38Z</time>
      </trkpt>
      <trkpt lat="48.45522" lon="7.42315">
        <ele>294</ele>
        <time>2017-02-18T11:23:39Z</time>
      </trkpt>
      <trkpt lat="48.45531" lon="7.42314">
        <ele>295</ele>
        <time>2017-02-18T11:23:41Z</time>
      </trkpt>
      <trkpt lat="48.45548" lon="7.42301">
        <ele>296</ele>
        <time>2017-02-18T11:23:46Z</time>
      </trkpt>
      <trkpt lat="48.45565" lon="7.42306">
        <ele>296</ele>
        <time>2017-02-18T11:23:51Z</time>
      </trkpt>
      <trkpt lat="48.45596" lon="7.42321">
        <ele>297</ele>
        <time>2017-02-18T11:24:01Z</time>
      </trkpt>
      <trkpt lat="48.45606" lon="7.42328">
        <ele>297</ele>
        <time>2017-02-18T11:24:03Z</time>
      </trkpt>
      <trkpt lat="48.45609" lon="7.42334">
        <ele>295</ele>
        <time>2017-02-18T11:24:04Z</time>
      </trkpt>
      <trkpt lat="48.45612" lon="7.42339">
        <ele>295</ele>
        <time>2017-02-18T11:24:05Z</time>
      </trkpt>
      <trkpt lat="48.45616" lon="7.42342">
        <ele>295</ele>
        <time>2017-02-18T11:24:06Z</time>
      </trkpt>
      <trkpt lat="48.45625" lon="7.42345">
        <ele>295</ele>
        <time>2017-02-18T11:24:08Z</time>
      </trkpt>
      <trkpt lat="48.45659" lon="7.42361">
        <ele>296</ele>
        <time>2017-02-18T11:24:17Z</time>
      </trkpt>
      <trkpt lat="48.45662" lon="7.42364">
        <ele>296</ele>
        <time>2017-02-18T11:24:18Z</time>
      </trkpt>
      <trkpt lat="48.45665" lon="7.42368">
        <ele>295</ele>
        <time>2017-02-18T11:24:19Z</time>
      </trkpt>
      <trkpt lat="48.45678" lon="7.42406">
        <ele>295</ele>
        <time>2017-02-18T11:24:25Z</time>
      </trkpt>
      <trkpt lat="48.45681" lon="7.42413">
        <ele>295</ele>
        <time>2017-02-18T11:24:26Z</time>
      </trkpt>
      <trkpt lat="48.45683" lon="7.42422">
        <ele>292</ele>
        <time>2017-02-18T11:24:27Z</time>
      </trkpt>
      <trkpt lat="48.45687" lon="7.4243">
        <ele>291</ele>
        <time>2017-02-18T11:24:28Z</time>
      </trkpt>
      <trkpt lat="48.45692" lon="7.42437">
        <ele>291</ele>
        <time>2017-02-18T11:24:29Z</time>
      </trkpt>
      <trkpt lat="48.45699" lon="7.42445">
        <ele>290</ele>
        <time>2017-02-18T11:24:30Z</time>
      </trkpt>
      <trkpt lat="48.45704" lon="7.42452">
        <ele>290</ele>
        <time>2017-02-18T11:24:31Z</time>
      </trkpt>
      <trkpt lat="48.45711" lon="7.42459">
        <ele>290</ele>
        <time>2017-02-18T11:24:32Z</time>
      </trkpt>
      <trkpt lat="48.45714" lon="7.42467">
        <ele>289</ele>
        <time>2017-02-18T11:24:33Z</time>
      </trkpt>
      <trkpt lat="48.45719" lon="7.42472">
        <ele>289</ele>
        <time>2017-02-18T11:24:34Z</time>
      </trkpt>
      <trkpt lat="48.45725" lon="7.42474">
        <ele>289</ele>
        <time>2017-02-18T11:24:35Z</time>
      </trkpt>
      <trkpt lat="48.45731" lon="7.42475">
        <ele>289</ele>
        <time>2017-02-18T11:24:36Z</time>
      </trkpt>
      <trkpt lat="48.45756" lon="7.42478">
        <ele>289</ele>
        <time>2017-02-18T11:24:41Z</time>
      </trkpt>
      <trkpt lat="48.45774" lon="7.42478">
        <ele>290</ele>
        <time>2017-02-18T11:24:44Z</time>
      </trkpt>
      <trkpt lat="48.45785" lon="7.42484">
        <ele>290</ele>
        <time>2017-02-18T11:24:46Z</time>
      </trkpt>
      <trkpt lat="48.45814" lon="7.42519">
        <ele>286</ele>
        <time>2017-02-18T11:24:51Z</time>
      </trkpt>
      <trkpt lat="48.45819" lon="7.42527">
        <ele>286</ele>
        <time>2017-02-18T11:24:52Z</time>
      </trkpt>
      <trkpt lat="48.45833" lon="7.42544">
        <ele>285</ele>
        <time>2017-02-18T11:24:54Z</time>
      </trkpt>
      <trkpt lat="48.45839" lon="7.42554">
        <ele>289</ele>
        <time>2017-02-18T11:24:55Z</time>
      </trkpt>
      <trkpt lat="48.45843" lon="7.42566">
        <ele>288</ele>
        <time>2017-02-18T11:24:56Z</time>
      </trkpt>
      <trkpt lat="48.45852" lon="7.42605">
        <ele>284</ele>
        <time>2017-02-18T11:24:59Z</time>
      </trkpt>
      <trkpt lat="48.45857" lon="7.42632">
        <ele>283</ele>
        <time>2017-02-18T11:25:01Z</time>
      </trkpt>
      <trkpt lat="48.45863" lon="7.4266">
        <ele>282</ele>
        <time>2017-02-18T11:25:03Z</time>
      </trkpt>
      <trkpt lat="48.45865" lon="7.42674">
        <ele>277</ele>
        <time>2017-02-18T11:25:04Z</time>
      </trkpt>
      <trkpt lat="48.4587" lon="7.42703">
        <ele>277</ele>
        <time>2017-02-18T11:25:06Z</time>
      </trkpt>
      <trkpt lat="48.45872" lon="7.42717">
        <ele>276</ele>
        <time>2017-02-18T11:25:07Z</time>
      </trkpt>
      <trkpt lat="48.4588" lon="7.42759">
        <ele>271</ele>
        <time>2017-02-18T11:25:10Z</time>
      </trkpt>
      <trkpt lat="48.45884" lon="7.42773">
        <ele>271</ele>
        <time>2017-02-18T11:25:11Z</time>
      </trkpt>
      <trkpt lat="48.45894" lon="7.42798">
        <ele>270</ele>
        <time>2017-02-18T11:25:13Z</time>
      </trkpt>
      <trkpt lat="48.45898" lon="7.42809">
        <ele>269</ele>
        <time>2017-02-18T11:25:14Z</time>
      </trkpt>
      <trkpt lat="48.45905" lon="7.42816">
        <ele>269</ele>
        <time>2017-02-18T11:25:15Z</time>
      </trkpt>
      <trkpt lat="48.45912" lon="7.42821">
        <ele>268</ele>
        <time>2017-02-18T11:25:16Z</time>
      </trkpt>
      <trkpt lat="48.45927" lon="7.42828">
        <ele>269</ele>
        <time>2017-02-18T11:25:18Z</time>
      </trkpt>
      <trkpt lat="48.45965" lon="7.42863">
        <ele>266</ele>
        <time>2017-02-18T11:25:24Z</time>
      </trkpt>
      <trkpt lat="48.45984" lon="7.42883">
        <ele>265</ele>
        <time>2017-02-18T11:25:27Z</time>
      </trkpt>
      <trkpt lat="48.46022" lon="7.42927">
        <ele>261</ele>
        <time>2017-02-18T11:25:33Z</time>
      </trkpt>
      <trkpt lat="48.46049" lon="7.42953">
        <ele>259</ele>
        <time>2017-02-18T11:25:37Z</time>
      </trkpt>
      <trkpt lat="48.46062" lon="7.42962">
        <ele>259</ele>
        <time>2017-02-18T11:25:39Z</time>
      </trkpt>
      <trkpt lat="48.46068" lon="7.42967">
        <ele>259</ele>
        <time>2017-02-18T11:25:40Z</time>
      </trkpt>
      <trkpt lat="48.46073" lon="7.42973">
        <ele>258</ele>
        <time>2017-02-18T11:25:41Z</time>
      </trkpt>
      <trkpt lat="48.46081" lon="7.42986">
        <ele>257</ele>
        <time>2017-02-18T11:25:43Z</time>
      </trkpt>
      <trkpt lat="48.46086" lon="7.42991">
        <ele>256</ele>
        <time>2017-02-18T11:25:44Z</time>
      </trkpt>
      <trkpt lat="48.46093" lon="7.42996">
        <ele>256</ele>
        <time>2017-02-18T11:25:46Z</time>
      </trkpt>
      <trkpt lat="48.46099" lon="7.42999">
        <ele>256</ele>
        <time>2017-02-18T11:25:49Z</time>
      </trkpt>
      <trkpt lat="48.46103" lon="7.43003">
        <ele>252</ele>
        <time>2017-02-18T11:25:51Z</time>
      </trkpt>
      <trkpt lat="48.46106" lon="7.43003">
        <ele>252</ele>
        <time>2017-02-18T11:25:52Z</time>
      </trkpt>
      <trkpt lat="48.46111" lon="7.43006">
        <ele>252</ele>
        <time>2017-02-18T11:25:53Z</time>
      </trkpt>
      <trkpt lat="48.46124" lon="7.43013">
        <ele>251</ele>
        <time>2017-02-18T11:25:55Z</time>
      </trkpt>
      <trkpt lat="48.46144" lon="7.43025">
        <ele>250</ele>
        <time>2017-02-18T11:25:58Z</time>
      </trkpt>
      <trkpt lat="48.46171" lon="7.43037">
        <ele>248</ele>
        <time>2017-02-18T11:26:02Z</time>
      </trkpt>
      <trkpt lat="48.46184" lon="7.43042">
        <ele>247</ele>
        <time>2017-02-18T11:26:04Z</time>
      </trkpt>
      <trkpt lat="48.46254" lon="7.43052">
        <ele>244</ele>
        <time>2017-02-18T11:26:14Z</time>
      </trkpt>
      <trkpt lat="48.46272" lon="7.43057">
        <ele>244</ele>
        <time>2017-02-18T11:26:17Z</time>
      </trkpt>
      <trkpt lat="48.46296" lon="7.43057">
        <ele>244</ele>
        <time>2017-02-18T11:26:21Z</time>
      </trkpt>
      <trkpt lat="48.46318" lon="7.43059">
        <ele>243</ele>
        <time>2017-02-18T11:26:25Z</time>
      </trkpt>
      <trkpt lat="48.46331" lon="7.43063">
        <ele>243</ele>
        <time>2017-02-18T11:26:28Z</time>
      </trkpt>
      <trkpt lat="48.46335" lon="7.43065">
        <ele>242</ele>
        <time>2017-02-18T11:26:29Z</time>
      </trkpt>
      <trkpt lat="48.46337" lon="7.43068">
        <ele>242</ele>
        <time>2017-02-18T11:26:30Z</time>
      </trkpt>
      <trkpt lat="48.4634" lon="7.43072">
        <ele>242</ele>
        <time>2017-02-18T11:26:31Z</time>
      </trkpt>
      <trkpt lat="48.46341" lon="7.43077">
        <ele>242</ele>
        <time>2017-02-18T11:26:32Z</time>
      </trkpt>
      <trkpt lat="48.46342" lon="7.4309">
        <ele>241</ele>
        <time>2017-02-18T11:26:34Z</time>
      </trkpt>
      <trkpt lat="48.46342" lon="7.43113">
        <ele>241</ele>
        <time>2017-02-18T11:26:37Z</time>
      </trkpt>
      <trkpt lat="48.46345" lon="7.43165">
        <ele>240</ele>
        <time>2017-02-18T11:26:44Z</time>
      </trkpt>
      <trkpt lat="48.46353" lon="7.43219">
        <ele>239</ele>
        <time>2017-02-18T11:26:51Z</time>
      </trkpt>
      <trkpt lat="48.46355" lon="7.43245">
        <ele>239</ele>
        <time>2017-02-18T11:26:54Z</time>
      </trkpt>
      <trkpt lat="48.46355" lon="7.43253">
        <ele>238</ele>
        <time>2017-02-18T11:26:55Z</time>
      </trkpt>
      <trkpt lat="48.46354" lon="7.43262">
        <ele>238</ele>
        <time>2017-02-18T11:26:56Z</time>
      </trkpt>
      <trkpt lat="48.46351" lon="7.4328">
        <ele>238</ele>
        <time>2017-02-18T11:26:58Z</time>
      </trkpt>
      <trkpt lat="48.46348" lon="7.43296">
        <ele>238</ele>
        <time>2017-02-18T11:27:00Z</time>
      </trkpt>
      <trkpt lat="48.46343" lon="7.43313">
        <ele>238</ele>
        <time>2017-02-18T11:27:02Z</time>
      </trkpt>
      <trkpt lat="48.46333" lon="7.43352">
        <ele>239</ele>
        <time>2017-02-18T11:27:07Z</time>
      </trkpt>
      <trkpt lat="48.46334" lon="7.4337">
        <ele>238</ele>
        <time>2017-02-18T11:27:09Z</time>
      </trkpt>
      <trkpt lat="48.46338" lon="7.43394">
        <ele>239</ele>
        <time>2017-02-18T11:27:12Z</time>
      </trkpt>
      <trkpt lat="48.46338" lon="7.43457">
        <ele>239</ele>
        <time>2017-02-18T11:27:19Z</time>
      </trkpt>
      <trkpt lat="48.46341" lon="7.43542">
        <ele>238</ele>
        <time>2017-02-18T11:27:28Z</time>
      </trkpt>
      <trkpt lat="48.46346" lon="7.43579">
        <ele>239</ele>
        <time>2017-02-18T11:27:32Z</time>
      </trkpt>
      <trkpt lat="48.46346" lon="7.43598">
        <ele>238</ele>
        <time>2017-02-18T11:27:34Z</time>
      </trkpt>
      <trkpt lat="48.4635" lon="7.43625">
        <ele>237</ele>
        <time>2017-02-18T11:27:37Z</time>
      </trkpt>
      <trkpt lat="48.46358" lon="7.43663">
        <ele>237</ele>
        <time>2017-02-18T11:27:41Z</time>
      </trkpt>
      <trkpt lat="48.46368" lon="7.43718">
        <ele>235</ele>
        <time>2017-02-18T11:27:47Z</time>
      </trkpt>
      <trkpt lat="48.46383" lon="7.43771">
        <ele>234</ele>
        <time>2017-02-18T11:27:53Z</time>
      </trkpt>
      <trkpt lat="48.46386" lon="7.43779">
        <ele>234</ele>
        <time>2017-02-18T11:27:54Z</time>
      </trkpt>
      <trkpt lat="48.46395" lon="7.43805">
        <ele>233</ele>
        <time>2017-02-18T11:27:57Z</time>
      </trkpt>
      <trkpt lat="48.46401" lon="7.43822">
        <ele>234</ele>
        <time>2017-02-18T11:27:59Z</time>
      </trkpt>
      <trkpt lat="48.46405" lon="7.4384">
        <ele>233</ele>
        <time>2017-02-18T11:28:01Z</time>
      </trkpt>
      <trkpt lat="48.46412" lon="7.43878">
        <ele>231</ele>
        <time>2017-02-18T11:28:05Z</time>
      </trkpt>
      <trkpt lat="48.46414" lon="7.43896">
        <ele>231</ele>
        <time>2017-02-18T11:28:07Z</time>
      </trkpt>
      <trkpt lat="48.46425" lon="7.43973">
        <ele>232</ele>
        <time>2017-02-18T11:28:15Z</time>
      </trkpt>
      <trkpt lat="48.46427" lon="7.43992">
        <ele>231</ele>
        <time>2017-02-18T11:28:17Z</time>
      </trkpt>
      <trkpt lat="48.46428" lon="7.44042">
        <ele>231</ele>
        <time>2017-02-18T11:28:22Z</time>
      </trkpt>
      <trkpt lat="48.46431" lon="7.44083">
        <ele>230</ele>
        <time>2017-02-18T11:28:26Z</time>
      </trkpt>
      <trkpt lat="48.46432" lon="7.44114">
        <ele>230</ele>
        <time>2017-02-18T11:28:29Z</time>
      </trkpt>
      <trkpt lat="48.46434" lon="7.4417">
        <ele>231</ele>
        <time>2017-02-18T11:28:35Z</time>
      </trkpt>
      <trkpt lat="48.46441" lon="7.44206">
        <ele>231</ele>
        <time>2017-02-18T11:28:39Z</time>
      </trkpt>
      <trkpt lat="48.46444" lon="7.44225">
        <ele>231</ele>
        <time>2017-02-18T11:28:41Z</time>
      </trkpt>
      <trkpt lat="48.46453" lon="7.44269">
        <ele>229</ele>
        <time>2017-02-18T11:28:46Z</time>
      </trkpt>
      <trkpt lat="48.4646" lon="7.44292">
        <ele>229</ele>
        <time>2017-02-18T11:28:49Z</time>
      </trkpt>
      <trkpt lat="48.46468" lon="7.44316">
        <ele>229</ele>
        <time>2017-02-18T11:28:52Z</time>
      </trkpt>
      <trkpt lat="48.46474" lon="7.44342">
        <ele>227</ele>
        <time>2017-02-18T11:28:55Z</time>
      </trkpt>
      <trkpt lat="48.46489" lon="7.44421">
        <ele>225</ele>
        <time>2017-02-18T11:29:04Z</time>
      </trkpt>
      <trkpt lat="48.46491" lon="7.44428">
        <ele>225</ele>
        <time>2017-02-18T11:29:05Z</time>
      </trkpt>
      <trkpt lat="48.46494" lon="7.44433">
        <ele>225</ele>
        <time>2017-02-18T11:29:06Z</time>
      </trkpt>
      <trkpt lat="48.46497" lon="7.44436">
        <ele>224</ele>
        <time>2017-02-18T11:29:07Z</time>
      </trkpt>
      <trkpt lat="48.46507" lon="7.4443">
        <ele>224</ele>
        <time>2017-02-18T11:29:10Z</time>
      </trkpt>
      <trkpt lat="48.46518" lon="7.44415">
        <ele>225</ele>
        <time>2017-02-18T11:29:14Z</time>
      </trkpt>
      <trkpt lat="48.46522" lon="7.44404">
        <ele>225</ele>
        <time>2017-02-18T11:29:16Z</time>
      </trkpt>
      <trkpt lat="48.46531" lon="7.44374">
        <ele>226</ele>
        <time>2017-02-18T11:29:22Z</time>
      </trkpt>
      <trkpt lat="48.46535" lon="7.44365">
        <ele>226</ele>
        <time>2017-02-18T11:29:24Z</time>
      </trkpt>
      <trkpt lat="48.46542" lon="7.44352">
        <ele>226</ele>
        <time>2017-02-18T11:29:27Z</time>
      </trkpt>
      <trkpt lat="48.46545" lon="7.4435">
        <ele>226</ele>
        <time>2017-02-18T11:29:28Z</time>
      </trkpt>
      <trkpt lat="48.46566" lon="7.44337">
        <ele>225</ele>
        <time>2017-02-18T11:29:34Z</time>
      </trkpt>
      <trkpt lat="48.46602" lon="7.44318">
        <ele>225</ele>
        <time>2017-02-18T11:29:44Z</time>
      </trkpt>
      <trkpt lat="48.46609" lon="7.44313">
        <ele>226</ele>
        <time>2017-02-18T11:29:46Z</time>
      </trkpt>
      <trkpt lat="48.46623" lon="7.44305">
        <ele>226</ele>
        <time>2017-02-18T11:29:50Z</time>
      </trkpt>
      <trkpt lat="48.46654" lon="7.44289">
        <ele>226</ele>
        <time>2017-02-18T11:30:00Z</time>
      </trkpt>
      <trkpt lat="48.4667" lon="7.44282">
        <ele>229</ele>
        <time>2017-02-18T11:30:05Z</time>
      </trkpt>
      <trkpt lat="48.46731" lon="7.44261">
        <ele>232</ele>
        <time>2017-02-18T11:30:25Z</time>
      </trkpt>
      <trkpt lat="48.46746" lon="7.44261">
        <ele>233</ele>
        <time>2017-02-18T11:30:30Z</time>
      </trkpt>
      <trkpt lat="48.4677" lon="7.44255">
        <ele>236</ele>
        <time>2017-02-18T11:30:37Z</time>
      </trkpt>
      <trkpt lat="48.46809" lon="7.44236">
        <ele>238</ele>
        <time>2017-02-18T11:30:50Z</time>
      </trkpt>
      <trkpt lat="48.46811" lon="7.44234">
        <ele>238</ele>
        <time>2017-02-18T11:30:51Z</time>
      </trkpt>
      <trkpt lat="48.46821" lon="7.44226">
        <ele>238</ele>
        <time>2017-02-18T11:30:56Z</time>
      </trkpt>
      <trkpt lat="48.46831" lon="7.44222">
        <ele>238</ele>
        <time>2017-02-18T11:31:00Z</time>
      </trkpt>
      <trkpt lat="48.46837" lon="7.44218">
        <ele>242</ele>
        <time>2017-02-18T11:31:02Z</time>
      </trkpt>
      <trkpt lat="48.46847" lon="7.44211">
        <ele>242</ele>
        <time>2017-02-18T11:31:06Z</time>
      </trkpt>
      <trkpt lat="48.46853" lon="7.44208">
        <ele>242</ele>
        <time>2017-02-18T11:31:08Z</time>
      </trkpt>
      <trkpt lat="48.4686" lon="7.44206">
        <ele>242</ele>
        <time>2017-02-18T11:31:10Z</time>
      </trkpt>
      <trkpt lat="48.46872" lon="7.442">
        <ele>243</ele>
        <time>2017-02-18T11:31:14Z</time>
      </trkpt>
      <trkpt lat="48.46884" lon="7.44192">
        <ele>243</ele>
        <time>2017-02-18T11:31:19Z</time>
      </trkpt>
      <trkpt lat="48.469" lon="7.44185">
        <ele>244</ele>
        <time>2017-02-18T11:31:25Z</time>
      </trkpt>
      <trkpt lat="48.46919" lon="7.44175">
        <ele>246</ele>
        <time>2017-02-18T11:31:31Z</time>
      </trkpt>
      <trkpt lat="48.46926" lon="7.4417">
        <ele>246</ele>
        <time>2017-02-18T11:31:34Z</time>
      </trkpt>
      <trkpt lat="48.46931" lon="7.44168">
        <ele>247</ele>
        <time>2017-02-18T11:31:36Z</time>
      </trkpt>
      <trkpt lat="48.46933" lon="7.44168">
        <ele>247</ele>
        <time>2017-02-18T11:31:37Z</time>
      </trkpt>
      <trkpt lat="48.46935" lon="7.4417">
        <ele>247</ele>
        <time>2017-02-18T11:31:38Z</time>
      </trkpt>
      <trkpt lat="48.46937" lon="7.44173">
        <ele>247</ele>
        <time>2017-02-18T11:31:39Z</time>
      </trkpt>
      <trkpt lat="48.46954" lon="7.44217">
        <ele>248</ele>
        <time>2017-02-18T11:31:51Z</time>
      </trkpt>
      <trkpt lat="48.4696" lon="7.44231">
        <ele>248</ele>
        <time>2017-02-18T11:31:56Z</time>
      </trkpt>
      <trkpt lat="48.46961" lon="7.44233">
        <ele>248</ele>
        <time>2017-02-18T11:32:39Z</time>
      </trkpt>
      <trkpt lat="48.46963" lon="7.44239">
        <ele>248</ele>
        <time>2017-02-18T11:32:42Z</time>
      </trkpt>
      <trkpt lat="48.46972" lon="7.44247">
        <ele>248</ele>
        <time>2017-02-18T11:32:47Z</time>
      </trkpt>
      <trkpt lat="48.46991" lon="7.44259">
        <ele>249</ele>
        <time>2017-02-18T11:32:54Z</time>
      </trkpt>
      <trkpt lat="48.47006" lon="7.44272">
        <ele>249</ele>
        <time>2017-02-18T11:32:59Z</time>
      </trkpt>
      <trkpt lat="48.47025" lon="7.44297">
        <ele>249</ele>
        <time>2017-02-18T11:33:06Z</time>
      </trkpt>
      <trkpt lat="48.47047" lon="7.4432">
        <ele>248</ele>
        <time>2017-02-18T11:33:14Z</time>
      </trkpt>
      <trkpt lat="48.47059" lon="7.44317">
        <ele>248</ele>
        <time>2017-02-18T11:33:18Z</time>
      </trkpt>
      <trkpt lat="48.47077" lon="7.44301">
        <ele>248</ele>
        <time>2017-02-18T11:33:24Z</time>
      </trkpt>
      <trkpt lat="48.47098" lon="7.44283">
        <ele>246</ele>
        <time>2017-02-18T11:33:30Z</time>
      </trkpt>
      <trkpt lat="48.47133" lon="7.44259">
        <ele>246</ele>
        <time>2017-02-18T11:33:39Z</time>
      </trkpt>
      <trkpt lat="48.47155" lon="7.4424">
        <ele>246</ele>
        <time>2017-02-18T11:33:45Z</time>
      </trkpt>
      <trkpt lat="48.47173" lon="7.44214">
        <ele>245</ele>
        <time>2017-02-18T11:33:51Z</time>
      </trkpt>
      <trkpt lat="48.47175" lon="7.44209">
        <ele>245</ele>
        <time>2017-02-18T11:33:52Z</time>
      </trkpt>
      <trkpt lat="48.47192" lon="7.4417">
        <ele>246</ele>
        <time>2017-02-18T11:33:59Z</time>
      </trkpt>
      <trkpt lat="48.47205" lon="7.44136">
        <ele>246</ele>
        <time>2017-02-18T11:34:05Z</time>
      </trkpt>
      <trkpt lat="48.4721" lon="7.44119">
        <ele>246</ele>
        <time>2017-02-18T11:34:08Z</time>
      </trkpt>
      <trkpt lat="48.47219" lon="7.44097">
        <ele>246</ele>
        <time>2017-02-18T11:34:13Z</time>
      </trkpt>
      <trkpt lat="48.47221" lon="7.44096">
        <ele>246</ele>
        <time>2017-02-18T11:34:14Z</time>
      </trkpt>
      <trkpt lat="48.47271" lon="7.44105">
        <ele>243</ele>
        <time>2017-02-18T11:34:25Z</time>
      </trkpt>
      <trkpt lat="48.47294" lon="7.44109">
        <ele>243</ele>
        <time>2017-02-18T11:34:29Z</time>
      </trkpt>
      <trkpt lat="48.47306" lon="7.44114">
        <ele>243</ele>
        <time>2017-02-18T11:34:31Z</time>
      </trkpt>
      <trkpt lat="48.47312" lon="7.44117">
        <ele>242</ele>
        <time>2017-02-18T11:34:32Z</time>
      </trkpt>
      <trkpt lat="48.47318" lon="7.44121">
        <ele>242</ele>
        <time>2017-02-18T11:34:33Z</time>
      </trkpt>
      <trkpt lat="48.47323" lon="7.44126">
        <ele>242</ele>
        <time>2017-02-18T11:34:34Z</time>
      </trkpt>
      <trkpt lat="48.47329" lon="7.44132">
        <ele>242</ele>
        <time>2017-02-18T11:34:35Z</time>
      </trkpt>
      <trkpt lat="48.47334" lon="7.44139">
        <ele>241</ele>
        <time>2017-02-18T11:34:36Z</time>
      </trkpt>
      <trkpt lat="48.47339" lon="7.44147">
        <ele>240</ele>
        <time>2017-02-18T11:34:37Z</time>
      </trkpt>
      <trkpt lat="48.47343" lon="7.44157">
        <ele>240</ele>
        <time>2017-02-18T11:34:38Z</time>
      </trkpt>
      <trkpt lat="48.47349" lon="7.44177">
        <ele>239</ele>
        <time>2017-02-18T11:34:40Z</time>
      </trkpt>
      <trkpt lat="48.47369" lon="7.44266">
        <ele>236</ele>
        <time>2017-02-18T11:34:48Z</time>
      </trkpt>
      <trkpt lat="48.47385" lon="7.44343">
        <ele>233</ele>
        <time>2017-02-18T11:34:55Z</time>
      </trkpt>
      <trkpt lat="48.47394" lon="7.44386">
        <ele>232</ele>
        <time>2017-02-18T11:34:59Z</time>
      </trkpt>
      <trkpt lat="48.47399" lon="7.44418">
        <ele>230</ele>
        <time>2017-02-18T11:35:02Z</time>
      </trkpt>
      <trkpt lat="48.47402" lon="7.44439">
        <ele>230</ele>
        <time>2017-02-18T11:35:04Z</time>
      </trkpt>
      <trkpt lat="48.47403" lon="7.4445">
        <ele>229</ele>
        <time>2017-02-18T11:35:05Z</time>
      </trkpt>
      <trkpt lat="48.47405" lon="7.44492">
        <ele>228</ele>
        <time>2017-02-18T11:35:09Z</time>
      </trkpt>
      <trkpt lat="48.47405" lon="7.44532">
        <ele>226</ele>
        <time>2017-02-18T11:35:13Z</time>
      </trkpt>
      <trkpt lat="48.47406" lon="7.44642">
        <ele>224</ele>
        <time>2017-02-18T11:35:24Z</time>
      </trkpt>
      <trkpt lat="48.47407" lon="7.44651">
        <ele>223</ele>
        <time>2017-02-18T11:35:25Z</time>
      </trkpt>
      <trkpt lat="48.47408" lon="7.4466">
        <ele>223</ele>
        <time>2017-02-18T11:35:26Z</time>
      </trkpt>
      <trkpt lat="48.47412" lon="7.44678">
        <ele>222</ele>
        <time>2017-02-18T11:35:28Z</time>
      </trkpt>
      <trkpt lat="48.47428" lon="7.44729">
        <ele>219</ele>
        <time>2017-02-18T11:35:34Z</time>
      </trkpt>
      <trkpt lat="48.4744" lon="7.44772">
        <ele>218</ele>
        <time>2017-02-18T11:35:39Z</time>
      </trkpt>
      <trkpt lat="48.47445" lon="7.4479">
        <ele>217</ele>
        <time>2017-02-18T11:35:41Z</time>
      </trkpt>
      <trkpt lat="48.47451" lon="7.44807">
        <ele>217</ele>
        <time>2017-02-18T11:35:43Z</time>
      </trkpt>
      <trkpt lat="48.47458" lon="7.44824">
        <ele>217</ele>
        <time>2017-02-18T11:35:45Z</time>
      </trkpt>
      <trkpt lat="48.47466" lon="7.4484">
        <ele>216</ele>
        <time>2017-02-18T11:35:47Z</time>
      </trkpt>
      <trkpt lat="48.47475" lon="7.44853">
        <ele>216</ele>
        <time>2017-02-18T11:35:49Z</time>
      </trkpt>
      <trkpt lat="48.47507" lon="7.44893">
        <ele>215</ele>
        <time>2017-02-18T11:35:56Z</time>
      </trkpt>
      <trkpt lat="48.4751" lon="7.449">
        <ele>215</ele>
        <time>2017-02-18T11:35:57Z</time>
      </trkpt>
      <trkpt lat="48.47521" lon="7.44932">
        <ele>215</ele>
        <time>2017-02-18T11:36:01Z</time>
      </trkpt>
      <trkpt lat="48.47528" lon="7.44955">
        <ele>215</ele>
        <time>2017-02-18T11:36:04Z</time>
      </trkpt>
      <trkpt lat="48.47533" lon="7.44969">
        <ele>215</ele>
        <time>2017-02-18T11:36:06Z</time>
      </trkpt>
      <trkpt lat="48.47537" lon="7.44983">
        <ele>215</ele>
        <time>2017-02-18T11:36:08Z</time>
      </trkpt>
      <trkpt lat="48.47545" lon="7.44998">
        <ele>215</ele>
        <time>2017-02-18T11:36:11Z</time>
      </trkpt>
      <trkpt lat="48.47566" lon="7.45004">
        <ele>215</ele>
        <time>2017-02-18T11:36:16Z</time>
      </trkpt>
      <trkpt lat="48.47578" lon="7.44991">
        <ele>215</ele>
        <time>2017-02-18T11:36:19Z</time>
      </trkpt>
      <trkpt lat="48.47581" lon="7.44986">
        <ele>215</ele>
        <time>2017-02-18T11:36:20Z</time>
      </trkpt>
      <trkpt lat="48.47608" lon="7.44948">
        <ele>215</ele>
        <time>2017-02-18T11:36:28Z</time>
      </trkpt>
      <trkpt lat="48.47612" lon="7.44944">
        <ele>215</ele>
        <time>2017-02-18T11:36:29Z</time>
      </trkpt>
      <trkpt lat="48.47625" lon="7.44936">
        <ele>215</ele>
        <time>2017-02-18T11:36:32Z</time>
      </trkpt>
      <trkpt lat="48.47655" lon="7.44924">
        <ele>215</ele>
        <time>2017-02-18T11:36:39Z</time>
      </trkpt>
      <trkpt lat="48.47673" lon="7.4492">
        <ele>215</ele>
        <time>2017-02-18T11:36:44Z</time>
      </trkpt>
      <trkpt lat="48.47676" lon="7.44936">
        <ele>214</ele>
        <time>2017-02-18T11:36:47Z</time>
      </trkpt>
      <trkpt lat="48.47675" lon="7.44942">
        <ele>214</ele>
        <time>2017-02-18T11:36:48Z</time>
      </trkpt>
      <trkpt lat="48.47679" lon="7.44979">
        <ele>213</ele>
        <time>2017-02-18T11:36:54Z</time>
      </trkpt>
      <trkpt lat="48.47684" lon="7.45018">
        <ele>213</ele>
        <time>2017-02-18T11:37:00Z</time>
      </trkpt>
      <trkpt lat="48.47685" lon="7.45081">
        <ele>213</ele>
        <time>2017-02-18T11:37:09Z</time>
      </trkpt>
      <trkpt lat="48.47687" lon="7.45094">
        <ele>214</ele>
        <time>2017-02-18T11:37:11Z</time>
      </trkpt>
      <trkpt lat="48.4769" lon="7.45106">
        <ele>214</ele>
        <time>2017-02-18T11:37:13Z</time>
      </trkpt>
      <trkpt lat="48.47692" lon="7.45111">
        <ele>214</ele>
        <time>2017-02-18T11:37:14Z</time>
      </trkpt>
      <trkpt lat="48.47705" lon="7.45152">
        <ele>214</ele>
        <time>2017-02-18T11:37:21Z</time>
      </trkpt>
      <trkpt lat="48.47711" lon="7.45184">
        <ele>214</ele>
        <time>2017-02-18T11:37:26Z</time>
      </trkpt>
      <trkpt lat="48.47713" lon="7.4519">
        <ele>214</ele>
        <time>2017-02-18T11:37:27Z</time>
      </trkpt>
      <trkpt lat="48.47721" lon="7.45201">
        <ele>214</ele>
        <time>2017-02-18T11:37:30Z</time>
      </trkpt>
      <trkpt lat="48.47738" lon="7.452">
        <ele>214</ele>
        <time>2017-02-18T11:37:34Z</time>
      </trkpt>
      <trkpt lat="48.47748" lon="7.45205">
        <ele>214</ele>
        <time>2017-02-18T11:37:37Z</time>
      </trkpt>
      <trkpt lat="48.47761" lon="7.45217">
        <ele>216</ele>
        <time>2017-02-18T11:37:41Z</time>
      </trkpt>
      <trkpt lat="48.47763" lon="7.4522">
        <ele>216</ele>
        <time>2017-02-18T11:37:42Z</time>
      </trkpt>
      <trkpt lat="48.47782" lon="7.45252">
        <ele>216</ele>
        <time>2017-02-18T11:37:50Z</time>
      </trkpt>
      <trkpt lat="48.47785" lon="7.45261">
        <ele>216</ele>
        <time>2017-02-18T11:37:52Z</time>
      </trkpt>
      <trkpt lat="48.47789" lon="7.45269">
        <ele>217</ele>
        <time>2017-02-18T11:37:54Z</time>
      </trkpt>
      <trkpt lat="48.47801" lon="7.45285">
        <ele>217</ele>
        <time>2017-02-18T11:37:59Z</time>
      </trkpt>
      <trkpt lat="48.47807" lon="7.45296">
        <ele>217</ele>
        <time>2017-02-18T11:38:02Z</time>
      </trkpt>
      <trkpt lat="48.47815" lon="7.45306">
        <ele>217</ele>
        <time>2017-02-18T11:38:05Z</time>
      </trkpt>
      <trkpt lat="48.47847" lon="7.45338">
        <ele>219</ele>
        <time>2017-02-18T11:38:16Z</time>
      </trkpt>
      <trkpt lat="48.4788" lon="7.45382">
        <ele>218</ele>
        <time>2017-02-18T11:38:28Z</time>
      </trkpt>
      <trkpt lat="48.47937" lon="7.45462">
        <ele>220</ele>
        <time>2017-02-18T11:38:48Z</time>
      </trkpt>
      <trkpt lat="48.47951" lon="7.45482">
        <ele>220</ele>
        <time>2017-02-18T11:38:53Z</time>
      </trkpt>
      <trkpt lat="48.47956" lon="7.4549">
        <ele>220</ele>
        <time>2017-02-18T11:38:55Z</time>
      </trkpt>
      <trkpt lat="48.47967" lon="7.45506">
        <ele>221</ele>
        <time>2017-02-18T11:38:59Z</time>
      </trkpt>
      <trkpt lat="48.48017" lon="7.45587">
        <ele>222</ele>
        <time>2017-02-18T11:39:18Z</time>
      </trkpt>
      <trkpt lat="48.48034" lon="7.4562">
        <ele>223</ele>
        <time>2017-02-18T11:39:25Z</time>
      </trkpt>
      <trkpt lat="48.48047" lon="7.45642">
        <ele>224</ele>
        <time>2017-02-18T11:39:30Z</time>
      </trkpt>
      <trkpt lat="48.48058" lon="7.45658">
        <ele>224</ele>
        <time>2017-02-18T11:39:34Z</time>
      </trkpt>
      <trkpt lat="48.48113" lon="7.45727">
        <ele>226</ele>
        <time>2017-02-18T11:39:53Z</time>
      </trkpt>
      <trkpt lat="48.48118" lon="7.45735">
        <ele>226</ele>
        <time>2017-02-18T11:39:55Z</time>
      </trkpt>
      <trkpt lat="48.48138" lon="7.45768">
        <ele>228</ele>
        <time>2017-02-18T11:40:03Z</time>
      </trkpt>
      <trkpt lat="48.48147" lon="7.45785">
        <ele>228</ele>
        <time>2017-02-18T11:40:07Z</time>
      </trkpt>
      <trkpt lat="48.4815" lon="7.45789">
        <ele>228</ele>
        <time>2017-02-18T11:40:08Z</time>
      </trkpt>
      <trkpt lat="48.48171" lon="7.45828">
        <ele>230</ele>
        <time>2017-02-18T11:40:17Z</time>
      </trkpt>
      <trkpt lat="48.48199" lon="7.45856">
        <ele>232</ele>
        <time>2017-02-18T11:40:26Z</time>
      </trkpt>
      <trkpt lat="48.4821" lon="7.45862">
        <ele>232</ele>
        <time>2017-02-18T11:40:29Z</time>
      </trkpt>
      <trkpt lat="48.48213" lon="7.45863">
        <ele>232</ele>
        <time>2017-02-18T11:40:30Z</time>
      </trkpt>
      <trkpt lat="48.48224" lon="7.45869">
        <ele>233</ele>
        <time>2017-02-18T11:40:33Z</time>
      </trkpt>
      <trkpt lat="48.48243" lon="7.45877">
        <ele>233</ele>
        <time>2017-02-18T11:40:38Z</time>
      </trkpt>
      <trkpt lat="48.48272" lon="7.45884">
        <ele>235</ele>
        <time>2017-02-18T11:40:46Z</time>
      </trkpt>
      <trkpt lat="48.48276" lon="7.45885">
        <ele>235</ele>
        <time>2017-02-18T11:40:47Z</time>
      </trkpt>
      <trkpt lat="48.48315" lon="7.45895">
        <ele>236</ele>
        <time>2017-02-18T11:40:58Z</time>
      </trkpt>
      <trkpt lat="48.4833" lon="7.459">
        <ele>236</ele>
        <time>2017-02-18T11:41:02Z</time>
      </trkpt>
      <trkpt lat="48.48354" lon="7.45911">
        <ele>237</ele>
        <time>2017-02-18T11:41:09Z</time>
      </trkpt>
      <trkpt lat="48.48375" lon="7.45921">
        <ele>238</ele>
        <time>2017-02-18T11:41:16Z</time>
      </trkpt>
      <trkpt lat="48.48381" lon="7.45924">
        <ele>238</ele>
        <time>2017-02-18T11:41:18Z</time>
      </trkpt>
      <trkpt lat="48.48396" lon="7.45929">
        <ele>238</ele>
        <time>2017-02-18T11:41:23Z</time>
      </trkpt>
      <trkpt lat="48.48411" lon="7.45922">
        <ele>238</ele>
        <time>2017-02-18T11:41:28Z</time>
      </trkpt>
      <trkpt lat="48.48439" lon="7.45908">
        <ele>235</ele>
        <time>2017-02-18T11:41:36Z</time>
      </trkpt>
      <trkpt lat="48.48448" lon="7.45905">
        <ele>235</ele>
        <time>2017-02-18T11:41:38Z</time>
      </trkpt>
      <trkpt lat="48.48458" lon="7.45903">
        <ele>234</ele>
        <time>2017-02-18T11:41:40Z</time>
      </trkpt>
      <trkpt lat="48.48479" lon="7.45901">
        <ele>233</ele>
        <time>2017-02-18T11:41:44Z</time>
      </trkpt>
      <trkpt lat="48.48488" lon="7.45899">
        <ele>233</ele>
        <time>2017-02-18T11:41:46Z</time>
      </trkpt>
      <trkpt lat="48.48492" lon="7.459">
        <ele>232</ele>
        <time>2017-02-18T11:41:47Z</time>
      </trkpt>
      <trkpt lat="48.48495" lon="7.45902">
        <ele>232</ele>
        <time>2017-02-18T11:41:48Z</time>
      </trkpt>
      <trkpt lat="48.48503" lon="7.45934">
        <ele>230</ele>
        <time>2017-02-18T11:41:54Z</time>
      </trkpt>
      <trkpt lat="48.4851" lon="7.45962">
        <ele>230</ele>
        <time>2017-02-18T11:41:59Z</time>
      </trkpt>
      <trkpt lat="48.4851" lon="7.45968">
        <ele>230</ele>
        <time>2017-02-18T11:42:00Z</time>
      </trkpt>
      <trkpt lat="48.48514" lon="7.45986">
        <ele>231</ele>
        <time>2017-02-18T11:42:03Z</time>
      </trkpt>
      <trkpt lat="48.48528" lon="7.46034">
        <ele>232</ele>
        <time>2017-02-18T11:42:11Z</time>
      </trkpt>
      <trkpt lat="48.48535" lon="7.46055">
        <ele>232</ele>
        <time>2017-02-18T11:42:14Z</time>
      </trkpt>
      <trkpt lat="48.48553" lon="7.46118">
        <ele>234</ele>
        <time>2017-02-18T11:42:24Z</time>
      </trkpt>
      <trkpt lat="48.48575" lon="7.46176">
        <ele>234</ele>
        <time>2017-02-18T11:42:33Z</time>
      </trkpt>
      <trkpt lat="48.48581" lon="7.46196">
        <ele>236</ele>
        <time>2017-02-18T11:42:36Z</time>
      </trkpt>
      <trkpt lat="48.48588" lon="7.46214">
        <ele>230</ele>
        <time>2017-02-18T11:42:39Z</time>
      </trkpt>
      <trkpt lat="48.48591" lon="7.46219">
        <ele>230</ele>
        <time>2017-02-18T11:42:40Z</time>
      </trkpt>
      <trkpt lat="48.48609" lon="7.4625">
        <ele>230</ele>
        <time>2017-02-18T11:42:46Z</time>
      </trkpt>
      <trkpt lat="48.48617" lon="7.46266">
        <ele>232</ele>
        <time>2017-02-18T11:42:49Z</time>
      </trkpt>
      <trkpt lat="48.48639" lon="7.46304">
        <ele>232</ele>
        <time>2017-02-18T11:42:56Z</time>
      </trkpt>
      <trkpt lat="48.48669" lon="7.46351">
        <ele>230</ele>
        <time>2017-02-18T11:43:05Z</time>
      </trkpt>
      <trkpt lat="48.48698" lon="7.46386">
        <ele>230</ele>
        <time>2017-02-18T11:43:12Z</time>
      </trkpt>
      <trkpt lat="48.48755" lon="7.46454">
        <ele>227</ele>
        <time>2017-02-18T11:43:27Z</time>
      </trkpt>
      <trkpt lat="48.48794" lon="7.46496">
        <ele>227</ele>
        <time>2017-02-18T11:43:37Z</time>
      </trkpt>
      <trkpt lat="48.48808" lon="7.46515">
        <ele>230</ele>
        <time>2017-02-18T11:43:41Z</time>
      </trkpt>
      <trkpt lat="48.48842" lon="7.4656">
        <ele>228</ele>
        <time>2017-02-18T11:43:51Z</time>
      </trkpt>
      <trkpt lat="48.48859" lon="7.46586">
        <ele>233</ele>
        <time>2017-02-18T11:43:59Z</time>
      </trkpt>
      <trkpt lat="48.4886" lon="7.46588">
        <ele>233</ele>
        <time>2017-02-18T11:44:01Z</time>
      </trkpt>
      <trkpt lat="48.4886" lon="7.46588">
        <ele>233</ele>
        <time>2017-02-18T11:46:36Z</time>
      </trkpt>
      <trkpt lat="48.48866" lon="7.4658">
        <ele>227</ele>
        <time>2017-02-18T11:46:38Z</time>
      </trkpt>
      <trkpt lat="48.48876" lon="7.46569">
        <ele>226</ele>
        <time>2017-02-18T11:46:40Z</time>
      </trkpt>
      <trkpt lat="48.48898" lon="7.46539">
        <ele>224</ele>
        <time>2017-02-18T11:46:44Z</time>
      </trkpt>
      <trkpt lat="48.48934" lon="7.46487">
        <ele>213</ele>
        <time>2017-02-18T11:46:49Z</time>
      </trkpt>
      <trkpt lat="48.48951" lon="7.46463">
        <ele>211</ele>
        <time>2017-02-18T11:46:51Z</time>
      </trkpt>
      <trkpt lat="48.48959" lon="7.46453">
        <ele>211</ele>
        <time>2017-02-18T11:46:52Z</time>
      </trkpt>
      <trkpt lat="48.48969" lon="7.46444">
        <ele>210</ele>
        <time>2017-02-18T11:46:53Z</time>
      </trkpt>
      <trkpt lat="48.49009" lon="7.46414">
        <ele>205</ele>
        <time>2017-02-18T11:46:57Z</time>
      </trkpt>
      <trkpt lat="48.49018" lon="7.46407">
        <ele>204</ele>
        <time>2017-02-18T11:46:58Z</time>
      </trkpt>
      <trkpt lat="48.49027" lon="7.46401">
        <ele>204</ele>
        <time>2017-02-18T11:46:59Z</time>
      </trkpt>
      <trkpt lat="48.49036" lon="7.464">
        <ele>203</ele>
        <time>2017-02-18T11:47:00Z</time>
      </trkpt>
      <trkpt lat="48.49043" lon="7.46405">
        <ele>203</ele>
        <time>2017-02-18T11:47:01Z</time>
      </trkpt>
      <trkpt lat="48.49049" lon="7.46412">
        <ele>203</ele>
        <time>2017-02-18T11:47:02Z</time>
      </trkpt>
      <trkpt lat="48.49072" lon="7.46454">
        <ele>204</ele>
        <time>2017-02-18T11:47:07Z</time>
      </trkpt>
      <trkpt lat="48.49091" lon="7.46503">
        <ele>202</ele>
        <time>2017-02-18T11:47:14Z</time>
      </trkpt>
      <trkpt lat="48.49099" lon="7.46509">
        <ele>201</ele>
        <time>2017-02-18T11:47:16Z</time>
      </trkpt>
      <trkpt lat="48.49103" lon="7.46507">
        <ele>201</ele>
        <time>2017-02-18T11:47:17Z</time>
      </trkpt>
      <trkpt lat="48.49113" lon="7.46498">
        <ele>199</ele>
        <time>2017-02-18T11:47:19Z</time>
      </trkpt>
      <trkpt lat="48.49119" lon="7.46493">
        <ele>199</ele>
        <time>2017-02-18T11:47:20Z</time>
      </trkpt>
      <trkpt lat="48.49127" lon="7.46489">
        <ele>198</ele>
        <time>2017-02-18T11:47:21Z</time>
      </trkpt>
      <trkpt lat="48.49135" lon="7.46485">
        <ele>198</ele>
        <time>2017-02-18T11:47:22Z</time>
      </trkpt>
      <trkpt lat="48.49143" lon="7.46483">
        <ele>198</ele>
        <time>2017-02-18T11:47:23Z</time>
      </trkpt>
      <trkpt lat="48.49152" lon="7.46483">
        <ele>197</ele>
        <time>2017-02-18T11:47:24Z</time>
      </trkpt>
      <trkpt lat="48.4917" lon="7.46485">
        <ele>194</ele>
        <time>2017-02-18T11:47:26Z</time>
      </trkpt>
      <trkpt lat="48.49179" lon="7.46484">
        <ele>194</ele>
        <time>2017-02-18T11:47:27Z</time>
      </trkpt>
      <trkpt lat="48.49188" lon="7.46481">
        <ele>194</ele>
        <time>2017-02-18T11:47:28Z</time>
      </trkpt>
      <trkpt lat="48.49195" lon="7.46477">
        <ele>194</ele>
        <time>2017-02-18T11:47:29Z</time>
      </trkpt>
      <trkpt lat="48.4921" lon="7.46468">
        <ele>193</ele>
        <time>2017-02-18T11:47:32Z</time>
      </trkpt>
      <trkpt lat="48.49225" lon="7.46462">
        <ele>193</ele>
        <time>2017-02-18T11:47:36Z</time>
      </trkpt>
      <trkpt lat="48.49235" lon="7.4646">
        <ele>193</ele>
        <time>2017-02-18T11:47:38Z</time>
      </trkpt>
      <trkpt lat="48.49244" lon="7.4646">
        <ele>193</ele>
        <time>2017-02-18T11:47:40Z</time>
      </trkpt>
      <trkpt lat="48.49255" lon="7.46463">
        <ele>191</ele>
        <time>2017-02-18T11:47:42Z</time>
      </trkpt>
      <trkpt lat="48.49271" lon="7.46473">
        <ele>191</ele>
        <time>2017-02-18T11:47:45Z</time>
      </trkpt>
      <trkpt lat="48.49286" lon="7.46484">
        <ele>191</ele>
        <time>2017-02-18T11:47:48Z</time>
      </trkpt>
      <trkpt lat="48.49314" lon="7.46508">
        <ele>189</ele>
        <time>2017-02-18T11:47:54Z</time>
      </trkpt>
      <trkpt lat="48.49318" lon="7.46511">
        <ele>189</ele>
        <time>2017-02-18T11:47:55Z</time>
      </trkpt>
      <trkpt lat="48.49323" lon="7.46514">
        <ele>189</ele>
        <time>2017-02-18T11:47:56Z</time>
      </trkpt>
      <trkpt lat="48.49336" lon="7.46517">
        <ele>189</ele>
        <time>2017-02-18T11:47:59Z</time>
      </trkpt>
      <trkpt lat="48.4934" lon="7.46519">
        <ele>189</ele>
        <time>2017-02-18T11:48:00Z</time>
      </trkpt>
      <trkpt lat="48.49342" lon="7.46524">
        <ele>190</ele>
        <time>2017-02-18T11:48:01Z</time>
      </trkpt>
      <trkpt lat="48.49343" lon="7.46548">
        <ele>189</ele>
        <time>2017-02-18T11:48:05Z</time>
      </trkpt>
      <trkpt lat="48.49343" lon="7.4658">
        <ele>189</ele>
        <time>2017-02-18T11:48:10Z</time>
      </trkpt>
      <trkpt lat="48.49344" lon="7.46591">
        <ele>189</ele>
        <time>2017-02-18T11:48:12Z</time>
      </trkpt>
      <trkpt lat="48.49348" lon="7.46598">
        <ele>189</ele>
        <time>2017-02-18T11:48:14Z</time>
      </trkpt>
      <trkpt lat="48.49358" lon="7.46611">
        <ele>189</ele>
        <time>2017-02-18T11:48:18Z</time>
      </trkpt>
      <trkpt lat="48.49372" lon="7.46621">
        <ele>189</ele>
        <time>2017-02-18T11:48:22Z</time>
      </trkpt>
      <trkpt lat="48.49383" lon="7.46643">
        <ele>190</ele>
        <time>2017-02-18T11:48:26Z</time>
      </trkpt>
      <trkpt lat="48.49401" lon="7.46664">
        <ele>190</ele>
        <time>2017-02-18T11:48:31Z</time>
      </trkpt>
      <trkpt lat="48.49406" lon="7.46668">
        <ele>190</ele>
        <time>2017-02-18T11:48:32Z</time>
      </trkpt>
      <trkpt lat="48.49424" lon="7.46672">
        <ele>191</ele>
        <time>2017-02-18T11:48:36Z</time>
      </trkpt>
      <trkpt lat="48.49456" lon="7.4667">
        <ele>192</ele>
        <time>2017-02-18T11:48:42Z</time>
      </trkpt>
      <trkpt lat="48.49477" lon="7.46666">
        <ele>194</ele>
        <time>2017-02-18T11:48:47Z</time>
      </trkpt>
      <trkpt lat="48.49507" lon="7.46657">
        <ele>195</ele>
        <time>2017-02-18T11:48:56Z</time>
      </trkpt>
      <trkpt lat="48.49516" lon="7.46652">
        <ele>196</ele>
        <time>2017-02-18T11:48:59Z</time>
      </trkpt>
      <trkpt lat="48.49524" lon="7.46646">
        <ele>196</ele>
        <time>2017-02-18T11:49:02Z</time>
      </trkpt>
      <trkpt lat="48.49538" lon="7.46637">
        <ele>196</ele>
        <time>2017-02-18T11:49:07Z</time>
      </trkpt>
      <trkpt lat="48.49569" lon="7.46629">
        <ele>197</ele>
        <time>2017-02-18T11:49:15Z</time>
      </trkpt>
      <trkpt lat="48.49575" lon="7.46636">
        <ele>197</ele>
        <time>2017-02-18T11:49:17Z</time>
      </trkpt>
      <trkpt lat="48.49579" lon="7.46645">
        <ele>197</ele>
        <time>2017-02-18T11:49:19Z</time>
      </trkpt>
      <trkpt lat="48.49583" lon="7.46654">
        <ele>197</ele>
        <time>2017-02-18T11:49:21Z</time>
      </trkpt>
      <trkpt lat="48.4959" lon="7.46701">
        <ele>197</ele>
        <time>2017-02-18T11:49:29Z</time>
      </trkpt>
      <trkpt lat="48.49601" lon="7.46729">
        <ele>196</ele>
        <time>2017-02-18T11:49:35Z</time>
      </trkpt>
      <trkpt lat="48.49604" lon="7.4673">
        <ele>196</ele>
        <time>2017-02-18T11:49:36Z</time>
      </trkpt>
      <trkpt lat="48.49611" lon="7.46731">
        <ele>197</ele>
        <time>2017-02-18T11:49:39Z</time>
      </trkpt>
      <trkpt lat="48.49624" lon="7.46724">
        <ele>197</ele>
        <time>2017-02-18T11:49:43Z</time>
      </trkpt>
      <trkpt lat="48.49658" lon="7.467">
        <ele>198</ele>
        <time>2017-02-18T11:49:52Z</time>
      </trkpt>
      <trkpt lat="48.49663" lon="7.46696">
        <ele>198</ele>
        <time>2017-02-18T11:49:54Z</time>
      </trkpt>
      <trkpt lat="48.49668" lon="7.46693">
        <ele>199</ele>
        <time>2017-02-18T11:49:56Z</time>
      </trkpt>
      <trkpt lat="48.49673" lon="7.46689">
        <ele>199</ele>
        <time>2017-02-18T11:49:58Z</time>
      </trkpt>
      <trkpt lat="48.49709" lon="7.46667">
        <ele>199</ele>
        <time>2017-02-18T11:50:10Z</time>
      </trkpt>
      <trkpt lat="48.49717" lon="7.46661">
        <ele>199</ele>
        <time>2017-02-18T11:50:13Z</time>
      </trkpt>
      <trkpt lat="48.49744" lon="7.46644">
        <ele>199</ele>
        <time>2017-02-18T11:50:22Z</time>
      </trkpt>
      <trkpt lat="48.49746" lon="7.46644">
        <ele>199</ele>
        <time>2017-02-18T11:50:23Z</time>
      </trkpt>
      <trkpt lat="48.49747" lon="7.46645">
        <ele>199</ele>
        <time>2017-02-18T11:50:24Z</time>
      </trkpt>
      <trkpt lat="48.4975" lon="7.46651">
        <ele>200</ele>
        <time>2017-02-18T11:50:26Z</time>
      </trkpt>
      <trkpt lat="48.4976" lon="7.46679">
        <ele>199</ele>
        <time>2017-02-18T11:50:32Z</time>
      </trkpt>
      <trkpt lat="48.49773" lon="7.46721">
        <ele>200</ele>
        <time>2017-02-18T11:50:40Z</time>
      </trkpt>
      <trkpt lat="48.49787" lon="7.4677">
        <ele>199</ele>
        <time>2017-02-18T11:50:48Z</time>
      </trkpt>
      <trkpt lat="48.49805" lon="7.46843">
        <ele>198</ele>
        <time>2017-02-18T11:50:58Z</time>
      </trkpt>
      <trkpt lat="48.49819" lon="7.46895">
        <ele>198</ele>
        <time>2017-02-18T11:51:05Z</time>
      </trkpt>
      <trkpt lat="48.49829" lon="7.46926">
        <ele>198</ele>
        <time>2017-02-18T11:51:09Z</time>
      </trkpt>
      <trkpt lat="48.49842" lon="7.46969">
        <ele>198</ele>
        <time>2017-02-18T11:51:16Z</time>
      </trkpt>
      <trkpt lat="48.4985" lon="7.46994">
        <ele>197</ele>
        <time>2017-02-18T11:51:20Z</time>
      </trkpt>
      <trkpt lat="48.49859" lon="7.47011">
        <ele>197</ele>
        <time>2017-02-18T11:51:23Z</time>
      </trkpt>
      <trkpt lat="48.49869" lon="7.47026">
        <ele>196</ele>
        <time>2017-02-18T11:51:26Z</time>
      </trkpt>
      <trkpt lat="48.4988" lon="7.47038">
        <ele>196</ele>
        <time>2017-02-18T11:51:29Z</time>
      </trkpt>
      <trkpt lat="48.49895" lon="7.47053">
        <ele>196</ele>
        <time>2017-02-18T11:51:33Z</time>
      </trkpt>
      <trkpt lat="48.49908" lon="7.47086">
        <ele>195</ele>
        <time>2017-02-18T11:51:38Z</time>
      </trkpt>
      <trkpt lat="48.49918" lon="7.47105">
        <ele>195</ele>
        <time>2017-02-18T11:51:41Z</time>
      </trkpt>
      <trkpt lat="48.49939" lon="7.47152">
        <ele>195</ele>
        <time>2017-02-18T11:51:48Z</time>
      </trkpt>
      <trkpt lat="48.49949" lon="7.47171">
        <ele>194</ele>
        <time>2017-02-18T11:51:51Z</time>
      </trkpt>
      <trkpt lat="48.49952" lon="7.47178">
        <ele>193</ele>
        <time>2017-02-18T11:51:52Z</time>
      </trkpt>
      <trkpt lat="48.49982" lon="7.47235">
        <ele>192</ele>
        <time>2017-02-18T11:52:01Z</time>
      </trkpt>
      <trkpt lat="48.50003" lon="7.47288">
        <ele>191</ele>
        <time>2017-02-18T11:52:09Z</time>
      </trkpt>
      <trkpt lat="48.50012" lon="7.47311">
        <ele>191</ele>
        <time>2017-02-18T11:52:12Z</time>
      </trkpt>
      <trkpt lat="48.50022" lon="7.47336">
        <ele>190</ele>
        <time>2017-02-18T11:52:15Z</time>
      </trkpt>
      <trkpt lat="48.50031" lon="7.47361">
        <ele>189</ele>
        <time>2017-02-18T11:52:18Z</time>
      </trkpt>
      <trkpt lat="48.50041" lon="7.47392">
        <ele>189</ele>
        <time>2017-02-18T11:52:22Z</time>
      </trkpt>
      <trkpt lat="48.50064" lon="7.47453">
        <ele>187</ele>
        <time>2017-02-18T11:52:32Z</time>
      </trkpt>
      <trkpt lat="48.50063" lon="7.47464">
        <ele>187</ele>
        <time>2017-02-18T11:52:36Z</time>
      </trkpt>
      <trkpt lat="48.50061" lon="7.47464">
        <ele>187</ele>
        <time>2017-02-18T11:52:37Z</time>
      </trkpt>
    </trkseg>
  </trk>
</gpx>